<?xml version='1.0' encoding='UTF-8'?><gpx version="1.1" creator="JPX - https://github.com/jenetics/jpx" xmlns="http://www.topografix.com/GPX/1/1"><trk><trkseg><trkpt lat="42.0202487" lon="12.423966"><ele>102.99999999999999</ele><time>2026-04-04T07:00:02.16Z</time></trkpt><trkpt lat="42.0202338" lon="12.4238813"><ele>103.0</ele><time>2026-04-04T07:00:32.16Z</time></trkpt><trkpt lat="42.0202812" lon="12.4238017"><ele>103.0</ele><time>2026-04-04T07:02:30.16Z</time></trkpt><trkpt lat="42.0202946" lon="12.4237125"><ele>103.0</ele><time>2026-04-04T07:02:39.16Z</time></trkpt><trkpt lat="42.0202608" lon="12.4236393"><ele>103.0</ele><time>2026-04-04T07:03:09.16Z</time></trkpt><trkpt lat="42.0202593" lon="12.4237327"><ele>102.99999999999999</ele><time>2026-04-04T07:03:16.16Z</time></trkpt><trkpt lat="42.0202374" lon="12.4238198"><ele>103.0</ele><time>2026-04-04T07:03:21.16Z</time></trkpt><trkpt lat="42.0202712" lon="12.4237346"><ele>103.28571428571428</ele><time>2026-04-04T07:04:16.16Z</time></trkpt><trkpt lat="42.0203272" lon="12.423671"><ele>103.57142857142857</ele><time>2026-04-04T07:04:23.16Z</time></trkpt><trkpt lat="42.0203785" lon="12.4235959"><ele>103.85714285714286</ele><time>2026-04-04T07:04:28.159Z</time></trkpt><trkpt lat="42.0204208" lon="12.423506"><ele>104.14285714285714</ele><time>2026-04-04T07:04:32.16Z</time></trkpt><trkpt lat="42.0204582" lon="12.4234246"><ele>104.42857142857143</ele><time>2026-04-04T07:04:36.161Z</time></trkpt><trkpt lat="42.0204877" lon="12.4233389"><ele>104.71428571428571</ele><time>2026-04-04T07:04:41.16Z</time></trkpt><trkpt lat="42.0204632" lon="12.4234191"><ele>105.0</ele><time>2026-04-04T07:05:03.161Z</time></trkpt><trkpt lat="42.0204217" lon="12.4235033"><ele>105.0</ele><time>2026-04-04T07:05:05.16Z</time></trkpt><trkpt lat="42.0203812" lon="12.4235942"><ele>105.0</ele><time>2026-04-04T07:05:07.16Z</time></trkpt><trkpt lat="42.0203347" lon="12.4236521"><ele>105.0</ele><time>2026-04-04T07:05:11.161Z</time></trkpt><trkpt lat="42.0202236" lon="12.4237699"><ele>105.0</ele><time>2026-04-04T07:07:04.16Z</time></trkpt><trkpt lat="42.0202634" lon="12.4236789"><ele>105.0</ele><time>2026-04-04T07:07:11.161Z</time></trkpt><trkpt lat="42.0203165" lon="12.4235957"><ele>105.0</ele><time>2026-04-04T07:07:15.161Z</time></trkpt><trkpt lat="42.020365" lon="12.4235078"><ele>105.0</ele><time>2026-04-04T07:07:19.16Z</time></trkpt><trkpt lat="42.0204074" lon="12.4234391"><ele>105.0</ele><time>2026-04-04T07:07:22.161Z</time></trkpt><trkpt lat="42.0204624" lon="12.4233693"><ele>105.0</ele><time>2026-04-04T07:07:25.16Z</time></trkpt><trkpt lat="42.0205225" lon="12.4233079"><ele>105.0</ele><time>2026-04-04T07:07:28.16Z</time></trkpt><trkpt lat="42.0205688" lon="12.4232151"><ele>105.0</ele><time>2026-04-04T07:07:31.16Z</time></trkpt><trkpt lat="42.0206057" lon="12.4231043"><ele>105.0</ele><time>2026-04-04T07:07:34.161Z</time></trkpt><trkpt lat="42.0206404" lon="12.42301"><ele>105.33333333333333</ele><time>2026-04-04T07:07:37.161Z</time></trkpt><trkpt lat="42.0206804" lon="12.4229316"><ele>105.66666666666666</ele><time>2026-04-04T07:07:40.16Z</time></trkpt><trkpt lat="42.0207331" lon="12.4228391"><ele>106.0</ele><time>2026-04-04T07:07:43.161Z</time></trkpt><trkpt lat="42.0207944" lon="12.4227472"><ele>106.33333333333333</ele><time>2026-04-04T07:07:46.16Z</time></trkpt><trkpt lat="42.0208401" lon="12.422662"><ele>106.66666666666666</ele><time>2026-04-04T07:07:49.16Z</time></trkpt><trkpt lat="42.02089" lon="12.42258"><ele>107.0</ele><time>2026-04-04T07:07:52.16Z</time></trkpt><trkpt lat="42.0209494" lon="12.4224988"><ele>106.66666666666666</ele><time>2026-04-04T07:07:55.16Z</time></trkpt><trkpt lat="42.0209989" lon="12.4224072"><ele>106.33333333333333</ele><time>2026-04-04T07:07:58.161Z</time></trkpt><trkpt lat="42.0210399" lon="12.4223426"><ele>106.0</ele><time>2026-04-04T07:08:00.16Z</time></trkpt><trkpt lat="42.0210876" lon="12.4222675"><ele>105.66666666666666</ele><time>2026-04-04T07:08:02.16Z</time></trkpt><trkpt lat="42.0211421" lon="12.4221886"><ele>105.33333333333333</ele><time>2026-04-04T07:08:04.161Z</time></trkpt><trkpt lat="42.0211977" lon="12.4221012"><ele>105.0</ele><time>2026-04-04T07:08:06.16Z</time></trkpt><trkpt lat="42.0212575" lon="12.4220069"><ele>105.0</ele><time>2026-04-04T07:08:08.16Z</time></trkpt><trkpt lat="42.0213206" lon="12.4219076"><ele>105.0</ele><time>2026-04-04T07:08:10.16Z</time></trkpt><trkpt lat="42.0213877" lon="12.421803"><ele>105.0</ele><time>2026-04-04T07:08:12.161Z</time></trkpt><trkpt lat="42.0214592" lon="12.4216979"><ele>105.0</ele><time>2026-04-04T07:08:14.16Z</time></trkpt><trkpt lat="42.0215367" lon="12.4215954"><ele>105.0</ele><time>2026-04-04T07:08:16.161Z</time></trkpt><trkpt lat="42.0216095" lon="12.4214915"><ele>105.5</ele><time>2026-04-04T07:08:18.16Z</time></trkpt><trkpt lat="42.0216736" lon="12.4213938"><ele>106.0</ele><time>2026-04-04T07:08:20.16Z</time></trkpt><trkpt lat="42.0217374" lon="12.4212953"><ele>106.5</ele><time>2026-04-04T07:08:22.161Z</time></trkpt><trkpt lat="42.0218032" lon="12.4211959"><ele>107.0</ele><time>2026-04-04T07:08:24.161Z</time></trkpt><trkpt lat="42.0218596" lon="12.4211155"><ele>107.5</ele><time>2026-04-04T07:08:26.16Z</time></trkpt><trkpt lat="42.0219051" lon="12.4210373"><ele>108.0</ele><time>2026-04-04T07:08:28.161Z</time></trkpt><trkpt lat="42.0219432" lon="12.4209467"><ele>108.0</ele><time>2026-04-04T07:08:30.161Z</time></trkpt><trkpt lat="42.0219641" lon="12.4208506"><ele>108.0</ele><time>2026-04-04T07:08:32.16Z</time></trkpt><trkpt lat="42.0219474" lon="12.4207391"><ele>108.0</ele><time>2026-04-04T07:08:35.16Z</time></trkpt><trkpt lat="42.0219253" lon="12.4206449"><ele>108.0</ele><time>2026-04-04T07:08:38.16Z</time></trkpt><trkpt lat="42.0218979" lon="12.4205332"><ele>108.0</ele><time>2026-04-04T07:08:41.16Z</time></trkpt><trkpt lat="42.0218812" lon="12.4204493"><ele>108.0</ele><time>2026-04-04T07:08:43.16Z</time></trkpt><trkpt lat="42.0218666" lon="12.4203638"><ele>108.0</ele><time>2026-04-04T07:08:45.16Z</time></trkpt><trkpt lat="42.0218522" lon="12.4202744"><ele>108.16666666666667</ele><time>2026-04-04T07:08:47.161Z</time></trkpt><trkpt lat="42.0218429" lon="12.4201847"><ele>108.33333333333334</ele><time>2026-04-04T07:08:49.16Z</time></trkpt><trkpt lat="42.0218344" lon="12.4200915"><ele>108.5</ele><time>2026-04-04T07:08:51.161Z</time></trkpt><trkpt lat="42.0218289" lon="12.4200053"><ele>108.66666666666667</ele><time>2026-04-04T07:08:53.161Z</time></trkpt><trkpt lat="42.0218295" lon="12.4198846"><ele>108.83333333333334</ele><time>2026-04-04T07:08:56.16Z</time></trkpt><trkpt lat="42.0218257" lon="12.4197808"><ele>109.0</ele><time>2026-04-04T07:08:59.16Z</time></trkpt><trkpt lat="42.0218454" lon="12.4196547"><ele>109.83333333333334</ele><time>2026-04-04T07:09:02.161Z</time></trkpt><trkpt lat="42.0218633" lon="12.4195535"><ele>110.66666666666667</ele><time>2026-04-04T07:09:04.161Z</time></trkpt><trkpt lat="42.0218918" lon="12.4194569"><ele>111.5</ele><time>2026-04-04T07:09:06.161Z</time></trkpt><trkpt lat="42.0219144" lon="12.4193604"><ele>112.33333333333334</ele><time>2026-04-04T07:09:08.16Z</time></trkpt><trkpt lat="42.021938" lon="12.4192818"><ele>113.16666666666667</ele><time>2026-04-04T07:09:10.161Z</time></trkpt><trkpt lat="42.021963" lon="12.4191853"><ele>114.0</ele><time>2026-04-04T07:09:12.161Z</time></trkpt><trkpt lat="42.0219865" lon="12.419078"><ele>114.0</ele><time>2026-04-04T07:09:14.16Z</time></trkpt><trkpt lat="42.0220053" lon="12.4189586"><ele>114.0</ele><time>2026-04-04T07:09:16.161Z</time></trkpt><trkpt lat="42.0220404" lon="12.4188242"><ele>114.0</ele><time>2026-04-04T07:09:18.16Z</time></trkpt><trkpt lat="42.0220887" lon="12.4186732"><ele>114.0</ele><time>2026-04-04T07:09:20.161Z</time></trkpt><trkpt lat="42.0221199" lon="12.4185228"><ele>114.0</ele><time>2026-04-04T07:09:22.16Z</time></trkpt><trkpt lat="42.0221423" lon="12.418385"><ele>113.4</ele><time>2026-04-04T07:09:24.161Z</time></trkpt><trkpt lat="42.0221719" lon="12.4182669"><ele>112.80000000000001</ele><time>2026-04-04T07:09:26.16Z</time></trkpt><trkpt lat="42.0222063" lon="12.4181553"><ele>112.19999999999999</ele><time>2026-04-04T07:09:28.16Z</time></trkpt><trkpt lat="42.0222519" lon="12.4180433"><ele>111.6</ele><time>2026-04-04T07:09:30.16Z</time></trkpt><trkpt lat="42.0223038" lon="12.417931"><ele>111.0</ele><time>2026-04-04T07:09:32.16Z</time></trkpt><trkpt lat="42.0223591" lon="12.4178254"><ele>109.6</ele><time>2026-04-04T07:09:34.16Z</time></trkpt><trkpt lat="42.0224161" lon="12.4177428"><ele>108.19999999999999</ele><time>2026-04-04T07:09:36.161Z</time></trkpt><trkpt lat="42.0224738" lon="12.4176526"><ele>106.80000000000001</ele><time>2026-04-04T07:09:38.161Z</time></trkpt><trkpt lat="42.0225312" lon="12.4175478"><ele>105.4</ele><time>2026-04-04T07:09:40.16Z</time></trkpt><trkpt lat="42.0225786" lon="12.4174198"><ele>104.0</ele><time>2026-04-04T07:09:42.161Z</time></trkpt><trkpt lat="42.0225952" lon="12.4173053"><ele>104.0</ele><time>2026-04-04T07:09:44.16Z</time></trkpt><trkpt lat="42.0225876" lon="12.417171"><ele>104.0</ele><time>2026-04-04T07:09:46.161Z</time></trkpt><trkpt lat="42.0225595" lon="12.4170334"><ele>104.0</ele><time>2026-04-04T07:09:48.161Z</time></trkpt><trkpt lat="42.0225279" lon="12.4169068"><ele>104.0</ele><time>2026-04-04T07:09:50.16Z</time></trkpt><trkpt lat="42.0225003" lon="12.416787"><ele>104.0</ele><time>2026-04-04T07:09:52.161Z</time></trkpt><trkpt lat="42.0224745" lon="12.4166673"><ele>104.16666666666666</ele><time>2026-04-04T07:09:54.161Z</time></trkpt><trkpt lat="42.0224514" lon="12.4165551"><ele>104.33333333333333</ele><time>2026-04-04T07:09:56.16Z</time></trkpt><trkpt lat="42.0224315" lon="12.4164474"><ele>104.5</ele><time>2026-04-04T07:09:58.16Z</time></trkpt><trkpt lat="42.0224066" lon="12.4163345"><ele>104.66666666666666</ele><time>2026-04-04T07:10:00.16Z</time></trkpt><trkpt lat="42.0223834" lon="12.4162285"><ele>104.83333333333333</ele><time>2026-04-04T07:10:02.16Z</time></trkpt><trkpt lat="42.022365" lon="12.4161167"><ele>105.0</ele><time>2026-04-04T07:10:04.16Z</time></trkpt><trkpt lat="42.0223454" lon="12.4160142"><ele>105.0</ele><time>2026-04-04T07:10:06.161Z</time></trkpt><trkpt lat="42.0223259" lon="12.4159102"><ele>105.0</ele><time>2026-04-04T07:10:08.161Z</time></trkpt><trkpt lat="42.0223071" lon="12.4158056"><ele>105.0</ele><time>2026-04-04T07:10:10.161Z</time></trkpt><trkpt lat="42.0222872" lon="12.4157098"><ele>105.0</ele><time>2026-04-04T07:10:12.161Z</time></trkpt><trkpt lat="42.0222651" lon="12.4156114"><ele>105.0</ele><time>2026-04-04T07:10:14.16Z</time></trkpt><trkpt lat="42.022246" lon="12.4155196"><ele>105.0</ele><time>2026-04-04T07:10:16.161Z</time></trkpt><trkpt lat="42.0222318" lon="12.4154149"><ele>106.16666666666667</ele><time>2026-04-04T07:10:18.16Z</time></trkpt><trkpt lat="42.0222139" lon="12.4153033"><ele>107.33333333333334</ele><time>2026-04-04T07:10:20.16Z</time></trkpt><trkpt lat="42.0221999" lon="12.4151945"><ele>108.5</ele><time>2026-04-04T07:10:22.161Z</time></trkpt><trkpt lat="42.0221775" lon="12.4150973"><ele>109.66666666666667</ele><time>2026-04-04T07:10:24.16Z</time></trkpt><trkpt lat="42.0221445" lon="12.4149857"><ele>110.83333333333334</ele><time>2026-04-04T07:10:27.161Z</time></trkpt><trkpt lat="42.0221112" lon="12.4148874"><ele>112.0</ele><time>2026-04-04T07:10:30.16Z</time></trkpt><trkpt lat="42.0220854" lon="12.4147886"><ele>112.00000000000001</ele><time>2026-04-04T07:10:33.16Z</time></trkpt><trkpt lat="42.0220697" lon="12.4146872"><ele>112.0</ele><time>2026-04-04T07:10:36.16Z</time></trkpt><trkpt lat="42.022052" lon="12.4145791"><ele>112.0</ele><time>2026-04-04T07:10:39.16Z</time></trkpt><trkpt lat="42.0220328" lon="12.4144822"><ele>112.0</ele><time>2026-04-04T07:10:42.16Z</time></trkpt><trkpt lat="42.0220074" lon="12.4143937"><ele>112.00000000000001</ele><time>2026-04-04T07:10:45.161Z</time></trkpt><trkpt lat="42.0219929" lon="12.4142854"><ele>112.0</ele><time>2026-04-04T07:10:49.161Z</time></trkpt><trkpt lat="42.0219577" lon="12.4142103"><ele>112.16666666666667</ele><time>2026-04-04T07:10:53.161Z</time></trkpt><trkpt lat="42.0218769" lon="12.4141566"><ele>112.33333333333334</ele><time>2026-04-04T07:10:56.161Z</time></trkpt><trkpt lat="42.0218067" lon="12.4141218"><ele>112.5</ele><time>2026-04-04T07:10:58.161Z</time></trkpt><trkpt lat="42.0217346" lon="12.4140879"><ele>112.66666666666666</ele><time>2026-04-04T07:11:00.16Z</time></trkpt><trkpt lat="42.0216706" lon="12.4140768"><ele>112.83333333333333</ele><time>2026-04-04T07:11:02.161Z</time></trkpt><trkpt lat="42.0215786" lon="12.4140532"><ele>113.0</ele><time>2026-04-04T07:11:05.16Z</time></trkpt><trkpt lat="42.0215057" lon="12.414037"><ele>113.0</ele><time>2026-04-04T07:11:07.16Z</time></trkpt><trkpt lat="42.0214389" lon="12.4140227"><ele>113.0</ele><time>2026-04-04T07:11:09.16Z</time></trkpt><trkpt lat="42.0213727" lon="12.414007"><ele>113.0</ele><time>2026-04-04T07:11:11.16Z</time></trkpt><trkpt lat="42.0212979" lon="12.4139884"><ele>113.0</ele><time>2026-04-04T07:11:13.16Z</time></trkpt><trkpt lat="42.0212274" lon="12.4139709"><ele>113.0</ele><time>2026-04-04T07:11:15.16Z</time></trkpt><trkpt lat="42.0211603" lon="12.4139543"><ele>113.0</ele><time>2026-04-04T07:11:17.16Z</time></trkpt><trkpt lat="42.0210873" lon="12.4139483"><ele>113.0</ele><time>2026-04-04T07:11:19.161Z</time></trkpt><trkpt lat="42.0210166" lon="12.4139378"><ele>112.99999999999999</ele><time>2026-04-04T07:11:21.16Z</time></trkpt><trkpt lat="42.0209441" lon="12.4139227"><ele>113.0</ele><time>2026-04-04T07:11:23.16Z</time></trkpt><trkpt lat="42.0208685" lon="12.4139064"><ele>113.0</ele><time>2026-04-04T07:11:25.161Z</time></trkpt><trkpt lat="42.0207813" lon="12.4138852"><ele>113.0</ele><time>2026-04-04T07:11:27.161Z</time></trkpt><trkpt lat="42.0207054" lon="12.4138627"><ele>112.99999999999999</ele><time>2026-04-04T07:11:29.16Z</time></trkpt><trkpt lat="42.0206351" lon="12.4138438"><ele>113.0</ele><time>2026-04-04T07:11:31.161Z</time></trkpt><trkpt lat="42.0205543" lon="12.4138335"><ele>112.66666666666666</ele><time>2026-04-04T07:11:33.161Z</time></trkpt><trkpt lat="42.0204723" lon="12.4138174"><ele>112.33333333333333</ele><time>2026-04-04T07:11:35.16Z</time></trkpt><trkpt lat="42.0204002" lon="12.4138007"><ele>112.0</ele><time>2026-04-04T07:11:37.161Z</time></trkpt><trkpt lat="42.0203289" lon="12.413784"><ele>111.66666666666666</ele><time>2026-04-04T07:11:39.161Z</time></trkpt><trkpt lat="42.0202504" lon="12.4137721"><ele>111.33333333333333</ele><time>2026-04-04T07:11:41.162Z</time></trkpt><trkpt lat="42.020173" lon="12.4137563"><ele>111.0</ele><time>2026-04-04T07:11:43.162Z</time></trkpt><trkpt lat="42.0200856" lon="12.4137285"><ele>111.0</ele><time>2026-04-04T07:11:45.162Z</time></trkpt><trkpt lat="42.0200018" lon="12.4137039"><ele>111.0</ele><time>2026-04-04T07:11:47.161Z</time></trkpt><trkpt lat="42.0199249" lon="12.4136822"><ele>111.0</ele><time>2026-04-04T07:11:49.162Z</time></trkpt><trkpt lat="42.0198445" lon="12.413666"><ele>111.0</ele><time>2026-04-04T07:11:51.161Z</time></trkpt><trkpt lat="42.0197524" lon="12.4136538"><ele>111.0</ele><time>2026-04-04T07:11:53.162Z</time></trkpt><trkpt lat="42.0196591" lon="12.4136332"><ele>111.0</ele><time>2026-04-04T07:11:55.161Z</time></trkpt><trkpt lat="42.0195645" lon="12.4136161"><ele>111.0</ele><time>2026-04-04T07:11:57.162Z</time></trkpt><trkpt lat="42.0194763" lon="12.413594"><ele>111.0</ele><time>2026-04-04T07:11:59.162Z</time></trkpt><trkpt lat="42.0193886" lon="12.4135746"><ele>111.0</ele><time>2026-04-04T07:12:01.161Z</time></trkpt><trkpt lat="42.0193044" lon="12.4135497"><ele>111.0</ele><time>2026-04-04T07:12:03.161Z</time></trkpt><trkpt lat="42.0192225" lon="12.4135265"><ele>111.0</ele><time>2026-04-04T07:12:05.161Z</time></trkpt><trkpt lat="42.0191422" lon="12.4135091"><ele>111.0</ele><time>2026-04-04T07:12:07.161Z</time></trkpt><trkpt lat="42.0190607" lon="12.4134965"><ele>110.66666666666667</ele><time>2026-04-04T07:12:09.161Z</time></trkpt><trkpt lat="42.0189786" lon="12.4134863"><ele>110.33333333333334</ele><time>2026-04-04T07:12:11.162Z</time></trkpt><trkpt lat="42.0189008" lon="12.4134661"><ele>110.0</ele><time>2026-04-04T07:12:13.162Z</time></trkpt><trkpt lat="42.0188149" lon="12.413462"><ele>109.66666666666667</ele><time>2026-04-04T07:12:15.162Z</time></trkpt><trkpt lat="42.0187244" lon="12.4134575"><ele>109.33333333333334</ele><time>2026-04-04T07:12:17.162Z</time></trkpt><trkpt lat="42.0186398" lon="12.4134633"><ele>109.0</ele><time>2026-04-04T07:12:19.161Z</time></trkpt><trkpt lat="42.0185517" lon="12.4134699"><ele>109.0</ele><time>2026-04-04T07:12:21.161Z</time></trkpt><trkpt lat="42.0184538" lon="12.4134858"><ele>109.0</ele><time>2026-04-04T07:12:23.161Z</time></trkpt><trkpt lat="42.0183458" lon="12.4135071"><ele>109.0</ele><time>2026-04-04T07:12:25.161Z</time></trkpt><trkpt lat="42.0182177" lon="12.4135319"><ele>109.0</ele><time>2026-04-04T07:12:27.162Z</time></trkpt><trkpt lat="42.0181455" lon="12.4135501"><ele>109.0</ele><time>2026-04-04T07:12:28.161Z</time></trkpt><trkpt lat="42.0180736" lon="12.4135653"><ele>108.85714285714286</ele><time>2026-04-04T07:12:29.161Z</time></trkpt><trkpt lat="42.0179996" lon="12.413579"><ele>108.71428571428572</ele><time>2026-04-04T07:12:30.161Z</time></trkpt><trkpt lat="42.0179242" lon="12.4135925"><ele>108.57142857142857</ele><time>2026-04-04T07:12:31.162Z</time></trkpt><trkpt lat="42.01785" lon="12.4136067"><ele>108.42857142857143</ele><time>2026-04-04T07:12:32.162Z</time></trkpt><trkpt lat="42.0177778" lon="12.4136223"><ele>108.28571428571428</ele><time>2026-04-04T07:12:33.162Z</time></trkpt><trkpt lat="42.0177028" lon="12.4136328"><ele>108.14285714285714</ele><time>2026-04-04T07:12:34.161Z</time></trkpt><trkpt lat="42.0176331" lon="12.4136489"><ele>108.0</ele><time>2026-04-04T07:12:35.162Z</time></trkpt><trkpt lat="42.0175161" lon="12.4136657"><ele>106.80000000000001</ele><time>2026-04-04T07:12:37.162Z</time></trkpt><trkpt lat="42.0174005" lon="12.413679"><ele>105.60000000000001</ele><time>2026-04-04T07:12:39.162Z</time></trkpt><trkpt lat="42.0172848" lon="12.4136792"><ele>104.4</ele><time>2026-04-04T07:12:41.161Z</time></trkpt><trkpt lat="42.0171842" lon="12.4136709"><ele>103.19999999999999</ele><time>2026-04-04T07:12:43.161Z</time></trkpt><trkpt lat="42.017079" lon="12.413688"><ele>102.0</ele><time>2026-04-04T07:12:45.162Z</time></trkpt><trkpt lat="42.0169841" lon="12.4137281"><ele>102.0</ele><time>2026-04-04T07:12:47.161Z</time></trkpt><trkpt lat="42.0168861" lon="12.4137841"><ele>102.0</ele><time>2026-04-04T07:12:49.162Z</time></trkpt><trkpt lat="42.0167858" lon="12.4138507"><ele>102.0</ele><time>2026-04-04T07:12:51.161Z</time></trkpt><trkpt lat="42.0167287" lon="12.4138915"><ele>102.0</ele><time>2026-04-04T07:12:52.161Z</time></trkpt><trkpt lat="42.0166253" lon="12.413977"><ele>102.0</ele><time>2026-04-04T07:12:54.161Z</time></trkpt><trkpt lat="42.0165168" lon="12.4140411"><ele>102.16666666666667</ele><time>2026-04-04T07:12:56.162Z</time></trkpt><trkpt lat="42.0164177" lon="12.4140716"><ele>102.33333333333334</ele><time>2026-04-04T07:12:58.161Z</time></trkpt><trkpt lat="42.0163297" lon="12.4140324"><ele>102.5</ele><time>2026-04-04T07:13:00.161Z</time></trkpt><trkpt lat="42.0162888" lon="12.4138985"><ele>102.66666666666667</ele><time>2026-04-04T07:13:02.161Z</time></trkpt><trkpt lat="42.0162771" lon="12.4138124"><ele>102.83333333333334</ele><time>2026-04-04T07:13:03.161Z</time></trkpt><trkpt lat="42.0162667" lon="12.4137164"><ele>103.0</ele><time>2026-04-04T07:13:04.161Z</time></trkpt><trkpt lat="42.0162546" lon="12.4136203"><ele>102.16666666666667</ele><time>2026-04-04T07:13:05.161Z</time></trkpt><trkpt lat="42.0162355" lon="12.4135199"><ele>101.33333333333334</ele><time>2026-04-04T07:13:06.162Z</time></trkpt><trkpt lat="42.0162116" lon="12.4134174"><ele>100.5</ele><time>2026-04-04T07:13:07.161Z</time></trkpt><trkpt lat="42.0161837" lon="12.4133145"><ele>99.66666666666666</ele><time>2026-04-04T07:13:08.162Z</time></trkpt><trkpt lat="42.0161501" lon="12.413216"><ele>98.83333333333333</ele><time>2026-04-04T07:13:09.161Z</time></trkpt><trkpt lat="42.0161199" lon="12.4131319"><ele>98.0</ele><time>2026-04-04T07:13:10.162Z</time></trkpt><trkpt lat="42.0160857" lon="12.4130582"><ele>97.99999999999999</ele><time>2026-04-04T07:13:11.161Z</time></trkpt><trkpt lat="42.0160464" lon="12.412991"><ele>98.0</ele><time>2026-04-04T07:13:12.161Z</time></trkpt><trkpt lat="42.0159437" lon="12.4128912"><ele>98.0</ele><time>2026-04-04T07:13:14.161Z</time></trkpt><trkpt lat="42.0158821" lon="12.4128418"><ele>98.0</ele><time>2026-04-04T07:13:15.161Z</time></trkpt><trkpt lat="42.0158221" lon="12.4127878"><ele>97.99999999999999</ele><time>2026-04-04T07:13:16.161Z</time></trkpt><trkpt lat="42.0157628" lon="12.4127408"><ele>98.0</ele><time>2026-04-04T07:13:17.161Z</time></trkpt><trkpt lat="42.0156964" lon="12.4126904"><ele>96.33333333333333</ele><time>2026-04-04T07:13:18.162Z</time></trkpt><trkpt lat="42.0156267" lon="12.4126427"><ele>94.66666666666666</ele><time>2026-04-04T07:13:19.162Z</time></trkpt><trkpt lat="42.0155622" lon="12.4125885"><ele>93.0</ele><time>2026-04-04T07:13:20.162Z</time></trkpt><trkpt lat="42.0154952" lon="12.4125351"><ele>91.33333333333333</ele><time>2026-04-04T07:13:21.161Z</time></trkpt><trkpt lat="42.0154305" lon="12.4124843"><ele>89.66666666666666</ele><time>2026-04-04T07:13:22.162Z</time></trkpt><trkpt lat="42.0153645" lon="12.4124319"><ele>88.0</ele><time>2026-04-04T07:13:23.162Z</time></trkpt><trkpt lat="42.0153095" lon="12.4123804"><ele>88.0</ele><time>2026-04-04T07:13:24.161Z</time></trkpt><trkpt lat="42.0152552" lon="12.412334"><ele>88.0</ele><time>2026-04-04T07:13:25.161Z</time></trkpt><trkpt lat="42.0151993" lon="12.4122886"><ele>88.0</ele><time>2026-04-04T07:13:26.161Z</time></trkpt><trkpt lat="42.015143" lon="12.4122409"><ele>88.0</ele><time>2026-04-04T07:13:27.161Z</time></trkpt><trkpt lat="42.0150857" lon="12.4121875"><ele>88.0</ele><time>2026-04-04T07:13:28.162Z</time></trkpt><trkpt lat="42.0150342" lon="12.4121374"><ele>88.0</ele><time>2026-04-04T07:13:29.161Z</time></trkpt><trkpt lat="42.0149428" lon="12.412034"><ele>88.0</ele><time>2026-04-04T07:13:31.161Z</time></trkpt><trkpt lat="42.0148834" lon="12.4119272"><ele>86.66666666666666</ele><time>2026-04-04T07:13:33.161Z</time></trkpt><trkpt lat="42.0148754" lon="12.4118167"><ele>85.33333333333333</ele><time>2026-04-04T07:13:35.162Z</time></trkpt><trkpt lat="42.0148979" lon="12.4117099"><ele>84.0</ele><time>2026-04-04T07:13:37.161Z</time></trkpt><trkpt lat="42.0149389" lon="12.4116076"><ele>82.66666666666667</ele><time>2026-04-04T07:13:39.161Z</time></trkpt><trkpt lat="42.0149829" lon="12.4114984"><ele>81.33333333333334</ele><time>2026-04-04T07:13:41.162Z</time></trkpt><trkpt lat="42.0150207" lon="12.4113924"><ele>80.0</ele><time>2026-04-04T07:13:43.161Z</time></trkpt><trkpt lat="42.0150721" lon="12.4112933"><ele>78.16666666666667</ele><time>2026-04-04T07:13:45.161Z</time></trkpt><trkpt lat="42.0151188" lon="12.4111969"><ele>76.33333333333334</ele><time>2026-04-04T07:13:47.161Z</time></trkpt><trkpt lat="42.0151654" lon="12.4110979"><ele>74.5</ele><time>2026-04-04T07:13:49.161Z</time></trkpt><trkpt lat="42.0151882" lon="12.4109956"><ele>72.66666666666667</ele><time>2026-04-04T07:13:51.161Z</time></trkpt><trkpt lat="42.0151827" lon="12.4109097"><ele>70.83333333333333</ele><time>2026-04-04T07:13:53.161Z</time></trkpt><trkpt lat="42.0151057" lon="12.4108401"><ele>69.0</ele><time>2026-04-04T07:13:56.162Z</time></trkpt><trkpt lat="42.0150325" lon="12.4108437"><ele>66.66666666666667</ele><time>2026-04-04T07:13:58.161Z</time></trkpt><trkpt lat="42.0149679" lon="12.4108899"><ele>64.33333333333333</ele><time>2026-04-04T07:14:00.161Z</time></trkpt><trkpt lat="42.0149117" lon="12.4109682"><ele>62.0</ele><time>2026-04-04T07:14:02.161Z</time></trkpt><trkpt lat="42.0148574" lon="12.4110647"><ele>59.666666666666664</ele><time>2026-04-04T07:14:04.162Z</time></trkpt><trkpt lat="42.0147917" lon="12.4111653"><ele>57.33333333333333</ele><time>2026-04-04T07:14:06.161Z</time></trkpt><trkpt lat="42.014727" lon="12.4112425"><ele>55.0</ele><time>2026-04-04T07:14:08.162Z</time></trkpt><trkpt lat="42.0146534" lon="12.4112829"><ele>55.0</ele><time>2026-04-04T07:14:10.161Z</time></trkpt><trkpt lat="42.0145591" lon="12.4112708"><ele>55.0</ele><time>2026-04-04T07:14:12.161Z</time></trkpt><trkpt lat="42.0144548" lon="12.4112404"><ele>55.0</ele><time>2026-04-04T07:14:14.162Z</time></trkpt><trkpt lat="42.0143486" lon="12.4112049"><ele>55.0</ele><time>2026-04-04T07:14:16.162Z</time></trkpt><trkpt lat="42.0142602" lon="12.4111857"><ele>55.0</ele><time>2026-04-04T07:14:18.162Z</time></trkpt><trkpt lat="42.0141702" lon="12.4111848"><ele>54.8</ele><time>2026-04-04T07:14:20.161Z</time></trkpt><trkpt lat="42.0140733" lon="12.4112253"><ele>54.6</ele><time>2026-04-04T07:14:22.161Z</time></trkpt><trkpt lat="42.0139887" lon="12.4112919"><ele>54.400000000000006</ele><time>2026-04-04T07:14:24.161Z</time></trkpt><trkpt lat="42.0139095" lon="12.4113574"><ele>54.2</ele><time>2026-04-04T07:14:26.161Z</time></trkpt><trkpt lat="42.0138316" lon="12.4114524"><ele>54.0</ele><time>2026-04-04T07:14:28.161Z</time></trkpt><trkpt lat="42.0137614" lon="12.4115671"><ele>54.0</ele><time>2026-04-04T07:14:30.161Z</time></trkpt><trkpt lat="42.0137056" lon="12.4116941"><ele>54.00000000000001</ele><time>2026-04-04T07:14:32.162Z</time></trkpt><trkpt lat="42.013669" lon="12.4118464"><ele>54.00000000000001</ele><time>2026-04-04T07:14:34.161Z</time></trkpt><trkpt lat="42.0136511" lon="12.4119619"><ele>54.0</ele><time>2026-04-04T07:14:36.161Z</time></trkpt><trkpt lat="42.0136439" lon="12.4120746"><ele>54.0</ele><time>2026-04-04T07:14:38.162Z</time></trkpt><trkpt lat="42.0136141" lon="12.4121948"><ele>54.0</ele><time>2026-04-04T07:14:40.162Z</time></trkpt><trkpt lat="42.0135497" lon="12.412298"><ele>54.00000000000001</ele><time>2026-04-04T07:14:42.161Z</time></trkpt><trkpt lat="42.0134661" lon="12.4123656"><ele>54.00000000000001</ele><time>2026-04-04T07:14:44.161Z</time></trkpt><trkpt lat="42.0133786" lon="12.4123891"><ele>54.0</ele><time>2026-04-04T07:14:46.161Z</time></trkpt><trkpt lat="42.013291" lon="12.4123726"><ele>54.0</ele><time>2026-04-04T07:14:48.161Z</time></trkpt><trkpt lat="42.013209" lon="12.4123513"><ele>54.0</ele><time>2026-04-04T07:14:50.161Z</time></trkpt><trkpt lat="42.0131328" lon="12.412317"><ele>54.0</ele><time>2026-04-04T07:14:52.161Z</time></trkpt><trkpt lat="42.0130691" lon="12.4122839"><ele>54.0</ele><time>2026-04-04T07:14:54.161Z</time></trkpt><trkpt lat="42.0129842" lon="12.4122366"><ele>54.0</ele><time>2026-04-04T07:14:57.162Z</time></trkpt><trkpt lat="42.0129122" lon="12.4121624"><ele>54.0</ele><time>2026-04-04T07:15:00.162Z</time></trkpt><trkpt lat="42.0128501" lon="12.4120741"><ele>54.0</ele><time>2026-04-04T07:15:03.161Z</time></trkpt><trkpt lat="42.0127972" lon="12.4119911"><ele>54.0</ele><time>2026-04-04T07:15:05.161Z</time></trkpt><trkpt lat="42.0127448" lon="12.4119134"><ele>54.0</ele><time>2026-04-04T07:15:07.161Z</time></trkpt><trkpt lat="42.0126929" lon="12.4118581"><ele>54.0</ele><time>2026-04-04T07:15:09.161Z</time></trkpt><trkpt lat="42.012616" lon="12.4117843"><ele>54.0</ele><time>2026-04-04T07:15:12.161Z</time></trkpt><trkpt lat="42.0125657" lon="12.4117298"><ele>54.0</ele><time>2026-04-04T07:15:14.161Z</time></trkpt><trkpt lat="42.0124997" lon="12.4116734"><ele>54.0</ele><time>2026-04-04T07:15:16.162Z</time></trkpt><trkpt lat="42.012428" lon="12.4116197"><ele>54.57142857142857</ele><time>2026-04-04T07:15:18.161Z</time></trkpt><trkpt lat="42.0123599" lon="12.4115555"><ele>55.14285714285714</ele><time>2026-04-04T07:15:20.161Z</time></trkpt><trkpt lat="42.012293" lon="12.4115011"><ele>55.71428571428572</ele><time>2026-04-04T07:15:22.161Z</time></trkpt><trkpt lat="42.0122437" lon="12.4114423"><ele>56.28571428571429</ele><time>2026-04-04T07:15:24.161Z</time></trkpt><trkpt lat="42.0121969" lon="12.4113847"><ele>56.85714285714286</ele><time>2026-04-04T07:15:26.162Z</time></trkpt><trkpt lat="42.0121363" lon="12.4113352"><ele>57.42857142857144</ele><time>2026-04-04T07:15:28.162Z</time></trkpt><trkpt lat="42.012067" lon="12.411279"><ele>58.00000000000001</ele><time>2026-04-04T07:15:30.162Z</time></trkpt><trkpt lat="42.012" lon="12.4112179"><ele>57.99999999999999</ele><time>2026-04-04T07:15:32.161Z</time></trkpt><trkpt lat="42.0119427" lon="12.4111555"><ele>58.0</ele><time>2026-04-04T07:15:34.161Z</time></trkpt><trkpt lat="42.0118728" lon="12.4110957"><ele>58.0</ele><time>2026-04-04T07:15:36.162Z</time></trkpt><trkpt lat="42.0118031" lon="12.4110449"><ele>58.0</ele><time>2026-04-04T07:15:38.161Z</time></trkpt><trkpt lat="42.0117387" lon="12.4109921"><ele>57.99999999999999</ele><time>2026-04-04T07:15:40.161Z</time></trkpt><trkpt lat="42.0116708" lon="12.4109283"><ele>58.0</ele><time>2026-04-04T07:15:42.161Z</time></trkpt><trkpt lat="42.0115936" lon="12.4108624"><ele>57.166666666666664</ele><time>2026-04-04T07:15:44.161Z</time></trkpt><trkpt lat="42.0115239" lon="12.4107987"><ele>56.33333333333333</ele><time>2026-04-04T07:15:46.161Z</time></trkpt><trkpt lat="42.0114792" lon="12.4107383"><ele>55.5</ele><time>2026-04-04T07:15:48.162Z</time></trkpt><trkpt lat="42.0114101" lon="12.410672"><ele>54.66666666666667</ele><time>2026-04-04T07:15:50.161Z</time></trkpt><trkpt lat="42.0113396" lon="12.4106089"><ele>53.833333333333336</ele><time>2026-04-04T07:15:52.161Z</time></trkpt><trkpt lat="42.0112761" lon="12.4105432"><ele>53.0</ele><time>2026-04-04T07:15:54.162Z</time></trkpt><trkpt lat="42.0111932" lon="12.4104816"><ele>53.00000000000001</ele><time>2026-04-04T07:15:56.161Z</time></trkpt><trkpt lat="42.0111156" lon="12.4104176"><ele>53.0</ele><time>2026-04-04T07:15:58.161Z</time></trkpt><trkpt lat="42.0110473" lon="12.4103492"><ele>53.0</ele><time>2026-04-04T07:16:00.162Z</time></trkpt><trkpt lat="42.0109922" lon="12.4102724"><ele>53.0</ele><time>2026-04-04T07:16:02.161Z</time></trkpt><trkpt lat="42.0109427" lon="12.4102014"><ele>53.00000000000001</ele><time>2026-04-04T07:16:04.161Z</time></trkpt><trkpt lat="42.0109091" lon="12.4101259"><ele>53.0</ele><time>2026-04-04T07:16:06.161Z</time></trkpt><trkpt lat="42.0108782" lon="12.4100394"><ele>53.00000000000001</ele><time>2026-04-04T07:16:08.161Z</time></trkpt><trkpt lat="42.0108517" lon="12.409944"><ele>53.0</ele><time>2026-04-04T07:16:10.161Z</time></trkpt><trkpt lat="42.0108341" lon="12.4098464"><ele>53.0</ele><time>2026-04-04T07:16:12.162Z</time></trkpt><trkpt lat="42.0108122" lon="12.4097387"><ele>53.0</ele><time>2026-04-04T07:16:14.162Z</time></trkpt><trkpt lat="42.0107906" lon="12.4096142"><ele>53.00000000000001</ele><time>2026-04-04T07:16:16.161Z</time></trkpt><trkpt lat="42.0107782" lon="12.4095002"><ele>53.0</ele><time>2026-04-04T07:16:18.161Z</time></trkpt><trkpt lat="42.0107611" lon="12.4094125"><ele>52.0</ele><time>2026-04-04T07:16:20.162Z</time></trkpt><trkpt lat="42.0107456" lon="12.4093042"><ele>51.0</ele><time>2026-04-04T07:16:22.161Z</time></trkpt><trkpt lat="42.0107316" lon="12.409198"><ele>50.0</ele><time>2026-04-04T07:16:24.161Z</time></trkpt><trkpt lat="42.010719" lon="12.4091008"><ele>49.0</ele><time>2026-04-04T07:16:26.161Z</time></trkpt><trkpt lat="42.0107159" lon="12.4089971"><ele>48.0</ele><time>2026-04-04T07:16:28.161Z</time></trkpt><trkpt lat="42.010711" lon="12.4089081"><ele>47.0</ele><time>2026-04-04T07:16:30.162Z</time></trkpt><trkpt lat="42.0107155" lon="12.4088182"><ele>46.0</ele><time>2026-04-04T07:16:32.162Z</time></trkpt><trkpt lat="42.0107407" lon="12.4087229"><ele>45.85714285714286</ele><time>2026-04-04T07:16:34.161Z</time></trkpt><trkpt lat="42.0107707" lon="12.4086257"><ele>45.71428571428571</ele><time>2026-04-04T07:16:36.161Z</time></trkpt><trkpt lat="42.0108101" lon="12.408549"><ele>45.57142857142857</ele><time>2026-04-04T07:16:38.161Z</time></trkpt><trkpt lat="42.0108511" lon="12.4084745"><ele>45.42857142857143</ele><time>2026-04-04T07:16:40.161Z</time></trkpt><trkpt lat="42.010894" lon="12.4083706"><ele>45.28571428571429</ele><time>2026-04-04T07:16:43.161Z</time></trkpt><trkpt lat="42.0109329" lon="12.4083007"><ele>45.14285714285714</ele><time>2026-04-04T07:16:45.161Z</time></trkpt><trkpt lat="42.0109804" lon="12.4082295"><ele>45.0</ele><time>2026-04-04T07:16:47.161Z</time></trkpt><trkpt lat="42.0110351" lon="12.4081524"><ele>45.42857142857142</ele><time>2026-04-04T07:16:49.161Z</time></trkpt><trkpt lat="42.0110881" lon="12.4080884"><ele>45.85714285714286</ele><time>2026-04-04T07:16:51.161Z</time></trkpt><trkpt lat="42.011145" lon="12.4080188"><ele>46.285714285714285</ele><time>2026-04-04T07:16:53.162Z</time></trkpt><trkpt lat="42.0112094" lon="12.4079456"><ele>46.71428571428571</ele><time>2026-04-04T07:16:55.162Z</time></trkpt><trkpt lat="42.011275" lon="12.4078826"><ele>47.14285714285714</ele><time>2026-04-04T07:16:57.162Z</time></trkpt><trkpt lat="42.0113286" lon="12.4078236"><ele>47.57142857142857</ele><time>2026-04-04T07:16:59.161Z</time></trkpt><trkpt lat="42.0113739" lon="12.4077635"><ele>48.0</ele><time>2026-04-04T07:17:01.162Z</time></trkpt><trkpt lat="42.0114297" lon="12.4076669"><ele>48.0</ele><time>2026-04-04T07:17:04.161Z</time></trkpt><trkpt lat="42.0114853" lon="12.4075716"><ele>48.0</ele><time>2026-04-04T07:17:07.162Z</time></trkpt><trkpt lat="42.0115272" lon="12.4074774"><ele>48.0</ele><time>2026-04-04T07:17:10.162Z</time></trkpt><trkpt lat="42.0115512" lon="12.4073989"><ele>48.0</ele><time>2026-04-04T07:17:12.161Z</time></trkpt><trkpt lat="42.0115836" lon="12.4073182"><ele>48.0</ele><time>2026-04-04T07:17:14.162Z</time></trkpt><trkpt lat="42.0116158" lon="12.4072316"><ele>48.0</ele><time>2026-04-04T07:17:16.161Z</time></trkpt><trkpt lat="42.0116537" lon="12.4071374"><ele>48.5</ele><time>2026-04-04T07:17:18.162Z</time></trkpt><trkpt lat="42.0116904" lon="12.4070425"><ele>49.0</ele><time>2026-04-04T07:17:20.162Z</time></trkpt><trkpt lat="42.0117221" lon="12.4069445"><ele>49.5</ele><time>2026-04-04T07:17:22.161Z</time></trkpt><trkpt lat="42.0117511" lon="12.4068275"><ele>50.0</ele><time>2026-04-04T07:17:24.161Z</time></trkpt><trkpt lat="42.0117888" lon="12.4066964"><ele>50.5</ele><time>2026-04-04T07:17:26.161Z</time></trkpt><trkpt lat="42.0118082" lon="12.4065853"><ele>51.0</ele><time>2026-04-04T07:17:28.161Z</time></trkpt><trkpt lat="42.0118295" lon="12.40647"><ele>51.0</ele><time>2026-04-04T07:17:30.161Z</time></trkpt><trkpt lat="42.0118459" lon="12.4063562"><ele>51.0</ele><time>2026-04-04T07:17:32.162Z</time></trkpt><trkpt lat="42.0118512" lon="12.4062488"><ele>51.0</ele><time>2026-04-04T07:17:34.161Z</time></trkpt><trkpt lat="42.0118435" lon="12.4061426"><ele>51.0</ele><time>2026-04-04T07:17:36.161Z</time></trkpt><trkpt lat="42.011826" lon="12.4060508"><ele>51.0</ele><time>2026-04-04T07:17:38.161Z</time></trkpt><trkpt lat="42.0117935" lon="12.4059559"><ele>51.0</ele><time>2026-04-04T07:17:40.161Z</time></trkpt><trkpt lat="42.0117493" lon="12.405882"><ele>51.0</ele><time>2026-04-04T07:17:42.161Z</time></trkpt><trkpt lat="42.0116846" lon="12.405827"><ele>51.0</ele><time>2026-04-04T07:17:44.161Z</time></trkpt><trkpt lat="42.0116199" lon="12.4057687"><ele>51.0</ele><time>2026-04-04T07:17:46.161Z</time></trkpt><trkpt lat="42.0115606" lon="12.4057168"><ele>51.0</ele><time>2026-04-04T07:17:48.161Z</time></trkpt><trkpt lat="42.0115008" lon="12.4056747"><ele>51.0</ele><time>2026-04-04T07:17:50.161Z</time></trkpt><trkpt lat="42.0114605" lon="12.405598"><ele>51.0</ele><time>2026-04-04T07:17:52.161Z</time></trkpt><trkpt lat="42.0114203" lon="12.4055132"><ele>51.0</ele><time>2026-04-04T07:17:54.162Z</time></trkpt><trkpt lat="42.0114087" lon="12.405425"><ele>54.714285714285715</ele><time>2026-04-04T07:17:56.162Z</time></trkpt><trkpt lat="42.0114183" lon="12.4053339"><ele>58.42857142857143</ele><time>2026-04-04T07:17:58.162Z</time></trkpt><trkpt lat="42.011442" lon="12.4052464"><ele>62.14285714285714</ele><time>2026-04-04T07:18:00.161Z</time></trkpt><trkpt lat="42.0114757" lon="12.4051673"><ele>65.85714285714286</ele><time>2026-04-04T07:18:02.162Z</time></trkpt><trkpt lat="42.0115179" lon="12.4050868"><ele>69.57142857142857</ele><time>2026-04-04T07:18:04.161Z</time></trkpt><trkpt lat="42.0115678" lon="12.405002"><ele>73.28571428571429</ele><time>2026-04-04T07:18:06.161Z</time></trkpt><trkpt lat="42.011614" lon="12.4049286"><ele>77.0</ele><time>2026-04-04T07:18:08.162Z</time></trkpt><trkpt lat="42.0116557" lon="12.4048566"><ele>75.66666666666667</ele><time>2026-04-04T07:18:10.162Z</time></trkpt><trkpt lat="42.0116997" lon="12.4047843"><ele>74.33333333333334</ele><time>2026-04-04T07:18:12.161Z</time></trkpt><trkpt lat="42.0117501" lon="12.404698"><ele>73.0</ele><time>2026-04-04T07:18:14.162Z</time></trkpt><trkpt lat="42.0117896" lon="12.404616"><ele>71.66666666666667</ele><time>2026-04-04T07:18:16.161Z</time></trkpt><trkpt lat="42.0118365" lon="12.4045425"><ele>70.33333333333333</ele><time>2026-04-04T07:18:18.162Z</time></trkpt><trkpt lat="42.0118886" lon="12.4044705"><ele>69.0</ele><time>2026-04-04T07:18:20.161Z</time></trkpt><trkpt lat="42.0119469" lon="12.4043944"><ele>69.0</ele><time>2026-04-04T07:18:22.161Z</time></trkpt><trkpt lat="42.012006" lon="12.4043053"><ele>69.0</ele><time>2026-04-04T07:18:24.162Z</time></trkpt><trkpt lat="42.0120547" lon="12.4042142"><ele>69.0</ele><time>2026-04-04T07:18:26.162Z</time></trkpt><trkpt lat="42.0121032" lon="12.4041202"><ele>69.0</ele><time>2026-04-04T07:18:28.161Z</time></trkpt><trkpt lat="42.0121603" lon="12.4040314"><ele>69.0</ele><time>2026-04-04T07:18:30.161Z</time></trkpt><trkpt lat="42.0122187" lon="12.403947"><ele>69.0</ele><time>2026-04-04T07:18:32.161Z</time></trkpt><trkpt lat="42.0122755" lon="12.4038508"><ele>69.4</ele><time>2026-04-04T07:18:34.161Z</time></trkpt><trkpt lat="42.0123384" lon="12.4037542"><ele>69.80000000000001</ele><time>2026-04-04T07:18:36.161Z</time></trkpt><trkpt lat="42.0124071" lon="12.4036666"><ele>70.19999999999999</ele><time>2026-04-04T07:18:38.162Z</time></trkpt><trkpt lat="42.0124805" lon="12.4035757"><ele>70.6</ele><time>2026-04-04T07:18:40.162Z</time></trkpt><trkpt lat="42.0125552" lon="12.4034807"><ele>71.0</ele><time>2026-04-04T07:18:42.161Z</time></trkpt><trkpt lat="42.0126276" lon="12.4033945"><ele>71.0</ele><time>2026-04-04T07:18:44.161Z</time></trkpt><trkpt lat="42.0126946" lon="12.4033158"><ele>71.0</ele><time>2026-04-04T07:18:46.162Z</time></trkpt><trkpt lat="42.0127677" lon="12.4032404"><ele>71.0</ele><time>2026-04-04T07:18:48.161Z</time></trkpt><trkpt lat="42.0128398" lon="12.4031814"><ele>71.0</ele><time>2026-04-04T07:18:50.163Z</time></trkpt><trkpt lat="42.0129081" lon="12.4031222"><ele>71.0</ele><time>2026-04-04T07:18:52.163Z</time></trkpt><trkpt lat="42.0129865" lon="12.4030611"><ele>71.0</ele><time>2026-04-04T07:18:54.162Z</time></trkpt><trkpt lat="42.0130606" lon="12.4029991"><ele>69.16666666666667</ele><time>2026-04-04T07:18:56.163Z</time></trkpt><trkpt lat="42.0131362" lon="12.4029399"><ele>67.33333333333334</ele><time>2026-04-04T07:18:58.162Z</time></trkpt><trkpt lat="42.0132051" lon="12.402878"><ele>65.5</ele><time>2026-04-04T07:19:00.163Z</time></trkpt><trkpt lat="42.0132739" lon="12.4028051"><ele>63.66666666666667</ele><time>2026-04-04T07:19:02.162Z</time></trkpt><trkpt lat="42.013344" lon="12.4027277"><ele>61.833333333333336</ele><time>2026-04-04T07:19:04.162Z</time></trkpt><trkpt lat="42.0134067" lon="12.4026518"><ele>60.0</ele><time>2026-04-04T07:19:06.163Z</time></trkpt><trkpt lat="42.013468" lon="12.4025868"><ele>60.0</ele><time>2026-04-04T07:19:08.162Z</time></trkpt><trkpt lat="42.0135285" lon="12.4025171"><ele>60.0</ele><time>2026-04-04T07:19:10.162Z</time></trkpt><trkpt lat="42.0135896" lon="12.4024412"><ele>60.0</ele><time>2026-04-04T07:19:12.163Z</time></trkpt><trkpt lat="42.0136531" lon="12.4023717"><ele>60.0</ele><time>2026-04-04T07:19:14.162Z</time></trkpt><trkpt lat="42.0137183" lon="12.4023067"><ele>60.0</ele><time>2026-04-04T07:19:16.162Z</time></trkpt><trkpt lat="42.0137894" lon="12.4022412"><ele>60.0</ele><time>2026-04-04T07:19:18.163Z</time></trkpt><trkpt lat="42.0138656" lon="12.4021893"><ele>60.0</ele><time>2026-04-04T07:19:20.163Z</time></trkpt><trkpt lat="42.0139281" lon="12.4021552"><ele>60.0</ele><time>2026-04-04T07:19:22.163Z</time></trkpt><trkpt lat="42.0139894" lon="12.4021301"><ele>60.0</ele><time>2026-04-04T07:19:24.162Z</time></trkpt><trkpt lat="42.0140612" lon="12.4021126"><ele>60.0</ele><time>2026-04-04T07:19:26.162Z</time></trkpt><trkpt lat="42.0141377" lon="12.4020895"><ele>60.0</ele><time>2026-04-04T07:19:28.163Z</time></trkpt><trkpt lat="42.0142087" lon="12.4020749"><ele>60.0</ele><time>2026-04-04T07:19:30.162Z</time></trkpt><trkpt lat="42.0142864" lon="12.4020636"><ele>60.0</ele><time>2026-04-04T07:19:32.163Z</time></trkpt><trkpt lat="42.0143741" lon="12.4020515"><ele>60.0</ele><time>2026-04-04T07:19:34.163Z</time></trkpt><trkpt lat="42.0144695" lon="12.4020507"><ele>60.0</ele><time>2026-04-04T07:19:36.162Z</time></trkpt><trkpt lat="42.0145561" lon="12.4020491"><ele>60.0</ele><time>2026-04-04T07:19:38.162Z</time></trkpt><trkpt lat="42.0146459" lon="12.4020386"><ele>60.0</ele><time>2026-04-04T07:19:40.163Z</time></trkpt><trkpt lat="42.0147382" lon="12.4020256"><ele>60.0</ele><time>2026-04-04T07:19:42.162Z</time></trkpt><trkpt lat="42.01482" lon="12.4020239"><ele>60.0</ele><time>2026-04-04T07:19:44.162Z</time></trkpt><trkpt lat="42.0148927" lon="12.4020276"><ele>60.0</ele><time>2026-04-04T07:19:46.162Z</time></trkpt><trkpt lat="42.0149657" lon="12.4020235"><ele>60.0</ele><time>2026-04-04T07:19:48.162Z</time></trkpt><trkpt lat="42.0150441" lon="12.4019983"><ele>60.0</ele><time>2026-04-04T07:19:50.163Z</time></trkpt><trkpt lat="42.015127" lon="12.4019486"><ele>60.0</ele><time>2026-04-04T07:19:52.163Z</time></trkpt><trkpt lat="42.0152147" lon="12.4018806"><ele>60.0</ele><time>2026-04-04T07:19:54.163Z</time></trkpt><trkpt lat="42.0152886" lon="12.4018029"><ele>60.0</ele><time>2026-04-04T07:19:56.162Z</time></trkpt><trkpt lat="42.01535" lon="12.4017102"><ele>59.833333333333336</ele><time>2026-04-04T07:19:58.162Z</time></trkpt><trkpt lat="42.015382" lon="12.4016124"><ele>59.66666666666667</ele><time>2026-04-04T07:20:00.162Z</time></trkpt><trkpt lat="42.0154138" lon="12.4014966"><ele>59.5</ele><time>2026-04-04T07:20:02.162Z</time></trkpt><trkpt lat="42.0154329" lon="12.4013775"><ele>59.333333333333336</ele><time>2026-04-04T07:20:04.162Z</time></trkpt><trkpt lat="42.0154568" lon="12.4012594"><ele>59.16666666666667</ele><time>2026-04-04T07:20:06.163Z</time></trkpt><trkpt lat="42.0154737" lon="12.4011649"><ele>59.0</ele><time>2026-04-04T07:20:08.162Z</time></trkpt><trkpt lat="42.015487" lon="12.4010533"><ele>59.00000000000001</ele><time>2026-04-04T07:20:10.163Z</time></trkpt><trkpt lat="42.015505" lon="12.4009465"><ele>59.0</ele><time>2026-04-04T07:20:12.163Z</time></trkpt><trkpt lat="42.0155139" lon="12.4008455"><ele>59.0</ele><time>2026-04-04T07:20:14.162Z</time></trkpt><trkpt lat="42.0155318" lon="12.4007479"><ele>59.0</ele><time>2026-04-04T07:20:16.162Z</time></trkpt><trkpt lat="42.0155496" lon="12.4006493"><ele>59.00000000000001</ele><time>2026-04-04T07:20:18.162Z</time></trkpt><trkpt lat="42.0155632" lon="12.4005439"><ele>59.0</ele><time>2026-04-04T07:20:20.163Z</time></trkpt><trkpt lat="42.0155729" lon="12.4004401"><ele>58.50000000000001</ele><time>2026-04-04T07:20:22.163Z</time></trkpt><trkpt lat="42.01559" lon="12.400328"><ele>58.0</ele><time>2026-04-04T07:20:24.163Z</time></trkpt><trkpt lat="42.0156131" lon="12.4002205"><ele>57.5</ele><time>2026-04-04T07:20:26.162Z</time></trkpt><trkpt lat="42.0156211" lon="12.4001095"><ele>57.0</ele><time>2026-04-04T07:20:28.162Z</time></trkpt><trkpt lat="42.0156317" lon="12.4000143"><ele>56.50000000000001</ele><time>2026-04-04T07:20:30.163Z</time></trkpt><trkpt lat="42.015652" lon="12.3999196"><ele>56.0</ele><time>2026-04-04T07:20:32.162Z</time></trkpt><trkpt lat="42.0156624" lon="12.3998226"><ele>56.0</ele><time>2026-04-04T07:20:34.163Z</time></trkpt><trkpt lat="42.0156711" lon="12.399713"><ele>56.0</ele><time>2026-04-04T07:20:36.162Z</time></trkpt><trkpt lat="42.0156923" lon="12.3996186"><ele>56.0</ele><time>2026-04-04T07:20:38.163Z</time></trkpt><trkpt lat="42.0157132" lon="12.3995228"><ele>56.0</ele><time>2026-04-04T07:20:40.162Z</time></trkpt><trkpt lat="42.0157234" lon="12.3994202"><ele>56.0</ele><time>2026-04-04T07:20:42.163Z</time></trkpt><trkpt lat="42.0157453" lon="12.3993258"><ele>56.0</ele><time>2026-04-04T07:20:44.162Z</time></trkpt><trkpt lat="42.0157607" lon="12.3992356"><ele>56.0</ele><time>2026-04-04T07:20:46.163Z</time></trkpt><trkpt lat="42.0157759" lon="12.3991441"><ele>56.333333333333336</ele><time>2026-04-04T07:20:48.162Z</time></trkpt><trkpt lat="42.0157901" lon="12.399044"><ele>56.66666666666667</ele><time>2026-04-04T07:20:50.163Z</time></trkpt><trkpt lat="42.0158073" lon="12.3989297"><ele>57.0</ele><time>2026-04-04T07:20:52.162Z</time></trkpt><trkpt lat="42.0158221" lon="12.3988219"><ele>57.33333333333333</ele><time>2026-04-04T07:20:54.163Z</time></trkpt><trkpt lat="42.0158364" lon="12.3987182"><ele>57.666666666666664</ele><time>2026-04-04T07:20:56.163Z</time></trkpt><trkpt lat="42.0158528" lon="12.3986181"><ele>58.0</ele><time>2026-04-04T07:20:58.162Z</time></trkpt><trkpt lat="42.0158728" lon="12.398527"><ele>58.28571428571429</ele><time>2026-04-04T07:21:00.163Z</time></trkpt><trkpt lat="42.0158977" lon="12.3984392"><ele>58.57142857142857</ele><time>2026-04-04T07:21:02.163Z</time></trkpt><trkpt lat="42.0159304" lon="12.3983556"><ele>58.85714285714286</ele><time>2026-04-04T07:21:04.163Z</time></trkpt><trkpt lat="42.0159545" lon="12.3982692"><ele>59.142857142857146</ele><time>2026-04-04T07:21:06.163Z</time></trkpt><trkpt lat="42.0159797" lon="12.3981884"><ele>59.42857142857143</ele><time>2026-04-04T07:21:08.163Z</time></trkpt><trkpt lat="42.0160124" lon="12.3981114"><ele>59.714285714285715</ele><time>2026-04-04T07:21:10.163Z</time></trkpt><trkpt lat="42.0160633" lon="12.3980296"><ele>60.0</ele><time>2026-04-04T07:21:13.162Z</time></trkpt><trkpt lat="42.0161101" lon="12.3979711"><ele>60.0</ele><time>2026-04-04T07:21:16.162Z</time></trkpt><trkpt lat="42.016175" lon="12.3979033"><ele>60.0</ele><time>2026-04-04T07:21:19.163Z</time></trkpt><trkpt lat="42.0162313" lon="12.3978581"><ele>60.0</ele><time>2026-04-04T07:21:21.162Z</time></trkpt><trkpt lat="42.0163026" lon="12.3977725"><ele>60.0</ele><time>2026-04-04T07:21:24.163Z</time></trkpt><trkpt lat="42.0163604" lon="12.397697"><ele>60.0</ele><time>2026-04-04T07:21:27.162Z</time></trkpt><trkpt lat="42.0163998" lon="12.3976229"><ele>60.0</ele><time>2026-04-04T07:21:30.162Z</time></trkpt><trkpt lat="42.0164318" lon="12.3975249"><ele>60.0</ele><time>2026-04-04T07:21:34.163Z</time></trkpt><trkpt lat="42.0164541" lon="12.397428"><ele>60.0</ele><time>2026-04-04T07:21:38.163Z</time></trkpt><trkpt lat="42.016494" lon="12.3973528"><ele>60.0</ele><time>2026-04-04T07:21:41.162Z</time></trkpt><trkpt lat="42.0165382" lon="12.397288"><ele>60.0</ele><time>2026-04-04T07:21:45.162Z</time></trkpt><trkpt lat="42.0165706" lon="12.3972077"><ele>60.0</ele><time>2026-04-04T07:21:49.162Z</time></trkpt><trkpt lat="42.0166049" lon="12.3971293"><ele>60.0</ele><time>2026-04-04T07:21:52.163Z</time></trkpt><trkpt lat="42.0166489" lon="12.3970243"><ele>60.0</ele><time>2026-04-04T07:21:56.163Z</time></trkpt><trkpt lat="42.0166787" lon="12.3969338"><ele>61.0</ele><time>2026-04-04T07:21:59.163Z</time></trkpt><trkpt lat="42.0167288" lon="12.3968449"><ele>62.0</ele><time>2026-04-04T07:22:02.162Z</time></trkpt><trkpt lat="42.0167739" lon="12.3967637"><ele>63.0</ele><time>2026-04-04T07:22:05.162Z</time></trkpt><trkpt lat="42.0168249" lon="12.3966941"><ele>64.0</ele><time>2026-04-04T07:22:08.162Z</time></trkpt><trkpt lat="42.0168623" lon="12.3966126"><ele>65.0</ele><time>2026-04-04T07:22:11.162Z</time></trkpt><trkpt lat="42.0169167" lon="12.3965184"><ele>66.0</ele><time>2026-04-04T07:22:14.162Z</time></trkpt><trkpt lat="42.0169732" lon="12.3964518"><ele>66.0</ele><time>2026-04-04T07:22:16.163Z</time></trkpt><trkpt lat="42.0170344" lon="12.3963883"><ele>66.0</ele><time>2026-04-04T07:22:19.162Z</time></trkpt><trkpt lat="42.0171059" lon="12.3963345"><ele>66.0</ele><time>2026-04-04T07:22:22.162Z</time></trkpt><trkpt lat="42.0171662" lon="12.3962657"><ele>66.0</ele><time>2026-04-04T07:22:25.162Z</time></trkpt><trkpt lat="42.0172097" lon="12.3962019"><ele>66.0</ele><time>2026-04-04T07:22:28.162Z</time></trkpt><trkpt lat="42.01726" lon="12.3961146"><ele>66.0</ele><time>2026-04-04T07:22:32.163Z</time></trkpt><trkpt lat="42.0172965" lon="12.3960227"><ele>66.57142857142857</ele><time>2026-04-04T07:22:36.163Z</time></trkpt><trkpt lat="42.0173381" lon="12.3959325"><ele>67.14285714285714</ele><time>2026-04-04T07:22:40.162Z</time></trkpt><trkpt lat="42.0173639" lon="12.3958509"><ele>67.71428571428572</ele><time>2026-04-04T07:22:44.163Z</time></trkpt><trkpt lat="42.0173899" lon="12.3957701"><ele>68.28571428571428</ele><time>2026-04-04T07:22:47.162Z</time></trkpt><trkpt lat="42.0174393" lon="12.3956924"><ele>68.85714285714286</ele><time>2026-04-04T07:22:50.162Z</time></trkpt><trkpt lat="42.0174867" lon="12.3956277"><ele>69.42857142857143</ele><time>2026-04-04T07:22:53.162Z</time></trkpt><trkpt lat="42.0175534" lon="12.3955655"><ele>70.0</ele><time>2026-04-04T07:22:57.163Z</time></trkpt><trkpt lat="42.0175991" lon="12.3954967"><ele>70.14285714285714</ele><time>2026-04-04T07:23:00.163Z</time></trkpt><trkpt lat="42.0176508" lon="12.3954299"><ele>70.28571428571428</ele><time>2026-04-04T07:23:04.162Z</time></trkpt><trkpt lat="42.0176952" lon="12.3953469"><ele>70.42857142857143</ele><time>2026-04-04T07:23:08.162Z</time></trkpt><trkpt lat="42.0177292" lon="12.3952667"><ele>70.57142857142857</ele><time>2026-04-04T07:23:12.162Z</time></trkpt><trkpt lat="42.0177598" lon="12.3951639"><ele>70.71428571428571</ele><time>2026-04-04T07:23:16.162Z</time></trkpt><trkpt lat="42.0178214" lon="12.3950984"><ele>70.85714285714286</ele><time>2026-04-04T07:23:19.163Z</time></trkpt><trkpt lat="42.0178721" lon="12.3950305"><ele>71.0</ele><time>2026-04-04T07:23:22.162Z</time></trkpt><trkpt lat="42.0179249" lon="12.3949427"><ele>71.0</ele><time>2026-04-04T07:23:26.162Z</time></trkpt><trkpt lat="42.0179518" lon="12.3948391"><ele>71.0</ele><time>2026-04-04T07:23:30.162Z</time></trkpt><trkpt lat="42.0179696" lon="12.3947403"><ele>71.0</ele><time>2026-04-04T07:23:34.163Z</time></trkpt><trkpt lat="42.01799" lon="12.3946569"><ele>71.0</ele><time>2026-04-04T07:23:39.162Z</time></trkpt><trkpt lat="42.018001" lon="12.3945654"><ele>71.0</ele><time>2026-04-04T07:23:43.163Z</time></trkpt><trkpt lat="42.0180228" lon="12.394466"><ele>71.0</ele><time>2026-04-04T07:23:46.162Z</time></trkpt><trkpt lat="42.0180381" lon="12.3943711"><ele>71.0</ele><time>2026-04-04T07:23:49.163Z</time></trkpt><trkpt lat="42.0180672" lon="12.394286"><ele>71.71428571428571</ele><time>2026-04-04T07:23:52.162Z</time></trkpt><trkpt lat="42.0180942" lon="12.3942078"><ele>72.42857142857142</ele><time>2026-04-04T07:23:55.162Z</time></trkpt><trkpt lat="42.0181416" lon="12.394124"><ele>73.14285714285714</ele><time>2026-04-04T07:23:58.162Z</time></trkpt><trkpt lat="42.0181911" lon="12.3940364"><ele>73.85714285714286</ele><time>2026-04-04T07:24:01.162Z</time></trkpt><trkpt lat="42.0182337" lon="12.3939548"><ele>74.57142857142858</ele><time>2026-04-04T07:24:04.162Z</time></trkpt><trkpt lat="42.018269" lon="12.3938749"><ele>75.28571428571428</ele><time>2026-04-04T07:24:07.162Z</time></trkpt><trkpt lat="42.0183037" lon="12.3937809"><ele>76.0</ele><time>2026-04-04T07:24:10.163Z</time></trkpt><trkpt lat="42.0183508" lon="12.3937079"><ele>76.0</ele><time>2026-04-04T07:24:13.162Z</time></trkpt><trkpt lat="42.0184067" lon="12.3936446"><ele>76.0</ele><time>2026-04-04T07:24:16.163Z</time></trkpt><trkpt lat="42.0184391" lon="12.393564"><ele>76.0</ele><time>2026-04-04T07:24:19.163Z</time></trkpt><trkpt lat="42.0184684" lon="12.3934849"><ele>76.0</ele><time>2026-04-04T07:24:22.163Z</time></trkpt><trkpt lat="42.0185084" lon="12.3934149"><ele>76.0</ele><time>2026-04-04T07:24:25.162Z</time></trkpt><trkpt lat="42.0185695" lon="12.3933449"><ele>76.0</ele><time>2026-04-04T07:24:28.162Z</time></trkpt><trkpt lat="42.0186042" lon="12.3932694"><ele>76.0</ele><time>2026-04-04T07:24:31.163Z</time></trkpt><trkpt lat="42.0186503" lon="12.3931757"><ele>76.0</ele><time>2026-04-04T07:24:34.162Z</time></trkpt><trkpt lat="42.018693" lon="12.3931023"><ele>76.0</ele><time>2026-04-04T07:24:37.163Z</time></trkpt><trkpt lat="42.0187374" lon="12.3930125"><ele>76.0</ele><time>2026-04-04T07:24:41.163Z</time></trkpt><trkpt lat="42.0187848" lon="12.3929264"><ele>76.0</ele><time>2026-04-04T07:24:45.162Z</time></trkpt><trkpt lat="42.0188372" lon="12.392869"><ele>76.0</ele><time>2026-04-04T07:24:50.162Z</time></trkpt><trkpt lat="42.0188722" lon="12.3927941"><ele>76.0</ele><time>2026-04-04T07:24:54.163Z</time></trkpt><trkpt lat="42.0189285" lon="12.3927259"><ele>76.0</ele><time>2026-04-04T07:24:58.163Z</time></trkpt><trkpt lat="42.0189839" lon="12.3926592"><ele>76.0</ele><time>2026-04-04T07:25:03.162Z</time></trkpt><trkpt lat="42.0190091" lon="12.3927393"><ele>76.0</ele><time>2026-04-04T07:25:46.163Z</time></trkpt><trkpt lat="42.0189645" lon="12.3928148"><ele>76.0</ele><time>2026-04-04T07:25:51.162Z</time></trkpt><trkpt lat="42.0189226" lon="12.3928821"><ele>76.0</ele><time>2026-04-04T07:25:54.163Z</time></trkpt><trkpt lat="42.0188827" lon="12.3929512"><ele>76.0</ele><time>2026-04-04T07:25:57.163Z</time></trkpt><trkpt lat="42.0188451" lon="12.3930334"><ele>76.0</ele><time>2026-04-04T07:26:00.163Z</time></trkpt><trkpt lat="42.0188049" lon="12.3931255"><ele>76.0</ele><time>2026-04-04T07:26:03.163Z</time></trkpt><trkpt lat="42.0187738" lon="12.3932305"><ele>76.0</ele><time>2026-04-04T07:26:06.163Z</time></trkpt><trkpt lat="42.0187478" lon="12.3933239"><ele>76.0</ele><time>2026-04-04T07:26:09.162Z</time></trkpt><trkpt lat="42.01872" lon="12.3934332"><ele>76.0</ele><time>2026-04-04T07:26:13.163Z</time></trkpt><trkpt lat="42.0186941" lon="12.3935124"><ele>76.0</ele><time>2026-04-04T07:26:16.163Z</time></trkpt><trkpt lat="42.0186764" lon="12.393639"><ele>76.0</ele><time>2026-04-04T07:28:24.163Z</time></trkpt><trkpt lat="42.0186845" lon="12.3937371"><ele>76.0</ele><time>2026-04-04T07:28:27.163Z</time></trkpt><trkpt lat="42.0186685" lon="12.393833"><ele>77.16666666666666</ele><time>2026-04-04T07:28:31.163Z</time></trkpt><trkpt lat="42.0186327" lon="12.3939268"><ele>78.33333333333333</ele><time>2026-04-04T07:28:35.163Z</time></trkpt><trkpt lat="42.0186019" lon="12.3940174"><ele>79.5</ele><time>2026-04-04T07:28:39.164Z</time></trkpt><trkpt lat="42.0185754" lon="12.3941344"><ele>80.66666666666667</ele><time>2026-04-04T07:28:43.163Z</time></trkpt><trkpt lat="42.0185539" lon="12.3942343"><ele>81.83333333333334</ele><time>2026-04-04T07:28:46.164Z</time></trkpt><trkpt lat="42.0185599" lon="12.3943521"><ele>83.0</ele><time>2026-04-04T07:28:49.163Z</time></trkpt><trkpt lat="42.0185802" lon="12.3944512"><ele>83.0</ele><time>2026-04-04T07:28:52.163Z</time></trkpt><trkpt lat="42.018617" lon="12.3945458"><ele>83.0</ele><time>2026-04-04T07:28:55.163Z</time></trkpt><trkpt lat="42.0186514" lon="12.3946268"><ele>83.0</ele><time>2026-04-04T07:28:58.163Z</time></trkpt><trkpt lat="42.0187011" lon="12.3946986"><ele>83.0</ele><time>2026-04-04T07:29:01.164Z</time></trkpt><trkpt lat="42.0187366" lon="12.3947758"><ele>83.0</ele><time>2026-04-04T07:29:04.163Z</time></trkpt><trkpt lat="42.0187944" lon="12.3948209"><ele>83.0</ele><time>2026-04-04T07:29:07.163Z</time></trkpt><trkpt lat="42.0188597" lon="12.3948536"><ele>83.0</ele><time>2026-04-04T07:29:11.163Z</time></trkpt><trkpt lat="42.0189544" lon="12.3948722"><ele>83.0</ele><time>2026-04-04T07:31:06.164Z</time></trkpt><trkpt lat="42.0190171" lon="12.3948844"><ele>83.0</ele><time>2026-04-04T07:32:32.163Z</time></trkpt><trkpt lat="42.0189736" lon="12.394814"><ele>83.0</ele><time>2026-04-04T07:32:51.164Z</time></trkpt><trkpt lat="42.0189443" lon="12.3947339"><ele>83.0</ele><time>2026-04-04T07:32:58.163Z</time></trkpt><trkpt lat="42.0189654" lon="12.3946479"><ele>83.0</ele><time>2026-04-04T07:33:03.164Z</time></trkpt><trkpt lat="42.0190074" lon="12.3945725"><ele>83.0</ele><time>2026-04-04T07:33:08.163Z</time></trkpt><trkpt lat="42.0190528" lon="12.3944997"><ele>83.0</ele><time>2026-04-04T07:33:12.163Z</time></trkpt><trkpt lat="42.0190899" lon="12.3944303"><ele>83.0</ele><time>2026-04-04T07:33:15.163Z</time></trkpt><trkpt lat="42.019141" lon="12.3943428"><ele>83.0</ele><time>2026-04-04T07:33:19.163Z</time></trkpt><trkpt lat="42.01919" lon="12.3942738"><ele>83.0</ele><time>2026-04-04T07:33:22.163Z</time></trkpt><trkpt lat="42.0192266" lon="12.3941743"><ele>83.0</ele><time>2026-04-04T07:33:25.163Z</time></trkpt><trkpt lat="42.0192586" lon="12.394083"><ele>83.0</ele><time>2026-04-04T07:33:28.164Z</time></trkpt><trkpt lat="42.0192306" lon="12.3939957"><ele>83.0</ele><time>2026-04-04T07:33:32.164Z</time></trkpt><trkpt lat="42.0191718" lon="12.3940551"><ele>83.0</ele><time>2026-04-04T07:33:39.163Z</time></trkpt><trkpt lat="42.0191359" lon="12.3941362"><ele>83.0</ele><time>2026-04-04T07:33:42.164Z</time></trkpt><trkpt lat="42.0191011" lon="12.3942321"><ele>83.0</ele><time>2026-04-04T07:33:45.163Z</time></trkpt><trkpt lat="42.019066" lon="12.3943302"><ele>83.0</ele><time>2026-04-04T07:33:48.163Z</time></trkpt><trkpt lat="42.0190317" lon="12.3944069"><ele>83.0</ele><time>2026-04-04T07:33:51.164Z</time></trkpt><trkpt lat="42.0189951" lon="12.3945013"><ele>83.0</ele><time>2026-04-04T07:33:55.164Z</time></trkpt><trkpt lat="42.0189589" lon="12.3945949"><ele>83.0</ele><time>2026-04-04T07:33:59.163Z</time></trkpt><trkpt lat="42.0189216" lon="12.3946708"><ele>83.0</ele><time>2026-04-04T07:34:03.163Z</time></trkpt><trkpt lat="42.0188612" lon="12.3947009"><ele>83.0</ele><time>2026-04-04T07:34:06.163Z</time></trkpt><trkpt lat="42.0187953" lon="12.3946929"><ele>83.0</ele><time>2026-04-04T07:34:08.163Z</time></trkpt><trkpt lat="42.0187159" lon="12.3946424"><ele>83.0</ele><time>2026-04-04T07:34:11.163Z</time></trkpt><trkpt lat="42.0186687" lon="12.3945831"><ele>83.0</ele><time>2026-04-04T07:34:13.163Z</time></trkpt><trkpt lat="42.0186189" lon="12.3944957"><ele>83.0</ele><time>2026-04-04T07:34:15.164Z</time></trkpt><trkpt lat="42.0185814" lon="12.3943969"><ele>83.0</ele><time>2026-04-04T07:34:17.164Z</time></trkpt><trkpt lat="42.0185781" lon="12.3942905"><ele>83.0</ele><time>2026-04-04T07:34:19.163Z</time></trkpt><trkpt lat="42.0186076" lon="12.3941757"><ele>83.0</ele><time>2026-04-04T07:34:21.163Z</time></trkpt><trkpt lat="42.0186414" lon="12.3940321"><ele>83.0</ele><time>2026-04-04T07:34:23.163Z</time></trkpt><trkpt lat="42.0186788" lon="12.3938748"><ele>83.0</ele><time>2026-04-04T07:34:25.163Z</time></trkpt><trkpt lat="42.0186968" lon="12.393791"><ele>81.60000000000001</ele><time>2026-04-04T07:34:26.164Z</time></trkpt><trkpt lat="42.0187173" lon="12.3937062"><ele>80.2</ele><time>2026-04-04T07:34:27.163Z</time></trkpt><trkpt lat="42.0187703" lon="12.3935613"><ele>78.8</ele><time>2026-04-04T07:34:29.163Z</time></trkpt><trkpt lat="42.0188192" lon="12.3933939"><ele>77.4</ele><time>2026-04-04T07:34:31.164Z</time></trkpt><trkpt lat="42.0188443" lon="12.3933134"><ele>76.0</ele><time>2026-04-04T07:34:32.165Z</time></trkpt><trkpt lat="42.0188696" lon="12.3932321"><ele>76.0</ele><time>2026-04-04T07:34:33.164Z</time></trkpt><trkpt lat="42.0189198" lon="12.3930905"><ele>76.0</ele><time>2026-04-04T07:34:35.164Z</time></trkpt><trkpt lat="42.0189709" lon="12.392976"><ele>76.0</ele><time>2026-04-04T07:34:37.164Z</time></trkpt><trkpt lat="42.0190201" lon="12.3928812"><ele>76.0</ele><time>2026-04-04T07:34:39.165Z</time></trkpt><trkpt lat="42.0190616" lon="12.3927945"><ele>76.0</ele><time>2026-04-04T07:34:41.165Z</time></trkpt><trkpt lat="42.019096" lon="12.3926968"><ele>76.5</ele><time>2026-04-04T07:34:43.165Z</time></trkpt><trkpt lat="42.0191172" lon="12.3925988"><ele>77.0</ele><time>2026-04-04T07:34:45.164Z</time></trkpt><trkpt lat="42.0191353" lon="12.3924809"><ele>77.5</ele><time>2026-04-04T07:34:48.165Z</time></trkpt><trkpt lat="42.0191457" lon="12.3923944"><ele>78.0</ele><time>2026-04-04T07:34:51.164Z</time></trkpt><trkpt lat="42.0191084" lon="12.3924991"><ele>78.5</ele><time>2026-04-04T07:35:29.165Z</time></trkpt><trkpt lat="42.0190363" lon="12.392573"><ele>79.0</ele><time>2026-04-04T07:35:32.165Z</time></trkpt><trkpt lat="42.0189668" lon="12.3926238"><ele>79.0</ele><time>2026-04-04T07:35:35.164Z</time></trkpt><trkpt lat="42.0189029" lon="12.3926807"><ele>79.0</ele><time>2026-04-04T07:35:38.164Z</time></trkpt><trkpt lat="42.018845" lon="12.3927622"><ele>79.0</ele><time>2026-04-04T07:35:41.164Z</time></trkpt><trkpt lat="42.0187712" lon="12.3928372"><ele>79.0</ele><time>2026-04-04T07:35:44.164Z</time></trkpt><trkpt lat="42.0187148" lon="12.3929323"><ele>79.0</ele><time>2026-04-04T07:35:46.164Z</time></trkpt><trkpt lat="42.0186496" lon="12.3930707"><ele>78.57142857142858</ele><time>2026-04-04T07:35:48.164Z</time></trkpt><trkpt lat="42.0186253" lon="12.3931558"><ele>78.14285714285714</ele><time>2026-04-04T07:35:49.164Z</time></trkpt><trkpt lat="42.0186028" lon="12.3932444"><ele>77.71428571428572</ele><time>2026-04-04T07:35:50.164Z</time></trkpt><trkpt lat="42.0185756" lon="12.3933309"><ele>77.28571428571429</ele><time>2026-04-04T07:35:51.165Z</time></trkpt><trkpt lat="42.0185434" lon="12.3934167"><ele>76.85714285714286</ele><time>2026-04-04T07:35:52.164Z</time></trkpt><trkpt lat="42.0185148" lon="12.3935113"><ele>76.42857142857143</ele><time>2026-04-04T07:35:53.164Z</time></trkpt><trkpt lat="42.0184913" lon="12.3936123"><ele>76.0</ele><time>2026-04-04T07:35:54.164Z</time></trkpt><trkpt lat="42.0184678" lon="12.3937148"><ele>76.0</ele><time>2026-04-04T07:35:55.164Z</time></trkpt><trkpt lat="42.0184405" lon="12.3938124"><ele>76.0</ele><time>2026-04-04T07:35:56.165Z</time></trkpt><trkpt lat="42.0184133" lon="12.3939106"><ele>76.0</ele><time>2026-04-04T07:35:57.165Z</time></trkpt><trkpt lat="42.0183817" lon="12.3940066"><ele>76.0</ele><time>2026-04-04T07:35:58.164Z</time></trkpt><trkpt lat="42.0183498" lon="12.3941055"><ele>76.0</ele><time>2026-04-04T07:35:59.164Z</time></trkpt><trkpt lat="42.0183207" lon="12.3942101"><ele>76.0</ele><time>2026-04-04T07:36:00.165Z</time></trkpt><trkpt lat="42.0182962" lon="12.3943108"><ele>76.39999999999999</ele><time>2026-04-04T07:36:01.165Z</time></trkpt><trkpt lat="42.0182732" lon="12.3944013"><ele>76.8</ele><time>2026-04-04T07:36:02.164Z</time></trkpt><trkpt lat="42.0182358" lon="12.3945501"><ele>77.19999999999999</ele><time>2026-04-04T07:36:04.164Z</time></trkpt><trkpt lat="42.0182162" lon="12.3947037"><ele>77.6</ele><time>2026-04-04T07:36:06.164Z</time></trkpt><trkpt lat="42.0181787" lon="12.3948612"><ele>78.0</ele><time>2026-04-04T07:36:08.165Z</time></trkpt><trkpt lat="42.0181501" lon="12.394945"><ele>77.0</ele><time>2026-04-04T07:36:09.164Z</time></trkpt><trkpt lat="42.0181211" lon="12.3950236"><ele>76.0</ele><time>2026-04-04T07:36:10.164Z</time></trkpt><trkpt lat="42.0180847" lon="12.3950955"><ele>75.0</ele><time>2026-04-04T07:36:11.164Z</time></trkpt><trkpt lat="42.018041" lon="12.3951617"><ele>74.0</ele><time>2026-04-04T07:36:12.165Z</time></trkpt><trkpt lat="42.0179928" lon="12.3952331"><ele>73.0</ele><time>2026-04-04T07:36:13.164Z</time></trkpt><trkpt lat="42.0179395" lon="12.3953119"><ele>72.0</ele><time>2026-04-04T07:36:14.165Z</time></trkpt><trkpt lat="42.0178913" lon="12.3953927"><ele>71.0</ele><time>2026-04-04T07:36:15.165Z</time></trkpt><trkpt lat="42.0178372" lon="12.3954715"><ele>72.0</ele><time>2026-04-04T07:36:16.165Z</time></trkpt><trkpt lat="42.0177852" lon="12.3955525"><ele>73.0</ele><time>2026-04-04T07:36:17.164Z</time></trkpt><trkpt lat="42.0177267" lon="12.3956313"><ele>74.0</ele><time>2026-04-04T07:36:18.164Z</time></trkpt><trkpt lat="42.0176703" lon="12.3957019"><ele>75.0</ele><time>2026-04-04T07:36:19.165Z</time></trkpt><trkpt lat="42.0176158" lon="12.3957679"><ele>76.0</ele><time>2026-04-04T07:36:20.164Z</time></trkpt><trkpt lat="42.0175595" lon="12.3958327"><ele>77.0</ele><time>2026-04-04T07:36:21.165Z</time></trkpt><trkpt lat="42.0175001" lon="12.39591"><ele>75.83333333333334</ele><time>2026-04-04T07:36:22.165Z</time></trkpt><trkpt lat="42.017436" lon="12.3959889"><ele>74.66666666666667</ele><time>2026-04-04T07:36:23.164Z</time></trkpt><trkpt lat="42.0173717" lon="12.3960693"><ele>73.5</ele><time>2026-04-04T07:36:24.164Z</time></trkpt><trkpt lat="42.0173087" lon="12.3961523"><ele>72.33333333333333</ele><time>2026-04-04T07:36:25.165Z</time></trkpt><trkpt lat="42.0172453" lon="12.3962331"><ele>71.16666666666666</ele><time>2026-04-04T07:36:26.165Z</time></trkpt><trkpt lat="42.0171844" lon="12.3963165"><ele>70.0</ele><time>2026-04-04T07:36:27.164Z</time></trkpt><trkpt lat="42.0171191" lon="12.3963966"><ele>69.42857142857143</ele><time>2026-04-04T07:36:28.164Z</time></trkpt><trkpt lat="42.0170529" lon="12.3964703"><ele>68.85714285714286</ele><time>2026-04-04T07:36:29.165Z</time></trkpt><trkpt lat="42.0169939" lon="12.3965387"><ele>68.28571428571428</ele><time>2026-04-04T07:36:30.164Z</time></trkpt><trkpt lat="42.0169397" lon="12.3966083"><ele>67.71428571428572</ele><time>2026-04-04T07:36:31.164Z</time></trkpt><trkpt lat="42.0168906" lon="12.3966797"><ele>67.14285714285714</ele><time>2026-04-04T07:36:32.165Z</time></trkpt><trkpt lat="42.0168483" lon="12.3967562"><ele>66.57142857142857</ele><time>2026-04-04T07:36:33.164Z</time></trkpt><trkpt lat="42.0168052" lon="12.3968216"><ele>66.0</ele><time>2026-04-04T07:36:34.165Z</time></trkpt><trkpt lat="42.0167654" lon="12.3968877"><ele>66.0</ele><time>2026-04-04T07:36:35.165Z</time></trkpt><trkpt lat="42.0167063" lon="12.3970343"><ele>66.0</ele><time>2026-04-04T07:36:37.165Z</time></trkpt><trkpt lat="42.0166852" lon="12.3971156"><ele>66.0</ele><time>2026-04-04T07:36:38.164Z</time></trkpt><trkpt lat="42.0166491" lon="12.3972494"><ele>66.0</ele><time>2026-04-04T07:36:40.164Z</time></trkpt><trkpt lat="42.0165933" lon="12.3973722"><ele>66.0</ele><time>2026-04-04T07:36:42.164Z</time></trkpt><trkpt lat="42.016553" lon="12.397439"><ele>64.8</ele><time>2026-04-04T07:36:43.165Z</time></trkpt><trkpt lat="42.0164733" lon="12.3975664"><ele>63.599999999999994</ele><time>2026-04-04T07:36:45.164Z</time></trkpt><trkpt lat="42.0163851" lon="12.3976809"><ele>62.4</ele><time>2026-04-04T07:36:47.164Z</time></trkpt><trkpt lat="42.0163245" lon="12.3977369"><ele>61.2</ele><time>2026-04-04T07:36:48.164Z</time></trkpt><trkpt lat="42.0162609" lon="12.3977981"><ele>60.0</ele><time>2026-04-04T07:36:49.164Z</time></trkpt><trkpt lat="42.0162029" lon="12.3978563"><ele>60.0</ele><time>2026-04-04T07:36:50.165Z</time></trkpt><trkpt lat="42.0161448" lon="12.397921"><ele>60.0</ele><time>2026-04-04T07:36:51.164Z</time></trkpt><trkpt lat="42.0160971" lon="12.3979798"><ele>60.0</ele><time>2026-04-04T07:36:52.164Z</time></trkpt><trkpt lat="42.0160324" lon="12.3981138"><ele>60.0</ele><time>2026-04-04T07:36:54.165Z</time></trkpt><trkpt lat="42.0159914" lon="12.3982433"><ele>60.0</ele><time>2026-04-04T07:36:56.164Z</time></trkpt><trkpt lat="42.0159511" lon="12.3983749"><ele>58.8</ele><time>2026-04-04T07:36:58.164Z</time></trkpt><trkpt lat="42.0159174" lon="12.3984999"><ele>57.6</ele><time>2026-04-04T07:37:00.165Z</time></trkpt><trkpt lat="42.0159029" lon="12.3986294"><ele>56.400000000000006</ele><time>2026-04-04T07:37:02.165Z</time></trkpt><trkpt lat="42.0158869" lon="12.3987454"><ele>55.2</ele><time>2026-04-04T07:37:04.164Z</time></trkpt><trkpt lat="42.0158681" lon="12.3988714"><ele>54.0</ele><time>2026-04-04T07:37:06.165Z</time></trkpt><trkpt lat="42.0158514" lon="12.3989958"><ele>53.6</ele><time>2026-04-04T07:37:08.165Z</time></trkpt><trkpt lat="42.0158239" lon="12.3991224"><ele>53.2</ele><time>2026-04-04T07:37:10.164Z</time></trkpt><trkpt lat="42.0158068" lon="12.3992539"><ele>52.800000000000004</ele><time>2026-04-04T07:37:12.165Z</time></trkpt><trkpt lat="42.0157812" lon="12.3993917"><ele>52.400000000000006</ele><time>2026-04-04T07:37:14.164Z</time></trkpt><trkpt lat="42.0157517" lon="12.3995255"><ele>52.0</ele><time>2026-04-04T07:37:16.164Z</time></trkpt><trkpt lat="42.0157172" lon="12.3996555"><ele>52.8</ele><time>2026-04-04T07:37:18.165Z</time></trkpt><trkpt lat="42.0157037" lon="12.399782"><ele>53.6</ele><time>2026-04-04T07:37:20.165Z</time></trkpt><trkpt lat="42.0156897" lon="12.399906"><ele>54.39999999999999</ele><time>2026-04-04T07:37:22.164Z</time></trkpt><trkpt lat="42.0156707" lon="12.4000335"><ele>55.199999999999996</ele><time>2026-04-04T07:37:24.164Z</time></trkpt><trkpt lat="42.0156541" lon="12.4001539"><ele>56.0</ele><time>2026-04-04T07:37:26.165Z</time></trkpt><trkpt lat="42.0156331" lon="12.4002749"><ele>56.0</ele><time>2026-04-04T07:37:28.165Z</time></trkpt><trkpt lat="42.0156055" lon="12.4004023"><ele>55.99999999999999</ele><time>2026-04-04T07:37:30.164Z</time></trkpt><trkpt lat="42.0155924" lon="12.4005264"><ele>55.99999999999999</ele><time>2026-04-04T07:37:32.164Z</time></trkpt><trkpt lat="42.015595" lon="12.4006552"><ele>56.0</ele><time>2026-04-04T07:37:34.164Z</time></trkpt><trkpt lat="42.0155774" lon="12.4007833"><ele>56.0</ele><time>2026-04-04T07:37:36.165Z</time></trkpt><trkpt lat="42.0155629" lon="12.4009123"><ele>56.4</ele><time>2026-04-04T07:37:38.165Z</time></trkpt><trkpt lat="42.0155447" lon="12.4010378"><ele>56.8</ele><time>2026-04-04T07:37:40.164Z</time></trkpt><trkpt lat="42.0155185" lon="12.4011591"><ele>57.199999999999996</ele><time>2026-04-04T07:37:42.164Z</time></trkpt><trkpt lat="42.0154972" lon="12.4012822"><ele>57.599999999999994</ele><time>2026-04-04T07:37:44.164Z</time></trkpt><trkpt lat="42.0154689" lon="12.4014063"><ele>58.0</ele><time>2026-04-04T07:37:46.164Z</time></trkpt><trkpt lat="42.0154341" lon="12.4015244"><ele>58.0</ele><time>2026-04-04T07:37:48.164Z</time></trkpt><trkpt lat="42.0153842" lon="12.4016333"><ele>58.0</ele><time>2026-04-04T07:37:50.165Z</time></trkpt><trkpt lat="42.0153191" lon="12.4017369"><ele>58.0</ele><time>2026-04-04T07:37:52.165Z</time></trkpt><trkpt lat="42.0152535" lon="12.4018238"><ele>58.0</ele><time>2026-04-04T07:37:54.164Z</time></trkpt><trkpt lat="42.0151867" lon="12.4018937"><ele>58.0</ele><time>2026-04-04T07:37:56.165Z</time></trkpt><trkpt lat="42.0151155" lon="12.4019461"><ele>58.0</ele><time>2026-04-04T07:37:58.164Z</time></trkpt><trkpt lat="42.0150347" lon="12.4019826"><ele>58.0</ele><time>2026-04-04T07:38:00.164Z</time></trkpt><trkpt lat="42.0149472" lon="12.4020078"><ele>58.0</ele><time>2026-04-04T07:38:02.165Z</time></trkpt><trkpt lat="42.0148529" lon="12.402017"><ele>58.0</ele><time>2026-04-04T07:38:04.164Z</time></trkpt><trkpt lat="42.0147543" lon="12.4020214"><ele>58.0</ele><time>2026-04-04T07:38:06.164Z</time></trkpt><trkpt lat="42.0146544" lon="12.4020329"><ele>58.4</ele><time>2026-04-04T07:38:08.164Z</time></trkpt><trkpt lat="42.0145604" lon="12.402038"><ele>58.8</ele><time>2026-04-04T07:38:10.164Z</time></trkpt><trkpt lat="42.0144649" lon="12.4020456"><ele>59.2</ele><time>2026-04-04T07:38:12.164Z</time></trkpt><trkpt lat="42.0143744" lon="12.4020473"><ele>59.6</ele><time>2026-04-04T07:38:14.165Z</time></trkpt><trkpt lat="42.0142795" lon="12.4020523"><ele>60.0</ele><time>2026-04-04T07:38:16.164Z</time></trkpt><trkpt lat="42.014197" lon="12.4020603"><ele>60.0</ele><time>2026-04-04T07:38:18.164Z</time></trkpt><trkpt lat="42.014118" lon="12.4020797"><ele>60.0</ele><time>2026-04-04T07:38:20.165Z</time></trkpt><trkpt lat="42.0140357" lon="12.4021033"><ele>60.0</ele><time>2026-04-04T07:38:22.165Z</time></trkpt><trkpt lat="42.013954" lon="12.4021379"><ele>60.0</ele><time>2026-04-04T07:38:24.164Z</time></trkpt><trkpt lat="42.0138721" lon="12.40219"><ele>60.0</ele><time>2026-04-04T07:38:26.164Z</time></trkpt><trkpt lat="42.0137881" lon="12.4022509"><ele>60.0</ele><time>2026-04-04T07:38:28.165Z</time></trkpt><trkpt lat="42.0137085" lon="12.402323"><ele>60.0</ele><time>2026-04-04T07:38:30.164Z</time></trkpt><trkpt lat="42.0136291" lon="12.4024017"><ele>60.0</ele><time>2026-04-04T07:38:32.165Z</time></trkpt><trkpt lat="42.0135603" lon="12.4024833"><ele>60.0</ele><time>2026-04-04T07:38:34.164Z</time></trkpt><trkpt lat="42.0134955" lon="12.402564"><ele>60.0</ele><time>2026-04-04T07:38:36.164Z</time></trkpt><trkpt lat="42.0134355" lon="12.402647"><ele>60.0</ele><time>2026-04-04T07:38:38.164Z</time></trkpt><trkpt lat="42.013367" lon="12.4027269"><ele>61.833333333333336</ele><time>2026-04-04T07:38:40.165Z</time></trkpt><trkpt lat="42.0133026" lon="12.4027995"><ele>63.66666666666667</ele><time>2026-04-04T07:38:42.165Z</time></trkpt><trkpt lat="42.0132247" lon="12.402879"><ele>65.5</ele><time>2026-04-04T07:38:44.164Z</time></trkpt><trkpt lat="42.0131326" lon="12.4029484"><ele>67.33333333333334</ele><time>2026-04-04T07:38:46.164Z</time></trkpt><trkpt lat="42.0130794" lon="12.4029947"><ele>69.16666666666667</ele><time>2026-04-04T07:38:48.164Z</time></trkpt><trkpt lat="42.0130294" lon="12.4030597"><ele>71.0</ele><time>2026-04-04T07:38:50.164Z</time></trkpt><trkpt lat="42.0129623" lon="12.4031289"><ele>71.0</ele><time>2026-04-04T07:38:52.165Z</time></trkpt><trkpt lat="42.0128999" lon="12.4031935"><ele>71.0</ele><time>2026-04-04T07:38:54.165Z</time></trkpt><trkpt lat="42.012844" lon="12.4032503"><ele>71.0</ele><time>2026-04-04T07:38:56.165Z</time></trkpt><trkpt lat="42.0127858" lon="12.4033096"><ele>71.0</ele><time>2026-04-04T07:38:58.164Z</time></trkpt><trkpt lat="42.0127197" lon="12.4033864"><ele>71.0</ele><time>2026-04-04T07:39:00.164Z</time></trkpt><trkpt lat="42.0126439" lon="12.4034695"><ele>71.0</ele><time>2026-04-04T07:39:02.164Z</time></trkpt><trkpt lat="42.0125741" lon="12.4035602"><ele>71.0</ele><time>2026-04-04T07:39:04.165Z</time></trkpt><trkpt lat="42.0125052" lon="12.4036442"><ele>71.0</ele><time>2026-04-04T07:39:06.165Z</time></trkpt><trkpt lat="42.0124499" lon="12.4037313"><ele>71.0</ele><time>2026-04-04T07:39:08.164Z</time></trkpt><trkpt lat="42.0123886" lon="12.4038385"><ele>71.0</ele><time>2026-04-04T07:39:10.165Z</time></trkpt><trkpt lat="42.0123242" lon="12.4039352"><ele>71.0</ele><time>2026-04-04T07:39:12.164Z</time></trkpt><trkpt lat="42.0122665" lon="12.4040312"><ele>70.6</ele><time>2026-04-04T07:39:14.165Z</time></trkpt><trkpt lat="42.0122019" lon="12.4041171"><ele>70.19999999999999</ele><time>2026-04-04T07:39:16.165Z</time></trkpt><trkpt lat="42.0121298" lon="12.4042134"><ele>69.80000000000001</ele><time>2026-04-04T07:39:18.164Z</time></trkpt><trkpt lat="42.0120602" lon="12.4043092"><ele>69.4</ele><time>2026-04-04T07:39:20.165Z</time></trkpt><trkpt lat="42.0119961" lon="12.4043965"><ele>69.0</ele><time>2026-04-04T07:39:22.164Z</time></trkpt><trkpt lat="42.0119221" lon="12.4044932"><ele>69.0</ele><time>2026-04-04T07:39:24.164Z</time></trkpt><trkpt lat="42.0118444" lon="12.4045927"><ele>69.0</ele><time>2026-04-04T07:39:26.164Z</time></trkpt><trkpt lat="42.0117616" lon="12.4047031"><ele>69.0</ele><time>2026-04-04T07:39:28.164Z</time></trkpt><trkpt lat="42.0116912" lon="12.4048054"><ele>69.0</ele><time>2026-04-04T07:39:30.164Z</time></trkpt><trkpt lat="42.0116275" lon="12.4049006"><ele>69.0</ele><time>2026-04-04T07:39:32.164Z</time></trkpt><trkpt lat="42.0115679" lon="12.4050022"><ele>67.83333333333333</ele><time>2026-04-04T07:39:34.164Z</time></trkpt><trkpt lat="42.011519" lon="12.4051111"><ele>66.66666666666667</ele><time>2026-04-04T07:39:36.165Z</time></trkpt><trkpt lat="42.0114687" lon="12.4052103"><ele>65.5</ele><time>2026-04-04T07:39:38.164Z</time></trkpt><trkpt lat="42.0114305" lon="12.4053119"><ele>64.33333333333334</ele><time>2026-04-04T07:39:40.165Z</time></trkpt><trkpt lat="42.0114187" lon="12.40542"><ele>63.16666666666667</ele><time>2026-04-04T07:39:42.165Z</time></trkpt><trkpt lat="42.0114305" lon="12.4055154"><ele>62.0</ele><time>2026-04-04T07:39:44.165Z</time></trkpt><trkpt lat="42.0114721" lon="12.4056068"><ele>62.00000000000001</ele><time>2026-04-04T07:39:46.165Z</time></trkpt><trkpt lat="42.0115217" lon="12.4056831"><ele>62.0</ele><time>2026-04-04T07:39:48.164Z</time></trkpt><trkpt lat="42.0115862" lon="12.4057394"><ele>62.0</ele><time>2026-04-04T07:39:50.164Z</time></trkpt><trkpt lat="42.0116618" lon="12.4057917"><ele>62.0</ele><time>2026-04-04T07:39:52.164Z</time></trkpt><trkpt lat="42.0117109" lon="12.4058502"><ele>62.00000000000001</ele><time>2026-04-04T07:39:54.165Z</time></trkpt><trkpt lat="42.0117622" lon="12.4059237"><ele>62.0</ele><time>2026-04-04T07:39:56.164Z</time></trkpt><trkpt lat="42.0118208" lon="12.406006"><ele>60.16666666666667</ele><time>2026-04-04T07:39:58.164Z</time></trkpt><trkpt lat="42.0118638" lon="12.4061017"><ele>58.333333333333336</ele><time>2026-04-04T07:40:00.164Z</time></trkpt><trkpt lat="42.0118908" lon="12.4062067"><ele>56.5</ele><time>2026-04-04T07:40:02.164Z</time></trkpt><trkpt lat="42.0119066" lon="12.4063082"><ele>54.66666666666667</ele><time>2026-04-04T07:40:04.164Z</time></trkpt><trkpt lat="42.0119136" lon="12.4064103"><ele>52.833333333333336</ele><time>2026-04-04T07:40:06.164Z</time></trkpt><trkpt lat="42.0119133" lon="12.406512"><ele>51.0</ele><time>2026-04-04T07:40:08.165Z</time></trkpt><trkpt lat="42.0119042" lon="12.4066021"><ele>51.0</ele><time>2026-04-04T07:40:10.165Z</time></trkpt><trkpt lat="42.0118931" lon="12.406695"><ele>51.0</ele><time>2026-04-04T07:40:12.164Z</time></trkpt><trkpt lat="42.0118753" lon="12.4067816"><ele>51.0</ele><time>2026-04-04T07:40:14.164Z</time></trkpt><trkpt lat="42.0118334" lon="12.4068992"><ele>51.0</ele><time>2026-04-04T07:40:17.164Z</time></trkpt><trkpt lat="42.0117922" lon="12.4069862"><ele>51.0</ele><time>2026-04-04T07:40:19.165Z</time></trkpt><trkpt lat="42.0117523" lon="12.4070617"><ele>51.0</ele><time>2026-04-04T07:40:21.164Z</time></trkpt><trkpt lat="42.0117017" lon="12.4071559"><ele>50.5</ele><time>2026-04-04T07:40:24.165Z</time></trkpt><trkpt lat="42.0116594" lon="12.4072281"><ele>50.0</ele><time>2026-04-04T07:40:26.165Z</time></trkpt><trkpt lat="42.0116202" lon="12.4072974"><ele>49.5</ele><time>2026-04-04T07:40:28.164Z</time></trkpt><trkpt lat="42.0115733" lon="12.4073697"><ele>49.0</ele><time>2026-04-04T07:40:30.164Z</time></trkpt><trkpt lat="42.0115204" lon="12.4074533"><ele>48.5</ele><time>2026-04-04T07:40:32.165Z</time></trkpt><trkpt lat="42.0114654" lon="12.4075378"><ele>48.0</ele><time>2026-04-04T07:40:34.164Z</time></trkpt><trkpt lat="42.0114061" lon="12.4076324"><ele>48.0</ele><time>2026-04-04T07:40:36.164Z</time></trkpt><trkpt lat="42.0113403" lon="12.4077286"><ele>48.0</ele><time>2026-04-04T07:40:38.165Z</time></trkpt><trkpt lat="42.0112936" lon="12.4078049"><ele>48.0</ele><time>2026-04-04T07:40:40.164Z</time></trkpt><trkpt lat="42.0112341" lon="12.4078761"><ele>48.0</ele><time>2026-04-04T07:40:42.165Z</time></trkpt><trkpt lat="42.0111678" lon="12.4079439"><ele>48.0</ele><time>2026-04-04T07:40:44.165Z</time></trkpt><trkpt lat="42.0111053" lon="12.4080189"><ele>48.0</ele><time>2026-04-04T07:40:46.164Z</time></trkpt><trkpt lat="42.0110499" lon="12.4080962"><ele>47.5</ele><time>2026-04-04T07:40:48.164Z</time></trkpt><trkpt lat="42.0110038" lon="12.4081766"><ele>47.0</ele><time>2026-04-04T07:40:50.164Z</time></trkpt><trkpt lat="42.0109581" lon="12.4082504"><ele>46.5</ele><time>2026-04-04T07:40:52.164Z</time></trkpt><trkpt lat="42.0109122" lon="12.4083421"><ele>46.0</ele><time>2026-04-04T07:40:54.164Z</time></trkpt><trkpt lat="42.0108619" lon="12.4084354"><ele>45.5</ele><time>2026-04-04T07:40:56.165Z</time></trkpt><trkpt lat="42.0108155" lon="12.4085101"><ele>45.0</ele><time>2026-04-04T07:40:58.164Z</time></trkpt><trkpt lat="42.0107807" lon="12.4085915"><ele>45.0</ele><time>2026-04-04T07:41:00.164Z</time></trkpt><trkpt lat="42.0107446" lon="12.4086804"><ele>45.0</ele><time>2026-04-04T07:41:02.164Z</time></trkpt><trkpt lat="42.0107235" lon="12.4087899"><ele>45.0</ele><time>2026-04-04T07:41:04.165Z</time></trkpt><trkpt lat="42.0107217" lon="12.4089435"><ele>45.0</ele><time>2026-04-04T07:41:06.165Z</time></trkpt><trkpt lat="42.0107292" lon="12.4090717"><ele>45.0</ele><time>2026-04-04T07:41:08.164Z</time></trkpt><trkpt lat="42.0107259" lon="12.4091914"><ele>45.166666666666664</ele><time>2026-04-04T07:41:10.164Z</time></trkpt><trkpt lat="42.0107233" lon="12.4093143"><ele>45.333333333333336</ele><time>2026-04-04T07:41:12.164Z</time></trkpt><trkpt lat="42.0107342" lon="12.4094337"><ele>45.5</ele><time>2026-04-04T07:41:14.165Z</time></trkpt><trkpt lat="42.0107521" lon="12.4095489"><ele>45.66666666666667</ele><time>2026-04-04T07:41:16.164Z</time></trkpt><trkpt lat="42.0107671" lon="12.4096643"><ele>45.833333333333336</ele><time>2026-04-04T07:41:18.164Z</time></trkpt><trkpt lat="42.0107747" lon="12.4097739"><ele>46.0</ele><time>2026-04-04T07:41:20.164Z</time></trkpt><trkpt lat="42.0107866" lon="12.4098767"><ele>46.333333333333336</ele><time>2026-04-04T07:41:22.165Z</time></trkpt><trkpt lat="42.0108018" lon="12.4099702"><ele>46.66666666666667</ele><time>2026-04-04T07:41:24.165Z</time></trkpt><trkpt lat="42.0108343" lon="12.4100783"><ele>47.0</ele><time>2026-04-04T07:41:26.164Z</time></trkpt><trkpt lat="42.0108767" lon="12.4101749"><ele>47.333333333333336</ele><time>2026-04-04T07:41:28.165Z</time></trkpt><trkpt lat="42.0109239" lon="12.4102556"><ele>47.666666666666664</ele><time>2026-04-04T07:41:30.164Z</time></trkpt><trkpt lat="42.0109762" lon="12.4103237"><ele>48.0</ele><time>2026-04-04T07:41:32.164Z</time></trkpt><trkpt lat="42.0110374" lon="12.4103962"><ele>48.0</ele><time>2026-04-04T07:41:34.165Z</time></trkpt><trkpt lat="42.0111063" lon="12.4104568"><ele>48.0</ele><time>2026-04-04T07:41:36.164Z</time></trkpt><trkpt lat="42.0111752" lon="12.4105163"><ele>48.0</ele><time>2026-04-04T07:41:38.164Z</time></trkpt><trkpt lat="42.0112259" lon="12.4105675"><ele>48.0</ele><time>2026-04-04T07:41:40.165Z</time></trkpt><trkpt lat="42.0112996" lon="12.4106304"><ele>48.0</ele><time>2026-04-04T07:41:43.164Z</time></trkpt><trkpt lat="42.0113702" lon="12.4106858"><ele>48.0</ele><time>2026-04-04T07:41:46.164Z</time></trkpt><trkpt lat="42.0114241" lon="12.4107528"><ele>48.0</ele><time>2026-04-04T07:41:50.164Z</time></trkpt><trkpt lat="42.0114892" lon="12.4108109"><ele>48.0</ele><time>2026-04-04T07:45:04.166Z</time></trkpt><trkpt lat="42.0115469" lon="12.4108803"><ele>48.0</ele><time>2026-04-04T07:45:08.166Z</time></trkpt><trkpt lat="42.0116108" lon="12.4109504"><ele>48.0</ele><time>2026-04-04T07:45:11.166Z</time></trkpt><trkpt lat="42.0116882" lon="12.41102"><ele>48.0</ele><time>2026-04-04T07:45:14.165Z</time></trkpt><trkpt lat="42.0117435" lon="12.4110735"><ele>48.0</ele><time>2026-04-04T07:45:16.165Z</time></trkpt><trkpt lat="42.0117987" lon="12.4111289"><ele>48.0</ele><time>2026-04-04T07:45:18.165Z</time></trkpt><trkpt lat="42.0118648" lon="12.4111739"><ele>48.0</ele><time>2026-04-04T07:45:20.166Z</time></trkpt><trkpt lat="42.0119224" lon="12.4112213"><ele>48.0</ele><time>2026-04-04T07:45:22.166Z</time></trkpt><trkpt lat="42.0119876" lon="12.4112657"><ele>48.0</ele><time>2026-04-04T07:45:24.166Z</time></trkpt><trkpt lat="42.0120497" lon="12.4113187"><ele>48.0</ele><time>2026-04-04T07:45:26.165Z</time></trkpt><trkpt lat="42.0121127" lon="12.4113729"><ele>48.0</ele><time>2026-04-04T07:45:28.166Z</time></trkpt><trkpt lat="42.0121901" lon="12.4114453"><ele>48.0</ele><time>2026-04-04T07:45:31.166Z</time></trkpt><trkpt lat="42.012266" lon="12.411518"><ele>48.0</ele><time>2026-04-04T07:45:34.166Z</time></trkpt><trkpt lat="42.0123423" lon="12.4115882"><ele>48.0</ele><time>2026-04-04T07:45:37.165Z</time></trkpt><trkpt lat="42.0123977" lon="12.4116436"><ele>48.0</ele><time>2026-04-04T07:45:39.165Z</time></trkpt><trkpt lat="42.0124511" lon="12.4116985"><ele>48.0</ele><time>2026-04-04T07:45:41.165Z</time></trkpt><trkpt lat="42.0125053" lon="12.4117458"><ele>48.0</ele><time>2026-04-04T07:45:43.166Z</time></trkpt><trkpt lat="42.0125618" lon="12.4118125"><ele>48.285714285714285</ele><time>2026-04-04T07:45:45.165Z</time></trkpt><trkpt lat="42.0126201" lon="12.411876"><ele>48.57142857142857</ele><time>2026-04-04T07:45:47.165Z</time></trkpt><trkpt lat="42.0126784" lon="12.4119439"><ele>48.85714285714286</ele><time>2026-04-04T07:45:49.165Z</time></trkpt><trkpt lat="42.0127365" lon="12.4120063"><ele>49.14285714285714</ele><time>2026-04-04T07:45:51.165Z</time></trkpt><trkpt lat="42.0127922" lon="12.4120786"><ele>49.42857142857143</ele><time>2026-04-04T07:45:53.165Z</time></trkpt><trkpt lat="42.012851" lon="12.4121387"><ele>49.714285714285715</ele><time>2026-04-04T07:45:55.165Z</time></trkpt><trkpt lat="42.0129076" lon="12.4121844"><ele>50.0</ele><time>2026-04-04T07:45:57.165Z</time></trkpt><trkpt lat="42.0129912" lon="12.4122494"><ele>50.00000000000001</ele><time>2026-04-04T07:46:00.165Z</time></trkpt><trkpt lat="42.0130576" lon="12.4122963"><ele>50.0</ele><time>2026-04-04T07:46:02.165Z</time></trkpt><trkpt lat="42.0131179" lon="12.4123397"><ele>50.0</ele><time>2026-04-04T07:46:04.166Z</time></trkpt><trkpt lat="42.0131876" lon="12.4123768"><ele>50.0</ele><time>2026-04-04T07:46:06.166Z</time></trkpt><trkpt lat="42.0132634" lon="12.4124028"><ele>50.00000000000001</ele><time>2026-04-04T07:46:08.165Z</time></trkpt><trkpt lat="42.0133338" lon="12.4124142"><ele>50.0</ele><time>2026-04-04T07:46:10.166Z</time></trkpt><trkpt lat="42.0134276" lon="12.4124072"><ele>50.66666666666667</ele><time>2026-04-04T07:46:13.166Z</time></trkpt><trkpt lat="42.0135099" lon="12.4123771"><ele>51.333333333333336</ele><time>2026-04-04T07:46:16.165Z</time></trkpt><trkpt lat="42.0135642" lon="12.4123012"><ele>52.0</ele><time>2026-04-04T07:46:20.165Z</time></trkpt><trkpt lat="42.0135796" lon="12.4122091"><ele>52.66666666666667</ele><time>2026-04-04T07:46:46.166Z</time></trkpt><trkpt lat="42.0135662" lon="12.4121164"><ele>53.333333333333336</ele><time>2026-04-04T07:46:50.165Z</time></trkpt><trkpt lat="42.0135354" lon="12.412013"><ele>54.0</ele><time>2026-04-04T07:46:54.166Z</time></trkpt><trkpt lat="42.0135269" lon="12.4119138"><ele>54.0</ele><time>2026-04-04T07:47:00.166Z</time></trkpt><trkpt lat="42.0135649" lon="12.411753"><ele>54.0</ele><time>2026-04-04T07:47:14.165Z</time></trkpt><trkpt lat="42.0135958" lon="12.4116605"><ele>54.0</ele><time>2026-04-04T07:47:16.165Z</time></trkpt><trkpt lat="42.013626" lon="12.4115854"><ele>54.0</ele><time>2026-04-04T07:47:18.166Z</time></trkpt><trkpt lat="42.0136619" lon="12.4115029"><ele>54.0</ele><time>2026-04-04T07:47:23.165Z</time></trkpt><trkpt lat="42.0136937" lon="12.4113986"><ele>54.0</ele><time>2026-04-04T07:47:31.166Z</time></trkpt><trkpt lat="42.0137257" lon="12.4112785"><ele>55.5</ele><time>2026-04-04T07:47:33.165Z</time></trkpt><trkpt lat="42.0137663" lon="12.4111521"><ele>57.0</ele><time>2026-04-04T07:47:35.166Z</time></trkpt><trkpt lat="42.0138189" lon="12.4110524"><ele>58.5</ele><time>2026-04-04T07:47:37.165Z</time></trkpt><trkpt lat="42.0138794" lon="12.4109696"><ele>60.0</ele><time>2026-04-04T07:47:39.165Z</time></trkpt><trkpt lat="42.0139395" lon="12.4109037"><ele>61.5</ele><time>2026-04-04T07:47:41.166Z</time></trkpt><trkpt lat="42.0140036" lon="12.4108159"><ele>63.0</ele><time>2026-04-04T07:47:44.165Z</time></trkpt><trkpt lat="42.0140674" lon="12.4107358"><ele>63.0</ele><time>2026-04-04T07:47:47.166Z</time></trkpt><trkpt lat="42.0141222" lon="12.4106559"><ele>63.0</ele><time>2026-04-04T07:47:50.166Z</time></trkpt><trkpt lat="42.014191" lon="12.4105851"><ele>63.0</ele><time>2026-04-04T07:47:53.165Z</time></trkpt><trkpt lat="42.0142574" lon="12.4105084"><ele>63.0</ele><time>2026-04-04T07:47:56.165Z</time></trkpt><trkpt lat="42.0143143" lon="12.4104209"><ele>63.0</ele><time>2026-04-04T07:47:59.165Z</time></trkpt><trkpt lat="42.014363" lon="12.4103424"><ele>63.0</ele><time>2026-04-04T07:48:02.165Z</time></trkpt><trkpt lat="42.0143984" lon="12.4102524"><ele>62.14285714285714</ele><time>2026-04-04T07:48:06.165Z</time></trkpt><trkpt lat="42.0144421" lon="12.4101781"><ele>61.285714285714285</ele><time>2026-04-04T07:48:10.165Z</time></trkpt><trkpt lat="42.0144941" lon="12.4101161"><ele>60.42857142857143</ele><time>2026-04-04T07:48:14.166Z</time></trkpt><trkpt lat="42.0145246" lon="12.4100378"><ele>59.57142857142857</ele><time>2026-04-04T07:48:18.165Z</time></trkpt><trkpt lat="42.0145707" lon="12.4099552"><ele>58.71428571428571</ele><time>2026-04-04T07:48:24.166Z</time></trkpt><trkpt lat="42.0146179" lon="12.4098959"><ele>57.857142857142854</ele><time>2026-04-04T07:48:27.165Z</time></trkpt><trkpt lat="42.0146761" lon="12.4098257"><ele>57.0</ele><time>2026-04-04T07:48:30.165Z</time></trkpt><trkpt lat="42.0147417" lon="12.4097699"><ele>57.0</ele><time>2026-04-04T07:48:33.165Z</time></trkpt><trkpt lat="42.0148093" lon="12.4096996"><ele>57.0</ele><time>2026-04-04T07:48:36.166Z</time></trkpt><trkpt lat="42.0148524" lon="12.4096197"><ele>57.0</ele><time>2026-04-04T07:48:40.165Z</time></trkpt><trkpt lat="42.0149114" lon="12.4095724"><ele>57.0</ele><time>2026-04-04T07:48:44.165Z</time></trkpt><trkpt lat="42.0149815" lon="12.4095429"><ele>57.0</ele><time>2026-04-04T07:48:48.166Z</time></trkpt><trkpt lat="42.0150533" lon="12.40949"><ele>57.0</ele><time>2026-04-04T07:48:51.165Z</time></trkpt><trkpt lat="42.0151292" lon="12.4094345"><ele>56.333333333333336</ele><time>2026-04-04T07:49:04.165Z</time></trkpt><trkpt lat="42.0151828" lon="12.409362"><ele>55.66666666666667</ele><time>2026-04-04T07:49:07.166Z</time></trkpt><trkpt lat="42.0152365" lon="12.409304"><ele>55.0</ele><time>2026-04-04T07:49:09.166Z</time></trkpt><trkpt lat="42.0153008" lon="12.4092491"><ele>54.333333333333336</ele><time>2026-04-04T07:49:11.166Z</time></trkpt><trkpt lat="42.0153795" lon="12.4092016"><ele>53.66666666666667</ele><time>2026-04-04T07:49:13.165Z</time></trkpt><trkpt lat="42.015461" lon="12.4091874"><ele>53.0</ele><time>2026-04-04T07:49:15.165Z</time></trkpt><trkpt lat="42.0155374" lon="12.4092162"><ele>53.00000000000001</ele><time>2026-04-04T07:49:18.166Z</time></trkpt><trkpt lat="42.0156101" lon="12.4092619"><ele>53.0</ele><time>2026-04-04T07:49:21.165Z</time></trkpt><trkpt lat="42.0156789" lon="12.4092899"><ele>53.0</ele><time>2026-04-04T07:49:24.166Z</time></trkpt><trkpt lat="42.0157571" lon="12.4093288"><ele>53.0</ele><time>2026-04-04T07:49:27.165Z</time></trkpt><trkpt lat="42.0158325" lon="12.4093522"><ele>53.00000000000001</ele><time>2026-04-04T07:49:30.166Z</time></trkpt><trkpt lat="42.0159035" lon="12.4093651"><ele>53.0</ele><time>2026-04-04T07:49:33.166Z</time></trkpt><trkpt lat="42.015981" lon="12.4093973"><ele>53.50000000000001</ele><time>2026-04-04T07:49:37.166Z</time></trkpt><trkpt lat="42.0160466" lon="12.409448"><ele>54.0</ele><time>2026-04-04T07:49:40.166Z</time></trkpt><trkpt lat="42.0161133" lon="12.4094453"><ele>54.5</ele><time>2026-04-04T07:49:42.165Z</time></trkpt><trkpt lat="42.0162007" lon="12.4094211"><ele>55.0</ele><time>2026-04-04T07:49:44.165Z</time></trkpt><trkpt lat="42.0162768" lon="12.4094069"><ele>55.50000000000001</ele><time>2026-04-04T07:49:46.166Z</time></trkpt><trkpt lat="42.0163704" lon="12.409399"><ele>56.0</ele><time>2026-04-04T07:49:49.165Z</time></trkpt><trkpt lat="42.0164593" lon="12.4093828"><ele>56.00000000000001</ele><time>2026-04-04T07:49:52.165Z</time></trkpt><trkpt lat="42.0165462" lon="12.4093449"><ele>56.0</ele><time>2026-04-04T07:49:55.166Z</time></trkpt><trkpt lat="42.0166085" lon="12.4093103"><ele>56.0</ele><time>2026-04-04T07:49:57.166Z</time></trkpt><trkpt lat="42.0166934" lon="12.4092937"><ele>56.0</ele><time>2026-04-04T07:50:00.165Z</time></trkpt><trkpt lat="42.0167684" lon="12.409304"><ele>56.00000000000001</ele><time>2026-04-04T07:50:02.166Z</time></trkpt><trkpt lat="42.0168492" lon="12.4093201"><ele>56.0</ele><time>2026-04-04T07:50:04.166Z</time></trkpt><trkpt lat="42.0169204" lon="12.4093378"><ele>57.00000000000001</ele><time>2026-04-04T07:50:06.166Z</time></trkpt><trkpt lat="42.0170071" lon="12.409354"><ele>58.0</ele><time>2026-04-04T07:50:08.166Z</time></trkpt><trkpt lat="42.0170876" lon="12.4093761"><ele>59.0</ele><time>2026-04-04T07:50:10.166Z</time></trkpt><trkpt lat="42.0171647" lon="12.4093882"><ele>60.0</ele><time>2026-04-04T07:50:12.166Z</time></trkpt><trkpt lat="42.0172339" lon="12.4094002"><ele>61.00000000000001</ele><time>2026-04-04T07:50:14.165Z</time></trkpt><trkpt lat="42.0173153" lon="12.4094145"><ele>62.0</ele><time>2026-04-04T07:50:17.166Z</time></trkpt><trkpt lat="42.017379" lon="12.4094218"><ele>62.00000000000001</ele><time>2026-04-04T07:50:20.166Z</time></trkpt><trkpt lat="42.0174695" lon="12.409449"><ele>62.0</ele><time>2026-04-04T07:50:23.165Z</time></trkpt><trkpt lat="42.0175561" lon="12.4095046"><ele>62.0</ele><time>2026-04-04T07:50:26.166Z</time></trkpt><trkpt lat="42.0176325" lon="12.4095271"><ele>62.0</ele><time>2026-04-04T07:50:28.166Z</time></trkpt><trkpt lat="42.017696" lon="12.4095589"><ele>62.00000000000001</ele><time>2026-04-04T07:50:30.166Z</time></trkpt><trkpt lat="42.0177728" lon="12.4095949"><ele>62.0</ele><time>2026-04-04T07:50:33.165Z</time></trkpt><trkpt lat="42.0178496" lon="12.4096568"><ele>65.5</ele><time>2026-04-04T07:50:36.165Z</time></trkpt><trkpt lat="42.0179213" lon="12.4097247"><ele>69.0</ele><time>2026-04-04T07:50:39.165Z</time></trkpt><trkpt lat="42.0179774" lon="12.4098045"><ele>72.5</ele><time>2026-04-04T07:50:42.165Z</time></trkpt><trkpt lat="42.0180224" lon="12.4098928"><ele>76.0</ele><time>2026-04-04T07:50:45.165Z</time></trkpt><trkpt lat="42.0180746" lon="12.4099686"><ele>79.5</ele><time>2026-04-04T07:50:48.166Z</time></trkpt><trkpt lat="42.0181492" lon="12.4100065"><ele>83.0</ele><time>2026-04-04T07:50:50.166Z</time></trkpt><trkpt lat="42.0182239" lon="12.4100269"><ele>83.0</ele><time>2026-04-04T07:50:52.166Z</time></trkpt><trkpt lat="42.0182933" lon="12.4100421"><ele>83.0</ele><time>2026-04-04T07:50:56.165Z</time></trkpt><trkpt lat="42.0183411" lon="12.4101064"><ele>83.0</ele><time>2026-04-04T07:53:16.166Z</time></trkpt><trkpt lat="42.0184393" lon="12.4101085"><ele>83.0</ele><time>2026-04-04T07:55:40.167Z</time></trkpt><trkpt lat="42.0184012" lon="12.4100357"><ele>83.0</ele><time>2026-04-04T07:57:04.166Z</time></trkpt><trkpt lat="42.0184598" lon="12.4100985"><ele>83.0</ele><time>2026-04-04T07:58:34.166Z</time></trkpt><trkpt lat="42.0185378" lon="12.4100806"><ele>80.0</ele><time>2026-04-04T08:02:24.168Z</time></trkpt><trkpt lat="42.0186393" lon="12.4100405"><ele>77.0</ele><time>2026-04-04T08:02:56.168Z</time></trkpt><trkpt lat="42.0187141" lon="12.4101013"><ele>74.0</ele><time>2026-04-04T08:03:34.168Z</time></trkpt><trkpt lat="42.0187724" lon="12.4101333"><ele>71.0</ele><time>2026-04-04T08:03:36.167Z</time></trkpt><trkpt lat="42.0188481" lon="12.4101525"><ele>68.0</ele><time>2026-04-04T08:03:39.167Z</time></trkpt><trkpt lat="42.0189311" lon="12.4101704"><ele>65.0</ele><time>2026-04-04T08:04:16.167Z</time></trkpt><trkpt lat="42.018993" lon="12.4102207"><ele>65.00000000000001</ele><time>2026-04-04T08:04:18.168Z</time></trkpt><trkpt lat="42.0190557" lon="12.4102687"><ele>65.0</ele><time>2026-04-04T08:04:21.167Z</time></trkpt><trkpt lat="42.0191285" lon="12.4102851"><ele>65.0</ele><time>2026-04-04T08:04:25.167Z</time></trkpt><trkpt lat="42.019196" lon="12.4103193"><ele>65.0</ele><time>2026-04-04T08:04:29.168Z</time></trkpt><trkpt lat="42.0192606" lon="12.4103623"><ele>65.0</ele><time>2026-04-04T08:04:32.167Z</time></trkpt><trkpt lat="42.0193211" lon="12.4103869"><ele>65.00000000000001</ele><time>2026-04-04T08:04:35.168Z</time></trkpt><trkpt lat="42.0193912" lon="12.4104169"><ele>65.0</ele><time>2026-04-04T08:04:40.168Z</time></trkpt><trkpt lat="42.0194616" lon="12.4104967"><ele>65.5</ele><time>2026-04-04T08:04:45.169Z</time></trkpt><trkpt lat="42.0195114" lon="12.4105618"><ele>66.0</ele><time>2026-04-04T08:04:47.168Z</time></trkpt><trkpt lat="42.0195601" lon="12.4106181"><ele>66.5</ele><time>2026-04-04T08:04:50.169Z</time></trkpt><trkpt lat="42.0196094" lon="12.4106767"><ele>67.0</ele><time>2026-04-04T08:04:55.168Z</time></trkpt><trkpt lat="42.0196718" lon="12.4107623"><ele>67.5</ele><time>2026-04-04T08:04:59.168Z</time></trkpt><trkpt lat="42.0197408" lon="12.4108442"><ele>68.0</ele><time>2026-04-04T08:05:01.169Z</time></trkpt><trkpt lat="42.0197834" lon="12.410921"><ele>67.99999999999999</ele><time>2026-04-04T08:05:03.168Z</time></trkpt><trkpt lat="42.0198193" lon="12.4109944"><ele>68.0</ele><time>2026-04-04T08:05:05.168Z</time></trkpt><trkpt lat="42.0198604" lon="12.4110606"><ele>68.0</ele><time>2026-04-04T08:05:07.169Z</time></trkpt><trkpt lat="42.0198983" lon="12.4111412"><ele>68.0</ele><time>2026-04-04T08:05:10.168Z</time></trkpt><trkpt lat="42.0199182" lon="12.4112237"><ele>68.0</ele><time>2026-04-04T08:05:12.168Z</time></trkpt><trkpt lat="42.0199448" lon="12.4113148"><ele>67.99999999999999</ele><time>2026-04-04T08:05:16.168Z</time></trkpt><trkpt lat="42.0200084" lon="12.411335"><ele>68.0</ele><time>2026-04-04T08:05:21.168Z</time></trkpt><trkpt lat="42.0200711" lon="12.4113033"><ele>66.66666666666667</ele><time>2026-04-04T08:05:24.168Z</time></trkpt><trkpt lat="42.0201204" lon="12.4112459"><ele>65.33333333333334</ele><time>2026-04-04T08:05:28.168Z</time></trkpt><trkpt lat="42.0201599" lon="12.4111567"><ele>64.0</ele><time>2026-04-04T08:05:40.169Z</time></trkpt><trkpt lat="42.0201837" lon="12.4110722"><ele>62.66666666666667</ele><time>2026-04-04T08:05:42.168Z</time></trkpt><trkpt lat="42.0201304" lon="12.4109787"><ele>61.333333333333336</ele><time>2026-04-04T08:06:09.169Z</time></trkpt><trkpt lat="42.0200842" lon="12.4109178"><ele>60.0</ele><time>2026-04-04T08:06:11.169Z</time></trkpt><trkpt lat="42.0200911" lon="12.4107822"><ele>60.0</ele><time>2026-04-04T08:06:40.168Z</time></trkpt><trkpt lat="42.0201081" lon="12.4106132"><ele>60.0</ele><time>2026-04-04T08:07:04.168Z</time></trkpt><trkpt lat="42.0201056" lon="12.4105107"><ele>60.0</ele><time>2026-04-04T08:07:09.169Z</time></trkpt><trkpt lat="42.0200841" lon="12.4103811"><ele>60.0</ele><time>2026-04-04T08:07:30.168Z</time></trkpt><trkpt lat="42.020017" lon="12.4102567"><ele>60.0</ele><time>2026-04-04T08:08:00.168Z</time></trkpt><trkpt lat="42.0200351" lon="12.4101375"><ele>62.0</ele><time>2026-04-04T08:08:28.168Z</time></trkpt><trkpt lat="42.0199895" lon="12.4100547"><ele>64.0</ele><time>2026-04-04T08:08:50.168Z</time></trkpt><trkpt lat="42.0199145" lon="12.409997"><ele>66.0</ele><time>2026-04-04T08:08:53.169Z</time></trkpt><trkpt lat="42.0198504" lon="12.4099469"><ele>68.0</ele><time>2026-04-04T08:08:57.168Z</time></trkpt><trkpt lat="42.0197957" lon="12.40987"><ele>70.0</ele><time>2026-04-04T08:09:06.168Z</time></trkpt><trkpt lat="42.0196764" lon="12.4098364"><ele>72.0</ele><time>2026-04-04T08:09:20.168Z</time></trkpt><trkpt lat="42.0195737" lon="12.4097538"><ele>72.0</ele><time>2026-04-04T08:09:35.168Z</time></trkpt><trkpt lat="42.0195137" lon="12.4097157"><ele>72.0</ele><time>2026-04-04T08:09:37.169Z</time></trkpt><trkpt lat="42.0194348" lon="12.4096923"><ele>72.0</ele><time>2026-04-04T08:09:41.168Z</time></trkpt><trkpt lat="42.0193784" lon="12.4096324"><ele>72.0</ele><time>2026-04-04T08:09:46.168Z</time></trkpt><trkpt lat="42.0193048" lon="12.4095602"><ele>72.0</ele><time>2026-04-04T08:09:55.168Z</time></trkpt><trkpt lat="42.0192409" lon="12.4095155"><ele>72.0</ele><time>2026-04-04T08:09:59.169Z</time></trkpt><trkpt lat="42.0191786" lon="12.4094507"><ele>71.5</ele><time>2026-04-04T08:10:03.168Z</time></trkpt><trkpt lat="42.0191289" lon="12.4093853"><ele>71.0</ele><time>2026-04-04T08:10:06.169Z</time></trkpt><trkpt lat="42.0190873" lon="12.4093123"><ele>70.5</ele><time>2026-04-04T08:10:09.169Z</time></trkpt><trkpt lat="42.019054" lon="12.4092249"><ele>70.0</ele><time>2026-04-04T08:10:13.168Z</time></trkpt><trkpt lat="42.0190523" lon="12.409118"><ele>69.5</ele><time>2026-04-04T08:10:39.169Z</time></trkpt><trkpt lat="42.0190926" lon="12.4089887"><ele>69.0</ele><time>2026-04-04T08:10:53.169Z</time></trkpt><trkpt lat="42.0191377" lon="12.4089255"><ele>72.0</ele><time>2026-04-04T08:10:56.168Z</time></trkpt><trkpt lat="42.0192015" lon="12.4088613"><ele>75.0</ele><time>2026-04-04T08:11:04.168Z</time></trkpt><trkpt lat="42.019284" lon="12.4087914"><ele>78.0</ele><time>2026-04-04T08:11:10.169Z</time></trkpt><trkpt lat="42.0193413" lon="12.4087317"><ele>81.0</ele><time>2026-04-04T08:11:13.169Z</time></trkpt><trkpt lat="42.0194138" lon="12.4086684"><ele>84.0</ele><time>2026-04-04T08:11:19.168Z</time></trkpt><trkpt lat="42.0194761" lon="12.4086421"><ele>87.0</ele><time>2026-04-04T08:11:22.168Z</time></trkpt><trkpt lat="42.0195439" lon="12.4085854"><ele>87.0</ele><time>2026-04-04T08:11:26.168Z</time></trkpt><trkpt lat="42.0196063" lon="12.4085523"><ele>87.0</ele><time>2026-04-04T08:11:29.168Z</time></trkpt><trkpt lat="42.0196823" lon="12.4085346"><ele>87.0</ele><time>2026-04-04T08:11:33.168Z</time></trkpt><trkpt lat="42.0197397" lon="12.4084972"><ele>87.0</ele><time>2026-04-04T08:11:36.168Z</time></trkpt><trkpt lat="42.0198165" lon="12.4084296"><ele>87.0</ele><time>2026-04-04T08:11:39.168Z</time></trkpt><trkpt lat="42.0198836" lon="12.4083807"><ele>87.0</ele><time>2026-04-04T08:11:41.169Z</time></trkpt><trkpt lat="42.0199591" lon="12.4083201"><ele>88.5</ele><time>2026-04-04T08:11:43.168Z</time></trkpt><trkpt lat="42.0200396" lon="12.4082808"><ele>90.0</ele><time>2026-04-04T08:11:45.169Z</time></trkpt><trkpt lat="42.0201067" lon="12.4082406"><ele>91.5</ele><time>2026-04-04T08:11:47.169Z</time></trkpt><trkpt lat="42.0201701" lon="12.4081876"><ele>93.0</ele><time>2026-04-04T08:11:49.168Z</time></trkpt><trkpt lat="42.0202412" lon="12.4081297"><ele>94.5</ele><time>2026-04-04T08:11:51.169Z</time></trkpt><trkpt lat="42.0203069" lon="12.40804"><ele>96.0</ele><time>2026-04-04T08:11:53.169Z</time></trkpt><trkpt lat="42.0203418" lon="12.40794"><ele>96.0</ele><time>2026-04-04T08:11:55.169Z</time></trkpt><trkpt lat="42.0203483" lon="12.4078343"><ele>96.0</ele><time>2026-04-04T08:11:57.169Z</time></trkpt><trkpt lat="42.0203396" lon="12.407724"><ele>96.0</ele><time>2026-04-04T08:11:59.168Z</time></trkpt><trkpt lat="42.0203225" lon="12.4076182"><ele>96.0</ele><time>2026-04-04T08:12:01.168Z</time></trkpt><trkpt lat="42.0202394" lon="12.4075611"><ele>96.0</ele><time>2026-04-04T08:12:04.168Z</time></trkpt><trkpt lat="42.0201603" lon="12.4075777"><ele>96.0</ele><time>2026-04-04T08:12:06.168Z</time></trkpt><trkpt lat="42.0200786" lon="12.4076035"><ele>95.99999999999999</ele><time>2026-04-04T08:12:08.168Z</time></trkpt><trkpt lat="42.0200061" lon="12.4075993"><ele>96.0</ele><time>2026-04-04T08:12:10.169Z</time></trkpt><trkpt lat="42.0199403" lon="12.4075743"><ele>96.0</ele><time>2026-04-04T08:12:12.168Z</time></trkpt><trkpt lat="42.0198757" lon="12.4075558"><ele>96.0</ele><time>2026-04-04T08:12:14.169Z</time></trkpt><trkpt lat="42.0197998" lon="12.4075446"><ele>96.0</ele><time>2026-04-04T08:12:16.168Z</time></trkpt><trkpt lat="42.0197213" lon="12.4075394"><ele>95.99999999999999</ele><time>2026-04-04T08:12:18.168Z</time></trkpt><trkpt lat="42.0196381" lon="12.407521"><ele>96.0</ele><time>2026-04-04T08:12:20.169Z</time></trkpt><trkpt lat="42.0195624" lon="12.4075051"><ele>96.85714285714285</ele><time>2026-04-04T08:12:22.168Z</time></trkpt><trkpt lat="42.0194924" lon="12.4074613"><ele>97.71428571428571</ele><time>2026-04-04T08:12:24.168Z</time></trkpt><trkpt lat="42.0194116" lon="12.4074328"><ele>98.57142857142857</ele><time>2026-04-04T08:12:26.169Z</time></trkpt><trkpt lat="42.0193435" lon="12.4074366"><ele>99.42857142857142</ele><time>2026-04-04T08:12:28.169Z</time></trkpt><trkpt lat="42.0192807" lon="12.4074597"><ele>100.28571428571429</ele><time>2026-04-04T08:12:31.168Z</time></trkpt><trkpt lat="42.019214" lon="12.4074882"><ele>101.14285714285714</ele><time>2026-04-04T08:12:35.168Z</time></trkpt><trkpt lat="42.0191481" lon="12.407493"><ele>102.0</ele><time>2026-04-04T08:12:38.168Z</time></trkpt><trkpt lat="42.0190855" lon="12.4074432"><ele>102.0</ele><time>2026-04-04T08:12:41.168Z</time></trkpt><trkpt lat="42.0190462" lon="12.4073537"><ele>102.0</ele><time>2026-04-04T08:12:44.168Z</time></trkpt><trkpt lat="42.0190045" lon="12.4072849"><ele>102.0</ele><time>2026-04-04T08:12:47.168Z</time></trkpt><trkpt lat="42.0189731" lon="12.4072025"><ele>102.0</ele><time>2026-04-04T08:12:50.169Z</time></trkpt><trkpt lat="42.0189597" lon="12.407114"><ele>102.0</ele><time>2026-04-04T08:12:54.169Z</time></trkpt><trkpt lat="42.0189362" lon="12.4070147"><ele>102.0</ele><time>2026-04-04T08:12:59.168Z</time></trkpt><trkpt lat="42.018909" lon="12.4069289"><ele>102.0</ele><time>2026-04-04T08:13:03.168Z</time></trkpt><trkpt lat="42.0188806" lon="12.4068337"><ele>103.42857142857143</ele><time>2026-04-04T08:13:08.168Z</time></trkpt><trkpt lat="42.0188501" lon="12.406751"><ele>104.85714285714286</ele><time>2026-04-04T08:13:13.168Z</time></trkpt><trkpt lat="42.0188198" lon="12.4066638"><ele>106.28571428571428</ele><time>2026-04-04T08:13:18.168Z</time></trkpt><trkpt lat="42.01879" lon="12.4065653"><ele>107.71428571428572</ele><time>2026-04-04T08:13:23.168Z</time></trkpt><trkpt lat="42.0187581" lon="12.406474"><ele>109.14285714285714</ele><time>2026-04-04T08:13:29.168Z</time></trkpt><trkpt lat="42.0187079" lon="12.4063909"><ele>110.57142857142857</ele><time>2026-04-04T08:13:34.169Z</time></trkpt><trkpt lat="42.0186631" lon="12.4063155"><ele>112.0</ele><time>2026-04-04T08:13:38.168Z</time></trkpt><trkpt lat="42.0186205" lon="12.4062526"><ele>113.0</ele><time>2026-04-04T08:13:42.169Z</time></trkpt><trkpt lat="42.0185839" lon="12.406181"><ele>114.0</ele><time>2026-04-04T08:13:46.169Z</time></trkpt><trkpt lat="42.018538" lon="12.4061076"><ele>115.0</ele><time>2026-04-04T08:13:50.17Z</time></trkpt><trkpt lat="42.0185051" lon="12.4060161"><ele>116.0</ele><time>2026-04-04T08:13:55.17Z</time></trkpt><trkpt lat="42.018469" lon="12.4059209"><ele>117.0</ele><time>2026-04-04T08:14:00.169Z</time></trkpt><trkpt lat="42.0184347" lon="12.4058383"><ele>118.0</ele><time>2026-04-04T08:14:04.169Z</time></trkpt><trkpt lat="42.0184077" lon="12.4057502"><ele>119.0</ele><time>2026-04-04T08:14:08.169Z</time></trkpt><trkpt lat="42.0183811" lon="12.4056501"><ele>118.99999999999999</ele><time>2026-04-04T08:14:12.169Z</time></trkpt><trkpt lat="42.0183611" lon="12.4055478"><ele>119.0</ele><time>2026-04-04T08:14:16.17Z</time></trkpt><trkpt lat="42.0183323" lon="12.405438"><ele>119.0</ele><time>2026-04-04T08:14:20.169Z</time></trkpt><trkpt lat="42.0183082" lon="12.4053477"><ele>119.0</ele><time>2026-04-04T08:14:23.169Z</time></trkpt><trkpt lat="42.0182855" lon="12.4052565"><ele>118.99999999999999</ele><time>2026-04-04T08:14:26.169Z</time></trkpt><trkpt lat="42.0182558" lon="12.4051611"><ele>119.0</ele><time>2026-04-04T08:14:29.169Z</time></trkpt><trkpt lat="42.0182274" lon="12.4050802"><ele>118.71428571428572</ele><time>2026-04-04T08:14:33.169Z</time></trkpt><trkpt lat="42.0182563" lon="12.4049992"><ele>118.42857142857143</ele><time>2026-04-04T08:16:46.17Z</time></trkpt><trkpt lat="42.0183251" lon="12.4049597"><ele>118.14285714285714</ele><time>2026-04-04T08:16:49.169Z</time></trkpt><trkpt lat="42.0183873" lon="12.4049295"><ele>117.85714285714286</ele><time>2026-04-04T08:16:51.169Z</time></trkpt><trkpt lat="42.018459" lon="12.4049009"><ele>117.57142857142858</ele><time>2026-04-04T08:16:53.169Z</time></trkpt><trkpt lat="42.018528" lon="12.4048628"><ele>117.28571428571429</ele><time>2026-04-04T08:16:55.169Z</time></trkpt><trkpt lat="42.0186029" lon="12.4048243"><ele>117.0</ele><time>2026-04-04T08:16:57.169Z</time></trkpt><trkpt lat="42.0186718" lon="12.4047864"><ele>117.0</ele><time>2026-04-04T08:16:59.169Z</time></trkpt><trkpt lat="42.0187466" lon="12.4047551"><ele>117.0</ele><time>2026-04-04T08:17:01.169Z</time></trkpt><trkpt lat="42.0188121" lon="12.4047277"><ele>117.0</ele><time>2026-04-04T08:17:03.17Z</time></trkpt><trkpt lat="42.0188794" lon="12.4046993"><ele>117.0</ele><time>2026-04-04T08:17:05.169Z</time></trkpt><trkpt lat="42.0189679" lon="12.4046611"><ele>117.0</ele><time>2026-04-04T08:17:08.169Z</time></trkpt><trkpt lat="42.0190559" lon="12.4046227"><ele>117.0</ele><time>2026-04-04T08:17:11.169Z</time></trkpt><trkpt lat="42.0191296" lon="12.404585"><ele>117.0</ele><time>2026-04-04T08:17:13.169Z</time></trkpt><trkpt lat="42.0192019" lon="12.404549"><ele>117.0</ele><time>2026-04-04T08:17:15.17Z</time></trkpt><trkpt lat="42.0192687" lon="12.4045171"><ele>117.0</ele><time>2026-04-04T08:17:17.169Z</time></trkpt><trkpt lat="42.019346" lon="12.4044972"><ele>117.0</ele><time>2026-04-04T08:17:20.169Z</time></trkpt><trkpt lat="42.0194257" lon="12.4044513"><ele>117.0</ele><time>2026-04-04T08:18:08.17Z</time></trkpt><trkpt lat="42.0194865" lon="12.4044188"><ele>117.0</ele><time>2026-04-04T08:18:10.17Z</time></trkpt><trkpt lat="42.0195558" lon="12.4043888"><ele>117.0</ele><time>2026-04-04T08:18:12.169Z</time></trkpt><trkpt lat="42.0196239" lon="12.4043591"><ele>117.00000000000001</ele><time>2026-04-04T08:18:14.17Z</time></trkpt><trkpt lat="42.0196905" lon="12.4043295"><ele>117.0</ele><time>2026-04-04T08:18:16.169Z</time></trkpt><trkpt lat="42.0197508" lon="12.4042971"><ele>117.0</ele><time>2026-04-04T08:18:18.169Z</time></trkpt><trkpt lat="42.0198162" lon="12.4042712"><ele>117.00000000000001</ele><time>2026-04-04T08:18:20.17Z</time></trkpt><trkpt lat="42.0198786" lon="12.4042386"><ele>117.0</ele><time>2026-04-04T08:18:22.169Z</time></trkpt><trkpt lat="42.0199428" lon="12.404211"><ele>117.0</ele><time>2026-04-04T08:18:24.169Z</time></trkpt><trkpt lat="42.0200093" lon="12.4041766"><ele>117.0</ele><time>2026-04-04T08:18:26.17Z</time></trkpt><trkpt lat="42.0200729" lon="12.4041392"><ele>117.00000000000001</ele><time>2026-04-04T08:18:28.169Z</time></trkpt><trkpt lat="42.0201378" lon="12.4041039"><ele>117.0</ele><time>2026-04-04T08:18:30.17Z</time></trkpt><trkpt lat="42.0201954" lon="12.4040653"><ele>117.0</ele><time>2026-04-04T08:18:32.169Z</time></trkpt><trkpt lat="42.0202595" lon="12.4040288"><ele>117.00000000000001</ele><time>2026-04-04T08:18:34.17Z</time></trkpt><trkpt lat="42.020327" lon="12.4039857"><ele>117.0</ele><time>2026-04-04T08:18:36.17Z</time></trkpt><trkpt lat="42.0203863" lon="12.4039311"><ele>117.0</ele><time>2026-04-04T08:18:38.169Z</time></trkpt><trkpt lat="42.0204502" lon="12.4038803"><ele>117.0</ele><time>2026-04-04T08:18:40.17Z</time></trkpt><trkpt lat="42.0205135" lon="12.4038246"><ele>117.0</ele><time>2026-04-04T08:18:42.169Z</time></trkpt><trkpt lat="42.0205835" lon="12.4037766"><ele>117.0</ele><time>2026-04-04T08:18:44.17Z</time></trkpt><trkpt lat="42.0206519" lon="12.4037168"><ele>117.0</ele><time>2026-04-04T08:18:46.17Z</time></trkpt><trkpt lat="42.0207141" lon="12.4036532"><ele>117.0</ele><time>2026-04-04T08:18:48.169Z</time></trkpt><trkpt lat="42.0207891" lon="12.4035966"><ele>117.0</ele><time>2026-04-04T08:18:50.169Z</time></trkpt><trkpt lat="42.0208681" lon="12.4035379"><ele>117.0</ele><time>2026-04-04T08:18:52.169Z</time></trkpt><trkpt lat="42.0209515" lon="12.4034773"><ele>116.99999999999999</ele><time>2026-04-04T08:18:54.17Z</time></trkpt><trkpt lat="42.0210329" lon="12.4034129"><ele>116.99999999999999</ele><time>2026-04-04T08:18:56.169Z</time></trkpt><trkpt lat="42.021113" lon="12.4033564"><ele>117.0</ele><time>2026-04-04T08:18:58.17Z</time></trkpt><trkpt lat="42.0211876" lon="12.4032862"><ele>117.0</ele><time>2026-04-04T08:19:00.169Z</time></trkpt><trkpt lat="42.0212654" lon="12.4032252"><ele>117.0</ele><time>2026-04-04T08:19:02.17Z</time></trkpt><trkpt lat="42.0213532" lon="12.4031603"><ele>116.99999999999999</ele><time>2026-04-04T08:19:04.169Z</time></trkpt><trkpt lat="42.021453" lon="12.4030916"><ele>116.99999999999999</ele><time>2026-04-04T08:19:06.169Z</time></trkpt><trkpt lat="42.0215486" lon="12.4030133"><ele>117.0</ele><time>2026-04-04T08:19:08.17Z</time></trkpt><trkpt lat="42.0216428" lon="12.4029382"><ele>117.0</ele><time>2026-04-04T08:19:10.169Z</time></trkpt><trkpt lat="42.0217337" lon="12.4028687"><ele>116.0</ele><time>2026-04-04T08:19:12.17Z</time></trkpt><trkpt lat="42.0218303" lon="12.4028005"><ele>114.99999999999999</ele><time>2026-04-04T08:19:14.169Z</time></trkpt><trkpt lat="42.021923" lon="12.402729"><ele>113.99999999999999</ele><time>2026-04-04T08:19:16.17Z</time></trkpt><trkpt lat="42.022011" lon="12.4026653"><ele>113.0</ele><time>2026-04-04T08:19:18.169Z</time></trkpt><trkpt lat="42.0220885" lon="12.4025952"><ele>112.0</ele><time>2026-04-04T08:19:20.17Z</time></trkpt><trkpt lat="42.0221688" lon="12.402528"><ele>112.00000000000001</ele><time>2026-04-04T08:19:22.169Z</time></trkpt><trkpt lat="42.0222516" lon="12.4024737"><ele>112.0</ele><time>2026-04-04T08:19:24.17Z</time></trkpt><trkpt lat="42.0223306" lon="12.4024197"><ele>112.0</ele><time>2026-04-04T08:19:26.169Z</time></trkpt><trkpt lat="42.0224053" lon="12.4023701"><ele>112.0</ele><time>2026-04-04T08:19:28.169Z</time></trkpt><trkpt lat="42.0224807" lon="12.4023204"><ele>112.00000000000001</ele><time>2026-04-04T08:19:30.17Z</time></trkpt><trkpt lat="42.0225495" lon="12.4022696"><ele>112.0</ele><time>2026-04-04T08:19:32.17Z</time></trkpt><trkpt lat="42.022614" lon="12.4022161"><ele>112.0</ele><time>2026-04-04T08:19:34.169Z</time></trkpt><trkpt lat="42.0226752" lon="12.4021713"><ele>112.0</ele><time>2026-04-04T08:19:36.169Z</time></trkpt><trkpt lat="42.022757" lon="12.4021229"><ele>112.0</ele><time>2026-04-04T08:19:39.169Z</time></trkpt><trkpt lat="42.0228123" lon="12.4020822"><ele>112.0</ele><time>2026-04-04T08:19:41.17Z</time></trkpt><trkpt lat="42.0228698" lon="12.4020319"><ele>112.0</ele><time>2026-04-04T08:19:43.169Z</time></trkpt><trkpt lat="42.022926" lon="12.4019826"><ele>112.0</ele><time>2026-04-04T08:19:45.17Z</time></trkpt><trkpt lat="42.022983" lon="12.4019303"><ele>112.0</ele><time>2026-04-04T08:19:47.17Z</time></trkpt><trkpt lat="42.0230417" lon="12.4018703"><ele>112.33333333333334</ele><time>2026-04-04T08:19:49.169Z</time></trkpt><trkpt lat="42.0230998" lon="12.4018139"><ele>112.66666666666667</ele><time>2026-04-04T08:19:51.169Z</time></trkpt><trkpt lat="42.0231707" lon="12.4017386"><ele>113.0</ele><time>2026-04-04T08:19:54.169Z</time></trkpt><trkpt lat="42.0232386" lon="12.4016667"><ele>113.33333333333334</ele><time>2026-04-04T08:19:57.17Z</time></trkpt><trkpt lat="42.023297" lon="12.4015729"><ele>113.66666666666667</ele><time>2026-04-04T08:20:00.169Z</time></trkpt><trkpt lat="42.023341" lon="12.4015007"><ele>114.0</ele><time>2026-04-04T08:20:02.17Z</time></trkpt><trkpt lat="42.0233814" lon="12.4014176"><ele>114.5</ele><time>2026-04-04T08:20:04.17Z</time></trkpt><trkpt lat="42.0234175" lon="12.4013355"><ele>115.0</ele><time>2026-04-04T08:20:06.17Z</time></trkpt><trkpt lat="42.0234512" lon="12.4012439"><ele>115.5</ele><time>2026-04-04T08:20:08.169Z</time></trkpt><trkpt lat="42.0234862" lon="12.4011564"><ele>116.0</ele><time>2026-04-04T08:20:10.169Z</time></trkpt><trkpt lat="42.0235181" lon="12.4010673"><ele>116.5</ele><time>2026-04-04T08:20:12.17Z</time></trkpt><trkpt lat="42.0235539" lon="12.400965"><ele>117.0</ele><time>2026-04-04T08:20:14.169Z</time></trkpt><trkpt lat="42.0235943" lon="12.400865"><ele>117.0</ele><time>2026-04-04T08:20:16.169Z</time></trkpt><trkpt lat="42.0236373" lon="12.4007697"><ele>117.0</ele><time>2026-04-04T08:20:18.169Z</time></trkpt><trkpt lat="42.0236714" lon="12.400669"><ele>117.0</ele><time>2026-04-04T08:20:20.169Z</time></trkpt><trkpt lat="42.0236807" lon="12.4005622"><ele>117.0</ele><time>2026-04-04T08:20:22.169Z</time></trkpt><trkpt lat="42.0236949" lon="12.400462"><ele>117.0</ele><time>2026-04-04T08:20:24.169Z</time></trkpt><trkpt lat="42.023692" lon="12.4003529"><ele>117.0</ele><time>2026-04-04T08:20:26.17Z</time></trkpt><trkpt lat="42.0236987" lon="12.400249"><ele>117.0</ele><time>2026-04-04T08:20:28.169Z</time></trkpt><trkpt lat="42.0237221" lon="12.4001537"><ele>117.0</ele><time>2026-04-04T08:20:30.17Z</time></trkpt><trkpt lat="42.0237691" lon="12.4000468"><ele>117.0</ele><time>2026-04-04T08:20:33.169Z</time></trkpt><trkpt lat="42.0238108" lon="12.3999406"><ele>117.0</ele><time>2026-04-04T08:20:36.17Z</time></trkpt><trkpt lat="42.023848" lon="12.3998323"><ele>117.0</ele><time>2026-04-04T08:20:38.169Z</time></trkpt><trkpt lat="42.0238974" lon="12.3997267"><ele>117.0</ele><time>2026-04-04T08:20:40.169Z</time></trkpt><trkpt lat="42.0239517" lon="12.399623"><ele>116.8</ele><time>2026-04-04T08:20:42.17Z</time></trkpt><trkpt lat="42.0240004" lon="12.399491"><ele>116.6</ele><time>2026-04-04T08:20:44.17Z</time></trkpt><trkpt lat="42.0240424" lon="12.3993784"><ele>116.39999999999999</ele><time>2026-04-04T08:20:46.17Z</time></trkpt><trkpt lat="42.0240916" lon="12.3992838"><ele>116.19999999999999</ele><time>2026-04-04T08:20:48.17Z</time></trkpt><trkpt lat="42.0241387" lon="12.3991979"><ele>116.0</ele><time>2026-04-04T08:20:50.17Z</time></trkpt><trkpt lat="42.0241671" lon="12.3990894"><ele>116.0</ele><time>2026-04-04T08:20:52.169Z</time></trkpt><trkpt lat="42.0242035" lon="12.3989639"><ele>116.0</ele><time>2026-04-04T08:20:54.17Z</time></trkpt><trkpt lat="42.0242417" lon="12.3988311"><ele>116.0</ele><time>2026-04-04T08:20:56.17Z</time></trkpt><trkpt lat="42.0242853" lon="12.3987033"><ele>116.0</ele><time>2026-04-04T08:20:58.17Z</time></trkpt><trkpt lat="42.0243377" lon="12.3985821"><ele>116.0</ele><time>2026-04-04T08:21:00.169Z</time></trkpt><trkpt lat="42.0243938" lon="12.3984619"><ele>115.0</ele><time>2026-04-04T08:21:02.169Z</time></trkpt><trkpt lat="42.0244548" lon="12.3983373"><ele>114.0</ele><time>2026-04-04T08:21:04.169Z</time></trkpt><trkpt lat="42.0245113" lon="12.3982108"><ele>113.0</ele><time>2026-04-04T08:21:06.169Z</time></trkpt><trkpt lat="42.0245631" lon="12.3980794"><ele>112.0</ele><time>2026-04-04T08:21:08.169Z</time></trkpt><trkpt lat="42.0246081" lon="12.3979417"><ele>111.0</ele><time>2026-04-04T08:21:10.169Z</time></trkpt><trkpt lat="42.0246537" lon="12.3978244"><ele>111.0</ele><time>2026-04-04T08:21:12.17Z</time></trkpt><trkpt lat="42.0247" lon="12.3977234"><ele>111.0</ele><time>2026-04-04T08:21:14.17Z</time></trkpt><trkpt lat="42.0247385" lon="12.3976315"><ele>111.0</ele><time>2026-04-04T08:21:16.17Z</time></trkpt><trkpt lat="42.0247799" lon="12.3975209"><ele>111.0</ele><time>2026-04-04T08:21:19.169Z</time></trkpt><trkpt lat="42.0248104" lon="12.3974328"><ele>111.0</ele><time>2026-04-04T08:21:22.17Z</time></trkpt><trkpt lat="42.0248372" lon="12.3973407"><ele>111.0</ele><time>2026-04-04T08:21:25.169Z</time></trkpt><trkpt lat="42.0248656" lon="12.3972558"><ele>110.83333333333333</ele><time>2026-04-04T08:21:27.17Z</time></trkpt><trkpt lat="42.0248887" lon="12.3971526"><ele>110.66666666666666</ele><time>2026-04-04T08:21:29.17Z</time></trkpt><trkpt lat="42.0249085" lon="12.3970471"><ele>110.5</ele><time>2026-04-04T08:21:31.17Z</time></trkpt><trkpt lat="42.024944" lon="12.3969387"><ele>110.33333333333333</ele><time>2026-04-04T08:21:33.169Z</time></trkpt><trkpt lat="42.0249871" lon="12.3968436"><ele>110.16666666666666</ele><time>2026-04-04T08:21:35.169Z</time></trkpt><trkpt lat="42.0250482" lon="12.396755"><ele>110.0</ele><time>2026-04-04T08:21:37.169Z</time></trkpt><trkpt lat="42.0251279" lon="12.3967039"><ele>110.66666666666666</ele><time>2026-04-04T08:21:39.169Z</time></trkpt><trkpt lat="42.0252138" lon="12.3966863"><ele>111.33333333333333</ele><time>2026-04-04T08:21:41.169Z</time></trkpt><trkpt lat="42.0253019" lon="12.396688"><ele>112.0</ele><time>2026-04-04T08:21:43.17Z</time></trkpt><trkpt lat="42.0253865" lon="12.3966917"><ele>112.66666666666666</ele><time>2026-04-04T08:21:45.17Z</time></trkpt><trkpt lat="42.0254641" lon="12.3967031"><ele>113.33333333333333</ele><time>2026-04-04T08:21:47.169Z</time></trkpt><trkpt lat="42.0255446" lon="12.3967174"><ele>114.0</ele><time>2026-04-04T08:21:49.17Z</time></trkpt><trkpt lat="42.0256254" lon="12.396727"><ele>114.0</ele><time>2026-04-04T08:21:51.169Z</time></trkpt><trkpt lat="42.0257048" lon="12.396745"><ele>114.0</ele><time>2026-04-04T08:21:53.169Z</time></trkpt><trkpt lat="42.0257844" lon="12.396762"><ele>114.0</ele><time>2026-04-04T08:21:55.169Z</time></trkpt><trkpt lat="42.0258712" lon="12.3967855"><ele>114.0</ele><time>2026-04-04T08:21:57.17Z</time></trkpt><trkpt lat="42.0259488" lon="12.3967958"><ele>114.0</ele><time>2026-04-04T08:21:59.169Z</time></trkpt><trkpt lat="42.0260282" lon="12.3968046"><ele>114.0</ele><time>2026-04-04T08:22:01.169Z</time></trkpt><trkpt lat="42.0261009" lon="12.3968226"><ele>114.5</ele><time>2026-04-04T08:22:03.169Z</time></trkpt><trkpt lat="42.026175" lon="12.3968302"><ele>115.0</ele><time>2026-04-04T08:22:05.169Z</time></trkpt><trkpt lat="42.0262515" lon="12.3968635"><ele>115.5</ele><time>2026-04-04T08:22:08.169Z</time></trkpt><trkpt lat="42.0262736" lon="12.396952"><ele>116.0</ele><time>2026-04-04T08:22:11.169Z</time></trkpt><trkpt lat="42.0262873" lon="12.3970694"><ele>116.5</ele><time>2026-04-04T08:22:14.17Z</time></trkpt><trkpt lat="42.0263003" lon="12.3971753"><ele>117.0</ele><time>2026-04-04T08:22:17.169Z</time></trkpt><trkpt lat="42.026328" lon="12.3972824"><ele>117.0</ele><time>2026-04-04T08:22:20.169Z</time></trkpt><trkpt lat="42.0263557" lon="12.397387"><ele>117.0</ele><time>2026-04-04T08:22:23.169Z</time></trkpt><trkpt lat="42.0263807" lon="12.3974956"><ele>117.0</ele><time>2026-04-04T08:22:27.17Z</time></trkpt><trkpt lat="42.0263969" lon="12.3975815"><ele>117.0</ele><time>2026-04-04T08:22:32.169Z</time></trkpt><trkpt lat="42.026449" lon="12.3976433"><ele>117.0</ele><time>2026-04-04T08:22:38.169Z</time></trkpt><trkpt lat="42.026521" lon="12.3976582"><ele>117.0</ele><time>2026-04-04T08:22:41.169Z</time></trkpt><trkpt lat="42.0266105" lon="12.3976615"><ele>117.0</ele><time>2026-04-04T08:22:44.17Z</time></trkpt><trkpt lat="42.0266803" lon="12.3976532"><ele>116.99999999999999</ele><time>2026-04-04T08:22:46.17Z</time></trkpt><trkpt lat="42.0267671" lon="12.3976143"><ele>116.99999999999999</ele><time>2026-04-04T08:22:48.169Z</time></trkpt><trkpt lat="42.026866" lon="12.3975568"><ele>117.0</ele><time>2026-04-04T08:22:50.169Z</time></trkpt><trkpt lat="42.0269813" lon="12.3974894"><ele>117.0</ele><time>2026-04-04T08:22:52.17Z</time></trkpt><trkpt lat="42.0270771" lon="12.3974431"><ele>117.0</ele><time>2026-04-04T08:22:54.169Z</time></trkpt><trkpt lat="42.0271725" lon="12.3974729"><ele>117.0</ele><time>2026-04-04T08:22:56.17Z</time></trkpt><trkpt lat="42.0272463" lon="12.3975232"><ele>117.0</ele><time>2026-04-04T08:22:58.17Z</time></trkpt><trkpt lat="42.0273261" lon="12.3975148"><ele>117.0</ele><time>2026-04-04T08:23:02.169Z</time></trkpt><trkpt lat="42.0273922" lon="12.3975143"><ele>117.0</ele><time>2026-04-04T08:23:06.17Z</time></trkpt><trkpt lat="42.0274724" lon="12.3975161"><ele>117.0</ele><time>2026-04-04T08:23:10.17Z</time></trkpt><trkpt lat="42.0275367" lon="12.3975166"><ele>116.83333333333333</ele><time>2026-04-04T08:23:13.169Z</time></trkpt><trkpt lat="42.0276059" lon="12.3975129"><ele>116.66666666666666</ele><time>2026-04-04T08:23:16.17Z</time></trkpt><trkpt lat="42.0276822" lon="12.3975087"><ele>116.5</ele><time>2026-04-04T08:23:19.17Z</time></trkpt><trkpt lat="42.0277782" lon="12.3974855"><ele>116.33333333333333</ele><time>2026-04-04T08:23:22.17Z</time></trkpt><trkpt lat="42.0278507" lon="12.3974389"><ele>116.16666666666666</ele><time>2026-04-04T08:23:24.17Z</time></trkpt><trkpt lat="42.0279349" lon="12.3973719"><ele>116.0</ele><time>2026-04-04T08:23:26.17Z</time></trkpt><trkpt lat="42.0280498" lon="12.3973004"><ele>116.0</ele><time>2026-04-04T08:23:28.17Z</time></trkpt><trkpt lat="42.0281082" lon="12.3972677"><ele>116.0</ele><time>2026-04-04T08:23:29.169Z</time></trkpt><trkpt lat="42.0282168" lon="12.3971986"><ele>116.0</ele><time>2026-04-04T08:23:31.169Z</time></trkpt><trkpt lat="42.0283186" lon="12.3971288"><ele>116.0</ele><time>2026-04-04T08:23:33.169Z</time></trkpt><trkpt lat="42.0284315" lon="12.3970373"><ele>116.0</ele><time>2026-04-04T08:23:35.169Z</time></trkpt><trkpt lat="42.0284895" lon="12.3969848"><ele>113.6</ele><time>2026-04-04T08:23:36.169Z</time></trkpt><trkpt lat="42.0285946" lon="12.3969084"><ele>111.19999999999999</ele><time>2026-04-04T08:23:38.169Z</time></trkpt><trkpt lat="42.0286833" lon="12.396802"><ele>108.80000000000001</ele><time>2026-04-04T08:23:40.169Z</time></trkpt><trkpt lat="42.0287305" lon="12.3967411"><ele>106.4</ele><time>2026-04-04T08:23:41.17Z</time></trkpt><trkpt lat="42.0288214" lon="12.3966404"><ele>104.0</ele><time>2026-04-04T08:23:43.17Z</time></trkpt><trkpt lat="42.0289129" lon="12.3965244"><ele>103.99999999999999</ele><time>2026-04-04T08:23:45.169Z</time></trkpt><trkpt lat="42.0289633" lon="12.3964601"><ele>104.0</ele><time>2026-04-04T08:23:46.169Z</time></trkpt><trkpt lat="42.0290155" lon="12.3963857"><ele>104.0</ele><time>2026-04-04T08:23:47.17Z</time></trkpt><trkpt lat="42.0290784" lon="12.3963134"><ele>104.0</ele><time>2026-04-04T08:23:48.169Z</time></trkpt><trkpt lat="42.0291466" lon="12.3962387"><ele>103.99999999999999</ele><time>2026-04-04T08:23:49.169Z</time></trkpt><trkpt lat="42.0292132" lon="12.3961686"><ele>104.0</ele><time>2026-04-04T08:23:50.17Z</time></trkpt><trkpt lat="42.0292787" lon="12.3961073"><ele>101.83333333333333</ele><time>2026-04-04T08:23:51.17Z</time></trkpt><trkpt lat="42.0293426" lon="12.3960619"><ele>99.66666666666666</ele><time>2026-04-04T08:23:52.169Z</time></trkpt><trkpt lat="42.029406" lon="12.3960438"><ele>97.5</ele><time>2026-04-04T08:23:53.17Z</time></trkpt><trkpt lat="42.0294851" lon="12.396068"><ele>95.33333333333333</ele><time>2026-04-04T08:23:55.169Z</time></trkpt><trkpt lat="42.0295665" lon="12.3960992"><ele>93.16666666666666</ele><time>2026-04-04T08:23:58.17Z</time></trkpt><trkpt lat="42.0296497" lon="12.3961151"><ele>91.0</ele><time>2026-04-04T08:24:01.169Z</time></trkpt><trkpt lat="42.0297339" lon="12.3961568"><ele>91.0</ele><time>2026-04-04T08:24:04.17Z</time></trkpt><trkpt lat="42.0297667" lon="12.3962726"><ele>91.0</ele><time>2026-04-04T08:24:07.169Z</time></trkpt><trkpt lat="42.0297313" lon="12.3963474"><ele>91.0</ele><time>2026-04-04T08:24:09.169Z</time></trkpt><trkpt lat="42.029684" lon="12.3964457"><ele>91.0</ele><time>2026-04-04T08:24:11.17Z</time></trkpt><trkpt lat="42.0296471" lon="12.3965555"><ele>91.0</ele><time>2026-04-04T08:24:13.169Z</time></trkpt><trkpt lat="42.0296138" lon="12.3966718"><ele>91.0</ele><time>2026-04-04T08:24:15.169Z</time></trkpt><trkpt lat="42.0295778" lon="12.3967741"><ele>91.83333333333333</ele><time>2026-04-04T08:24:17.169Z</time></trkpt><trkpt lat="42.0295321" lon="12.3968588"><ele>92.66666666666666</ele><time>2026-04-04T08:24:19.169Z</time></trkpt><trkpt lat="42.0295016" lon="12.3969479"><ele>93.5</ele><time>2026-04-04T08:24:21.17Z</time></trkpt><trkpt lat="42.0294901" lon="12.3970372"><ele>94.33333333333333</ele><time>2026-04-04T08:24:23.169Z</time></trkpt><trkpt lat="42.0294861" lon="12.3971576"><ele>95.16666666666667</ele><time>2026-04-04T08:24:26.169Z</time></trkpt><trkpt lat="42.0294912" lon="12.397269"><ele>96.0</ele><time>2026-04-04T08:24:29.169Z</time></trkpt><trkpt lat="42.0294915" lon="12.3973547"><ele>96.83333333333333</ele><time>2026-04-04T08:24:31.17Z</time></trkpt><trkpt lat="42.0294927" lon="12.3974822"><ele>97.66666666666666</ele><time>2026-04-04T08:24:34.169Z</time></trkpt><trkpt lat="42.0295018" lon="12.3975677"><ele>98.5</ele><time>2026-04-04T08:24:36.169Z</time></trkpt><trkpt lat="42.0295115" lon="12.3976909"><ele>99.33333333333333</ele><time>2026-04-04T08:24:39.17Z</time></trkpt><trkpt lat="42.0295154" lon="12.3977864"><ele>100.16666666666666</ele><time>2026-04-04T08:24:41.17Z</time></trkpt><trkpt lat="42.0295355" lon="12.3978919"><ele>101.0</ele><time>2026-04-04T08:24:43.17Z</time></trkpt><trkpt lat="42.0295548" lon="12.398004"><ele>101.99999999999999</ele><time>2026-04-04T08:24:45.17Z</time></trkpt><trkpt lat="42.0295678" lon="12.3980978"><ele>103.0</ele><time>2026-04-04T08:24:47.169Z</time></trkpt><trkpt lat="42.0295819" lon="12.398203"><ele>104.0</ele><time>2026-04-04T08:24:50.17Z</time></trkpt><trkpt lat="42.0295946" lon="12.398299"><ele>105.0</ele><time>2026-04-04T08:24:53.169Z</time></trkpt><trkpt lat="42.0296341" lon="12.3984165"><ele>105.99999999999999</ele><time>2026-04-04T08:24:56.17Z</time></trkpt><trkpt lat="42.0296925" lon="12.398516"><ele>107.0</ele><time>2026-04-04T08:24:58.17Z</time></trkpt><trkpt lat="42.0297694" lon="12.3986243"><ele>106.99999999999999</ele><time>2026-04-04T08:25:00.169Z</time></trkpt><trkpt lat="42.0298174" lon="12.3986882"><ele>107.0</ele><time>2026-04-04T08:25:01.17Z</time></trkpt><trkpt lat="42.0298728" lon="12.3987586"><ele>107.0</ele><time>2026-04-04T08:25:02.169Z</time></trkpt><trkpt lat="42.0299412" lon="12.3988347"><ele>107.0</ele><time>2026-04-04T08:25:03.169Z</time></trkpt><trkpt lat="42.0300175" lon="12.3989149"><ele>106.99999999999999</ele><time>2026-04-04T08:25:04.169Z</time></trkpt><trkpt lat="42.0301012" lon="12.3989923"><ele>107.0</ele><time>2026-04-04T08:25:05.17Z</time></trkpt><trkpt lat="42.0301842" lon="12.3990604"><ele>104.66666666666666</ele><time>2026-04-04T08:25:06.17Z</time></trkpt><trkpt lat="42.0302647" lon="12.3991211"><ele>102.33333333333333</ele><time>2026-04-04T08:25:07.169Z</time></trkpt><trkpt lat="42.0303354" lon="12.3991784"><ele>100.0</ele><time>2026-04-04T08:25:08.17Z</time></trkpt><trkpt lat="42.0303977" lon="12.3992223"><ele>97.66666666666666</ele><time>2026-04-04T08:25:09.169Z</time></trkpt><trkpt lat="42.0305142" lon="12.399279"><ele>95.33333333333333</ele><time>2026-04-04T08:25:11.17Z</time></trkpt><trkpt lat="42.0305793" lon="12.3992997"><ele>93.0</ele><time>2026-04-04T08:25:12.169Z</time></trkpt><trkpt lat="42.0306441" lon="12.3993131"><ele>93.0</ele><time>2026-04-04T08:25:13.17Z</time></trkpt><trkpt lat="42.0307589" lon="12.3993044"><ele>93.0</ele><time>2026-04-04T08:25:15.169Z</time></trkpt><trkpt lat="42.0308725" lon="12.3992448"><ele>93.0</ele><time>2026-04-04T08:25:17.17Z</time></trkpt><trkpt lat="42.0309344" lon="12.3992017"><ele>93.0</ele><time>2026-04-04T08:25:18.169Z</time></trkpt><trkpt lat="42.0309985" lon="12.399168"><ele>93.0</ele><time>2026-04-04T08:25:19.17Z</time></trkpt><trkpt lat="42.0310608" lon="12.3991508"><ele>93.0</ele><time>2026-04-04T08:25:20.169Z</time></trkpt><trkpt lat="42.031126" lon="12.3991579"><ele>92.0</ele><time>2026-04-04T08:25:21.169Z</time></trkpt><trkpt lat="42.0312279" lon="12.3991895"><ele>91.0</ele><time>2026-04-04T08:25:23.169Z</time></trkpt><trkpt lat="42.0312935" lon="12.3991959"><ele>90.0</ele><time>2026-04-04T08:25:26.169Z</time></trkpt><trkpt lat="42.0313723" lon="12.3991741"><ele>89.0</ele><time>2026-04-04T08:25:29.169Z</time></trkpt><trkpt lat="42.0314552" lon="12.3991715"><ele>88.0</ele><time>2026-04-04T08:25:31.169Z</time></trkpt><trkpt lat="42.0315565" lon="12.3991795"><ele>87.0</ele><time>2026-04-04T08:25:33.169Z</time></trkpt><trkpt lat="42.0316563" lon="12.3991901"><ele>85.83333333333333</ele><time>2026-04-04T08:25:35.169Z</time></trkpt><trkpt lat="42.0317573" lon="12.3992144"><ele>84.66666666666667</ele><time>2026-04-04T08:25:37.169Z</time></trkpt><trkpt lat="42.0318365" lon="12.3992772"><ele>83.5</ele><time>2026-04-04T08:25:39.169Z</time></trkpt><trkpt lat="42.0318671" lon="12.3993632"><ele>82.33333333333334</ele><time>2026-04-04T08:25:42.17Z</time></trkpt><trkpt lat="42.0319309" lon="12.3994015"><ele>81.16666666666667</ele><time>2026-04-04T08:26:09.169Z</time></trkpt><trkpt lat="42.0320338" lon="12.3994257"><ele>80.0</ele><time>2026-04-04T08:29:53.169Z</time></trkpt><trkpt lat="42.0320905" lon="12.3993731"><ele>80.0</ele><time>2026-04-04T08:29:56.169Z</time></trkpt><trkpt lat="42.0321322" lon="12.3992931"><ele>80.0</ele><time>2026-04-04T08:29:59.169Z</time></trkpt><trkpt lat="42.0321493" lon="12.3991996"><ele>80.0</ele><time>2026-04-04T08:30:02.169Z</time></trkpt><trkpt lat="42.032157" lon="12.3990823"><ele>80.0</ele><time>2026-04-04T08:30:05.169Z</time></trkpt><trkpt lat="42.0321728" lon="12.3989768"><ele>80.0</ele><time>2026-04-04T08:30:07.169Z</time></trkpt><trkpt lat="42.0322079" lon="12.3988669"><ele>80.0</ele><time>2026-04-04T08:30:10.169Z</time></trkpt><trkpt lat="42.0322406" lon="12.3987701"><ele>79.66666666666667</ele><time>2026-04-04T08:30:13.169Z</time></trkpt><trkpt lat="42.0322928" lon="12.3986824"><ele>79.33333333333334</ele><time>2026-04-04T08:30:16.169Z</time></trkpt><trkpt lat="42.032386" lon="12.398688"><ele>79.0</ele><time>2026-04-04T08:30:19.17Z</time></trkpt><trkpt lat="42.0324401" lon="12.3987621"><ele>78.66666666666667</ele><time>2026-04-04T08:30:21.17Z</time></trkpt><trkpt lat="42.0324914" lon="12.3988447"><ele>78.33333333333333</ele><time>2026-04-04T08:30:23.169Z</time></trkpt><trkpt lat="42.032539" lon="12.398907"><ele>78.0</ele><time>2026-04-04T08:30:25.169Z</time></trkpt><trkpt lat="42.032606" lon="12.3989703"><ele>77.85714285714286</ele><time>2026-04-04T08:30:29.169Z</time></trkpt><trkpt lat="42.0326543" lon="12.3990282"><ele>77.71428571428571</ele><time>2026-04-04T08:30:32.169Z</time></trkpt><trkpt lat="42.0327063" lon="12.3991105"><ele>77.57142857142857</ele><time>2026-04-04T08:30:36.169Z</time></trkpt><trkpt lat="42.032765" lon="12.399195"><ele>77.42857142857143</ele><time>2026-04-04T08:30:40.169Z</time></trkpt><trkpt lat="42.0328057" lon="12.3992818"><ele>77.28571428571428</ele><time>2026-04-04T08:30:43.169Z</time></trkpt><trkpt lat="42.0328263" lon="12.3993729"><ele>77.14285714285714</ele><time>2026-04-04T08:30:46.169Z</time></trkpt><trkpt lat="42.0327786" lon="12.3994433"><ele>77.0</ele><time>2026-04-04T08:30:51.17Z</time></trkpt><trkpt lat="42.0326832" lon="12.3994286"><ele>77.0</ele><time>2026-04-04T08:30:54.17Z</time></trkpt><trkpt lat="42.0326104" lon="12.3994103"><ele>77.0</ele><time>2026-04-04T08:30:56.17Z</time></trkpt><trkpt lat="42.0325382" lon="12.3993927"><ele>77.0</ele><time>2026-04-04T08:30:58.169Z</time></trkpt><trkpt lat="42.0324591" lon="12.3993391"><ele>77.0</ele><time>2026-04-04T08:31:00.169Z</time></trkpt><trkpt lat="42.0323736" lon="12.3992855"><ele>77.0</ele><time>2026-04-04T08:31:02.169Z</time></trkpt><trkpt lat="42.0322929" lon="12.3993018"><ele>77.0</ele><time>2026-04-04T08:31:04.169Z</time></trkpt><trkpt lat="42.0322351" lon="12.3993785"><ele>77.5</ele><time>2026-04-04T08:31:06.17Z</time></trkpt><trkpt lat="42.0321915" lon="12.3994633"><ele>78.0</ele><time>2026-04-04T08:31:08.17Z</time></trkpt><trkpt lat="42.0321404" lon="12.3995643"><ele>78.5</ele><time>2026-04-04T08:31:10.169Z</time></trkpt><trkpt lat="42.0321096" lon="12.399668"><ele>79.0</ele><time>2026-04-04T08:31:12.169Z</time></trkpt><trkpt lat="42.0321148" lon="12.3997881"><ele>79.5</ele><time>2026-04-04T08:31:14.169Z</time></trkpt><trkpt lat="42.0321321" lon="12.3999245"><ele>80.0</ele><time>2026-04-04T08:31:16.17Z</time></trkpt><trkpt lat="42.0321384" lon="12.4000645"><ele>81.6</ele><time>2026-04-04T08:31:18.169Z</time></trkpt><trkpt lat="42.0321435" lon="12.4001984"><ele>83.2</ele><time>2026-04-04T08:31:20.17Z</time></trkpt><trkpt lat="42.0321501" lon="12.4003446"><ele>84.80000000000001</ele><time>2026-04-04T08:31:22.169Z</time></trkpt><trkpt lat="42.0321476" lon="12.4004871"><ele>86.4</ele><time>2026-04-04T08:31:24.17Z</time></trkpt><trkpt lat="42.03215" lon="12.4006161"><ele>88.0</ele><time>2026-04-04T08:31:26.17Z</time></trkpt><trkpt lat="42.0321622" lon="12.4007245"><ele>88.0</ele><time>2026-04-04T08:31:28.17Z</time></trkpt><trkpt lat="42.0321778" lon="12.4008186"><ele>88.0</ele><time>2026-04-04T08:31:30.169Z</time></trkpt><trkpt lat="42.0321824" lon="12.4009199"><ele>88.0</ele><time>2026-04-04T08:31:32.17Z</time></trkpt><trkpt lat="42.0321786" lon="12.4010219"><ele>88.0</ele><time>2026-04-04T08:31:34.169Z</time></trkpt><trkpt lat="42.032162" lon="12.4011303"><ele>88.0</ele><time>2026-04-04T08:31:36.17Z</time></trkpt><trkpt lat="42.032132" lon="12.4012484"><ele>88.0</ele><time>2026-04-04T08:31:38.169Z</time></trkpt><trkpt lat="42.0321079" lon="12.4013818"><ele>88.0</ele><time>2026-04-04T08:31:40.169Z</time></trkpt><trkpt lat="42.0320989" lon="12.4015149"><ele>88.0</ele><time>2026-04-04T08:31:42.169Z</time></trkpt><trkpt lat="42.0320885" lon="12.4016428"><ele>88.0</ele><time>2026-04-04T08:31:44.169Z</time></trkpt><trkpt lat="42.0320953" lon="12.4017502"><ele>88.0</ele><time>2026-04-04T08:31:46.169Z</time></trkpt><trkpt lat="42.0321071" lon="12.4018531"><ele>88.0</ele><time>2026-04-04T08:31:49.17Z</time></trkpt><trkpt lat="42.0321099" lon="12.401961"><ele>88.0</ele><time>2026-04-04T08:31:52.17Z</time></trkpt><trkpt lat="42.0321041" lon="12.4020676"><ele>87.0</ele><time>2026-04-04T08:31:55.169Z</time></trkpt><trkpt lat="42.0320799" lon="12.4021655"><ele>86.0</ele><time>2026-04-04T08:31:59.169Z</time></trkpt><trkpt lat="42.0320426" lon="12.4022492"><ele>85.0</ele><time>2026-04-04T08:32:02.169Z</time></trkpt><trkpt lat="42.031992" lon="12.4023266"><ele>84.0</ele><time>2026-04-04T08:32:05.169Z</time></trkpt><trkpt lat="42.0319294" lon="12.4024037"><ele>83.0</ele><time>2026-04-04T08:32:08.169Z</time></trkpt><trkpt lat="42.031877" lon="12.4024662"><ele>82.0</ele><time>2026-04-04T08:32:11.17Z</time></trkpt><trkpt lat="42.0318298" lon="12.4025482"><ele>82.0</ele><time>2026-04-04T08:32:14.169Z</time></trkpt><trkpt lat="42.0317777" lon="12.4026102"><ele>82.0</ele><time>2026-04-04T08:32:17.169Z</time></trkpt><trkpt lat="42.0317197" lon="12.4026836"><ele>82.0</ele><time>2026-04-04T08:32:20.169Z</time></trkpt><trkpt lat="42.0316501" lon="12.4027652"><ele>82.0</ele><time>2026-04-04T08:32:23.169Z</time></trkpt><trkpt lat="42.031583" lon="12.4028067"><ele>82.0</ele><time>2026-04-04T08:32:26.169Z</time></trkpt><trkpt lat="42.0315011" lon="12.4028445"><ele>82.0</ele><time>2026-04-04T08:32:29.17Z</time></trkpt><trkpt lat="42.0314129" lon="12.4028596"><ele>82.39999999999999</ele><time>2026-04-04T08:32:32.17Z</time></trkpt><trkpt lat="42.031327" lon="12.4028359"><ele>82.8</ele><time>2026-04-04T08:32:35.17Z</time></trkpt><trkpt lat="42.031236" lon="12.4028222"><ele>83.2</ele><time>2026-04-04T08:32:38.169Z</time></trkpt><trkpt lat="42.031138" lon="12.4028004"><ele>83.6</ele><time>2026-04-04T08:32:41.169Z</time></trkpt><trkpt lat="42.0310559" lon="12.4027792"><ele>84.0</ele><time>2026-04-04T08:32:43.169Z</time></trkpt><trkpt lat="42.0309738" lon="12.4027266"><ele>84.0</ele><time>2026-04-04T08:32:45.169Z</time></trkpt><trkpt lat="42.0308657" lon="12.4026594"><ele>84.0</ele><time>2026-04-04T08:32:47.17Z</time></trkpt><trkpt lat="42.0307417" lon="12.4026349"><ele>84.0</ele><time>2026-04-04T08:32:49.17Z</time></trkpt><trkpt lat="42.0306357" lon="12.4026592"><ele>84.0</ele><time>2026-04-04T08:32:51.169Z</time></trkpt><trkpt lat="42.0305497" lon="12.4027438"><ele>86.0</ele><time>2026-04-04T08:32:53.17Z</time></trkpt><trkpt lat="42.0305086" lon="12.4028608"><ele>88.0</ele><time>2026-04-04T08:32:55.169Z</time></trkpt><trkpt lat="42.030509" lon="12.4029854"><ele>90.0</ele><time>2026-04-04T08:32:57.169Z</time></trkpt><trkpt lat="42.0305101" lon="12.4030973"><ele>92.0</ele><time>2026-04-04T08:32:59.169Z</time></trkpt><trkpt lat="42.0305081" lon="12.403204"><ele>94.0</ele><time>2026-04-04T08:33:01.17Z</time></trkpt><trkpt lat="42.0305257" lon="12.4033186"><ele>96.0</ele><time>2026-04-04T08:33:03.17Z</time></trkpt><trkpt lat="42.0305739" lon="12.4034056"><ele>96.0</ele><time>2026-04-04T08:33:05.169Z</time></trkpt><trkpt lat="42.0306547" lon="12.4034548"><ele>96.0</ele><time>2026-04-04T08:33:07.17Z</time></trkpt><trkpt lat="42.0307186" lon="12.4035001"><ele>96.0</ele><time>2026-04-04T08:33:09.169Z</time></trkpt><trkpt lat="42.0307667" lon="12.4035568"><ele>96.0</ele><time>2026-04-04T08:33:11.169Z</time></trkpt><trkpt lat="42.0307955" lon="12.4036478"><ele>96.0</ele><time>2026-04-04T08:33:13.169Z</time></trkpt><trkpt lat="42.0308538" lon="12.4037381"><ele>96.0</ele><time>2026-04-04T08:33:15.17Z</time></trkpt><trkpt lat="42.0309059" lon="12.4038436"><ele>92.8</ele><time>2026-04-04T08:33:17.169Z</time></trkpt><trkpt lat="42.0309282" lon="12.4039675"><ele>89.6</ele><time>2026-04-04T08:33:19.171Z</time></trkpt><trkpt lat="42.0309529" lon="12.4040948"><ele>86.4</ele><time>2026-04-04T08:33:21.17Z</time></trkpt><trkpt lat="42.0309839" lon="12.4042028"><ele>83.2</ele><time>2026-04-04T08:33:23.17Z</time></trkpt><trkpt lat="42.0309687" lon="12.4043531"><ele>80.0</ele><time>2026-04-04T08:33:25.17Z</time></trkpt><trkpt lat="42.0309555" lon="12.4044396"><ele>80.0</ele><time>2026-04-04T08:33:26.17Z</time></trkpt><trkpt lat="42.0309365" lon="12.4045315"><ele>80.0</ele><time>2026-04-04T08:33:27.17Z</time></trkpt><trkpt lat="42.0309154" lon="12.4046259"><ele>80.0</ele><time>2026-04-04T08:33:28.171Z</time></trkpt><trkpt lat="42.0308932" lon="12.4047279"><ele>80.0</ele><time>2026-04-04T08:33:29.17Z</time></trkpt><trkpt lat="42.030874" lon="12.4048406"><ele>80.0</ele><time>2026-04-04T08:33:30.17Z</time></trkpt><trkpt lat="42.030862" lon="12.4049481"><ele>80.0</ele><time>2026-04-04T08:33:31.17Z</time></trkpt><trkpt lat="42.0308559" lon="12.4050528"><ele>79.66666666666667</ele><time>2026-04-04T08:33:32.17Z</time></trkpt><trkpt lat="42.0308575" lon="12.4051506"><ele>79.33333333333334</ele><time>2026-04-04T08:33:33.17Z</time></trkpt><trkpt lat="42.0308538" lon="12.4052575"><ele>79.0</ele><time>2026-04-04T08:33:34.171Z</time></trkpt><trkpt lat="42.030846" lon="12.4053667"><ele>78.66666666666667</ele><time>2026-04-04T08:33:35.171Z</time></trkpt><trkpt lat="42.0308367" lon="12.4054736"><ele>78.33333333333333</ele><time>2026-04-04T08:33:36.17Z</time></trkpt><trkpt lat="42.0308319" lon="12.4055708"><ele>78.0</ele><time>2026-04-04T08:33:37.17Z</time></trkpt><trkpt lat="42.0308363" lon="12.4056576"><ele>77.66666666666667</ele><time>2026-04-04T08:33:38.17Z</time></trkpt><trkpt lat="42.0308631" lon="12.4057916"><ele>77.33333333333333</ele><time>2026-04-04T08:33:40.17Z</time></trkpt><trkpt lat="42.0309345" lon="12.4058553"><ele>77.0</ele><time>2026-04-04T08:33:42.17Z</time></trkpt><trkpt lat="42.0310178" lon="12.4058607"><ele>76.66666666666666</ele><time>2026-04-04T08:33:44.17Z</time></trkpt><trkpt lat="42.0310802" lon="12.4058371"><ele>76.33333333333333</ele><time>2026-04-04T08:33:46.171Z</time></trkpt><trkpt lat="42.0311457" lon="12.4057957"><ele>76.0</ele><time>2026-04-04T08:33:49.171Z</time></trkpt><trkpt lat="42.0312125" lon="12.4057609"><ele>76.0</ele><time>2026-04-04T08:33:51.17Z</time></trkpt><trkpt lat="42.0312804" lon="12.4057288"><ele>76.0</ele><time>2026-04-04T08:33:53.171Z</time></trkpt><trkpt lat="42.0313373" lon="12.4056666"><ele>76.0</ele><time>2026-04-04T08:33:55.171Z</time></trkpt><trkpt lat="42.0314049" lon="12.4056045"><ele>76.0</ele><time>2026-04-04T08:33:57.17Z</time></trkpt><trkpt lat="42.031484" lon="12.4055728"><ele>76.0</ele><time>2026-04-04T08:33:59.17Z</time></trkpt><trkpt lat="42.0315524" lon="12.405548"><ele>76.0</ele><time>2026-04-04T08:34:01.17Z</time></trkpt><trkpt lat="42.0316236" lon="12.4054884"><ele>76.16666666666666</ele><time>2026-04-04T08:34:04.17Z</time></trkpt><trkpt lat="42.031688" lon="12.4054404"><ele>76.33333333333333</ele><time>2026-04-04T08:34:06.17Z</time></trkpt><trkpt lat="42.0317746" lon="12.4054084"><ele>76.5</ele><time>2026-04-04T08:34:08.17Z</time></trkpt><trkpt lat="42.0318301" lon="12.4054489"><ele>76.66666666666667</ele><time>2026-04-04T08:34:10.17Z</time></trkpt><trkpt lat="42.0317978" lon="12.405546"><ele>76.83333333333334</ele><time>2026-04-04T08:34:14.171Z</time></trkpt><trkpt lat="42.0317392" lon="12.4056261"><ele>77.0</ele><time>2026-04-04T08:34:17.171Z</time></trkpt><trkpt lat="42.0316795" lon="12.4056887"><ele>77.0</ele><time>2026-04-04T08:34:20.171Z</time></trkpt><trkpt lat="42.0316237" lon="12.4057478"><ele>77.0</ele><time>2026-04-04T08:34:22.17Z</time></trkpt><trkpt lat="42.0316006" lon="12.405847"><ele>77.0</ele><time>2026-04-04T08:34:24.17Z</time></trkpt><trkpt lat="42.0316313" lon="12.4059504"><ele>77.0</ele><time>2026-04-04T08:34:26.171Z</time></trkpt><trkpt lat="42.0316661" lon="12.4060405"><ele>77.0</ele><time>2026-04-04T08:34:28.17Z</time></trkpt><trkpt lat="42.0317191" lon="12.4061383"><ele>77.0</ele><time>2026-04-04T08:34:31.17Z</time></trkpt><trkpt lat="42.0317817" lon="12.4062246"><ele>77.0</ele><time>2026-04-04T08:34:34.17Z</time></trkpt><trkpt lat="42.0318294" lon="12.4062835"><ele>77.0</ele><time>2026-04-04T08:34:36.17Z</time></trkpt><trkpt lat="42.0318769" lon="12.4063458"><ele>77.0</ele><time>2026-04-04T08:34:38.17Z</time></trkpt><trkpt lat="42.0319393" lon="12.406399"><ele>77.0</ele><time>2026-04-04T08:34:40.17Z</time></trkpt><trkpt lat="42.0319924" lon="12.4064481"><ele>77.0</ele><time>2026-04-04T08:34:42.17Z</time></trkpt><trkpt lat="42.0320477" lon="12.4065056"><ele>77.0</ele><time>2026-04-04T08:34:44.17Z</time></trkpt><trkpt lat="42.0320908" lon="12.4065814"><ele>77.0</ele><time>2026-04-04T08:34:46.17Z</time></trkpt><trkpt lat="42.0321167" lon="12.4066645"><ele>79.16666666666667</ele><time>2026-04-04T08:34:48.171Z</time></trkpt><trkpt lat="42.0321488" lon="12.4067431"><ele>81.33333333333334</ele><time>2026-04-04T08:34:50.171Z</time></trkpt><trkpt lat="42.0321873" lon="12.4068403"><ele>83.5</ele><time>2026-04-04T08:34:53.17Z</time></trkpt><trkpt lat="42.03225" lon="12.4069274"><ele>85.66666666666667</ele><time>2026-04-04T08:34:56.17Z</time></trkpt><trkpt lat="42.0322994" lon="12.4069985"><ele>87.83333333333333</ele><time>2026-04-04T08:35:00.17Z</time></trkpt><trkpt lat="42.0323693" lon="12.4070404"><ele>90.0</ele><time>2026-04-04T08:35:03.17Z</time></trkpt><trkpt lat="42.0324365" lon="12.4070633"><ele>91.0</ele><time>2026-04-04T08:35:06.171Z</time></trkpt><trkpt lat="42.0324927" lon="12.4071036"><ele>92.0</ele><time>2026-04-04T08:35:12.17Z</time></trkpt><trkpt lat="42.0325133" lon="12.4071884"><ele>93.0</ele><time>2026-04-04T08:35:18.17Z</time></trkpt><trkpt lat="42.0325563" lon="12.4072942"><ele>94.0</ele><time>2026-04-04T08:35:27.171Z</time></trkpt><trkpt lat="42.032581" lon="12.4074035"><ele>95.0</ele><time>2026-04-04T08:35:32.17Z</time></trkpt><trkpt lat="42.0326294" lon="12.407488"><ele>96.0</ele><time>2026-04-04T08:35:36.17Z</time></trkpt><trkpt lat="42.0326711" lon="12.4075641"><ele>96.42857142857142</ele><time>2026-04-04T08:35:39.17Z</time></trkpt><trkpt lat="42.032713" lon="12.407633"><ele>96.85714285714286</ele><time>2026-04-04T08:35:43.17Z</time></trkpt><trkpt lat="42.0327462" lon="12.4077073"><ele>97.28571428571428</ele><time>2026-04-04T08:35:46.17Z</time></trkpt><trkpt lat="42.0327965" lon="12.4077826"><ele>97.71428571428571</ele><time>2026-04-04T08:35:50.17Z</time></trkpt><trkpt lat="42.0328486" lon="12.4078376"><ele>98.14285714285714</ele><time>2026-04-04T08:35:53.171Z</time></trkpt><trkpt lat="42.0328909" lon="12.4079305"><ele>98.57142857142857</ele><time>2026-04-04T08:35:56.17Z</time></trkpt><trkpt lat="42.0329314" lon="12.408006"><ele>99.0</ele><time>2026-04-04T08:35:59.17Z</time></trkpt><trkpt lat="42.032964" lon="12.4080901"><ele>99.5</ele><time>2026-04-04T08:36:02.17Z</time></trkpt><trkpt lat="42.0329793" lon="12.4081925"><ele>100.0</ele><time>2026-04-04T08:36:05.171Z</time></trkpt><trkpt lat="42.0330033" lon="12.4083014"><ele>100.5</ele><time>2026-04-04T08:36:08.17Z</time></trkpt><trkpt lat="42.0330193" lon="12.4083902"><ele>101.0</ele><time>2026-04-04T08:36:11.171Z</time></trkpt><trkpt lat="42.0330208" lon="12.4085"><ele>101.5</ele><time>2026-04-04T08:36:14.17Z</time></trkpt><trkpt lat="42.0330376" lon="12.4085907"><ele>102.0</ele><time>2026-04-04T08:36:17.17Z</time></trkpt><trkpt lat="42.0330449" lon="12.4086832"><ele>102.0</ele><time>2026-04-04T08:36:20.171Z</time></trkpt><trkpt lat="42.033065" lon="12.4087995"><ele>102.0</ele><time>2026-04-04T08:36:23.17Z</time></trkpt><trkpt lat="42.03306" lon="12.4089117"><ele>102.0</ele><time>2026-04-04T08:36:26.17Z</time></trkpt><trkpt lat="42.0330457" lon="12.4090076"><ele>102.0</ele><time>2026-04-04T08:36:29.17Z</time></trkpt><trkpt lat="42.0330467" lon="12.4090934"><ele>102.0</ele><time>2026-04-04T08:36:32.171Z</time></trkpt><trkpt lat="42.0330415" lon="12.4092001"><ele>102.0</ele><time>2026-04-04T08:36:36.171Z</time></trkpt><trkpt lat="42.0330527" lon="12.4093139"><ele>103.5</ele><time>2026-04-04T08:36:39.171Z</time></trkpt><trkpt lat="42.0330623" lon="12.4094387"><ele>105.0</ele><time>2026-04-04T08:36:42.17Z</time></trkpt><trkpt lat="42.0330765" lon="12.4095393"><ele>106.5</ele><time>2026-04-04T08:36:45.17Z</time></trkpt><trkpt lat="42.0330763" lon="12.4096266"><ele>108.0</ele><time>2026-04-04T08:36:48.171Z</time></trkpt><trkpt lat="42.0330783" lon="12.4097194"><ele>109.5</ele><time>2026-04-04T08:36:51.171Z</time></trkpt><trkpt lat="42.0330989" lon="12.4098291"><ele>111.0</ele><time>2026-04-04T08:36:54.17Z</time></trkpt><trkpt lat="42.0331348" lon="12.4099207"><ele>112.14285714285714</ele><time>2026-04-04T08:36:58.17Z</time></trkpt><trkpt lat="42.0331563" lon="12.4100019"><ele>113.28571428571429</ele><time>2026-04-04T08:37:01.171Z</time></trkpt><trkpt lat="42.0331697" lon="12.4100973"><ele>114.42857142857143</ele><time>2026-04-04T08:37:04.17Z</time></trkpt><trkpt lat="42.0331444" lon="12.410204"><ele>115.57142857142857</ele><time>2026-04-04T08:37:09.171Z</time></trkpt><trkpt lat="42.0331546" lon="12.4103071"><ele>116.71428571428572</ele><time>2026-04-04T08:37:13.171Z</time></trkpt><trkpt lat="42.0331958" lon="12.4103712"><ele>117.85714285714286</ele><time>2026-04-04T08:37:18.171Z</time></trkpt><trkpt lat="42.0332165" lon="12.410467"><ele>119.0</ele><time>2026-04-04T08:37:24.171Z</time></trkpt><trkpt lat="42.0331797" lon="12.4105571"><ele>119.66666666666666</ele><time>2026-04-04T08:37:28.17Z</time></trkpt><trkpt lat="42.0331306" lon="12.4106211"><ele>120.33333333333333</ele><time>2026-04-04T08:37:31.171Z</time></trkpt><trkpt lat="42.0330902" lon="12.4106866"><ele>121.0</ele><time>2026-04-04T08:37:34.17Z</time></trkpt><trkpt lat="42.0330394" lon="12.4108319"><ele>121.66666666666666</ele><time>2026-04-04T08:37:47.17Z</time></trkpt><trkpt lat="42.0330491" lon="12.4109255"><ele>122.33333333333333</ele><time>2026-04-04T08:37:49.17Z</time></trkpt><trkpt lat="42.0330587" lon="12.4110116"><ele>123.0</ele><time>2026-04-04T08:37:52.17Z</time></trkpt><trkpt lat="42.0331213" lon="12.4110596"><ele>123.0</ele><time>2026-04-04T08:37:55.171Z</time></trkpt><trkpt lat="42.0331917" lon="12.4110865"><ele>123.0</ele><time>2026-04-04T08:37:58.17Z</time></trkpt><trkpt lat="42.0332625" lon="12.411098"><ele>123.0</ele><time>2026-04-04T08:38:02.17Z</time></trkpt><trkpt lat="42.0333241" lon="12.4110235"><ele>123.0</ele><time>2026-04-04T08:39:16.17Z</time></trkpt><trkpt lat="42.03336" lon="12.4109258"><ele>123.0</ele><time>2026-04-04T08:39:20.17Z</time></trkpt><trkpt lat="42.0334178" lon="12.4108297"><ele>123.0</ele><time>2026-04-04T08:39:23.17Z</time></trkpt><trkpt lat="42.0334726" lon="12.410735"><ele>121.60000000000001</ele><time>2026-04-04T08:39:25.17Z</time></trkpt><trkpt lat="42.0335552" lon="12.4106474"><ele>120.20000000000002</ele><time>2026-04-04T08:39:27.171Z</time></trkpt><trkpt lat="42.0336314" lon="12.4105739"><ele>118.8</ele><time>2026-04-04T08:39:29.171Z</time></trkpt><trkpt lat="42.0337134" lon="12.4104723"><ele>117.4</ele><time>2026-04-04T08:39:31.17Z</time></trkpt><trkpt lat="42.0337907" lon="12.4103652"><ele>116.0</ele><time>2026-04-04T08:39:33.17Z</time></trkpt><trkpt lat="42.0338706" lon="12.4102616"><ele>115.4</ele><time>2026-04-04T08:39:35.171Z</time></trkpt><trkpt lat="42.033958" lon="12.4101728"><ele>114.8</ele><time>2026-04-04T08:39:37.17Z</time></trkpt><trkpt lat="42.0340383" lon="12.4100896"><ele>114.20000000000002</ele><time>2026-04-04T08:39:39.171Z</time></trkpt><trkpt lat="42.0341227" lon="12.4099873"><ele>113.60000000000001</ele><time>2026-04-04T08:39:41.17Z</time></trkpt><trkpt lat="42.0341841" lon="12.4098573"><ele>113.0</ele><time>2026-04-04T08:39:43.17Z</time></trkpt><trkpt lat="42.0342471" lon="12.4097179"><ele>111.2</ele><time>2026-04-04T08:39:45.17Z</time></trkpt><trkpt lat="42.03429" lon="12.4095759"><ele>109.4</ele><time>2026-04-04T08:39:47.17Z</time></trkpt><trkpt lat="42.0343463" lon="12.4094366"><ele>107.60000000000001</ele><time>2026-04-04T08:39:49.17Z</time></trkpt><trkpt lat="42.0344007" lon="12.4093228"><ele>105.80000000000001</ele><time>2026-04-04T08:39:51.17Z</time></trkpt><trkpt lat="42.0344567" lon="12.4092299"><ele>104.0</ele><time>2026-04-04T08:39:53.17Z</time></trkpt><trkpt lat="42.0345204" lon="12.40914"><ele>104.0</ele><time>2026-04-04T08:39:55.171Z</time></trkpt><trkpt lat="42.0345819" lon="12.4090641"><ele>104.0</ele><time>2026-04-04T08:39:57.17Z</time></trkpt><trkpt lat="42.0346336" lon="12.4089867"><ele>104.0</ele><time>2026-04-04T08:39:59.17Z</time></trkpt><trkpt lat="42.0346963" lon="12.4088762"><ele>104.0</ele><time>2026-04-04T08:40:01.17Z</time></trkpt><trkpt lat="42.034757" lon="12.4087822"><ele>104.0</ele><time>2026-04-04T08:40:03.171Z</time></trkpt><trkpt lat="42.0348219" lon="12.4086835"><ele>104.16666666666666</ele><time>2026-04-04T08:40:05.171Z</time></trkpt><trkpt lat="42.0348826" lon="12.4086063"><ele>104.33333333333333</ele><time>2026-04-04T08:40:07.171Z</time></trkpt><trkpt lat="42.0349372" lon="12.4085486"><ele>104.5</ele><time>2026-04-04T08:40:09.171Z</time></trkpt><trkpt lat="42.0350157" lon="12.4084826"><ele>104.66666666666666</ele><time>2026-04-04T08:40:11.171Z</time></trkpt><trkpt lat="42.0350962" lon="12.4084237"><ele>104.83333333333333</ele><time>2026-04-04T08:40:13.17Z</time></trkpt><trkpt lat="42.035179" lon="12.4083659"><ele>105.0</ele><time>2026-04-04T08:40:15.17Z</time></trkpt><trkpt lat="42.0352776" lon="12.4083154"><ele>105.0</ele><time>2026-04-04T08:40:17.171Z</time></trkpt><trkpt lat="42.0353821" lon="12.4082782"><ele>105.0</ele><time>2026-04-04T08:40:19.17Z</time></trkpt><trkpt lat="42.0355041" lon="12.4082249"><ele>105.0</ele><time>2026-04-04T08:40:21.171Z</time></trkpt><trkpt lat="42.0355675" lon="12.4081912"><ele>105.0</ele><time>2026-04-04T08:40:22.17Z</time></trkpt><trkpt lat="42.0356764" lon="12.4081455"><ele>105.0</ele><time>2026-04-04T08:40:24.17Z</time></trkpt><trkpt lat="42.0357988" lon="12.4081066"><ele>103.6</ele><time>2026-04-04T08:40:26.17Z</time></trkpt><trkpt lat="42.0358621" lon="12.4080884"><ele>102.2</ele><time>2026-04-04T08:40:27.171Z</time></trkpt><trkpt lat="42.0359809" lon="12.4080737"><ele>100.80000000000001</ele><time>2026-04-04T08:40:29.17Z</time></trkpt><trkpt lat="42.0360928" lon="12.408086"><ele>99.4</ele><time>2026-04-04T08:40:31.17Z</time></trkpt><trkpt lat="42.0362161" lon="12.4080794"><ele>98.0</ele><time>2026-04-04T08:40:33.17Z</time></trkpt><trkpt lat="42.0362791" lon="12.4080828"><ele>98.0</ele><time>2026-04-04T08:40:34.17Z</time></trkpt><trkpt lat="42.0364033" lon="12.4080651"><ele>98.0</ele><time>2026-04-04T08:40:36.17Z</time></trkpt><trkpt lat="42.0365119" lon="12.408048"><ele>98.0</ele><time>2026-04-04T08:40:38.171Z</time></trkpt><trkpt lat="42.0366123" lon="12.4080431"><ele>98.0</ele><time>2026-04-04T08:40:40.171Z</time></trkpt><trkpt lat="42.0367007" lon="12.4080376"><ele>98.0</ele><time>2026-04-04T08:40:42.17Z</time></trkpt><trkpt lat="42.0367915" lon="12.4080231"><ele>98.66666666666666</ele><time>2026-04-04T08:40:44.171Z</time></trkpt><trkpt lat="42.0368673" lon="12.4080254"><ele>99.33333333333333</ele><time>2026-04-04T08:40:46.171Z</time></trkpt><trkpt lat="42.0369574" lon="12.4080328"><ele>100.0</ele><time>2026-04-04T08:40:49.17Z</time></trkpt><trkpt lat="42.0370437" lon="12.4080242"><ele>100.66666666666666</ele><time>2026-04-04T08:40:52.17Z</time></trkpt><trkpt lat="42.0371228" lon="12.4080299"><ele>101.33333333333333</ele><time>2026-04-04T08:40:55.17Z</time></trkpt><trkpt lat="42.0372007" lon="12.4080537"><ele>102.0</ele><time>2026-04-04T08:40:58.17Z</time></trkpt><trkpt lat="42.037273" lon="12.4080722"><ele>102.0</ele><time>2026-04-04T08:41:01.17Z</time></trkpt><trkpt lat="42.0373505" lon="12.4080771"><ele>102.0</ele><time>2026-04-04T08:41:04.171Z</time></trkpt><trkpt lat="42.0374178" lon="12.4081035"><ele>102.0</ele><time>2026-04-04T08:41:07.17Z</time></trkpt><trkpt lat="42.0374882" lon="12.4081236"><ele>102.0</ele><time>2026-04-04T08:41:10.17Z</time></trkpt><trkpt lat="42.0375673" lon="12.4081496"><ele>102.0</ele><time>2026-04-04T08:41:13.17Z</time></trkpt><trkpt lat="42.0376392" lon="12.4081617"><ele>102.0</ele><time>2026-04-04T08:41:16.17Z</time></trkpt><trkpt lat="42.0377113" lon="12.4081715"><ele>102.0</ele><time>2026-04-04T08:41:19.171Z</time></trkpt><trkpt lat="42.0377752" lon="12.4081738"><ele>103.16666666666667</ele><time>2026-04-04T08:41:22.17Z</time></trkpt><trkpt lat="42.0378494" lon="12.4081797"><ele>104.33333333333334</ele><time>2026-04-04T08:41:25.171Z</time></trkpt><trkpt lat="42.0379326" lon="12.4081816"><ele>105.5</ele><time>2026-04-04T08:41:28.17Z</time></trkpt><trkpt lat="42.0380036" lon="12.4081664"><ele>106.66666666666667</ele><time>2026-04-04T08:41:31.171Z</time></trkpt><trkpt lat="42.0380889" lon="12.4081444"><ele>107.83333333333334</ele><time>2026-04-04T08:41:34.171Z</time></trkpt><trkpt lat="42.0381739" lon="12.4081158"><ele>109.0</ele><time>2026-04-04T08:41:37.17Z</time></trkpt><trkpt lat="42.0382625" lon="12.4081017"><ele>109.14285714285714</ele><time>2026-04-04T08:41:40.171Z</time></trkpt><trkpt lat="42.0383421" lon="12.4080935"><ele>109.28571428571429</ele><time>2026-04-04T08:41:43.17Z</time></trkpt><trkpt lat="42.0384053" lon="12.4080927"><ele>109.42857142857142</ele><time>2026-04-04T08:41:45.171Z</time></trkpt><trkpt lat="42.0384703" lon="12.4081005"><ele>109.57142857142857</ele><time>2026-04-04T08:41:47.17Z</time></trkpt><trkpt lat="42.0385372" lon="12.4081111"><ele>109.71428571428571</ele><time>2026-04-04T08:41:49.171Z</time></trkpt><trkpt lat="42.0386129" lon="12.4081227"><ele>109.85714285714285</ele><time>2026-04-04T08:41:51.17Z</time></trkpt><trkpt lat="42.0386989" lon="12.4081387"><ele>110.0</ele><time>2026-04-04T08:41:53.17Z</time></trkpt><trkpt lat="42.0387903" lon="12.4081518"><ele>109.99999999999999</ele><time>2026-04-04T08:41:55.17Z</time></trkpt><trkpt lat="42.0388814" lon="12.4081695"><ele>110.0</ele><time>2026-04-04T08:41:57.171Z</time></trkpt><trkpt lat="42.038969" lon="12.4081852"><ele>110.0</ele><time>2026-04-04T08:41:59.17Z</time></trkpt><trkpt lat="42.0390582" lon="12.4081881"><ele>110.0</ele><time>2026-04-04T08:42:01.171Z</time></trkpt><trkpt lat="42.0391461" lon="12.4082006"><ele>109.99999999999999</ele><time>2026-04-04T08:42:03.17Z</time></trkpt><trkpt lat="42.0392322" lon="12.4082127"><ele>110.0</ele><time>2026-04-04T08:42:05.171Z</time></trkpt><trkpt lat="42.0393194" lon="12.408216"><ele>110.33333333333333</ele><time>2026-04-04T08:42:07.17Z</time></trkpt><trkpt lat="42.039393" lon="12.4082363"><ele>110.66666666666666</ele><time>2026-04-04T08:42:09.171Z</time></trkpt><trkpt lat="42.039437" lon="12.4083064"><ele>111.0</ele><time>2026-04-04T08:42:11.171Z</time></trkpt><trkpt lat="42.0394474" lon="12.4084153"><ele>111.33333333333334</ele><time>2026-04-04T08:42:13.17Z</time></trkpt><trkpt lat="42.0394331" lon="12.4085313"><ele>111.66666666666667</ele><time>2026-04-04T08:42:15.17Z</time></trkpt><trkpt lat="42.0394305" lon="12.408648"><ele>112.0</ele><time>2026-04-04T08:42:17.171Z</time></trkpt><trkpt lat="42.0394395" lon="12.4087574"><ele>111.66666666666667</ele><time>2026-04-04T08:42:19.17Z</time></trkpt><trkpt lat="42.0394492" lon="12.4088689"><ele>111.33333333333334</ele><time>2026-04-04T08:42:21.17Z</time></trkpt><trkpt lat="42.039457" lon="12.4089773"><ele>111.0</ele><time>2026-04-04T08:42:23.171Z</time></trkpt><trkpt lat="42.0394523" lon="12.4090857"><ele>110.66666666666666</ele><time>2026-04-04T08:42:25.171Z</time></trkpt><trkpt lat="42.0394551" lon="12.4091802"><ele>110.33333333333333</ele><time>2026-04-04T08:42:27.171Z</time></trkpt><trkpt lat="42.039457" lon="12.4092788"><ele>110.0</ele><time>2026-04-04T08:42:29.171Z</time></trkpt><trkpt lat="42.0394498" lon="12.4093658"><ele>109.99999999999999</ele><time>2026-04-04T08:42:31.17Z</time></trkpt><trkpt lat="42.0394486" lon="12.4094552"><ele>110.0</ele><time>2026-04-04T08:42:33.17Z</time></trkpt><trkpt lat="42.0394528" lon="12.4095819"><ele>110.0</ele><time>2026-04-04T08:42:36.17Z</time></trkpt><trkpt lat="42.0394477" lon="12.4096754"><ele>110.0</ele><time>2026-04-04T08:42:38.17Z</time></trkpt><trkpt lat="42.0394379" lon="12.4097652"><ele>109.99999999999999</ele><time>2026-04-04T08:42:40.17Z</time></trkpt><trkpt lat="42.0394264" lon="12.4098687"><ele>110.0</ele><time>2026-04-04T08:42:42.171Z</time></trkpt><trkpt lat="42.0394139" lon="12.409973"><ele>110.0</ele><time>2026-04-04T08:42:44.17Z</time></trkpt><trkpt lat="42.0394096" lon="12.4101001"><ele>110.0</ele><time>2026-04-04T08:42:46.17Z</time></trkpt><trkpt lat="42.0394106" lon="12.4102311"><ele>110.0</ele><time>2026-04-04T08:42:48.17Z</time></trkpt><trkpt lat="42.0394054" lon="12.4103657"><ele>110.0</ele><time>2026-04-04T08:42:50.17Z</time></trkpt><trkpt lat="42.0393999" lon="12.4104975"><ele>110.0</ele><time>2026-04-04T08:42:52.17Z</time></trkpt><trkpt lat="42.0393934" lon="12.410616"><ele>108.83333333333333</ele><time>2026-04-04T08:42:54.17Z</time></trkpt><trkpt lat="42.039388" lon="12.4107257"><ele>107.66666666666666</ele><time>2026-04-04T08:42:56.171Z</time></trkpt><trkpt lat="42.0393808" lon="12.4108292"><ele>106.5</ele><time>2026-04-04T08:42:58.17Z</time></trkpt><trkpt lat="42.0393626" lon="12.4109353"><ele>105.33333333333334</ele><time>2026-04-04T08:43:00.171Z</time></trkpt><trkpt lat="42.0393397" lon="12.4110465"><ele>104.16666666666667</ele><time>2026-04-04T08:43:02.171Z</time></trkpt><trkpt lat="42.039313" lon="12.4111663"><ele>103.0</ele><time>2026-04-04T08:43:04.17Z</time></trkpt><trkpt lat="42.0392815" lon="12.4112937"><ele>102.5</ele><time>2026-04-04T08:43:06.17Z</time></trkpt><trkpt lat="42.0392383" lon="12.4114262"><ele>102.0</ele><time>2026-04-04T08:43:08.17Z</time></trkpt><trkpt lat="42.0392016" lon="12.4115812"><ele>101.5</ele><time>2026-04-04T08:43:10.171Z</time></trkpt><trkpt lat="42.0391531" lon="12.4117314"><ele>101.0</ele><time>2026-04-04T08:43:12.171Z</time></trkpt><trkpt lat="42.0391258" lon="12.4118733"><ele>100.99999999999999</ele><time>2026-04-04T08:43:14.17Z</time></trkpt><trkpt lat="42.039112" lon="12.4120369"><ele>101.0</ele><time>2026-04-04T08:43:16.17Z</time></trkpt><trkpt lat="42.039101" lon="12.4121226"><ele>101.0</ele><time>2026-04-04T08:43:17.171Z</time></trkpt><trkpt lat="42.039085" lon="12.4122097"><ele>101.0</ele><time>2026-04-04T08:43:18.171Z</time></trkpt><trkpt lat="42.0390738" lon="12.4123069"><ele>100.99999999999999</ele><time>2026-04-04T08:43:19.171Z</time></trkpt><trkpt lat="42.039069" lon="12.4124076"><ele>101.0</ele><time>2026-04-04T08:43:20.17Z</time></trkpt><trkpt lat="42.0390653" lon="12.4125154"><ele>100.33333333333333</ele><time>2026-04-04T08:43:21.171Z</time></trkpt><trkpt lat="42.0390602" lon="12.4126233"><ele>99.66666666666666</ele><time>2026-04-04T08:43:22.171Z</time></trkpt><trkpt lat="42.0390478" lon="12.4127302"><ele>99.0</ele><time>2026-04-04T08:43:23.171Z</time></trkpt><trkpt lat="42.0390399" lon="12.4128263"><ele>98.33333333333334</ele><time>2026-04-04T08:43:24.17Z</time></trkpt><trkpt lat="42.0390312" lon="12.412914"><ele>97.66666666666667</ele><time>2026-04-04T08:43:25.17Z</time></trkpt><trkpt lat="42.0390171" lon="12.4130678"><ele>97.0</ele><time>2026-04-04T08:43:27.171Z</time></trkpt><trkpt lat="42.0390126" lon="12.4132045"><ele>96.83333333333334</ele><time>2026-04-04T08:43:29.17Z</time></trkpt><trkpt lat="42.0389971" lon="12.4133268"><ele>96.66666666666667</ele><time>2026-04-04T08:43:31.171Z</time></trkpt><trkpt lat="42.0389697" lon="12.4134362"><ele>96.5</ele><time>2026-04-04T08:43:33.171Z</time></trkpt><trkpt lat="42.038919" lon="12.4135203"><ele>96.33333333333334</ele><time>2026-04-04T08:43:35.171Z</time></trkpt><trkpt lat="42.0388535" lon="12.4135803"><ele>96.16666666666667</ele><time>2026-04-04T08:43:37.171Z</time></trkpt><trkpt lat="42.0387979" lon="12.4136388"><ele>96.0</ele><time>2026-04-04T08:43:39.17Z</time></trkpt><trkpt lat="42.0387228" lon="12.4137051"><ele>96.0</ele><time>2026-04-04T08:45:33.17Z</time></trkpt><trkpt lat="42.0386576" lon="12.4137344"><ele>96.0</ele><time>2026-04-04T08:45:36.17Z</time></trkpt><trkpt lat="42.0385663" lon="12.413749"><ele>96.0</ele><time>2026-04-04T08:45:39.171Z</time></trkpt><trkpt lat="42.0385005" lon="12.4137724"><ele>96.0</ele><time>2026-04-04T08:45:41.17Z</time></trkpt><trkpt lat="42.0384279" lon="12.4137974"><ele>96.0</ele><time>2026-04-04T08:45:43.171Z</time></trkpt><trkpt lat="42.0383497" lon="12.4138312"><ele>96.0</ele><time>2026-04-04T08:45:45.171Z</time></trkpt><trkpt lat="42.0382775" lon="12.4138602"><ele>96.42857142857142</ele><time>2026-04-04T08:45:47.171Z</time></trkpt><trkpt lat="42.038212" lon="12.4139018"><ele>96.85714285714286</ele><time>2026-04-04T08:45:49.17Z</time></trkpt><trkpt lat="42.0381511" lon="12.413948"><ele>97.28571428571428</ele><time>2026-04-04T08:45:51.17Z</time></trkpt><trkpt lat="42.0380917" lon="12.4140015"><ele>97.71428571428571</ele><time>2026-04-04T08:45:53.171Z</time></trkpt><trkpt lat="42.0380263" lon="12.4140612"><ele>98.14285714285714</ele><time>2026-04-04T08:45:55.17Z</time></trkpt><trkpt lat="42.0379574" lon="12.4141228"><ele>98.57142857142857</ele><time>2026-04-04T08:45:57.171Z</time></trkpt><trkpt lat="42.0379012" lon="12.4141799"><ele>99.0</ele><time>2026-04-04T08:45:59.17Z</time></trkpt><trkpt lat="42.037834" lon="12.414238"><ele>99.0</ele><time>2026-04-04T08:46:01.171Z</time></trkpt><trkpt lat="42.0377717" lon="12.4143073"><ele>99.0</ele><time>2026-04-04T08:46:03.17Z</time></trkpt><trkpt lat="42.0377064" lon="12.4143587"><ele>99.0</ele><time>2026-04-04T08:46:05.17Z</time></trkpt><trkpt lat="42.0376414" lon="12.4144193"><ele>99.0</ele><time>2026-04-04T08:46:07.17Z</time></trkpt><trkpt lat="42.037576" lon="12.4144931"><ele>99.0</ele><time>2026-04-04T08:46:09.17Z</time></trkpt><trkpt lat="42.0375046" lon="12.4145587"><ele>99.0</ele><time>2026-04-04T08:46:11.17Z</time></trkpt><trkpt lat="42.0374369" lon="12.4146257"><ele>98.33333333333333</ele><time>2026-04-04T08:46:13.171Z</time></trkpt><trkpt lat="42.0373795" lon="12.4146945"><ele>97.66666666666667</ele><time>2026-04-04T08:46:15.17Z</time></trkpt><trkpt lat="42.037338" lon="12.4147611"><ele>97.0</ele><time>2026-04-04T08:46:17.17Z</time></trkpt><trkpt lat="42.0372752" lon="12.4148435"><ele>96.33333333333334</ele><time>2026-04-04T08:46:20.17Z</time></trkpt><trkpt lat="42.0372182" lon="12.4149089"><ele>95.66666666666667</ele><time>2026-04-04T08:46:22.171Z</time></trkpt><trkpt lat="42.0371663" lon="12.4149846"><ele>95.0</ele><time>2026-04-04T08:46:24.17Z</time></trkpt><trkpt lat="42.0371142" lon="12.4150562"><ele>95.0</ele><time>2026-04-04T08:46:26.17Z</time></trkpt><trkpt lat="42.0370529" lon="12.4151154"><ele>95.0</ele><time>2026-04-04T08:46:28.17Z</time></trkpt><trkpt lat="42.0369676" lon="12.4151457"><ele>95.0</ele><time>2026-04-04T08:46:31.17Z</time></trkpt><trkpt lat="42.0369033" lon="12.415184"><ele>95.0</ele><time>2026-04-04T08:46:33.17Z</time></trkpt><trkpt lat="42.036822" lon="12.415229"><ele>95.0</ele><time>2026-04-04T08:46:35.17Z</time></trkpt><trkpt lat="42.0367429" lon="12.4152574"><ele>95.0</ele><time>2026-04-04T08:46:37.17Z</time></trkpt><trkpt lat="42.0366723" lon="12.4152612"><ele>95.14285714285714</ele><time>2026-04-04T08:46:39.17Z</time></trkpt><trkpt lat="42.0365982" lon="12.4152918"><ele>95.28571428571429</ele><time>2026-04-04T08:46:41.17Z</time></trkpt><trkpt lat="42.036521" lon="12.4153172"><ele>95.42857142857142</ele><time>2026-04-04T08:46:43.17Z</time></trkpt><trkpt lat="42.0364464" lon="12.415348"><ele>95.57142857142857</ele><time>2026-04-04T08:46:45.171Z</time></trkpt><trkpt lat="42.0363764" lon="12.4153693"><ele>95.71428571428571</ele><time>2026-04-04T08:46:47.17Z</time></trkpt><trkpt lat="42.0363114" lon="12.4154049"><ele>95.85714285714285</ele><time>2026-04-04T08:46:49.17Z</time></trkpt><trkpt lat="42.0362525" lon="12.4154509"><ele>96.0</ele><time>2026-04-04T08:46:51.171Z</time></trkpt><trkpt lat="42.0361881" lon="12.4155352"><ele>95.99999999999999</ele><time>2026-04-04T08:46:54.17Z</time></trkpt><trkpt lat="42.0361264" lon="12.4156197"><ele>96.0</ele><time>2026-04-04T08:46:57.17Z</time></trkpt><trkpt lat="42.0360872" lon="12.4156865"><ele>96.0</ele><time>2026-04-04T08:46:59.171Z</time></trkpt><trkpt lat="42.0360594" lon="12.4157645"><ele>96.0</ele><time>2026-04-04T08:47:02.17Z</time></trkpt><trkpt lat="42.036025" lon="12.4158767"><ele>96.0</ele><time>2026-04-04T08:47:05.17Z</time></trkpt><trkpt lat="42.036004" lon="12.4159648"><ele>95.99999999999999</ele><time>2026-04-04T08:47:07.171Z</time></trkpt><trkpt lat="42.035984" lon="12.4160599"><ele>96.0</ele><time>2026-04-04T08:47:09.17Z</time></trkpt><trkpt lat="42.0359775" lon="12.4161561"><ele>96.0</ele><time>2026-04-04T08:47:11.17Z</time></trkpt><trkpt lat="42.0359926" lon="12.4162611"><ele>96.0</ele><time>2026-04-04T08:47:13.17Z</time></trkpt><trkpt lat="42.0360196" lon="12.4163772"><ele>96.0</ele><time>2026-04-04T08:47:15.171Z</time></trkpt><trkpt lat="42.0360494" lon="12.4164917"><ele>96.0</ele><time>2026-04-04T08:47:17.17Z</time></trkpt><trkpt lat="42.0360821" lon="12.4166021"><ele>96.0</ele><time>2026-04-04T08:47:19.17Z</time></trkpt><trkpt lat="42.0361172" lon="12.4167182"><ele>96.0</ele><time>2026-04-04T08:47:21.17Z</time></trkpt><trkpt lat="42.0361617" lon="12.4168104"><ele>96.42857142857142</ele><time>2026-04-04T08:47:23.17Z</time></trkpt><trkpt lat="42.0362026" lon="12.4168909"><ele>96.85714285714286</ele><time>2026-04-04T08:47:26.171Z</time></trkpt><trkpt lat="42.0361378" lon="12.4168591"><ele>97.28571428571428</ele><time>2026-04-04T08:47:34.171Z</time></trkpt><trkpt lat="42.0361004" lon="12.4167841"><ele>97.71428571428571</ele><time>2026-04-04T08:47:41.17Z</time></trkpt><trkpt lat="42.0360649" lon="12.4166914"><ele>98.14285714285714</ele><time>2026-04-04T08:47:48.17Z</time></trkpt><trkpt lat="42.0360107" lon="12.4166239"><ele>98.57142857142857</ele><time>2026-04-04T08:47:52.171Z</time></trkpt><trkpt lat="42.035954" lon="12.4165566"><ele>99.0</ele><time>2026-04-04T08:47:56.171Z</time></trkpt><trkpt lat="42.0358977" lon="12.4164932"><ele>99.0</ele><time>2026-04-04T08:47:59.171Z</time></trkpt><trkpt lat="42.0358337" lon="12.4164407"><ele>99.0</ele><time>2026-04-04T08:48:02.171Z</time></trkpt><trkpt lat="42.0357832" lon="12.4163595"><ele>99.0</ele><time>2026-04-04T08:48:06.171Z</time></trkpt><trkpt lat="42.0357903" lon="12.4162688"><ele>99.0</ele><time>2026-04-04T08:48:10.171Z</time></trkpt><trkpt lat="42.035836" lon="12.4162034"><ele>99.0</ele><time>2026-04-04T08:48:16.171Z</time></trkpt><trkpt lat="42.0358926" lon="12.4161598"><ele>99.0</ele><time>2026-04-04T08:48:20.17Z</time></trkpt><trkpt lat="42.0359449" lon="12.4160897"><ele>99.0</ele><time>2026-04-04T08:48:22.171Z</time></trkpt><trkpt lat="42.0359963" lon="12.4159596"><ele>98.5</ele><time>2026-04-04T08:48:24.17Z</time></trkpt><trkpt lat="42.0360562" lon="12.4158145"><ele>98.0</ele><time>2026-04-04T08:48:26.17Z</time></trkpt><trkpt lat="42.0360894" lon="12.4157237"><ele>97.5</ele><time>2026-04-04T08:48:27.17Z</time></trkpt><trkpt lat="42.0361248" lon="12.4156351"><ele>97.0</ele><time>2026-04-04T08:48:28.17Z</time></trkpt><trkpt lat="42.0361643" lon="12.4155503"><ele>96.5</ele><time>2026-04-04T08:48:29.17Z</time></trkpt><trkpt lat="42.036211" lon="12.4154661"><ele>96.0</ele><time>2026-04-04T08:48:30.17Z</time></trkpt><trkpt lat="42.0362675" lon="12.4153937"><ele>95.33333333333333</ele><time>2026-04-04T08:48:31.17Z</time></trkpt><trkpt lat="42.0363252" lon="12.4153326"><ele>94.66666666666667</ele><time>2026-04-04T08:48:32.171Z</time></trkpt><trkpt lat="42.0363805" lon="12.4152847"><ele>94.0</ele><time>2026-04-04T08:48:33.17Z</time></trkpt><trkpt lat="42.0364845" lon="12.415209"><ele>93.33333333333334</ele><time>2026-04-04T08:48:35.171Z</time></trkpt><trkpt lat="42.0365505" lon="12.4151713"><ele>92.66666666666667</ele><time>2026-04-04T08:48:37.17Z</time></trkpt><trkpt lat="42.0366304" lon="12.4151427"><ele>92.0</ele><time>2026-04-04T08:48:40.171Z</time></trkpt><trkpt lat="42.0365962" lon="12.4150632"><ele>92.0</ele><time>2026-04-04T08:48:47.171Z</time></trkpt><trkpt lat="42.0365041" lon="12.4150762"><ele>92.0</ele><time>2026-04-04T08:48:51.171Z</time></trkpt><trkpt lat="42.0364156" lon="12.4151046"><ele>92.0</ele><time>2026-04-04T08:48:53.17Z</time></trkpt><trkpt lat="42.0363415" lon="12.4151267"><ele>92.0</ele><time>2026-04-04T08:48:55.17Z</time></trkpt><trkpt lat="42.0362782" lon="12.4151426"><ele>92.0</ele><time>2026-04-04T08:48:57.171Z</time></trkpt><trkpt lat="42.0362162" lon="12.4151594"><ele>92.0</ele><time>2026-04-04T08:48:59.172Z</time></trkpt><trkpt lat="42.0361242" lon="12.4151696"><ele>92.0</ele><time>2026-04-04T08:49:02.172Z</time></trkpt><trkpt lat="42.036061" lon="12.4151749"><ele>92.0</ele><time>2026-04-04T08:49:04.171Z</time></trkpt><trkpt lat="42.0359964" lon="12.4151887"><ele>92.0</ele><time>2026-04-04T08:49:06.172Z</time></trkpt><trkpt lat="42.0359202" lon="12.4152011"><ele>92.0</ele><time>2026-04-04T08:49:09.171Z</time></trkpt><trkpt lat="42.0358294" lon="12.4152242"><ele>92.0</ele><time>2026-04-04T08:49:11.172Z</time></trkpt><trkpt lat="42.0357079" lon="12.4152485"><ele>92.0</ele><time>2026-04-04T08:49:13.171Z</time></trkpt><trkpt lat="42.0355961" lon="12.4152597"><ele>92.0</ele><time>2026-04-04T08:49:15.171Z</time></trkpt><trkpt lat="42.0355251" lon="12.4152462"><ele>92.0</ele><time>2026-04-04T08:49:17.172Z</time></trkpt><trkpt lat="42.0354599" lon="12.4152042"><ele>92.0</ele><time>2026-04-04T08:49:23.172Z</time></trkpt><trkpt lat="42.0355248" lon="12.415204"><ele>92.0</ele><time>2026-04-04T08:50:12.171Z</time></trkpt><trkpt lat="42.0355252" lon="12.4150689"><ele>92.0</ele><time>2026-04-04T08:51:07.172Z</time></trkpt><trkpt lat="42.0354922" lon="12.4149893"><ele>92.0</ele><time>2026-04-04T08:51:11.171Z</time></trkpt><trkpt lat="42.0354527" lon="12.4149083"><ele>92.0</ele><time>2026-04-04T08:52:43.171Z</time></trkpt><trkpt lat="42.0355172" lon="12.4150666"><ele>92.0</ele><time>2026-04-04T08:54:50.167Z</time></trkpt><trkpt lat="42.0354723" lon="12.4149382"><ele>92.0</ele><time>2026-04-04T08:55:55.167Z</time></trkpt><trkpt lat="42.0354948" lon="12.4150201"><ele>92.0</ele><time>2026-04-04T08:57:25.167Z</time></trkpt><trkpt lat="42.0355748" lon="12.4151089"><ele>92.0</ele><time>2026-04-04T08:57:47.166Z</time></trkpt><trkpt lat="42.0357015" lon="12.4150857"><ele>92.0</ele><time>2026-04-04T08:58:03.167Z</time></trkpt><trkpt lat="42.0357619" lon="12.4150431"><ele>92.0</ele><time>2026-04-04T08:58:05.166Z</time></trkpt><trkpt lat="42.0358265" lon="12.4150087"><ele>92.0</ele><time>2026-04-04T08:58:08.166Z</time></trkpt><trkpt lat="42.0358934" lon="12.4149899"><ele>92.0</ele><time>2026-04-04T08:58:11.167Z</time></trkpt><trkpt lat="42.0359576" lon="12.4149827"><ele>92.0</ele><time>2026-04-04T08:58:14.166Z</time></trkpt><trkpt lat="42.0360259" lon="12.4149635"><ele>92.0</ele><time>2026-04-04T08:58:18.166Z</time></trkpt><trkpt lat="42.0360744" lon="12.414908"><ele>92.0</ele><time>2026-04-04T08:58:20.166Z</time></trkpt><trkpt lat="42.0361475" lon="12.4148751"><ele>92.0</ele><time>2026-04-04T08:58:23.167Z</time></trkpt><trkpt lat="42.0362159" lon="12.414849"><ele>92.0</ele><time>2026-04-04T08:58:25.166Z</time></trkpt><trkpt lat="42.0362802" lon="12.4148256"><ele>92.0</ele><time>2026-04-04T08:58:27.166Z</time></trkpt><trkpt lat="42.0363553" lon="12.4148257"><ele>92.0</ele><time>2026-04-04T08:58:30.167Z</time></trkpt><trkpt lat="42.0364289" lon="12.4148194"><ele>92.0</ele><time>2026-04-04T08:58:33.167Z</time></trkpt><trkpt lat="42.0364978" lon="12.4147858"><ele>92.0</ele><time>2026-04-04T08:58:36.166Z</time></trkpt><trkpt lat="42.0365724" lon="12.414758"><ele>92.0</ele><time>2026-04-04T08:58:39.166Z</time></trkpt><trkpt lat="42.0366217" lon="12.4148287"><ele>92.0</ele><time>2026-04-04T08:58:43.167Z</time></trkpt><trkpt lat="42.0366676" lon="12.4149037"><ele>92.0</ele><time>2026-04-04T08:58:48.167Z</time></trkpt><trkpt lat="42.0367067" lon="12.4149797"><ele>92.0</ele><time>2026-04-04T08:58:57.167Z</time></trkpt><trkpt lat="42.0366423" lon="12.4149998"><ele>92.0</ele><time>2026-04-04T08:59:02.166Z</time></trkpt><trkpt lat="42.0365792" lon="12.4150473"><ele>92.0</ele><time>2026-04-04T08:59:04.166Z</time></trkpt><trkpt lat="42.03652" lon="12.4150862"><ele>92.0</ele><time>2026-04-04T08:59:06.167Z</time></trkpt><trkpt lat="42.0364605" lon="12.4151453"><ele>92.0</ele><time>2026-04-04T08:59:10.167Z</time></trkpt><trkpt lat="42.0363939" lon="12.4151952"><ele>92.0</ele><time>2026-04-04T08:59:14.167Z</time></trkpt><trkpt lat="42.0363139" lon="12.415246"><ele>92.0</ele><time>2026-04-04T08:59:17.166Z</time></trkpt><trkpt lat="42.0362458" lon="12.4153172"><ele>92.0</ele><time>2026-04-04T08:59:20.167Z</time></trkpt><trkpt lat="42.0361969" lon="12.4153768"><ele>92.0</ele><time>2026-04-04T08:59:23.166Z</time></trkpt><trkpt lat="42.0361388" lon="12.415436"><ele>92.0</ele><time>2026-04-04T08:59:26.166Z</time></trkpt><trkpt lat="42.0360744" lon="12.4154984"><ele>92.0</ele><time>2026-04-04T08:59:30.166Z</time></trkpt><trkpt lat="42.0360408" lon="12.4156007"><ele>92.0</ele><time>2026-04-04T08:59:34.167Z</time></trkpt><trkpt lat="42.0360014" lon="12.4156817"><ele>91.85714285714286</ele><time>2026-04-04T08:59:38.166Z</time></trkpt><trkpt lat="42.0359553" lon="12.415765"><ele>91.71428571428571</ele><time>2026-04-04T08:59:43.167Z</time></trkpt><trkpt lat="42.0359208" lon="12.415847"><ele>91.57142857142857</ele><time>2026-04-04T08:59:47.166Z</time></trkpt><trkpt lat="42.0358859" lon="12.415934"><ele>91.42857142857143</ele><time>2026-04-04T08:59:52.167Z</time></trkpt><trkpt lat="42.0358226" lon="12.4159995"><ele>91.28571428571428</ele><time>2026-04-04T08:59:56.167Z</time></trkpt><trkpt lat="42.0357866" lon="12.4160713"><ele>91.14285714285714</ele><time>2026-04-04T08:59:59.166Z</time></trkpt><trkpt lat="42.0357498" lon="12.4161558"><ele>91.0</ele><time>2026-04-04T09:00:02.166Z</time></trkpt><trkpt lat="42.0357542" lon="12.416277"><ele>91.0</ele><time>2026-04-04T09:00:05.167Z</time></trkpt><trkpt lat="42.0357892" lon="12.4163916"><ele>91.0</ele><time>2026-04-04T09:00:07.167Z</time></trkpt><trkpt lat="42.0358515" lon="12.4164487"><ele>91.0</ele><time>2026-04-04T09:00:09.166Z</time></trkpt><trkpt lat="42.035917" lon="12.4165205"><ele>91.0</ele><time>2026-04-04T09:00:12.166Z</time></trkpt><trkpt lat="42.0359634" lon="12.4166052"><ele>91.0</ele><time>2026-04-04T09:00:15.166Z</time></trkpt><trkpt lat="42.0360053" lon="12.4166903"><ele>91.0</ele><time>2026-04-04T09:00:18.167Z</time></trkpt><trkpt lat="42.036045" lon="12.4167634"><ele>92.33333333333333</ele><time>2026-04-04T09:00:21.166Z</time></trkpt><trkpt lat="42.0360981" lon="12.416835"><ele>93.66666666666666</ele><time>2026-04-04T09:00:40.167Z</time></trkpt><trkpt lat="42.0361433" lon="12.4169151"><ele>95.0</ele><time>2026-04-04T09:00:43.167Z</time></trkpt><trkpt lat="42.036196" lon="12.4169615"><ele>96.33333333333333</ele><time>2026-04-04T09:00:46.166Z</time></trkpt><trkpt lat="42.0362663" lon="12.4169969"><ele>97.66666666666667</ele><time>2026-04-04T09:00:49.166Z</time></trkpt><trkpt lat="42.0363492" lon="12.4170264"><ele>99.0</ele><time>2026-04-04T09:00:52.167Z</time></trkpt><trkpt lat="42.0364276" lon="12.4170625"><ele>99.0</ele><time>2026-04-04T09:00:55.166Z</time></trkpt><trkpt lat="42.0365087" lon="12.417103"><ele>99.0</ele><time>2026-04-04T09:00:58.166Z</time></trkpt><trkpt lat="42.0365819" lon="12.4171538"><ele>99.0</ele><time>2026-04-04T09:01:01.166Z</time></trkpt><trkpt lat="42.0366345" lon="12.4172226"><ele>99.0</ele><time>2026-04-04T09:01:04.167Z</time></trkpt><trkpt lat="42.036688" lon="12.4172968"><ele>99.0</ele><time>2026-04-04T09:01:07.166Z</time></trkpt><trkpt lat="42.0367368" lon="12.4173771"><ele>99.0</ele><time>2026-04-04T09:01:10.166Z</time></trkpt><trkpt lat="42.0367882" lon="12.4174494"><ele>99.16666666666667</ele><time>2026-04-04T09:01:13.166Z</time></trkpt><trkpt lat="42.0368359" lon="12.417527"><ele>99.33333333333334</ele><time>2026-04-04T09:01:16.166Z</time></trkpt><trkpt lat="42.0368807" lon="12.4176088"><ele>99.5</ele><time>2026-04-04T09:01:19.167Z</time></trkpt><trkpt lat="42.0369278" lon="12.4176942"><ele>99.66666666666667</ele><time>2026-04-04T09:01:22.167Z</time></trkpt><trkpt lat="42.0369795" lon="12.4177828"><ele>99.83333333333334</ele><time>2026-04-04T09:01:25.166Z</time></trkpt><trkpt lat="42.0370255" lon="12.4178759"><ele>100.0</ele><time>2026-04-04T09:01:28.167Z</time></trkpt><trkpt lat="42.0370735" lon="12.4179557"><ele>99.83333333333334</ele><time>2026-04-04T09:01:31.166Z</time></trkpt><trkpt lat="42.037136" lon="12.4180205"><ele>99.66666666666667</ele><time>2026-04-04T09:01:34.167Z</time></trkpt><trkpt lat="42.0371933" lon="12.4180877"><ele>99.5</ele><time>2026-04-04T09:01:37.167Z</time></trkpt><trkpt lat="42.0372726" lon="12.418157"><ele>99.33333333333334</ele><time>2026-04-04T09:01:40.166Z</time></trkpt><trkpt lat="42.0373337" lon="12.4182007"><ele>99.16666666666667</ele><time>2026-04-04T09:01:42.166Z</time></trkpt><trkpt lat="42.0373857" lon="12.4182501"><ele>99.0</ele><time>2026-04-04T09:01:44.167Z</time></trkpt><trkpt lat="42.0374558" lon="12.4183178"><ele>100.0</ele><time>2026-04-04T09:01:47.166Z</time></trkpt><trkpt lat="42.0375152" lon="12.4183807"><ele>101.0</ele><time>2026-04-04T09:01:50.167Z</time></trkpt><trkpt lat="42.0375967" lon="12.4184275"><ele>102.0</ele><time>2026-04-04T09:01:53.166Z</time></trkpt><trkpt lat="42.0376506" lon="12.4184753"><ele>103.0</ele><time>2026-04-04T09:01:55.167Z</time></trkpt><trkpt lat="42.0377132" lon="12.418561"><ele>104.0</ele><time>2026-04-04T09:01:58.166Z</time></trkpt><trkpt lat="42.0377604" lon="12.4186183"><ele>105.0</ele><time>2026-04-04T09:02:00.166Z</time></trkpt><trkpt lat="42.0378416" lon="12.4186818"><ele>105.0</ele><time>2026-04-04T09:02:03.167Z</time></trkpt><trkpt lat="42.0379007" lon="12.4187251"><ele>105.0</ele><time>2026-04-04T09:02:05.166Z</time></trkpt><trkpt lat="42.0379567" lon="12.4187741"><ele>105.0</ele><time>2026-04-04T09:02:07.166Z</time></trkpt><trkpt lat="42.0380258" lon="12.4188455"><ele>105.0</ele><time>2026-04-04T09:02:10.166Z</time></trkpt><trkpt lat="42.0380818" lon="12.4188872"><ele>105.0</ele><time>2026-04-04T09:02:12.167Z</time></trkpt><trkpt lat="42.0381382" lon="12.4189253"><ele>105.0</ele><time>2026-04-04T09:02:14.166Z</time></trkpt><trkpt lat="42.0382288" lon="12.4189266"><ele>105.0</ele><time>2026-04-04T09:02:17.166Z</time></trkpt><trkpt lat="42.038286" lon="12.418887"><ele>104.71428571428571</ele><time>2026-04-04T09:02:19.167Z</time></trkpt><trkpt lat="42.0383419" lon="12.4188296"><ele>104.42857142857143</ele><time>2026-04-04T09:02:21.167Z</time></trkpt><trkpt lat="42.0383915" lon="12.4187707"><ele>104.14285714285714</ele><time>2026-04-04T09:02:23.166Z</time></trkpt><trkpt lat="42.038442" lon="12.4186994"><ele>103.85714285714286</ele><time>2026-04-04T09:02:25.167Z</time></trkpt><trkpt lat="42.0384953" lon="12.4186425"><ele>103.57142857142857</ele><time>2026-04-04T09:02:27.167Z</time></trkpt><trkpt lat="42.0385537" lon="12.4185874"><ele>103.28571428571428</ele><time>2026-04-04T09:02:29.166Z</time></trkpt><trkpt lat="42.0386049" lon="12.4185286"><ele>103.0</ele><time>2026-04-04T09:02:31.166Z</time></trkpt><trkpt lat="42.0386721" lon="12.4184478"><ele>103.83333333333334</ele><time>2026-04-04T09:02:34.167Z</time></trkpt><trkpt lat="42.0387337" lon="12.4183675"><ele>104.66666666666667</ele><time>2026-04-04T09:02:37.167Z</time></trkpt><trkpt lat="42.0387833" lon="12.4182615"><ele>105.5</ele><time>2026-04-04T09:02:40.166Z</time></trkpt><trkpt lat="42.0388118" lon="12.4181832"><ele>106.33333333333334</ele><time>2026-04-04T09:02:42.167Z</time></trkpt><trkpt lat="42.0388502" lon="12.4180945"><ele>107.16666666666667</ele><time>2026-04-04T09:02:44.166Z</time></trkpt><trkpt lat="42.038893" lon="12.4180098"><ele>108.0</ele><time>2026-04-04T09:02:46.166Z</time></trkpt><trkpt lat="42.0389441" lon="12.4179286"><ele>107.80000000000001</ele><time>2026-04-04T09:02:48.166Z</time></trkpt><trkpt lat="42.0389975" lon="12.4178411"><ele>107.60000000000001</ele><time>2026-04-04T09:02:50.166Z</time></trkpt><trkpt lat="42.0390592" lon="12.4177265"><ele>107.39999999999999</ele><time>2026-04-04T09:02:52.167Z</time></trkpt><trkpt lat="42.0391317" lon="12.4176205"><ele>107.19999999999999</ele><time>2026-04-04T09:02:54.166Z</time></trkpt><trkpt lat="42.0392173" lon="12.4175327"><ele>107.0</ele><time>2026-04-04T09:02:56.166Z</time></trkpt><trkpt lat="42.0393177" lon="12.4174532"><ele>107.0</ele><time>2026-04-04T09:02:58.166Z</time></trkpt><trkpt lat="42.0394156" lon="12.41739"><ele>106.99999999999999</ele><time>2026-04-04T09:03:00.166Z</time></trkpt><trkpt lat="42.0395041" lon="12.4173563"><ele>106.99999999999999</ele><time>2026-04-04T09:03:02.167Z</time></trkpt><trkpt lat="42.0395876" lon="12.4173105"><ele>107.0</ele><time>2026-04-04T09:03:04.166Z</time></trkpt><trkpt lat="42.0396722" lon="12.4172739"><ele>107.0</ele><time>2026-04-04T09:03:06.166Z</time></trkpt><trkpt lat="42.0397523" lon="12.4172488"><ele>106.99999999999999</ele><time>2026-04-04T09:03:08.166Z</time></trkpt><trkpt lat="42.0398276" lon="12.4172276"><ele>107.0</ele><time>2026-04-04T09:03:10.166Z</time></trkpt><trkpt lat="42.0399025" lon="12.4172006"><ele>107.0</ele><time>2026-04-04T09:03:12.166Z</time></trkpt><trkpt lat="42.0399772" lon="12.4171801"><ele>107.0</ele><time>2026-04-04T09:03:14.166Z</time></trkpt><trkpt lat="42.0400564" lon="12.417139"><ele>106.99999999999999</ele><time>2026-04-04T09:03:16.167Z</time></trkpt><trkpt lat="42.040135" lon="12.4170995"><ele>107.0</ele><time>2026-04-04T09:03:18.166Z</time></trkpt><trkpt lat="42.0402223" lon="12.4170511"><ele>107.8</ele><time>2026-04-04T09:03:20.167Z</time></trkpt><trkpt lat="42.040308" lon="12.4169987"><ele>108.6</ele><time>2026-04-04T09:03:22.167Z</time></trkpt><trkpt lat="42.0403848" lon="12.4169438"><ele>109.39999999999999</ele><time>2026-04-04T09:03:24.166Z</time></trkpt><trkpt lat="42.0404661" lon="12.4168842"><ele>110.19999999999999</ele><time>2026-04-04T09:03:26.166Z</time></trkpt><trkpt lat="42.0405498" lon="12.4168061"><ele>111.0</ele><time>2026-04-04T09:03:28.167Z</time></trkpt><trkpt lat="42.0406238" lon="12.4167088"><ele>111.0</ele><time>2026-04-04T09:03:30.166Z</time></trkpt><trkpt lat="42.0407019" lon="12.416611"><ele>111.0</ele><time>2026-04-04T09:03:32.166Z</time></trkpt><trkpt lat="42.0407744" lon="12.4165204"><ele>111.0</ele><time>2026-04-04T09:03:34.166Z</time></trkpt><trkpt lat="42.0408485" lon="12.4164308"><ele>111.0</ele><time>2026-04-04T09:03:36.166Z</time></trkpt><trkpt lat="42.0409192" lon="12.4163504"><ele>111.0</ele><time>2026-04-04T09:03:38.166Z</time></trkpt><trkpt lat="42.0409932" lon="12.4162605"><ele>111.19999999999999</ele><time>2026-04-04T09:03:40.166Z</time></trkpt><trkpt lat="42.0410598" lon="12.4161595"><ele>111.39999999999999</ele><time>2026-04-04T09:03:42.167Z</time></trkpt><trkpt lat="42.0411244" lon="12.4160772"><ele>111.6</ele><time>2026-04-04T09:03:44.166Z</time></trkpt><trkpt lat="42.0411993" lon="12.4160066"><ele>111.8</ele><time>2026-04-04T09:03:46.166Z</time></trkpt><trkpt lat="42.0412704" lon="12.4159371"><ele>112.0</ele><time>2026-04-04T09:03:48.167Z</time></trkpt><trkpt lat="42.0413368" lon="12.41586"><ele>112.00000000000001</ele><time>2026-04-04T09:03:50.167Z</time></trkpt><trkpt lat="42.0414016" lon="12.4157813"><ele>112.0</ele><time>2026-04-04T09:03:52.167Z</time></trkpt><trkpt lat="42.0414624" lon="12.415701"><ele>112.0</ele><time>2026-04-04T09:03:54.167Z</time></trkpt><trkpt lat="42.0415268" lon="12.4156355"><ele>112.0</ele><time>2026-04-04T09:03:56.167Z</time></trkpt><trkpt lat="42.0415954" lon="12.4155602"><ele>112.00000000000001</ele><time>2026-04-04T09:03:58.168Z</time></trkpt><trkpt lat="42.0416627" lon="12.4154706"><ele>112.0</ele><time>2026-04-04T09:04:00.167Z</time></trkpt><trkpt lat="42.0417224" lon="12.4153634"><ele>112.00000000000001</ele><time>2026-04-04T09:04:02.167Z</time></trkpt><trkpt lat="42.0417827" lon="12.4152833"><ele>112.0</ele><time>2026-04-04T09:04:04.167Z</time></trkpt><trkpt lat="42.0418416" lon="12.4151869"><ele>112.0</ele><time>2026-04-04T09:04:06.168Z</time></trkpt><trkpt lat="42.041898" lon="12.415095"><ele>112.0</ele><time>2026-04-04T09:04:08.167Z</time></trkpt><trkpt lat="42.041957" lon="12.4149997"><ele>112.00000000000001</ele><time>2026-04-04T09:04:10.167Z</time></trkpt><trkpt lat="42.0420216" lon="12.414919"><ele>112.0</ele><time>2026-04-04T09:04:12.168Z</time></trkpt><trkpt lat="42.042079" lon="12.4148173"><ele>112.00000000000001</ele><time>2026-04-04T09:04:14.167Z</time></trkpt><trkpt lat="42.0421352" lon="12.4147126"><ele>112.0</ele><time>2026-04-04T09:04:16.168Z</time></trkpt><trkpt lat="42.0421791" lon="12.4146139"><ele>112.0</ele><time>2026-04-04T09:04:18.168Z</time></trkpt><trkpt lat="42.0422315" lon="12.4145244"><ele>112.0</ele><time>2026-04-04T09:04:20.168Z</time></trkpt><trkpt lat="42.0422779" lon="12.4144455"><ele>112.00000000000001</ele><time>2026-04-04T09:04:22.167Z</time></trkpt><trkpt lat="42.0423186" lon="12.4143739"><ele>112.0</ele><time>2026-04-04T09:04:24.168Z</time></trkpt><trkpt lat="42.0423876" lon="12.4142803"><ele>111.85714285714286</ele><time>2026-04-04T09:04:27.168Z</time></trkpt><trkpt lat="42.0424403" lon="12.4141947"><ele>111.71428571428572</ele><time>2026-04-04T09:04:29.168Z</time></trkpt><trkpt lat="42.0424846" lon="12.4141158"><ele>111.57142857142857</ele><time>2026-04-04T09:04:31.168Z</time></trkpt><trkpt lat="42.0425296" lon="12.4140405"><ele>111.42857142857143</ele><time>2026-04-04T09:04:33.168Z</time></trkpt><trkpt lat="42.0425732" lon="12.4139536"><ele>111.28571428571429</ele><time>2026-04-04T09:04:35.167Z</time></trkpt><trkpt lat="42.0426124" lon="12.4138692"><ele>111.14285714285714</ele><time>2026-04-04T09:04:37.167Z</time></trkpt><trkpt lat="42.0426504" lon="12.4138002"><ele>111.0</ele><time>2026-04-04T09:04:39.167Z</time></trkpt><trkpt lat="42.0426875" lon="12.4137218"><ele>110.8</ele><time>2026-04-04T09:04:41.167Z</time></trkpt><trkpt lat="42.04273" lon="12.413629"><ele>110.6</ele><time>2026-04-04T09:04:43.167Z</time></trkpt><trkpt lat="42.0427927" lon="12.4135245"><ele>110.4</ele><time>2026-04-04T09:04:45.167Z</time></trkpt><trkpt lat="42.0428793" lon="12.4134261"><ele>110.2</ele><time>2026-04-04T09:04:47.168Z</time></trkpt><trkpt lat="42.0429751" lon="12.4133262"><ele>110.0</ele><time>2026-04-04T09:04:49.168Z</time></trkpt><trkpt lat="42.0430559" lon="12.4132249"><ele>109.99999999999999</ele><time>2026-04-04T09:04:51.168Z</time></trkpt><trkpt lat="42.0431131" lon="12.4131396"><ele>110.0</ele><time>2026-04-04T09:04:53.167Z</time></trkpt><trkpt lat="42.0431416" lon="12.4130635"><ele>110.0</ele><time>2026-04-04T09:04:55.168Z</time></trkpt><trkpt lat="42.0431646" lon="12.4129706"><ele>110.0</ele><time>2026-04-04T09:04:58.167Z</time></trkpt><trkpt lat="42.0432047" lon="12.4128922"><ele>110.0</ele><time>2026-04-04T09:05:01.168Z</time></trkpt><trkpt lat="42.0432769" lon="12.4128564"><ele>109.99999999999999</ele><time>2026-04-04T09:05:05.167Z</time></trkpt><trkpt lat="42.0433562" lon="12.4128483"><ele>110.0</ele><time>2026-04-04T09:05:08.168Z</time></trkpt><trkpt lat="42.0434396" lon="12.4128738"><ele>109.49999999999999</ele><time>2026-04-04T09:05:11.167Z</time></trkpt><trkpt lat="42.0435318" lon="12.4129039"><ele>109.0</ele><time>2026-04-04T09:05:14.167Z</time></trkpt><trkpt lat="42.0436053" lon="12.4129196"><ele>108.5</ele><time>2026-04-04T09:05:16.167Z</time></trkpt><trkpt lat="42.0436764" lon="12.4129411"><ele>108.0</ele><time>2026-04-04T09:05:18.167Z</time></trkpt><trkpt lat="42.0437503" lon="12.4129467"><ele>107.49999999999999</ele><time>2026-04-04T09:05:20.168Z</time></trkpt><trkpt lat="42.0438216" lon="12.4129692"><ele>107.0</ele><time>2026-04-04T09:05:22.167Z</time></trkpt><trkpt lat="42.0438954" lon="12.4129849"><ele>106.99999999999999</ele><time>2026-04-04T09:05:24.167Z</time></trkpt><trkpt lat="42.0439697" lon="12.4129901"><ele>107.0</ele><time>2026-04-04T09:05:26.168Z</time></trkpt><trkpt lat="42.0440476" lon="12.4129839"><ele>107.0</ele><time>2026-04-04T09:05:28.167Z</time></trkpt><trkpt lat="42.0441284" lon="12.4129661"><ele>107.0</ele><time>2026-04-04T09:05:30.168Z</time></trkpt><trkpt lat="42.0442097" lon="12.4129334"><ele>106.99999999999999</ele><time>2026-04-04T09:05:32.167Z</time></trkpt><trkpt lat="42.0442975" lon="12.412901"><ele>107.0</ele><time>2026-04-04T09:05:34.167Z</time></trkpt><trkpt lat="42.0443877" lon="12.4128652"><ele>107.49999999999999</ele><time>2026-04-04T09:05:36.167Z</time></trkpt><trkpt lat="42.0444724" lon="12.4128312"><ele>108.0</ele><time>2026-04-04T09:05:38.168Z</time></trkpt><trkpt lat="42.0445533" lon="12.4128082"><ele>108.5</ele><time>2026-04-04T09:05:40.167Z</time></trkpt><trkpt lat="42.0446386" lon="12.4128016"><ele>109.0</ele><time>2026-04-04T09:05:42.167Z</time></trkpt><trkpt lat="42.0447179" lon="12.4128102"><ele>109.49999999999999</ele><time>2026-04-04T09:05:44.167Z</time></trkpt><trkpt lat="42.0448031" lon="12.4128057"><ele>110.0</ele><time>2026-04-04T09:05:46.167Z</time></trkpt><trkpt lat="42.0448903" lon="12.4127836"><ele>110.2</ele><time>2026-04-04T09:05:48.168Z</time></trkpt><trkpt lat="42.0449805" lon="12.4127496"><ele>110.4</ele><time>2026-04-04T09:05:50.168Z</time></trkpt><trkpt lat="42.0450708" lon="12.4127197"><ele>110.6</ele><time>2026-04-04T09:05:52.167Z</time></trkpt><trkpt lat="42.0451631" lon="12.4126781"><ele>110.8</ele><time>2026-04-04T09:05:54.167Z</time></trkpt><trkpt lat="42.0452552" lon="12.4126361"><ele>111.0</ele><time>2026-04-04T09:05:56.168Z</time></trkpt><trkpt lat="42.0453477" lon="12.4125978"><ele>111.0</ele><time>2026-04-04T09:05:58.167Z</time></trkpt><trkpt lat="42.0454368" lon="12.4125576"><ele>111.0</ele><time>2026-04-04T09:06:00.168Z</time></trkpt><trkpt lat="42.0455323" lon="12.4125199"><ele>111.0</ele><time>2026-04-04T09:06:02.167Z</time></trkpt><trkpt lat="42.0456278" lon="12.4125002"><ele>111.0</ele><time>2026-04-04T09:06:04.168Z</time></trkpt><trkpt lat="42.0457211" lon="12.4124781"><ele>111.0</ele><time>2026-04-04T09:06:06.167Z</time></trkpt><trkpt lat="42.04581" lon="12.412449"><ele>110.8</ele><time>2026-04-04T09:06:08.167Z</time></trkpt><trkpt lat="42.0459069" lon="12.4124246"><ele>110.6</ele><time>2026-04-04T09:06:10.168Z</time></trkpt><trkpt lat="42.0460055" lon="12.4123949"><ele>110.4</ele><time>2026-04-04T09:06:12.167Z</time></trkpt><trkpt lat="42.0461017" lon="12.4123551"><ele>110.2</ele><time>2026-04-04T09:06:14.168Z</time></trkpt><trkpt lat="42.0461968" lon="12.4123242"><ele>110.0</ele><time>2026-04-04T09:06:16.167Z</time></trkpt><trkpt lat="42.0462896" lon="12.4122937"><ele>109.99999999999999</ele><time>2026-04-04T09:06:18.168Z</time></trkpt><trkpt lat="42.0463855" lon="12.4122675"><ele>110.0</ele><time>2026-04-04T09:06:20.167Z</time></trkpt><trkpt lat="42.0465022" lon="12.4122353"><ele>110.0</ele><time>2026-04-04T09:06:22.167Z</time></trkpt><trkpt lat="42.0465668" lon="12.4122103"><ele>110.0</ele><time>2026-04-04T09:06:23.167Z</time></trkpt><trkpt lat="42.0466298" lon="12.4121839"><ele>109.99999999999999</ele><time>2026-04-04T09:06:24.167Z</time></trkpt><trkpt lat="42.0466924" lon="12.4121608"><ele>110.0</ele><time>2026-04-04T09:06:25.168Z</time></trkpt><trkpt lat="42.0467613" lon="12.4121426"><ele>109.83333333333333</ele><time>2026-04-04T09:06:26.168Z</time></trkpt><trkpt lat="42.0468307" lon="12.4121267"><ele>109.66666666666666</ele><time>2026-04-04T09:06:27.167Z</time></trkpt><trkpt lat="42.0469009" lon="12.4121074"><ele>109.5</ele><time>2026-04-04T09:06:28.168Z</time></trkpt><trkpt lat="42.0469663" lon="12.4120849"><ele>109.33333333333334</ele><time>2026-04-04T09:06:29.167Z</time></trkpt><trkpt lat="42.0470324" lon="12.4120606"><ele>109.16666666666667</ele><time>2026-04-04T09:06:30.167Z</time></trkpt><trkpt lat="42.0470972" lon="12.4120373"><ele>109.0</ele><time>2026-04-04T09:06:31.167Z</time></trkpt><trkpt lat="42.0472137" lon="12.4119967"><ele>109.00000000000001</ele><time>2026-04-04T09:06:33.168Z</time></trkpt><trkpt lat="42.0473182" lon="12.411964"><ele>109.0</ele><time>2026-04-04T09:06:35.167Z</time></trkpt><trkpt lat="42.0474063" lon="12.4119386"><ele>109.0</ele><time>2026-04-04T09:06:37.167Z</time></trkpt><trkpt lat="42.0474809" lon="12.4119156"><ele>109.0</ele><time>2026-04-04T09:06:39.167Z</time></trkpt><trkpt lat="42.0475443" lon="12.4119049"><ele>109.00000000000001</ele><time>2026-04-04T09:06:41.167Z</time></trkpt><trkpt lat="42.0476104" lon="12.4119"><ele>109.0</ele><time>2026-04-04T09:06:43.167Z</time></trkpt><trkpt lat="42.0476818" lon="12.4118897"><ele>109.0</ele><time>2026-04-04T09:06:45.167Z</time></trkpt><trkpt lat="42.0477573" lon="12.4118906"><ele>109.0</ele><time>2026-04-04T09:06:47.168Z</time></trkpt><trkpt lat="42.0478246" lon="12.4119019"><ele>109.0</ele><time>2026-04-04T09:06:49.167Z</time></trkpt><trkpt lat="42.0478991" lon="12.4119298"><ele>109.0</ele><time>2026-04-04T09:06:51.167Z</time></trkpt><trkpt lat="42.0479845" lon="12.4119516"><ele>109.0</ele><time>2026-04-04T09:06:53.167Z</time></trkpt><trkpt lat="42.0480531" lon="12.4119576"><ele>109.0</ele><time>2026-04-04T09:06:55.167Z</time></trkpt><trkpt lat="42.0481235" lon="12.4119485"><ele>109.0</ele><time>2026-04-04T09:06:57.167Z</time></trkpt><trkpt lat="42.0482144" lon="12.4119271"><ele>109.6</ele><time>2026-04-04T09:06:59.168Z</time></trkpt><trkpt lat="42.0483148" lon="12.4118912"><ele>110.2</ele><time>2026-04-04T09:07:01.167Z</time></trkpt><trkpt lat="42.0484077" lon="12.4118591"><ele>110.79999999999998</ele><time>2026-04-04T09:07:03.168Z</time></trkpt><trkpt lat="42.0485074" lon="12.4118379"><ele>111.39999999999999</ele><time>2026-04-04T09:07:05.168Z</time></trkpt><trkpt lat="42.0485989" lon="12.4118369"><ele>112.0</ele><time>2026-04-04T09:07:07.167Z</time></trkpt><trkpt lat="42.0486875" lon="12.4118411"><ele>112.0</ele><time>2026-04-04T09:07:09.168Z</time></trkpt><trkpt lat="42.0487668" lon="12.411845"><ele>112.0</ele><time>2026-04-04T09:07:11.167Z</time></trkpt><trkpt lat="42.0488368" lon="12.4118445"><ele>112.0</ele><time>2026-04-04T09:07:13.167Z</time></trkpt><trkpt lat="42.0488998" lon="12.4118473"><ele>112.0</ele><time>2026-04-04T09:07:15.167Z</time></trkpt><trkpt lat="42.0489697" lon="12.411838"><ele>112.0</ele><time>2026-04-04T09:07:17.167Z</time></trkpt><trkpt lat="42.0490444" lon="12.4118193"><ele>112.0</ele><time>2026-04-04T09:07:19.168Z</time></trkpt><trkpt lat="42.0491169" lon="12.4118016"><ele>112.0</ele><time>2026-04-04T09:07:21.168Z</time></trkpt><trkpt lat="42.049194" lon="12.4117773"><ele>112.33333333333334</ele><time>2026-04-04T09:07:23.167Z</time></trkpt><trkpt lat="42.0492708" lon="12.4117469"><ele>112.66666666666667</ele><time>2026-04-04T09:07:25.168Z</time></trkpt><trkpt lat="42.0493469" lon="12.4116948"><ele>113.0</ele><time>2026-04-04T09:07:27.168Z</time></trkpt><trkpt lat="42.0494275" lon="12.4116313"><ele>113.33333333333334</ele><time>2026-04-04T09:07:29.167Z</time></trkpt><trkpt lat="42.0495142" lon="12.4115944"><ele>113.66666666666667</ele><time>2026-04-04T09:07:31.168Z</time></trkpt><trkpt lat="42.049606" lon="12.4115554"><ele>114.0</ele><time>2026-04-04T09:07:33.167Z</time></trkpt><trkpt lat="42.0496958" lon="12.4115135"><ele>114.0</ele><time>2026-04-04T09:07:35.168Z</time></trkpt><trkpt lat="42.0497946" lon="12.4114959"><ele>114.0</ele><time>2026-04-04T09:07:37.168Z</time></trkpt><trkpt lat="42.0498927" lon="12.4114615"><ele>114.0</ele><time>2026-04-04T09:07:39.168Z</time></trkpt><trkpt lat="42.0499841" lon="12.4114416"><ele>114.0</ele><time>2026-04-04T09:07:41.167Z</time></trkpt><trkpt lat="42.0500682" lon="12.4114352"><ele>114.0</ele><time>2026-04-04T09:07:43.168Z</time></trkpt><trkpt lat="42.0501374" lon="12.4114378"><ele>114.0</ele><time>2026-04-04T09:07:45.168Z</time></trkpt><trkpt lat="42.0502064" lon="12.4114927"><ele>114.0</ele><time>2026-04-04T09:07:48.167Z</time></trkpt><trkpt lat="42.0502278" lon="12.411579"><ele>114.0</ele><time>2026-04-04T09:07:51.167Z</time></trkpt><trkpt lat="42.0502208" lon="12.4116657"><ele>114.0</ele><time>2026-04-04T09:07:55.168Z</time></trkpt><trkpt lat="42.0501839" lon="12.4117502"><ele>114.0</ele><time>2026-04-04T09:07:58.167Z</time></trkpt><trkpt lat="42.0501353" lon="12.4118533"><ele>114.0</ele><time>2026-04-04T09:08:01.167Z</time></trkpt><trkpt lat="42.0500939" lon="12.4119435"><ele>114.0</ele><time>2026-04-04T09:08:04.167Z</time></trkpt><trkpt lat="42.0500365" lon="12.412038"><ele>114.0</ele><time>2026-04-04T09:08:07.167Z</time></trkpt><trkpt lat="42.0499885" lon="12.4121228"><ele>114.0</ele><time>2026-04-04T09:08:10.168Z</time></trkpt><trkpt lat="42.0499354" lon="12.4121951"><ele>114.0</ele><time>2026-04-04T09:08:13.167Z</time></trkpt><trkpt lat="42.0498801" lon="12.4122984"><ele>114.0</ele><time>2026-04-04T09:08:16.167Z</time></trkpt><trkpt lat="42.0498429" lon="12.4123907"><ele>114.0</ele><time>2026-04-04T09:08:19.168Z</time></trkpt><trkpt lat="42.0498238" lon="12.4124767"><ele>114.0</ele><time>2026-04-04T09:08:21.168Z</time></trkpt><trkpt lat="42.0498291" lon="12.4125612"><ele>113.83333333333333</ele><time>2026-04-04T09:08:23.167Z</time></trkpt><trkpt lat="42.0499097" lon="12.4125829"><ele>113.66666666666666</ele><time>2026-04-04T09:08:26.168Z</time></trkpt><trkpt lat="42.0499854" lon="12.4125658"><ele>113.5</ele><time>2026-04-04T09:09:02.168Z</time></trkpt><trkpt lat="42.0500697" lon="12.4125721"><ele>113.33333333333333</ele><time>2026-04-04T09:09:05.168Z</time></trkpt><trkpt lat="42.0501429" lon="12.4125704"><ele>113.16666666666666</ele><time>2026-04-04T09:09:08.168Z</time></trkpt><trkpt lat="42.0502236" lon="12.4125898"><ele>113.0</ele><time>2026-04-04T09:09:11.168Z</time></trkpt><trkpt lat="42.0503141" lon="12.4125992"><ele>112.99999999999999</ele><time>2026-04-04T09:09:14.167Z</time></trkpt><trkpt lat="42.0503752" lon="12.4125775"><ele>113.0</ele><time>2026-04-04T09:09:16.167Z</time></trkpt><trkpt lat="42.0504425" lon="12.4125287"><ele>113.0</ele><time>2026-04-04T09:09:18.167Z</time></trkpt><trkpt lat="42.05051" lon="12.412479"><ele>113.0</ele><time>2026-04-04T09:09:20.167Z</time></trkpt><trkpt lat="42.0505762" lon="12.4124216"><ele>112.99999999999999</ele><time>2026-04-04T09:09:22.167Z</time></trkpt><trkpt lat="42.0506501" lon="12.4123708"><ele>113.0</ele><time>2026-04-04T09:09:24.168Z</time></trkpt><trkpt lat="42.0507274" lon="12.4123357"><ele>113.16666666666666</ele><time>2026-04-04T09:09:26.168Z</time></trkpt><trkpt lat="42.0508091" lon="12.4123016"><ele>113.33333333333333</ele><time>2026-04-04T09:09:28.167Z</time></trkpt><trkpt lat="42.0508954" lon="12.4122806"><ele>113.5</ele><time>2026-04-04T09:09:30.168Z</time></trkpt><trkpt lat="42.0509772" lon="12.4122661"><ele>113.66666666666666</ele><time>2026-04-04T09:09:32.167Z</time></trkpt><trkpt lat="42.0510645" lon="12.4122633"><ele>113.83333333333333</ele><time>2026-04-04T09:09:34.168Z</time></trkpt><trkpt lat="42.0511474" lon="12.4122614"><ele>114.0</ele><time>2026-04-04T09:09:36.167Z</time></trkpt><trkpt lat="42.0512307" lon="12.4122679"><ele>114.0</ele><time>2026-04-04T09:09:38.167Z</time></trkpt><trkpt lat="42.0513187" lon="12.4122685"><ele>114.0</ele><time>2026-04-04T09:09:40.167Z</time></trkpt><trkpt lat="42.0514014" lon="12.4122745"><ele>114.0</ele><time>2026-04-04T09:09:42.168Z</time></trkpt><trkpt lat="42.0514818" lon="12.4122777"><ele>114.0</ele><time>2026-04-04T09:09:44.168Z</time></trkpt><trkpt lat="42.0515637" lon="12.4122702"><ele>114.0</ele><time>2026-04-04T09:09:46.168Z</time></trkpt><trkpt lat="42.0516448" lon="12.4122475"><ele>114.0</ele><time>2026-04-04T09:09:48.167Z</time></trkpt><trkpt lat="42.0517184" lon="12.4121962"><ele>113.33333333333333</ele><time>2026-04-04T09:09:50.168Z</time></trkpt><trkpt lat="42.0517846" lon="12.41214"><ele>112.66666666666666</ele><time>2026-04-04T09:09:52.167Z</time></trkpt><trkpt lat="42.0518527" lon="12.4120618"><ele>112.0</ele><time>2026-04-04T09:09:54.167Z</time></trkpt><trkpt lat="42.0519075" lon="12.411986"><ele>111.33333333333333</ele><time>2026-04-04T09:09:56.168Z</time></trkpt><trkpt lat="42.051959" lon="12.4119153"><ele>110.66666666666666</ele><time>2026-04-04T09:09:58.168Z</time></trkpt><trkpt lat="42.0520083" lon="12.4118476"><ele>110.0</ele><time>2026-04-04T09:10:00.167Z</time></trkpt><trkpt lat="42.0520706" lon="12.4117879"><ele>109.99999999999999</ele><time>2026-04-04T09:10:02.167Z</time></trkpt><trkpt lat="42.0521393" lon="12.4117376"><ele>110.0</ele><time>2026-04-04T09:10:04.167Z</time></trkpt><trkpt lat="42.0522098" lon="12.4116969"><ele>110.0</ele><time>2026-04-04T09:10:06.167Z</time></trkpt><trkpt lat="42.0522792" lon="12.4116676"><ele>110.0</ele><time>2026-04-04T09:10:08.167Z</time></trkpt><trkpt lat="42.0523498" lon="12.4116493"><ele>110.0</ele><time>2026-04-04T09:10:10.167Z</time></trkpt><trkpt lat="42.0524209" lon="12.4116337"><ele>109.99999999999999</ele><time>2026-04-04T09:10:12.167Z</time></trkpt><trkpt lat="42.0524902" lon="12.4116238"><ele>110.0</ele><time>2026-04-04T09:10:14.168Z</time></trkpt><trkpt lat="42.052566" lon="12.4116029"><ele>110.14285714285714</ele><time>2026-04-04T09:10:16.167Z</time></trkpt><trkpt lat="42.0526366" lon="12.4115774"><ele>110.28571428571428</ele><time>2026-04-04T09:10:18.167Z</time></trkpt><trkpt lat="42.0527062" lon="12.4115545"><ele>110.42857142857142</ele><time>2026-04-04T09:10:20.167Z</time></trkpt><trkpt lat="42.0527772" lon="12.4115326"><ele>110.57142857142857</ele><time>2026-04-04T09:10:22.168Z</time></trkpt><trkpt lat="42.0528437" lon="12.4115123"><ele>110.71428571428572</ele><time>2026-04-04T09:10:24.168Z</time></trkpt><trkpt lat="42.0529146" lon="12.4114884"><ele>110.85714285714285</ele><time>2026-04-04T09:10:26.167Z</time></trkpt><trkpt lat="42.0529818" lon="12.4114672"><ele>111.0</ele><time>2026-04-04T09:10:28.168Z</time></trkpt><trkpt lat="42.0530484" lon="12.4114437"><ele>111.0</ele><time>2026-04-04T09:10:30.168Z</time></trkpt><trkpt lat="42.0531211" lon="12.4114249"><ele>111.0</ele><time>2026-04-04T09:10:32.168Z</time></trkpt><trkpt lat="42.0531898" lon="12.4114105"><ele>111.0</ele><time>2026-04-04T09:10:34.167Z</time></trkpt><trkpt lat="42.0532551" lon="12.4113959"><ele>111.0</ele><time>2026-04-04T09:10:36.167Z</time></trkpt><trkpt lat="42.0533211" lon="12.411378"><ele>111.0</ele><time>2026-04-04T09:10:38.167Z</time></trkpt><trkpt lat="42.0533897" lon="12.4113577"><ele>111.0</ele><time>2026-04-04T09:10:40.167Z</time></trkpt><trkpt lat="42.0534555" lon="12.4113305"><ele>111.0</ele><time>2026-04-04T09:10:42.167Z</time></trkpt><trkpt lat="42.0535196" lon="12.4113081"><ele>111.57142857142857</ele><time>2026-04-04T09:10:44.167Z</time></trkpt><trkpt lat="42.0535826" lon="12.4112791"><ele>112.14285714285714</ele><time>2026-04-04T09:10:46.167Z</time></trkpt><trkpt lat="42.0536471" lon="12.4112482"><ele>112.71428571428571</ele><time>2026-04-04T09:10:48.168Z</time></trkpt><trkpt lat="42.0537205" lon="12.4112287"><ele>113.28571428571428</ele><time>2026-04-04T09:10:50.168Z</time></trkpt><trkpt lat="42.0537912" lon="12.4112079"><ele>113.85714285714286</ele><time>2026-04-04T09:10:52.168Z</time></trkpt><trkpt lat="42.0538626" lon="12.4111841"><ele>114.42857142857142</ele><time>2026-04-04T09:10:54.168Z</time></trkpt><trkpt lat="42.0539299" lon="12.4111694"><ele>114.99999999999999</ele><time>2026-04-04T09:10:56.168Z</time></trkpt><trkpt lat="42.0539968" lon="12.411146"><ele>114.99999999999999</ele><time>2026-04-04T09:10:58.167Z</time></trkpt><trkpt lat="42.0540659" lon="12.411127"><ele>115.0</ele><time>2026-04-04T09:11:00.168Z</time></trkpt><trkpt lat="42.054134" lon="12.4111057"><ele>114.99999999999999</ele><time>2026-04-04T09:11:02.167Z</time></trkpt><trkpt lat="42.0542041" lon="12.4110861"><ele>114.99999999999999</ele><time>2026-04-04T09:11:04.167Z</time></trkpt><trkpt lat="42.0542713" lon="12.4110778"><ele>115.0</ele><time>2026-04-04T09:11:06.167Z</time></trkpt><trkpt lat="42.0543378" lon="12.4110653"><ele>114.99999999999999</ele><time>2026-04-04T09:11:08.167Z</time></trkpt><trkpt lat="42.0544" lon="12.4110422"><ele>114.99999999999999</ele><time>2026-04-04T09:11:10.167Z</time></trkpt><trkpt lat="42.0544671" lon="12.4110253"><ele>115.50000000000001</ele><time>2026-04-04T09:11:12.168Z</time></trkpt><trkpt lat="42.0545362" lon="12.4110155"><ele>116.0</ele><time>2026-04-04T09:11:14.167Z</time></trkpt><trkpt lat="42.0546049" lon="12.4110086"><ele>116.5</ele><time>2026-04-04T09:11:16.167Z</time></trkpt><trkpt lat="42.0547014" lon="12.4110115"><ele>117.0</ele><time>2026-04-04T09:11:19.167Z</time></trkpt><trkpt lat="42.0547711" lon="12.4110104"><ele>117.50000000000001</ele><time>2026-04-04T09:11:21.168Z</time></trkpt><trkpt lat="42.0548456" lon="12.4110113"><ele>118.0</ele><time>2026-04-04T09:11:23.167Z</time></trkpt><trkpt lat="42.0549213" lon="12.4110125"><ele>118.57142857142857</ele><time>2026-04-04T09:11:25.168Z</time></trkpt><trkpt lat="42.0549886" lon="12.4110221"><ele>119.14285714285714</ele><time>2026-04-04T09:11:27.167Z</time></trkpt><trkpt lat="42.0550568" lon="12.4110238"><ele>119.71428571428571</ele><time>2026-04-04T09:11:29.167Z</time></trkpt><trkpt lat="42.0551245" lon="12.4110222"><ele>120.28571428571428</ele><time>2026-04-04T09:11:31.167Z</time></trkpt><trkpt lat="42.0551875" lon="12.4110225"><ele>120.85714285714286</ele><time>2026-04-04T09:11:33.167Z</time></trkpt><trkpt lat="42.0552546" lon="12.4110242"><ele>121.42857142857142</ele><time>2026-04-04T09:11:35.168Z</time></trkpt><trkpt lat="42.0553183" lon="12.4110287"><ele>121.99999999999999</ele><time>2026-04-04T09:11:37.167Z</time></trkpt><trkpt lat="42.0554103" lon="12.4110411"><ele>121.99999999999999</ele><time>2026-04-04T09:11:40.167Z</time></trkpt><trkpt lat="42.055473" lon="12.4110522"><ele>122.0</ele><time>2026-04-04T09:11:42.167Z</time></trkpt><trkpt lat="42.0555574" lon="12.4110564"><ele>122.0</ele><time>2026-04-04T09:11:45.167Z</time></trkpt><trkpt lat="42.0556386" lon="12.4110603"><ele>122.0</ele><time>2026-04-04T09:11:48.167Z</time></trkpt><trkpt lat="42.055716" lon="12.411073"><ele>121.99999999999999</ele><time>2026-04-04T09:11:51.168Z</time></trkpt><trkpt lat="42.0558018" lon="12.4110808"><ele>122.0</ele><time>2026-04-04T09:11:55.168Z</time></trkpt><trkpt lat="42.0558858" lon="12.4110721"><ele>122.42857142857142</ele><time>2026-04-04T09:11:58.167Z</time></trkpt><trkpt lat="42.0559581" lon="12.4110798"><ele>122.85714285714286</ele><time>2026-04-04T09:12:01.167Z</time></trkpt><trkpt lat="42.0560223" lon="12.4110746"><ele>123.28571428571428</ele><time>2026-04-04T09:12:04.167Z</time></trkpt><trkpt lat="42.0560929" lon="12.41107"><ele>123.71428571428571</ele><time>2026-04-04T09:12:07.167Z</time></trkpt><trkpt lat="42.0561693" lon="12.4110806"><ele>124.14285714285714</ele><time>2026-04-04T09:12:10.167Z</time></trkpt><trkpt lat="42.056244" lon="12.4111057"><ele>124.57142857142857</ele><time>2026-04-04T09:12:13.167Z</time></trkpt><trkpt lat="42.056305" lon="12.4111359"><ele>125.0</ele><time>2026-04-04T09:12:17.168Z</time></trkpt><trkpt lat="42.0563647" lon="12.4111693"><ele>124.99999999999999</ele><time>2026-04-04T09:12:22.167Z</time></trkpt><trkpt lat="42.0564517" lon="12.4111804"><ele>125.0</ele><time>2026-04-04T09:12:26.168Z</time></trkpt><trkpt lat="42.0565324" lon="12.4111646"><ele>125.0</ele><time>2026-04-04T09:12:29.167Z</time></trkpt><trkpt lat="42.0566" lon="12.4111564"><ele>125.0</ele><time>2026-04-04T09:12:32.167Z</time></trkpt><trkpt lat="42.056679" lon="12.4111661"><ele>124.99999999999999</ele><time>2026-04-04T09:12:35.167Z</time></trkpt><trkpt lat="42.0567551" lon="12.4111679"><ele>125.0</ele><time>2026-04-04T09:12:38.167Z</time></trkpt><trkpt lat="42.0568302" lon="12.411171"><ele>125.66666666666666</ele><time>2026-04-04T09:12:41.167Z</time></trkpt><trkpt lat="42.0569069" lon="12.4111771"><ele>126.33333333333333</ele><time>2026-04-04T09:12:44.167Z</time></trkpt><trkpt lat="42.0569861" lon="12.4111808"><ele>127.0</ele><time>2026-04-04T09:12:47.167Z</time></trkpt><trkpt lat="42.057067" lon="12.4111878"><ele>127.66666666666666</ele><time>2026-04-04T09:12:50.167Z</time></trkpt><trkpt lat="42.0571455" lon="12.4111742"><ele>128.33333333333334</ele><time>2026-04-04T09:12:53.168Z</time></trkpt><trkpt lat="42.0572221" lon="12.4111763"><ele>129.0</ele><time>2026-04-04T09:12:56.167Z</time></trkpt><trkpt lat="42.0572953" lon="12.4111773"><ele>129.0</ele><time>2026-04-04T09:12:59.168Z</time></trkpt><trkpt lat="42.0573783" lon="12.4111811"><ele>129.0</ele><time>2026-04-04T09:13:02.168Z</time></trkpt><trkpt lat="42.0574601" lon="12.4111884"><ele>129.0</ele><time>2026-04-04T09:13:05.167Z</time></trkpt><trkpt lat="42.0575328" lon="12.4112007"><ele>129.0</ele><time>2026-04-04T09:13:08.167Z</time></trkpt><trkpt lat="42.0576102" lon="12.4112287"><ele>129.0</ele><time>2026-04-04T09:13:11.167Z</time></trkpt><trkpt lat="42.0576917" lon="12.4112486"><ele>129.0</ele><time>2026-04-04T09:13:14.167Z</time></trkpt><trkpt lat="42.0577713" lon="12.4112847"><ele>128.85714285714283</ele><time>2026-04-04T09:13:17.167Z</time></trkpt><trkpt lat="42.0578456" lon="12.4113346"><ele>128.71428571428572</ele><time>2026-04-04T09:13:20.168Z</time></trkpt><trkpt lat="42.0579151" lon="12.4113653"><ele>128.57142857142856</ele><time>2026-04-04T09:13:23.167Z</time></trkpt><trkpt lat="42.0579873" lon="12.4113756"><ele>128.42857142857142</ele><time>2026-04-04T09:13:26.168Z</time></trkpt><trkpt lat="42.0580528" lon="12.4113628"><ele>128.28571428571428</ele><time>2026-04-04T09:13:29.168Z</time></trkpt><trkpt lat="42.0581106" lon="12.4113288"><ele>128.14285714285714</ele><time>2026-04-04T09:13:32.167Z</time></trkpt><trkpt lat="42.0581875" lon="12.4112747"><ele>128.0</ele><time>2026-04-04T09:13:36.167Z</time></trkpt><trkpt lat="42.0582519" lon="12.4112248"><ele>129.0</ele><time>2026-04-04T09:13:39.167Z</time></trkpt><trkpt lat="42.0583171" lon="12.4111586"><ele>130.0</ele><time>2026-04-04T09:13:42.167Z</time></trkpt><trkpt lat="42.0583717" lon="12.4110976"><ele>131.0</ele><time>2026-04-04T09:13:45.167Z</time></trkpt><trkpt lat="42.0584423" lon="12.4110707"><ele>132.0</ele><time>2026-04-04T09:13:48.168Z</time></trkpt><trkpt lat="42.0585048" lon="12.4110424"><ele>133.0</ele><time>2026-04-04T09:13:51.167Z</time></trkpt><trkpt lat="42.0585778" lon="12.4110114"><ele>134.0</ele><time>2026-04-04T09:13:55.167Z</time></trkpt><trkpt lat="42.0586427" lon="12.4110223"><ele>135.0</ele><time>2026-04-04T09:13:59.167Z</time></trkpt><trkpt lat="42.0586564" lon="12.4111095"><ele>135.0</ele><time>2026-04-04T09:14:03.167Z</time></trkpt><trkpt lat="42.0586435" lon="12.4112042"><ele>135.0</ele><time>2026-04-04T09:14:06.167Z</time></trkpt><trkpt lat="42.05863" lon="12.411312"><ele>135.0</ele><time>2026-04-04T09:14:09.168Z</time></trkpt><trkpt lat="42.0586098" lon="12.4114125"><ele>135.0</ele><time>2026-04-04T09:14:12.167Z</time></trkpt><trkpt lat="42.0585968" lon="12.4115041"><ele>135.0</ele><time>2026-04-04T09:14:15.167Z</time></trkpt><trkpt lat="42.058585" lon="12.4115983"><ele>135.0</ele><time>2026-04-04T09:14:18.167Z</time></trkpt><trkpt lat="42.0585653" lon="12.4116926"><ele>135.0</ele><time>2026-04-04T09:14:21.167Z</time></trkpt><trkpt lat="42.0585459" lon="12.411785"><ele>136.16666666666666</ele><time>2026-04-04T09:14:24.167Z</time></trkpt><trkpt lat="42.0585216" lon="12.4118741"><ele>137.33333333333334</ele><time>2026-04-04T09:14:27.168Z</time></trkpt><trkpt lat="42.0584976" lon="12.4119892"><ele>138.5</ele><time>2026-04-04T09:14:30.167Z</time></trkpt><trkpt lat="42.0584718" lon="12.412098"><ele>139.66666666666669</ele><time>2026-04-04T09:14:33.167Z</time></trkpt><trkpt lat="42.0584425" lon="12.412211"><ele>140.83333333333334</ele><time>2026-04-04T09:14:36.168Z</time></trkpt><trkpt lat="42.0584113" lon="12.4123053"><ele>142.0</ele><time>2026-04-04T09:14:39.167Z</time></trkpt><trkpt lat="42.0583825" lon="12.4124099"><ele>142.71428571428572</ele><time>2026-04-04T09:14:42.167Z</time></trkpt><trkpt lat="42.0583547" lon="12.4125051"><ele>143.42857142857142</ele><time>2026-04-04T09:14:45.168Z</time></trkpt><trkpt lat="42.0583283" lon="12.4125964"><ele>144.14285714285714</ele><time>2026-04-04T09:14:48.167Z</time></trkpt><trkpt lat="42.0583082" lon="12.4126951"><ele>144.85714285714286</ele><time>2026-04-04T09:14:52.167Z</time></trkpt><trkpt lat="42.0582801" lon="12.4127768"><ele>145.57142857142856</ele><time>2026-04-04T09:14:57.168Z</time></trkpt><trkpt lat="42.0582519" lon="12.4128626"><ele>146.28571428571428</ele><time>2026-04-04T09:15:01.167Z</time></trkpt><trkpt lat="42.0582268" lon="12.4129425"><ele>147.0</ele><time>2026-04-04T09:15:05.167Z</time></trkpt><trkpt lat="42.0582094" lon="12.4130259"><ele>147.85714285714286</ele><time>2026-04-04T09:15:10.168Z</time></trkpt><trkpt lat="42.0581841" lon="12.4131087"><ele>148.71428571428572</ele><time>2026-04-04T09:15:15.167Z</time></trkpt><trkpt lat="42.0581628" lon="12.4132061"><ele>149.57142857142856</ele><time>2026-04-04T09:15:20.168Z</time></trkpt><trkpt lat="42.0581417" lon="12.4132902"><ele>150.42857142857144</ele><time>2026-04-04T09:15:24.168Z</time></trkpt><trkpt lat="42.058125" lon="12.4133754"><ele>151.28571428571428</ele><time>2026-04-04T09:15:28.168Z</time></trkpt><trkpt lat="42.0581136" lon="12.4134631"><ele>152.14285714285714</ele><time>2026-04-04T09:15:32.167Z</time></trkpt><trkpt lat="42.058102" lon="12.4135559"><ele>153.0</ele><time>2026-04-04T09:15:36.168Z</time></trkpt><trkpt lat="42.0580912" lon="12.4136449"><ele>153.0</ele><time>2026-04-04T09:15:39.167Z</time></trkpt><trkpt lat="42.058084" lon="12.4137448"><ele>153.0</ele><time>2026-04-04T09:15:42.167Z</time></trkpt><trkpt lat="42.0580858" lon="12.4138443"><ele>153.0</ele><time>2026-04-04T09:15:45.167Z</time></trkpt><trkpt lat="42.0580719" lon="12.4139521"><ele>153.0</ele><time>2026-04-04T09:15:48.168Z</time></trkpt><trkpt lat="42.058044" lon="12.4140646"><ele>153.0</ele><time>2026-04-04T09:15:51.168Z</time></trkpt><trkpt lat="42.0580219" lon="12.4141768"><ele>153.0</ele><time>2026-04-04T09:15:54.167Z</time></trkpt><trkpt lat="42.0579998" lon="12.4142803"><ele>153.33333333333334</ele><time>2026-04-04T09:15:57.167Z</time></trkpt><trkpt lat="42.0579718" lon="12.414379"><ele>153.66666666666666</ele><time>2026-04-04T09:16:00.168Z</time></trkpt><trkpt lat="42.0579465" lon="12.4144815"><ele>154.0</ele><time>2026-04-04T09:16:03.167Z</time></trkpt><trkpt lat="42.0579297" lon="12.4145905"><ele>154.33333333333331</ele><time>2026-04-04T09:16:06.167Z</time></trkpt><trkpt lat="42.0579226" lon="12.4146924"><ele>154.66666666666666</ele><time>2026-04-04T09:16:09.168Z</time></trkpt><trkpt lat="42.0579232" lon="12.4148012"><ele>155.0</ele><time>2026-04-04T09:16:12.167Z</time></trkpt><trkpt lat="42.0579238" lon="12.4149024"><ele>155.16666666666666</ele><time>2026-04-04T09:16:15.168Z</time></trkpt><trkpt lat="42.057936" lon="12.4150055"><ele>155.33333333333331</ele><time>2026-04-04T09:16:18.167Z</time></trkpt><trkpt lat="42.057947" lon="12.4151029"><ele>155.5</ele><time>2026-04-04T09:16:20.167Z</time></trkpt><trkpt lat="42.0579633" lon="12.4152004"><ele>155.66666666666666</ele><time>2026-04-04T09:16:22.167Z</time></trkpt><trkpt lat="42.0579806" lon="12.4153136"><ele>155.83333333333334</ele><time>2026-04-04T09:16:24.167Z</time></trkpt><trkpt lat="42.0580116" lon="12.4154368"><ele>156.0</ele><time>2026-04-04T09:16:26.168Z</time></trkpt><trkpt lat="42.0580516" lon="12.41557"><ele>156.0</ele><time>2026-04-04T09:16:28.168Z</time></trkpt><trkpt lat="42.0580956" lon="12.4157139"><ele>156.0</ele><time>2026-04-04T09:16:30.168Z</time></trkpt><trkpt lat="42.0581295" lon="12.4158634"><ele>156.0</ele><time>2026-04-04T09:16:32.168Z</time></trkpt><trkpt lat="42.0581684" lon="12.4159965"><ele>156.0</ele><time>2026-04-04T09:16:34.167Z</time></trkpt><trkpt lat="42.0581992" lon="12.4161283"><ele>156.0</ele><time>2026-04-04T09:16:36.168Z</time></trkpt><trkpt lat="42.0582171" lon="12.4162564"><ele>155.83333333333334</ele><time>2026-04-04T09:16:38.167Z</time></trkpt><trkpt lat="42.0582311" lon="12.4164136"><ele>155.66666666666666</ele><time>2026-04-04T09:16:40.167Z</time></trkpt><trkpt lat="42.0582404" lon="12.4165002"><ele>155.5</ele><time>2026-04-04T09:16:41.167Z</time></trkpt><trkpt lat="42.058253" lon="12.4165917"><ele>155.33333333333331</ele><time>2026-04-04T09:16:42.168Z</time></trkpt><trkpt lat="42.0582699" lon="12.416677"><ele>155.16666666666666</ele><time>2026-04-04T09:16:43.167Z</time></trkpt><trkpt lat="42.0582842" lon="12.4167619"><ele>155.0</ele><time>2026-04-04T09:16:44.167Z</time></trkpt><trkpt lat="42.0583064" lon="12.4169157"><ele>155.5</ele><time>2026-04-04T09:16:46.168Z</time></trkpt><trkpt lat="42.0583174" lon="12.4170558"><ele>156.0</ele><time>2026-04-04T09:16:48.167Z</time></trkpt><trkpt lat="42.0583253" lon="12.4171642"><ele>156.5</ele><time>2026-04-04T09:16:50.168Z</time></trkpt><trkpt lat="42.0583742" lon="12.4172252"><ele>157.0</ele><time>2026-04-04T09:16:53.168Z</time></trkpt><trkpt lat="42.0584551" lon="12.4172002"><ele>157.5</ele><time>2026-04-04T09:16:57.168Z</time></trkpt><trkpt lat="42.0585362" lon="12.4171821"><ele>158.0</ele><time>2026-04-04T09:17:00.167Z</time></trkpt><trkpt lat="42.0586173" lon="12.4171722"><ele>158.00000000000003</ele><time>2026-04-04T09:17:03.167Z</time></trkpt><trkpt lat="42.0586957" lon="12.4171677"><ele>158.0</ele><time>2026-04-04T09:17:07.167Z</time></trkpt><trkpt lat="42.0587664" lon="12.4171638"><ele>158.0</ele><time>2026-04-04T09:17:11.167Z</time></trkpt><trkpt lat="42.0588287" lon="12.4171483"><ele>158.0</ele><time>2026-04-04T09:17:14.167Z</time></trkpt><trkpt lat="42.058892" lon="12.41713"><ele>158.0</ele><time>2026-04-04T09:17:17.168Z</time></trkpt><trkpt lat="42.0589685" lon="12.4171219"><ele>158.00000000000003</ele><time>2026-04-04T09:17:21.167Z</time></trkpt><trkpt lat="42.0590366" lon="12.4171022"><ele>158.0</ele><time>2026-04-04T09:17:25.168Z</time></trkpt><trkpt lat="42.0591133" lon="12.417064"><ele>159.57142857142858</ele><time>2026-04-04T09:17:29.167Z</time></trkpt><trkpt lat="42.0591782" lon="12.4170467"><ele>161.14285714285714</ele><time>2026-04-04T09:17:33.167Z</time></trkpt><trkpt lat="42.0592544" lon="12.4170185"><ele>162.71428571428572</ele><time>2026-04-04T09:17:37.167Z</time></trkpt><trkpt lat="42.0593198" lon="12.4169841"><ele>164.28571428571428</ele><time>2026-04-04T09:17:41.167Z</time></trkpt><trkpt lat="42.0593933" lon="12.416954"><ele>165.85714285714286</ele><time>2026-04-04T09:17:45.167Z</time></trkpt><trkpt lat="42.0594681" lon="12.4169063"><ele>167.42857142857144</ele><time>2026-04-04T09:17:49.167Z</time></trkpt><trkpt lat="42.0595277" lon="12.4168782"><ele>169.0</ele><time>2026-04-04T09:17:52.168Z</time></trkpt><trkpt lat="42.0595982" lon="12.4168549"><ele>169.0</ele><time>2026-04-04T09:17:56.167Z</time></trkpt><trkpt lat="42.059676" lon="12.4168265"><ele>169.0</ele><time>2026-04-04T09:18:00.167Z</time></trkpt><trkpt lat="42.0597502" lon="12.4168055"><ele>169.0</ele><time>2026-04-04T09:18:05.167Z</time></trkpt><trkpt lat="42.0598232" lon="12.4167819"><ele>169.0</ele><time>2026-04-04T09:18:10.168Z</time></trkpt><trkpt lat="42.0598961" lon="12.4167696"><ele>169.0</ele><time>2026-04-04T09:18:15.167Z</time></trkpt><trkpt lat="42.0599715" lon="12.416745"><ele>169.0</ele><time>2026-04-04T09:18:20.167Z</time></trkpt><trkpt lat="42.0600393" lon="12.4167139"><ele>170.28571428571428</ele><time>2026-04-04T09:18:24.167Z</time></trkpt><trkpt lat="42.0601116" lon="12.4166991"><ele>171.57142857142856</ele><time>2026-04-04T09:18:28.168Z</time></trkpt><trkpt lat="42.0601855" lon="12.4166931"><ele>172.85714285714283</ele><time>2026-04-04T09:18:32.167Z</time></trkpt><trkpt lat="42.0602568" lon="12.4166779"><ele>174.14285714285714</ele><time>2026-04-04T09:18:36.168Z</time></trkpt><trkpt lat="42.0603241" lon="12.4166748"><ele>175.42857142857142</ele><time>2026-04-04T09:18:41.168Z</time></trkpt><trkpt lat="42.0604059" lon="12.4166405"><ele>176.7142857142857</ele><time>2026-04-04T09:18:45.167Z</time></trkpt><trkpt lat="42.0604727" lon="12.4166145"><ele>178.0</ele><time>2026-04-04T09:18:48.167Z</time></trkpt><trkpt lat="42.0605556" lon="12.4165937"><ele>177.99999999999997</ele><time>2026-04-04T09:18:53.167Z</time></trkpt><trkpt lat="42.0606286" lon="12.4165594"><ele>178.0</ele><time>2026-04-04T09:18:57.167Z</time></trkpt><trkpt lat="42.0606896" lon="12.416537"><ele>178.0</ele><time>2026-04-04T09:19:01.167Z</time></trkpt><trkpt lat="42.0607538" lon="12.4165353"><ele>178.0</ele><time>2026-04-04T09:19:05.168Z</time></trkpt><trkpt lat="42.0608213" lon="12.4164892"><ele>178.0</ele><time>2026-04-04T09:19:09.167Z</time></trkpt><trkpt lat="42.060888" lon="12.4164549"><ele>177.99999999999997</ele><time>2026-04-04T09:19:13.168Z</time></trkpt><trkpt lat="42.0609543" lon="12.4164201"><ele>178.0</ele><time>2026-04-04T09:19:17.167Z</time></trkpt><trkpt lat="42.0610299" lon="12.4163979"><ele>179.14285714285714</ele><time>2026-04-04T09:19:22.168Z</time></trkpt><trkpt lat="42.0610909" lon="12.4163763"><ele>180.28571428571428</ele><time>2026-04-04T09:19:26.167Z</time></trkpt><trkpt lat="42.0611679" lon="12.4163624"><ele>181.42857142857144</ele><time>2026-04-04T09:19:31.167Z</time></trkpt><trkpt lat="42.0612399" lon="12.4163549"><ele>182.57142857142856</ele><time>2026-04-04T09:19:36.167Z</time></trkpt><trkpt lat="42.0613108" lon="12.4163453"><ele>183.71428571428572</ele><time>2026-04-04T09:19:41.167Z</time></trkpt><trkpt lat="42.0613809" lon="12.4163285"><ele>184.85714285714286</ele><time>2026-04-04T09:19:45.167Z</time></trkpt><trkpt lat="42.0614438" lon="12.4163039"><ele>186.0</ele><time>2026-04-04T09:19:49.167Z</time></trkpt><trkpt lat="42.0615062" lon="12.416276"><ele>187.85714285714286</ele><time>2026-04-04T09:19:53.167Z</time></trkpt><trkpt lat="42.061566" lon="12.4162446"><ele>189.71428571428572</ele><time>2026-04-04T09:19:57.167Z</time></trkpt><trkpt lat="42.0616409" lon="12.4162085"><ele>191.57142857142856</ele><time>2026-04-04T09:20:01.167Z</time></trkpt><trkpt lat="42.0617011" lon="12.4161749"><ele>193.42857142857144</ele><time>2026-04-04T09:20:05.167Z</time></trkpt><trkpt lat="42.0617695" lon="12.4161209"><ele>195.28571428571428</ele><time>2026-04-04T09:20:10.167Z</time></trkpt><trkpt lat="42.0618309" lon="12.416088"><ele>197.14285714285714</ele><time>2026-04-04T09:20:14.168Z</time></trkpt><trkpt lat="42.0618934" lon="12.4160219"><ele>199.0</ele><time>2026-04-04T09:20:18.168Z</time></trkpt><trkpt lat="42.0619465" lon="12.4159716"><ele>198.99999999999997</ele><time>2026-04-04T09:20:21.168Z</time></trkpt><trkpt lat="42.0620081" lon="12.4159146"><ele>199.0</ele><time>2026-04-04T09:20:25.167Z</time></trkpt><trkpt lat="42.0620682" lon="12.415858"><ele>199.0</ele><time>2026-04-04T09:20:29.167Z</time></trkpt><trkpt lat="42.0621248" lon="12.4157994"><ele>199.0</ele><time>2026-04-04T09:20:34.167Z</time></trkpt><trkpt lat="42.0621875" lon="12.4157494"><ele>199.0</ele><time>2026-04-04T09:20:38.167Z</time></trkpt><trkpt lat="42.0622544" lon="12.4156842"><ele>198.99999999999997</ele><time>2026-04-04T09:20:42.168Z</time></trkpt><trkpt lat="42.0623183" lon="12.4156348"><ele>199.0</ele><time>2026-04-04T09:20:46.167Z</time></trkpt><trkpt lat="42.062385" lon="12.4155898"><ele>198.99999999999997</ele><time>2026-04-04T09:20:50.168Z</time></trkpt><trkpt lat="42.0624417" lon="12.4155384"><ele>199.0</ele><time>2026-04-04T09:20:54.167Z</time></trkpt><trkpt lat="42.0625136" lon="12.4155002"><ele>199.0</ele><time>2026-04-04T09:20:58.167Z</time></trkpt><trkpt lat="42.0625737" lon="12.4154467"><ele>199.0</ele><time>2026-04-04T09:21:02.167Z</time></trkpt><trkpt lat="42.0626328" lon="12.4154056"><ele>199.0</ele><time>2026-04-04T09:21:06.167Z</time></trkpt><trkpt lat="42.0627001" lon="12.4153911"><ele>198.99999999999997</ele><time>2026-04-04T09:21:10.167Z</time></trkpt><trkpt lat="42.0627642" lon="12.4153708"><ele>199.0</ele><time>2026-04-04T09:21:14.167Z</time></trkpt><trkpt lat="42.0628332" lon="12.4153447"><ele>201.99999999999997</ele><time>2026-04-04T09:21:18.167Z</time></trkpt><trkpt lat="42.0629002" lon="12.4153228"><ele>205.0</ele><time>2026-04-04T09:21:22.168Z</time></trkpt><trkpt lat="42.0629764" lon="12.4153122"><ele>208.0</ele><time>2026-04-04T09:21:27.167Z</time></trkpt><trkpt lat="42.0630544" lon="12.415281"><ele>211.0</ele><time>2026-04-04T09:21:32.168Z</time></trkpt><trkpt lat="42.0631268" lon="12.415269"><ele>213.99999999999997</ele><time>2026-04-04T09:21:37.168Z</time></trkpt><trkpt lat="42.063202" lon="12.4152476"><ele>217.0</ele><time>2026-04-04T09:21:42.167Z</time></trkpt><trkpt lat="42.063277" lon="12.4152267"><ele>217.28571428571428</ele><time>2026-04-04T09:21:47.167Z</time></trkpt><trkpt lat="42.0633503" lon="12.4152048"><ele>217.57142857142856</ele><time>2026-04-04T09:21:52.167Z</time></trkpt><trkpt lat="42.0634086" lon="12.4151675"><ele>217.85714285714286</ele><time>2026-04-04T09:21:56.167Z</time></trkpt><trkpt lat="42.0634696" lon="12.4151415"><ele>218.14285714285714</ele><time>2026-04-04T09:22:00.167Z</time></trkpt><trkpt lat="42.0635391" lon="12.415117"><ele>218.42857142857142</ele><time>2026-04-04T09:22:05.167Z</time></trkpt><trkpt lat="42.0636043" lon="12.4151262"><ele>218.71428571428572</ele><time>2026-04-04T09:22:10.167Z</time></trkpt><trkpt lat="42.0636681" lon="12.4151019"><ele>219.0</ele><time>2026-04-04T09:22:13.168Z</time></trkpt><trkpt lat="42.0637415" lon="12.415081"><ele>219.0</ele><time>2026-04-04T09:22:17.167Z</time></trkpt><trkpt lat="42.0638054" lon="12.4150596"><ele>219.0</ele><time>2026-04-04T09:22:21.167Z</time></trkpt><trkpt lat="42.0638834" lon="12.415049"><ele>219.0</ele><time>2026-04-04T09:22:26.168Z</time></trkpt><trkpt lat="42.0639652" lon="12.4150215"><ele>219.0</ele><time>2026-04-04T09:22:30.167Z</time></trkpt><trkpt lat="42.0640325" lon="12.4150027"><ele>219.0</ele><time>2026-04-04T09:22:34.167Z</time></trkpt><trkpt lat="42.064099" lon="12.4149958"><ele>219.0</ele><time>2026-04-04T09:22:38.167Z</time></trkpt><trkpt lat="42.0641665" lon="12.4149666"><ele>219.0</ele><time>2026-04-04T09:22:42.167Z</time></trkpt><trkpt lat="42.0642291" lon="12.4149545"><ele>219.57142857142858</ele><time>2026-04-04T09:22:47.168Z</time></trkpt><trkpt lat="42.064305" lon="12.4149464"><ele>220.14285714285714</ele><time>2026-04-04T09:22:52.168Z</time></trkpt><trkpt lat="42.0643733" lon="12.4149354"><ele>220.71428571428572</ele><time>2026-04-04T09:22:57.168Z</time></trkpt><trkpt lat="42.0644392" lon="12.4149201"><ele>221.28571428571428</ele><time>2026-04-04T09:26:35.167Z</time></trkpt><trkpt lat="42.0644981" lon="12.4148837"><ele>221.85714285714283</ele><time>2026-04-04T09:26:39.167Z</time></trkpt><trkpt lat="42.0645642" lon="12.4148343"><ele>222.42857142857142</ele><time>2026-04-04T09:26:42.168Z</time></trkpt><trkpt lat="42.0646275" lon="12.4147898"><ele>223.0</ele><time>2026-04-04T09:26:44.167Z</time></trkpt><trkpt lat="42.0647122" lon="12.4147439"><ele>223.0</ele><time>2026-04-04T09:26:46.167Z</time></trkpt><trkpt lat="42.0648126" lon="12.4146954"><ele>223.0</ele><time>2026-04-04T09:26:48.167Z</time></trkpt><trkpt lat="42.0649194" lon="12.4146426"><ele>223.0</ele><time>2026-04-04T09:26:50.167Z</time></trkpt><trkpt lat="42.0650364" lon="12.4145889"><ele>223.0</ele><time>2026-04-04T09:26:52.167Z</time></trkpt><trkpt lat="42.0650994" lon="12.4145637"><ele>223.0</ele><time>2026-04-04T09:26:53.167Z</time></trkpt><trkpt lat="42.0651617" lon="12.4145309"><ele>222.49999999999997</ele><time>2026-04-04T09:26:54.167Z</time></trkpt><trkpt lat="42.0652277" lon="12.4144982"><ele>222.0</ele><time>2026-04-04T09:26:55.167Z</time></trkpt><trkpt lat="42.0652931" lon="12.4144678"><ele>221.5</ele><time>2026-04-04T09:26:56.168Z</time></trkpt><trkpt lat="42.0653553" lon="12.4144422"><ele>221.0</ele><time>2026-04-04T09:26:57.167Z</time></trkpt><trkpt lat="42.0654563" lon="12.414379"><ele>220.49999999999997</ele><time>2026-04-04T09:26:59.167Z</time></trkpt><trkpt lat="42.0655659" lon="12.4143205"><ele>220.0</ele><time>2026-04-04T09:27:01.166Z</time></trkpt><trkpt lat="42.0656253" lon="12.4142863"><ele>219.99999999999997</ele><time>2026-04-04T09:27:02.166Z</time></trkpt><trkpt lat="42.0656881" lon="12.4142524"><ele>220.0</ele><time>2026-04-04T09:27:03.167Z</time></trkpt><trkpt lat="42.0657518" lon="12.4142144"><ele>220.0</ele><time>2026-04-04T09:27:04.167Z</time></trkpt><trkpt lat="42.0658147" lon="12.4141811"><ele>220.0</ele><time>2026-04-04T09:27:05.166Z</time></trkpt><trkpt lat="42.0658848" lon="12.4141551"><ele>219.99999999999997</ele><time>2026-04-04T09:27:06.167Z</time></trkpt><trkpt lat="42.0659501" lon="12.4141355"><ele>220.0</ele><time>2026-04-04T09:27:07.167Z</time></trkpt><trkpt lat="42.0660748" lon="12.4141055"><ele>218.99999999999997</ele><time>2026-04-04T09:27:09.166Z</time></trkpt><trkpt lat="42.0661357" lon="12.4140832"><ele>218.0</ele><time>2026-04-04T09:27:10.166Z</time></trkpt><trkpt lat="42.0661975" lon="12.4140612"><ele>217.0</ele><time>2026-04-04T09:27:11.166Z</time></trkpt><trkpt lat="42.0662631" lon="12.4140352"><ele>216.0</ele><time>2026-04-04T09:27:12.167Z</time></trkpt><trkpt lat="42.0663299" lon="12.4140065"><ele>215.0</ele><time>2026-04-04T09:27:13.166Z</time></trkpt><trkpt lat="42.066401" lon="12.4139722"><ele>213.99999999999997</ele><time>2026-04-04T09:27:14.166Z</time></trkpt><trkpt lat="42.0664768" lon="12.4139393"><ele>213.0</ele><time>2026-04-04T09:27:15.167Z</time></trkpt><trkpt lat="42.0665501" lon="12.4139067"><ele>212.33333333333334</ele><time>2026-04-04T09:27:16.166Z</time></trkpt><trkpt lat="42.0666262" lon="12.4138726"><ele>211.66666666666669</ele><time>2026-04-04T09:27:17.167Z</time></trkpt><trkpt lat="42.0666977" lon="12.4138341"><ele>211.0</ele><time>2026-04-04T09:27:18.167Z</time></trkpt><trkpt lat="42.0667673" lon="12.4137966"><ele>210.33333333333334</ele><time>2026-04-04T09:27:19.166Z</time></trkpt><trkpt lat="42.0668368" lon="12.413765"><ele>209.66666666666669</ele><time>2026-04-04T09:27:20.166Z</time></trkpt><trkpt lat="42.0669079" lon="12.4137323"><ele>209.0</ele><time>2026-04-04T09:27:21.166Z</time></trkpt><trkpt lat="42.0669836" lon="12.4137025"><ele>208.33333333333334</ele><time>2026-04-04T09:27:22.166Z</time></trkpt><trkpt lat="42.0670591" lon="12.4136781"><ele>207.66666666666669</ele><time>2026-04-04T09:27:23.167Z</time></trkpt><trkpt lat="42.0671332" lon="12.4136489"><ele>207.0</ele><time>2026-04-04T09:27:24.166Z</time></trkpt><trkpt lat="42.0672069" lon="12.4136167"><ele>206.33333333333331</ele><time>2026-04-04T09:27:25.167Z</time></trkpt><trkpt lat="42.0672831" lon="12.4135809"><ele>205.66666666666666</ele><time>2026-04-04T09:27:26.166Z</time></trkpt><trkpt lat="42.06736" lon="12.4135409"><ele>205.0</ele><time>2026-04-04T09:27:27.167Z</time></trkpt><trkpt lat="42.0674384" lon="12.4135015"><ele>203.99999999999997</ele><time>2026-04-04T09:27:28.166Z</time></trkpt><trkpt lat="42.0675208" lon="12.4134605"><ele>203.0</ele><time>2026-04-04T09:27:29.166Z</time></trkpt><trkpt lat="42.0675947" lon="12.4134218"><ele>202.0</ele><time>2026-04-04T09:27:30.166Z</time></trkpt><trkpt lat="42.0676676" lon="12.4133882"><ele>201.0</ele><time>2026-04-04T09:27:31.166Z</time></trkpt><trkpt lat="42.0677406" lon="12.4133536"><ele>199.99999999999997</ele><time>2026-04-04T09:27:32.166Z</time></trkpt><trkpt lat="42.0678176" lon="12.4133164"><ele>199.0</ele><time>2026-04-04T09:27:33.166Z</time></trkpt><trkpt lat="42.0678986" lon="12.4132823"><ele>198.99999999999997</ele><time>2026-04-04T09:27:34.167Z</time></trkpt><trkpt lat="42.0679781" lon="12.4132415"><ele>199.0</ele><time>2026-04-04T09:27:35.166Z</time></trkpt><trkpt lat="42.0680606" lon="12.4132048"><ele>199.0</ele><time>2026-04-04T09:27:36.167Z</time></trkpt><trkpt lat="42.0681439" lon="12.4131675"><ele>199.0</ele><time>2026-04-04T09:27:37.166Z</time></trkpt><trkpt lat="42.0682213" lon="12.413129"><ele>198.99999999999997</ele><time>2026-04-04T09:27:38.167Z</time></trkpt><trkpt lat="42.0683017" lon="12.4130911"><ele>199.0</ele><time>2026-04-04T09:27:39.166Z</time></trkpt><trkpt lat="42.068383" lon="12.4130554"><ele>198.49999999999997</ele><time>2026-04-04T09:27:40.167Z</time></trkpt><trkpt lat="42.0684616" lon="12.4130118"><ele>198.0</ele><time>2026-04-04T09:27:41.167Z</time></trkpt><trkpt lat="42.0685342" lon="12.4129721"><ele>197.5</ele><time>2026-04-04T09:27:42.166Z</time></trkpt><trkpt lat="42.0686068" lon="12.4129322"><ele>197.0</ele><time>2026-04-04T09:27:43.166Z</time></trkpt><trkpt lat="42.0686772" lon="12.412892"><ele>196.49999999999997</ele><time>2026-04-04T09:27:44.166Z</time></trkpt><trkpt lat="42.0687479" lon="12.4128511"><ele>196.0</ele><time>2026-04-04T09:27:45.167Z</time></trkpt><trkpt lat="42.0688136" lon="12.4128144"><ele>195.33333333333331</ele><time>2026-04-04T09:27:46.167Z</time></trkpt><trkpt lat="42.0688744" lon="12.412774"><ele>194.66666666666666</ele><time>2026-04-04T09:27:47.166Z</time></trkpt><trkpt lat="42.0689381" lon="12.4127402"><ele>194.0</ele><time>2026-04-04T09:27:48.166Z</time></trkpt><trkpt lat="42.0690001" lon="12.4127124"><ele>193.33333333333331</ele><time>2026-04-04T09:27:49.166Z</time></trkpt><trkpt lat="42.069117" lon="12.4126732"><ele>192.66666666666666</ele><time>2026-04-04T09:27:51.167Z</time></trkpt><trkpt lat="42.069227" lon="12.4126534"><ele>192.0</ele><time>2026-04-04T09:27:53.167Z</time></trkpt><trkpt lat="42.0693353" lon="12.4126158"><ele>192.0</ele><time>2026-04-04T09:27:55.167Z</time></trkpt><trkpt lat="42.0694342" lon="12.4125571"><ele>192.0</ele><time>2026-04-04T09:27:57.167Z</time></trkpt><trkpt lat="42.0695331" lon="12.4124974"><ele>192.0</ele><time>2026-04-04T09:27:59.167Z</time></trkpt><trkpt lat="42.0696378" lon="12.4124352"><ele>192.0</ele><time>2026-04-04T09:28:01.166Z</time></trkpt><trkpt lat="42.0697514" lon="12.412372"><ele>192.0</ele><time>2026-04-04T09:28:03.166Z</time></trkpt><trkpt lat="42.069852" lon="12.4123015"><ele>192.0</ele><time>2026-04-04T09:28:05.166Z</time></trkpt><trkpt lat="42.0699575" lon="12.4122472"><ele>192.0</ele><time>2026-04-04T09:28:07.166Z</time></trkpt><trkpt lat="42.0700697" lon="12.4121885"><ele>192.0</ele><time>2026-04-04T09:28:09.166Z</time></trkpt><trkpt lat="42.0701754" lon="12.4121221"><ele>192.0</ele><time>2026-04-04T09:28:11.166Z</time></trkpt><trkpt lat="42.0702839" lon="12.4120641"><ele>192.0</ele><time>2026-04-04T09:28:13.167Z</time></trkpt><trkpt lat="42.0703878" lon="12.4120089"><ele>192.0</ele><time>2026-04-04T09:28:15.166Z</time></trkpt><trkpt lat="42.0704912" lon="12.4119438"><ele>192.0</ele><time>2026-04-04T09:28:17.167Z</time></trkpt><trkpt lat="42.0705944" lon="12.4118732"><ele>192.0</ele><time>2026-04-04T09:28:19.166Z</time></trkpt><trkpt lat="42.0706993" lon="12.411807"><ele>192.0</ele><time>2026-04-04T09:28:21.166Z</time></trkpt><trkpt lat="42.0707965" lon="12.4117296"><ele>192.0</ele><time>2026-04-04T09:28:23.167Z</time></trkpt><trkpt lat="42.0708856" lon="12.4116447"><ele>192.0</ele><time>2026-04-04T09:28:25.167Z</time></trkpt><trkpt lat="42.0709686" lon="12.4115604"><ele>192.0</ele><time>2026-04-04T09:28:27.166Z</time></trkpt><trkpt lat="42.0710373" lon="12.4114662"><ele>192.66666666666666</ele><time>2026-04-04T09:28:29.166Z</time></trkpt><trkpt lat="42.071099" lon="12.4113652"><ele>193.33333333333331</ele><time>2026-04-04T09:28:31.167Z</time></trkpt><trkpt lat="42.0711472" lon="12.4112747"><ele>194.0</ele><time>2026-04-04T09:28:33.166Z</time></trkpt><trkpt lat="42.0711882" lon="12.4112046"><ele>194.66666666666666</ele><time>2026-04-04T09:28:35.166Z</time></trkpt><trkpt lat="42.0712283" lon="12.4111324"><ele>195.33333333333331</ele><time>2026-04-04T09:28:37.167Z</time></trkpt><trkpt lat="42.0712634" lon="12.4110595"><ele>196.0</ele><time>2026-04-04T09:28:39.166Z</time></trkpt><trkpt lat="42.071323" lon="12.4109874"><ele>196.0</ele><time>2026-04-04T09:28:42.167Z</time></trkpt><trkpt lat="42.0713819" lon="12.4110522"><ele>196.0</ele><time>2026-04-04T09:28:45.166Z</time></trkpt><trkpt lat="42.0714527" lon="12.411111"><ele>196.0</ele><time>2026-04-04T09:28:48.166Z</time></trkpt><trkpt lat="42.0715089" lon="12.4111603"><ele>196.0</ele><time>2026-04-04T09:28:50.167Z</time></trkpt><trkpt lat="42.0715699" lon="12.4112139"><ele>196.0</ele><time>2026-04-04T09:28:52.167Z</time></trkpt><trkpt lat="42.0716305" lon="12.4112506"><ele>196.0</ele><time>2026-04-04T09:28:54.167Z</time></trkpt><trkpt lat="42.0716885" lon="12.4112945"><ele>196.0</ele><time>2026-04-04T09:28:56.166Z</time></trkpt><trkpt lat="42.07177" lon="12.4113467"><ele>196.16666666666666</ele><time>2026-04-04T09:28:59.167Z</time></trkpt><trkpt lat="42.0718512" lon="12.4113829"><ele>196.33333333333331</ele><time>2026-04-04T09:29:02.166Z</time></trkpt><trkpt lat="42.0719276" lon="12.4113924"><ele>196.5</ele><time>2026-04-04T09:29:05.167Z</time></trkpt><trkpt lat="42.0720089" lon="12.4113633"><ele>196.66666666666669</ele><time>2026-04-04T09:29:08.167Z</time></trkpt><trkpt lat="42.0720798" lon="12.4113519"><ele>196.83333333333334</ele><time>2026-04-04T09:29:10.167Z</time></trkpt><trkpt lat="42.0721471" lon="12.4113683"><ele>197.0</ele><time>2026-04-04T09:29:12.166Z</time></trkpt><trkpt lat="42.0722376" lon="12.4113842"><ele>197.00000000000003</ele><time>2026-04-04T09:29:15.166Z</time></trkpt><trkpt lat="42.0723272" lon="12.411393"><ele>197.0</ele><time>2026-04-04T09:29:18.166Z</time></trkpt><trkpt lat="42.0723931" lon="12.411398"><ele>197.0</ele><time>2026-04-04T09:29:20.167Z</time></trkpt><trkpt lat="42.0724645" lon="12.4114074"><ele>197.0</ele><time>2026-04-04T09:29:22.166Z</time></trkpt><trkpt lat="42.0725321" lon="12.4114175"><ele>197.00000000000003</ele><time>2026-04-04T09:29:24.167Z</time></trkpt><trkpt lat="42.0726025" lon="12.4114351"><ele>197.0</ele><time>2026-04-04T09:29:26.167Z</time></trkpt><trkpt lat="42.0726896" lon="12.411462"><ele>197.14285714285714</ele><time>2026-04-04T09:29:29.166Z</time></trkpt><trkpt lat="42.0727828" lon="12.4114688"><ele>197.28571428571428</ele><time>2026-04-04T09:29:32.166Z</time></trkpt><trkpt lat="42.0728462" lon="12.4114757"><ele>197.42857142857144</ele><time>2026-04-04T09:29:34.166Z</time></trkpt><trkpt lat="42.0729156" lon="12.4114839"><ele>197.57142857142856</ele><time>2026-04-04T09:29:36.167Z</time></trkpt><trkpt lat="42.0729803" lon="12.4114918"><ele>197.7142857142857</ele><time>2026-04-04T09:29:38.166Z</time></trkpt><trkpt lat="42.0730438" lon="12.4115016"><ele>197.85714285714286</ele><time>2026-04-04T09:29:40.167Z</time></trkpt><trkpt lat="42.0731066" lon="12.411511"><ele>198.0</ele><time>2026-04-04T09:29:42.167Z</time></trkpt><trkpt lat="42.0731713" lon="12.4115251"><ele>198.0</ele><time>2026-04-04T09:29:44.166Z</time></trkpt><trkpt lat="42.0732378" lon="12.4115336"><ele>198.0</ele><time>2026-04-04T09:29:46.167Z</time></trkpt><trkpt lat="42.0733022" lon="12.4115352"><ele>198.0</ele><time>2026-04-04T09:29:48.166Z</time></trkpt><trkpt lat="42.0733937" lon="12.4115467"><ele>198.0</ele><time>2026-04-04T09:29:51.167Z</time></trkpt><trkpt lat="42.0734621" lon="12.4115616"><ele>198.0</ele><time>2026-04-04T09:29:53.167Z</time></trkpt><trkpt lat="42.0735334" lon="12.4115707"><ele>198.0</ele><time>2026-04-04T09:29:55.167Z</time></trkpt><trkpt lat="42.0736014" lon="12.4115786"><ele>198.0</ele><time>2026-04-04T09:29:57.166Z</time></trkpt><trkpt lat="42.0736683" lon="12.4115889"><ele>198.2857142857143</ele><time>2026-04-04T09:29:59.167Z</time></trkpt><trkpt lat="42.073738" lon="12.4115977"><ele>198.57142857142856</ele><time>2026-04-04T09:30:01.167Z</time></trkpt><trkpt lat="42.0738097" lon="12.4116035"><ele>198.85714285714286</ele><time>2026-04-04T09:30:03.167Z</time></trkpt><trkpt lat="42.0738875" lon="12.411616"><ele>199.14285714285717</ele><time>2026-04-04T09:30:05.167Z</time></trkpt><trkpt lat="42.0739635" lon="12.4116319"><ele>199.42857142857144</ele><time>2026-04-04T09:30:07.167Z</time></trkpt><trkpt lat="42.0740357" lon="12.4116347"><ele>199.71428571428572</ele><time>2026-04-04T09:30:09.166Z</time></trkpt><trkpt lat="42.0741031" lon="12.4116376"><ele>200.0</ele><time>2026-04-04T09:30:11.166Z</time></trkpt><trkpt lat="42.0741766" lon="12.4116518"><ele>200.33333333333334</ele><time>2026-04-04T09:30:13.167Z</time></trkpt><trkpt lat="42.0742599" lon="12.4116599"><ele>200.66666666666669</ele><time>2026-04-04T09:30:15.167Z</time></trkpt><trkpt lat="42.0743388" lon="12.4116709"><ele>201.0</ele><time>2026-04-04T09:30:17.166Z</time></trkpt><trkpt lat="42.0744181" lon="12.411682"><ele>201.33333333333331</ele><time>2026-04-04T09:30:19.167Z</time></trkpt><trkpt lat="42.0744918" lon="12.4116887"><ele>201.66666666666666</ele><time>2026-04-04T09:30:21.167Z</time></trkpt><trkpt lat="42.0745619" lon="12.4117008"><ele>202.0</ele><time>2026-04-04T09:30:23.166Z</time></trkpt><trkpt lat="42.0746358" lon="12.4117091"><ele>201.99999999999997</ele><time>2026-04-04T09:30:25.167Z</time></trkpt><trkpt lat="42.0747086" lon="12.4117227"><ele>202.0</ele><time>2026-04-04T09:30:27.167Z</time></trkpt><trkpt lat="42.0747903" lon="12.4117225"><ele>202.0</ele><time>2026-04-04T09:30:29.166Z</time></trkpt><trkpt lat="42.0748699" lon="12.4117273"><ele>202.0</ele><time>2026-04-04T09:30:31.166Z</time></trkpt><trkpt lat="42.0749481" lon="12.4117343"><ele>201.99999999999997</ele><time>2026-04-04T09:30:33.167Z</time></trkpt><trkpt lat="42.0750266" lon="12.4117427"><ele>202.0</ele><time>2026-04-04T09:30:35.166Z</time></trkpt><trkpt lat="42.0751006" lon="12.4117461"><ele>202.49999999999997</ele><time>2026-04-04T09:30:37.167Z</time></trkpt><trkpt lat="42.0751814" lon="12.4117533"><ele>203.0</ele><time>2026-04-04T09:30:39.166Z</time></trkpt><trkpt lat="42.0752572" lon="12.4117592"><ele>203.5</ele><time>2026-04-04T09:30:41.166Z</time></trkpt><trkpt lat="42.0753306" lon="12.411772"><ele>204.0</ele><time>2026-04-04T09:30:43.166Z</time></trkpt><trkpt lat="42.0754088" lon="12.4117819"><ele>204.49999999999997</ele><time>2026-04-04T09:30:45.166Z</time></trkpt><trkpt lat="42.0754881" lon="12.4117964"><ele>205.0</ele><time>2026-04-04T09:30:47.166Z</time></trkpt><trkpt lat="42.075572" lon="12.4118166"><ele>205.0</ele><time>2026-04-04T09:30:49.166Z</time></trkpt><trkpt lat="42.0756195" lon="12.4118879"><ele>205.0</ele><time>2026-04-04T09:30:51.166Z</time></trkpt><trkpt lat="42.0756483" lon="12.4119889"><ele>205.0</ele><time>2026-04-04T09:30:53.167Z</time></trkpt><trkpt lat="42.0756679" lon="12.4121088"><ele>205.0</ele><time>2026-04-04T09:30:55.166Z</time></trkpt><trkpt lat="42.0756926" lon="12.4122544"><ele>205.0</ele><time>2026-04-04T09:30:57.166Z</time></trkpt><trkpt lat="42.0757241" lon="12.4124158"><ele>205.0</ele><time>2026-04-04T09:30:59.167Z</time></trkpt><trkpt lat="42.0757384" lon="12.4124986"><ele>205.0</ele><time>2026-04-04T09:31:00.166Z</time></trkpt><trkpt lat="42.0757713" lon="12.4126582"><ele>205.0</ele><time>2026-04-04T09:31:02.166Z</time></trkpt><trkpt lat="42.0758018" lon="12.4128116"><ele>205.0</ele><time>2026-04-04T09:31:04.167Z</time></trkpt><trkpt lat="42.0758313" lon="12.4129661"><ele>205.0</ele><time>2026-04-04T09:31:06.166Z</time></trkpt><trkpt lat="42.0758648" lon="12.413116"><ele>204.66666666666666</ele><time>2026-04-04T09:31:08.166Z</time></trkpt><trkpt lat="42.075892" lon="12.413244"><ele>204.33333333333331</ele><time>2026-04-04T09:31:10.166Z</time></trkpt><trkpt lat="42.0759145" lon="12.4133634"><ele>204.0</ele><time>2026-04-04T09:31:12.167Z</time></trkpt><trkpt lat="42.0759336" lon="12.4134723"><ele>203.66666666666669</ele><time>2026-04-04T09:31:14.167Z</time></trkpt><trkpt lat="42.0759581" lon="12.4135835"><ele>203.33333333333334</ele><time>2026-04-04T09:31:16.167Z</time></trkpt><trkpt lat="42.075973" lon="12.4136912"><ele>203.0</ele><time>2026-04-04T09:31:18.166Z</time></trkpt><trkpt lat="42.0759836" lon="12.4137888"><ele>204.16666666666669</ele><time>2026-04-04T09:31:20.166Z</time></trkpt><trkpt lat="42.0760058" lon="12.4139094"><ele>205.33333333333334</ele><time>2026-04-04T09:31:23.166Z</time></trkpt><trkpt lat="42.0760226" lon="12.4140271"><ele>206.5</ele><time>2026-04-04T09:31:26.167Z</time></trkpt><trkpt lat="42.0760535" lon="12.4141379"><ele>207.66666666666669</ele><time>2026-04-04T09:31:29.167Z</time></trkpt><trkpt lat="42.0760843" lon="12.4142331"><ele>208.83333333333334</ele><time>2026-04-04T09:31:32.167Z</time></trkpt><trkpt lat="42.0761237" lon="12.41431"><ele>210.0</ele><time>2026-04-04T09:31:35.166Z</time></trkpt><trkpt lat="42.0761942" lon="12.4143289"><ele>210.0</ele><time>2026-04-04T09:31:40.166Z</time></trkpt><trkpt lat="42.0762672" lon="12.4143155"><ele>210.0</ele><time>2026-04-04T09:31:44.167Z</time></trkpt><trkpt lat="42.0763345" lon="12.4143107"><ele>210.0</ele><time>2026-04-04T09:31:47.166Z</time></trkpt><trkpt lat="42.0764066" lon="12.4143088"><ele>210.0</ele><time>2026-04-04T09:31:50.166Z</time></trkpt><trkpt lat="42.0764878" lon="12.4142995"><ele>210.0</ele><time>2026-04-04T09:31:53.167Z</time></trkpt><trkpt lat="42.0765619" lon="12.4142985"><ele>210.0</ele><time>2026-04-04T09:31:56.167Z</time></trkpt><trkpt lat="42.0766398" lon="12.4142827"><ele>210.0</ele><time>2026-04-04T09:31:59.166Z</time></trkpt><trkpt lat="42.0767136" lon="12.4142624"><ele>210.5</ele><time>2026-04-04T09:32:02.167Z</time></trkpt><trkpt lat="42.0767844" lon="12.4142342"><ele>211.0</ele><time>2026-04-04T09:32:05.167Z</time></trkpt><trkpt lat="42.0768475" lon="12.4142089"><ele>211.5</ele><time>2026-04-04T09:32:08.166Z</time></trkpt><trkpt lat="42.0769208" lon="12.4141622"><ele>212.0</ele><time>2026-04-04T09:32:11.167Z</time></trkpt><trkpt lat="42.0769992" lon="12.4141142"><ele>212.5</ele><time>2026-04-04T09:32:14.167Z</time></trkpt><trkpt lat="42.0770734" lon="12.4140544"><ele>213.0</ele><time>2026-04-04T09:32:17.167Z</time></trkpt><trkpt lat="42.0771381" lon="12.4139955"><ele>213.0</ele><time>2026-04-04T09:32:20.167Z</time></trkpt><trkpt lat="42.0772066" lon="12.4139427"><ele>213.0</ele><time>2026-04-04T09:32:23.167Z</time></trkpt><trkpt lat="42.0772807" lon="12.4138861"><ele>213.0</ele><time>2026-04-04T09:32:26.166Z</time></trkpt><trkpt lat="42.0773442" lon="12.4138424"><ele>213.0</ele><time>2026-04-04T09:32:29.167Z</time></trkpt><trkpt lat="42.0774069" lon="12.413777"><ele>213.0</ele><time>2026-04-04T09:32:32.166Z</time></trkpt><trkpt lat="42.0774727" lon="12.4137218"><ele>213.0</ele><time>2026-04-04T09:32:35.167Z</time></trkpt><trkpt lat="42.0775522" lon="12.4136673"><ele>213.33333333333334</ele><time>2026-04-04T09:32:38.167Z</time></trkpt><trkpt lat="42.0776222" lon="12.4136121"><ele>213.66666666666669</ele><time>2026-04-04T09:32:41.166Z</time></trkpt><trkpt lat="42.077692" lon="12.4135602"><ele>214.0</ele><time>2026-04-04T09:32:44.167Z</time></trkpt><trkpt lat="42.0777622" lon="12.4135081"><ele>214.33333333333334</ele><time>2026-04-04T09:32:47.166Z</time></trkpt><trkpt lat="42.0778364" lon="12.4134586"><ele>214.66666666666669</ele><time>2026-04-04T09:32:50.167Z</time></trkpt><trkpt lat="42.0779125" lon="12.4134047"><ele>215.0</ele><time>2026-04-04T09:32:53.166Z</time></trkpt><trkpt lat="42.0779882" lon="12.41335"><ele>215.00000000000003</ele><time>2026-04-04T09:32:56.166Z</time></trkpt><trkpt lat="42.0780604" lon="12.4133022"><ele>215.0</ele><time>2026-04-04T09:32:59.166Z</time></trkpt><trkpt lat="42.0781383" lon="12.4132433"><ele>215.0</ele><time>2026-04-04T09:33:02.167Z</time></trkpt><trkpt lat="42.0782153" lon="12.4131703"><ele>215.0</ele><time>2026-04-04T09:33:05.166Z</time></trkpt><trkpt lat="42.0782931" lon="12.4131011"><ele>215.00000000000003</ele><time>2026-04-04T09:33:08.166Z</time></trkpt><trkpt lat="42.0783463" lon="12.4130547"><ele>215.0</ele><time>2026-04-04T09:33:10.166Z</time></trkpt><trkpt lat="42.0784214" lon="12.4129929"><ele>216.16666666666669</ele><time>2026-04-04T09:33:13.166Z</time></trkpt><trkpt lat="42.0784968" lon="12.4129245"><ele>217.33333333333334</ele><time>2026-04-04T09:33:16.167Z</time></trkpt><trkpt lat="42.0785697" lon="12.4128519"><ele>218.5</ele><time>2026-04-04T09:33:19.166Z</time></trkpt><trkpt lat="42.078638" lon="12.4127908"><ele>219.66666666666669</ele><time>2026-04-04T09:33:22.166Z</time></trkpt><trkpt lat="42.0786986" lon="12.4127232"><ele>220.83333333333334</ele><time>2026-04-04T09:33:25.167Z</time></trkpt><trkpt lat="42.078757" lon="12.4126583"><ele>222.0</ele><time>2026-04-04T09:33:28.166Z</time></trkpt><trkpt lat="42.0788152" lon="12.4125963"><ele>222.0</ele><time>2026-04-04T09:33:31.166Z</time></trkpt><trkpt lat="42.0788763" lon="12.4125231"><ele>222.0</ele><time>2026-04-04T09:33:34.167Z</time></trkpt><trkpt lat="42.0789444" lon="12.4124424"><ele>222.0</ele><time>2026-04-04T09:33:37.166Z</time></trkpt><trkpt lat="42.0790096" lon="12.4123787"><ele>222.0</ele><time>2026-04-04T09:33:40.167Z</time></trkpt><trkpt lat="42.0790681" lon="12.4123136"><ele>222.0</ele><time>2026-04-04T09:33:43.166Z</time></trkpt><trkpt lat="42.0791263" lon="12.4122528"><ele>222.0</ele><time>2026-04-04T09:33:46.167Z</time></trkpt><trkpt lat="42.0791829" lon="12.4121901"><ele>223.16666666666666</ele><time>2026-04-04T09:33:49.166Z</time></trkpt><trkpt lat="42.0792485" lon="12.4121239"><ele>224.33333333333331</ele><time>2026-04-04T09:33:52.167Z</time></trkpt><trkpt lat="42.079315" lon="12.4120588"><ele>225.5</ele><time>2026-04-04T09:33:55.166Z</time></trkpt><trkpt lat="42.0793829" lon="12.411985"><ele>226.66666666666666</ele><time>2026-04-04T09:33:58.167Z</time></trkpt><trkpt lat="42.0794508" lon="12.4119192"><ele>227.83333333333331</ele><time>2026-04-04T09:34:01.166Z</time></trkpt><trkpt lat="42.0795228" lon="12.4118566"><ele>229.0</ele><time>2026-04-04T09:34:04.167Z</time></trkpt><trkpt lat="42.07959" lon="12.4117936"><ele>228.99999999999997</ele><time>2026-04-04T09:34:07.167Z</time></trkpt><trkpt lat="42.0796585" lon="12.4117137"><ele>229.0</ele><time>2026-04-04T09:34:10.167Z</time></trkpt><trkpt lat="42.0797238" lon="12.4116388"><ele>229.0</ele><time>2026-04-04T09:34:13.166Z</time></trkpt><trkpt lat="42.0797999" lon="12.4115754"><ele>229.0</ele><time>2026-04-04T09:34:16.166Z</time></trkpt><trkpt lat="42.0798775" lon="12.4115159"><ele>228.99999999999997</ele><time>2026-04-04T09:34:19.166Z</time></trkpt><trkpt lat="42.0799507" lon="12.4114586"><ele>229.0</ele><time>2026-04-04T09:34:22.167Z</time></trkpt><trkpt lat="42.0800225" lon="12.4113911"><ele>229.99999999999997</ele><time>2026-04-04T09:34:25.166Z</time></trkpt><trkpt lat="42.0800904" lon="12.4113194"><ele>231.0</ele><time>2026-04-04T09:34:28.166Z</time></trkpt><trkpt lat="42.0801644" lon="12.4112493"><ele>232.0</ele><time>2026-04-04T09:34:31.166Z</time></trkpt><trkpt lat="42.0802165" lon="12.4111848"><ele>233.0</ele><time>2026-04-04T09:34:34.167Z</time></trkpt><trkpt lat="42.0802662" lon="12.411124"><ele>233.99999999999997</ele><time>2026-04-04T09:34:37.166Z</time></trkpt><trkpt lat="42.080337" lon="12.4110564"><ele>235.0</ele><time>2026-04-04T09:34:40.167Z</time></trkpt><trkpt lat="42.0803972" lon="12.411006"><ele>234.99999999999997</ele><time>2026-04-04T09:34:42.166Z</time></trkpt><trkpt lat="42.0804556" lon="12.4109564"><ele>235.0</ele><time>2026-04-04T09:34:44.167Z</time></trkpt><trkpt lat="42.0805341" lon="12.4108943"><ele>235.0</ele><time>2026-04-04T09:34:47.166Z</time></trkpt><trkpt lat="42.080604" lon="12.4108335"><ele>235.0</ele><time>2026-04-04T09:34:50.166Z</time></trkpt><trkpt lat="42.0806657" lon="12.4107775"><ele>234.99999999999997</ele><time>2026-04-04T09:34:53.167Z</time></trkpt><trkpt lat="42.0807274" lon="12.4107157"><ele>235.0</ele><time>2026-04-04T09:34:56.166Z</time></trkpt><trkpt lat="42.0807941" lon="12.4106542"><ele>235.66666666666666</ele><time>2026-04-04T09:34:59.167Z</time></trkpt><trkpt lat="42.0808523" lon="12.4105803"><ele>236.33333333333331</ele><time>2026-04-04T09:35:02.166Z</time></trkpt><trkpt lat="42.0808869" lon="12.4104919"><ele>237.0</ele><time>2026-04-04T09:35:05.167Z</time></trkpt><trkpt lat="42.0809013" lon="12.4103715"><ele>237.66666666666669</ele><time>2026-04-04T09:35:08.166Z</time></trkpt><trkpt lat="42.0809082" lon="12.4102688"><ele>238.33333333333334</ele><time>2026-04-04T09:35:10.167Z</time></trkpt><trkpt lat="42.08091" lon="12.4101577"><ele>239.0</ele><time>2026-04-04T09:35:12.167Z</time></trkpt><trkpt lat="42.080925" lon="12.4100465"><ele>239.00000000000003</ele><time>2026-04-04T09:35:14.167Z</time></trkpt><trkpt lat="42.0809332" lon="12.4099196"><ele>239.0</ele><time>2026-04-04T09:35:16.167Z</time></trkpt><trkpt lat="42.0809371" lon="12.4098"><ele>239.0</ele><time>2026-04-04T09:35:18.167Z</time></trkpt><trkpt lat="42.0809535" lon="12.4096852"><ele>239.0</ele><time>2026-04-04T09:35:20.166Z</time></trkpt><trkpt lat="42.0809804" lon="12.4095714"><ele>239.00000000000003</ele><time>2026-04-04T09:35:22.167Z</time></trkpt><trkpt lat="42.0810051" lon="12.4094615"><ele>239.0</ele><time>2026-04-04T09:35:24.166Z</time></trkpt><trkpt lat="42.0810316" lon="12.4093358"><ele>238.6</ele><time>2026-04-04T09:35:26.166Z</time></trkpt><trkpt lat="42.0810397" lon="12.409197"><ele>238.2</ele><time>2026-04-04T09:35:28.166Z</time></trkpt><trkpt lat="42.0810311" lon="12.4090597"><ele>237.79999999999998</ele><time>2026-04-04T09:35:30.167Z</time></trkpt><trkpt lat="42.0810105" lon="12.4089171"><ele>237.39999999999998</ele><time>2026-04-04T09:35:32.166Z</time></trkpt><trkpt lat="42.0809997" lon="12.4087722"><ele>237.0</ele><time>2026-04-04T09:35:34.166Z</time></trkpt><trkpt lat="42.0810334" lon="12.4086263"><ele>236.5</ele><time>2026-04-04T09:35:36.166Z</time></trkpt><trkpt lat="42.081077" lon="12.4084994"><ele>236.0</ele><time>2026-04-04T09:35:38.167Z</time></trkpt><trkpt lat="42.0811214" lon="12.4083806"><ele>235.5</ele><time>2026-04-04T09:35:40.166Z</time></trkpt><trkpt lat="42.0811811" lon="12.4082542"><ele>235.0</ele><time>2026-04-04T09:35:42.167Z</time></trkpt><trkpt lat="42.0812182" lon="12.408182"><ele>234.5</ele><time>2026-04-04T09:35:43.166Z</time></trkpt><trkpt lat="42.0812566" lon="12.4081112"><ele>234.0</ele><time>2026-04-04T09:35:44.167Z</time></trkpt><trkpt lat="42.0813236" lon="12.4079991"><ele>234.2</ele><time>2026-04-04T09:35:46.166Z</time></trkpt><trkpt lat="42.0814105" lon="12.4079007"><ele>234.39999999999998</ele><time>2026-04-04T09:35:48.166Z</time></trkpt><trkpt lat="42.0814836" lon="12.4077955"><ele>234.6</ele><time>2026-04-04T09:35:50.166Z</time></trkpt><trkpt lat="42.0815485" lon="12.4076931"><ele>234.8</ele><time>2026-04-04T09:35:52.167Z</time></trkpt><trkpt lat="42.0816025" lon="12.4075954"><ele>235.0</ele><time>2026-04-04T09:35:54.166Z</time></trkpt><trkpt lat="42.0816418" lon="12.4075224"><ele>235.0</ele><time>2026-04-04T09:35:56.167Z</time></trkpt><trkpt lat="42.0816955" lon="12.4074726"><ele>234.99999999999997</ele><time>2026-04-04T09:35:59.166Z</time></trkpt><trkpt lat="42.0816689" lon="12.4075614"><ele>235.0</ele><time>2026-04-04T09:36:06.167Z</time></trkpt><trkpt lat="42.0817057" lon="12.4074592"><ele>235.0</ele><time>2026-04-04T09:39:12.167Z</time></trkpt><trkpt lat="42.0817339" lon="12.4073577"><ele>234.99999999999997</ele><time>2026-04-04T09:39:18.167Z</time></trkpt><trkpt lat="42.0817481" lon="12.407267"><ele>235.0</ele><time>2026-04-04T09:39:21.167Z</time></trkpt><trkpt lat="42.0817591" lon="12.4071614"><ele>235.0</ele><time>2026-04-04T09:39:25.167Z</time></trkpt><trkpt lat="42.0817769" lon="12.4070724"><ele>235.14285714285714</ele><time>2026-04-04T09:39:29.166Z</time></trkpt><trkpt lat="42.0817916" lon="12.4069865"><ele>235.28571428571428</ele><time>2026-04-04T09:39:35.166Z</time></trkpt><trkpt lat="42.0818637" lon="12.4069896"><ele>235.42857142857142</ele><time>2026-04-04T09:39:41.167Z</time></trkpt><trkpt lat="42.0819331" lon="12.407012"><ele>235.57142857142856</ele><time>2026-04-04T09:39:45.166Z</time></trkpt><trkpt lat="42.082014" lon="12.4070518"><ele>235.71428571428572</ele><time>2026-04-04T09:39:49.167Z</time></trkpt><trkpt lat="42.0820798" lon="12.4070714"><ele>235.85714285714283</ele><time>2026-04-04T09:39:52.166Z</time></trkpt><trkpt lat="42.0821391" lon="12.4071049"><ele>236.0</ele><time>2026-04-04T09:39:55.166Z</time></trkpt><trkpt lat="42.0822031" lon="12.4071404"><ele>235.85714285714283</ele><time>2026-04-04T09:39:59.166Z</time></trkpt><trkpt lat="42.0822591" lon="12.4071859"><ele>235.71428571428572</ele><time>2026-04-04T09:40:03.167Z</time></trkpt><trkpt lat="42.0823255" lon="12.4071937"><ele>235.57142857142856</ele><time>2026-04-04T09:40:06.167Z</time></trkpt><trkpt lat="42.0823901" lon="12.4072207"><ele>235.42857142857142</ele><time>2026-04-04T09:40:09.166Z</time></trkpt><trkpt lat="42.0824519" lon="12.4072454"><ele>235.28571428571428</ele><time>2026-04-04T09:40:12.166Z</time></trkpt><trkpt lat="42.0825209" lon="12.4072612"><ele>235.14285714285714</ele><time>2026-04-04T09:40:15.167Z</time></trkpt><trkpt lat="42.0825982" lon="12.4072704"><ele>235.0</ele><time>2026-04-04T09:40:18.167Z</time></trkpt><trkpt lat="42.0826657" lon="12.4072492"><ele>235.85714285714283</ele><time>2026-04-04T09:40:20.166Z</time></trkpt><trkpt lat="42.0827302" lon="12.407267"><ele>236.7142857142857</ele><time>2026-04-04T09:40:23.166Z</time></trkpt><trkpt lat="42.0827989" lon="12.4073002"><ele>237.57142857142856</ele><time>2026-04-04T09:40:26.166Z</time></trkpt><trkpt lat="42.082876" lon="12.407326"><ele>238.42857142857144</ele><time>2026-04-04T09:40:29.166Z</time></trkpt><trkpt lat="42.0829504" lon="12.4073777"><ele>239.2857142857143</ele><time>2026-04-04T09:40:33.166Z</time></trkpt><trkpt lat="42.083014" lon="12.4074091"><ele>240.14285714285717</ele><time>2026-04-04T09:40:36.166Z</time></trkpt><trkpt lat="42.0830889" lon="12.4074413"><ele>241.0</ele><time>2026-04-04T09:40:40.166Z</time></trkpt><trkpt lat="42.0831618" lon="12.4074816"><ele>240.99999999999997</ele><time>2026-04-04T09:40:43.166Z</time></trkpt><trkpt lat="42.0832438" lon="12.4074574"><ele>241.0</ele><time>2026-04-04T09:40:46.167Z</time></trkpt><trkpt lat="42.0833176" lon="12.407442"><ele>241.0</ele><time>2026-04-04T09:40:49.167Z</time></trkpt><trkpt lat="42.0833832" lon="12.4074677"><ele>241.0</ele><time>2026-04-04T09:40:52.166Z</time></trkpt><trkpt lat="42.0834614" lon="12.4074925"><ele>240.99999999999997</ele><time>2026-04-04T09:40:55.166Z</time></trkpt><trkpt lat="42.0835444" lon="12.407512"><ele>241.0</ele><time>2026-04-04T09:40:58.166Z</time></trkpt><trkpt lat="42.0836309" lon="12.4075213"><ele>242.49999999999997</ele><time>2026-04-04T09:41:01.166Z</time></trkpt><trkpt lat="42.0836995" lon="12.4075289"><ele>244.0</ele><time>2026-04-04T09:41:04.167Z</time></trkpt><trkpt lat="42.0837862" lon="12.4075283"><ele>245.5</ele><time>2026-04-04T09:41:07.166Z</time></trkpt><trkpt lat="42.0838659" lon="12.4075671"><ele>247.0</ele><time>2026-04-04T09:41:10.166Z</time></trkpt><trkpt lat="42.0839551" lon="12.4075748"><ele>248.49999999999997</ele><time>2026-04-04T09:41:13.166Z</time></trkpt><trkpt lat="42.084022" lon="12.4076264"><ele>250.0</ele><time>2026-04-04T09:41:16.166Z</time></trkpt><trkpt lat="42.0840692" lon="12.4077105"><ele>249.99999999999997</ele><time>2026-04-04T09:41:20.167Z</time></trkpt><trkpt lat="42.0840789" lon="12.4077984"><ele>250.0</ele><time>2026-04-04T09:41:23.166Z</time></trkpt><trkpt lat="42.0841037" lon="12.4079199"><ele>250.0</ele><time>2026-04-04T09:41:26.166Z</time></trkpt><trkpt lat="42.0841242" lon="12.408008"><ele>250.0</ele><time>2026-04-04T09:41:29.167Z</time></trkpt><trkpt lat="42.0841502" lon="12.4081095"><ele>249.99999999999997</ele><time>2026-04-04T09:41:32.166Z</time></trkpt><trkpt lat="42.0841815" lon="12.4082089"><ele>250.0</ele><time>2026-04-04T09:41:35.167Z</time></trkpt><trkpt lat="42.0842001" lon="12.4082932"><ele>250.66666666666666</ele><time>2026-04-04T09:41:38.167Z</time></trkpt><trkpt lat="42.084226" lon="12.4083889"><ele>251.33333333333331</ele><time>2026-04-04T09:41:41.167Z</time></trkpt><trkpt lat="42.0842479" lon="12.4084937"><ele>252.0</ele><time>2026-04-04T09:41:44.167Z</time></trkpt><trkpt lat="42.0842779" lon="12.4085975"><ele>252.66666666666669</ele><time>2026-04-04T09:41:47.166Z</time></trkpt><trkpt lat="42.0843074" lon="12.4086966"><ele>253.33333333333334</ele><time>2026-04-04T09:41:50.166Z</time></trkpt><trkpt lat="42.0843333" lon="12.4087917"><ele>254.0</ele><time>2026-04-04T09:41:53.166Z</time></trkpt><trkpt lat="42.0843545" lon="12.4088804"><ele>255.00000000000003</ele><time>2026-04-04T09:41:56.166Z</time></trkpt><trkpt lat="42.0843796" lon="12.4089761"><ele>256.0</ele><time>2026-04-04T09:41:59.166Z</time></trkpt><trkpt lat="42.0844119" lon="12.4090939"><ele>257.0</ele><time>2026-04-04T09:42:02.166Z</time></trkpt><trkpt lat="42.0844382" lon="12.4091963"><ele>258.0</ele><time>2026-04-04T09:42:05.166Z</time></trkpt><trkpt lat="42.0844607" lon="12.4092889"><ele>259.0</ele><time>2026-04-04T09:42:08.166Z</time></trkpt><trkpt lat="42.0844949" lon="12.4093933"><ele>260.0</ele><time>2026-04-04T09:42:12.167Z</time></trkpt><trkpt lat="42.0845194" lon="12.4094971"><ele>260.0</ele><time>2026-04-04T09:42:15.166Z</time></trkpt><trkpt lat="42.084547" lon="12.4096137"><ele>260.0</ele><time>2026-04-04T09:42:18.166Z</time></trkpt><trkpt lat="42.0845729" lon="12.4097057"><ele>260.0</ele><time>2026-04-04T09:42:21.167Z</time></trkpt><trkpt lat="42.0845985" lon="12.4098042"><ele>260.0</ele><time>2026-04-04T09:42:24.166Z</time></trkpt><trkpt lat="42.084639" lon="12.4098856"><ele>260.0</ele><time>2026-04-04T09:42:27.166Z</time></trkpt><trkpt lat="42.0847001" lon="12.409952"><ele>260.0</ele><time>2026-04-04T09:42:30.166Z</time></trkpt><trkpt lat="42.0847711" lon="12.4100062"><ele>260.1666666666667</ele><time>2026-04-04T09:42:33.167Z</time></trkpt><trkpt lat="42.0848296" lon="12.4100384"><ele>260.33333333333337</ele><time>2026-04-04T09:42:35.167Z</time></trkpt><trkpt lat="42.08489" lon="12.4100662"><ele>260.5</ele><time>2026-04-04T09:42:37.166Z</time></trkpt><trkpt lat="42.0849564" lon="12.4100686"><ele>260.6666666666667</ele><time>2026-04-04T09:42:39.166Z</time></trkpt><trkpt lat="42.0850465" lon="12.4100388"><ele>260.8333333333333</ele><time>2026-04-04T09:42:42.166Z</time></trkpt><trkpt lat="42.0851351" lon="12.4100079"><ele>261.0</ele><time>2026-04-04T09:42:45.167Z</time></trkpt><trkpt lat="42.0852151" lon="12.4099726"><ele>261.1666666666667</ele><time>2026-04-04T09:42:48.167Z</time></trkpt><trkpt lat="42.0852996" lon="12.40992"><ele>261.3333333333333</ele><time>2026-04-04T09:42:51.167Z</time></trkpt><trkpt lat="42.085387" lon="12.4098796"><ele>261.5</ele><time>2026-04-04T09:42:54.167Z</time></trkpt><trkpt lat="42.0854516" lon="12.4098514"><ele>261.66666666666663</ele><time>2026-04-04T09:42:56.167Z</time></trkpt><trkpt lat="42.0855189" lon="12.4098027"><ele>261.8333333333333</ele><time>2026-04-04T09:42:58.167Z</time></trkpt><trkpt lat="42.0855862" lon="12.4097637"><ele>262.0</ele><time>2026-04-04T09:43:00.166Z</time></trkpt><trkpt lat="42.0856539" lon="12.4097378"><ele>262.0</ele><time>2026-04-04T09:43:02.166Z</time></trkpt><trkpt lat="42.0857175" lon="12.4097231"><ele>262.0</ele><time>2026-04-04T09:43:04.167Z</time></trkpt><trkpt lat="42.085778" lon="12.4096961"><ele>262.0</ele><time>2026-04-04T09:43:06.167Z</time></trkpt><trkpt lat="42.0858473" lon="12.4096453"><ele>262.0</ele><time>2026-04-04T09:43:08.166Z</time></trkpt><trkpt lat="42.0859122" lon="12.4096292"><ele>262.0</ele><time>2026-04-04T09:43:10.166Z</time></trkpt><trkpt lat="42.0859853" lon="12.4095929"><ele>262.0</ele><time>2026-04-04T09:43:12.167Z</time></trkpt><trkpt lat="42.0860525" lon="12.4095821"><ele>262.0</ele><time>2026-04-04T09:43:14.167Z</time></trkpt><trkpt lat="42.0861209" lon="12.4095624"><ele>262.3333333333333</ele><time>2026-04-04T09:43:16.167Z</time></trkpt><trkpt lat="42.0861886" lon="12.4095727"><ele>262.66666666666663</ele><time>2026-04-04T09:43:18.166Z</time></trkpt><trkpt lat="42.0862609" lon="12.4095951"><ele>263.0</ele><time>2026-04-04T09:43:20.166Z</time></trkpt><trkpt lat="42.0863213" lon="12.4096444"><ele>263.3333333333333</ele><time>2026-04-04T09:43:22.167Z</time></trkpt><trkpt lat="42.0863947" lon="12.4097206"><ele>263.6666666666667</ele><time>2026-04-04T09:43:25.166Z</time></trkpt><trkpt lat="42.0864532" lon="12.4097941"><ele>264.0</ele><time>2026-04-04T09:43:28.167Z</time></trkpt><trkpt lat="42.086519" lon="12.4098445"><ele>264.6666666666667</ele><time>2026-04-04T09:43:31.167Z</time></trkpt><trkpt lat="42.086609" lon="12.4098673"><ele>265.3333333333333</ele><time>2026-04-04T09:43:34.166Z</time></trkpt><trkpt lat="42.086693" lon="12.4099017"><ele>266.0</ele><time>2026-04-04T09:43:37.166Z</time></trkpt><trkpt lat="42.0867895" lon="12.4098948"><ele>266.66666666666663</ele><time>2026-04-04T09:43:40.166Z</time></trkpt><trkpt lat="42.0868775" lon="12.4098817"><ele>267.3333333333333</ele><time>2026-04-04T09:43:43.167Z</time></trkpt><trkpt lat="42.0869612" lon="12.409877"><ele>268.0</ele><time>2026-04-04T09:43:46.167Z</time></trkpt><trkpt lat="42.0870447" lon="12.4098571"><ele>268.0</ele><time>2026-04-04T09:43:49.166Z</time></trkpt><trkpt lat="42.0871077" lon="12.4098174"><ele>268.0</ele><time>2026-04-04T09:43:51.166Z</time></trkpt><trkpt lat="42.0871773" lon="12.4097906"><ele>268.0</ele><time>2026-04-04T09:43:53.166Z</time></trkpt><trkpt lat="42.0872575" lon="12.4097422"><ele>268.0</ele><time>2026-04-04T09:43:55.166Z</time></trkpt><trkpt lat="42.0873322" lon="12.4096967"><ele>268.0</ele><time>2026-04-04T09:43:57.167Z</time></trkpt><trkpt lat="42.0874122" lon="12.4096593"><ele>268.0</ele><time>2026-04-04T09:43:59.167Z</time></trkpt><trkpt lat="42.0875051" lon="12.4096272"><ele>268.14285714285717</ele><time>2026-04-04T09:44:01.167Z</time></trkpt><trkpt lat="42.0875932" lon="12.4096161"><ele>268.2857142857143</ele><time>2026-04-04T09:44:03.167Z</time></trkpt><trkpt lat="42.0876652" lon="12.4096174"><ele>268.42857142857144</ele><time>2026-04-04T09:44:05.166Z</time></trkpt><trkpt lat="42.0877312" lon="12.4096512"><ele>268.57142857142856</ele><time>2026-04-04T09:44:07.166Z</time></trkpt><trkpt lat="42.0877905" lon="12.4097122"><ele>268.7142857142857</ele><time>2026-04-04T09:44:09.166Z</time></trkpt><trkpt lat="42.0878544" lon="12.4097612"><ele>268.8571428571429</ele><time>2026-04-04T09:44:11.166Z</time></trkpt><trkpt lat="42.087904" lon="12.4098222"><ele>269.0</ele><time>2026-04-04T09:44:13.166Z</time></trkpt><trkpt lat="42.0879498" lon="12.4098982"><ele>269.0</ele><time>2026-04-04T09:44:15.167Z</time></trkpt><trkpt lat="42.0879968" lon="12.409973"><ele>269.0</ele><time>2026-04-04T09:44:17.167Z</time></trkpt><trkpt lat="42.0880528" lon="12.410051"><ele>269.0</ele><time>2026-04-04T09:44:19.167Z</time></trkpt><trkpt lat="42.0881091" lon="12.4101292"><ele>269.0</ele><time>2026-04-04T09:44:21.166Z</time></trkpt><trkpt lat="42.088166" lon="12.4102101"><ele>269.0</ele><time>2026-04-04T09:44:23.166Z</time></trkpt><trkpt lat="42.088228" lon="12.4102764"><ele>269.0</ele><time>2026-04-04T09:44:25.166Z</time></trkpt><trkpt lat="42.0882975" lon="12.4103186"><ele>270.33333333333337</ele><time>2026-04-04T09:44:27.167Z</time></trkpt><trkpt lat="42.0883855" lon="12.4103566"><ele>271.6666666666667</ele><time>2026-04-04T09:44:29.167Z</time></trkpt><trkpt lat="42.0884713" lon="12.4103575"><ele>273.0</ele><time>2026-04-04T09:44:31.167Z</time></trkpt><trkpt lat="42.0885545" lon="12.4103399"><ele>274.3333333333333</ele><time>2026-04-04T09:44:33.166Z</time></trkpt><trkpt lat="42.0886313" lon="12.4103236"><ele>275.66666666666663</ele><time>2026-04-04T09:44:35.166Z</time></trkpt><trkpt lat="42.0887102" lon="12.4103056"><ele>277.0</ele><time>2026-04-04T09:44:37.166Z</time></trkpt><trkpt lat="42.0887885" lon="12.4102947"><ele>277.0</ele><time>2026-04-04T09:44:39.166Z</time></trkpt><trkpt lat="42.0888851" lon="12.4102668"><ele>277.0</ele><time>2026-04-04T09:44:41.167Z</time></trkpt><trkpt lat="42.0889875" lon="12.4102404"><ele>277.0</ele><time>2026-04-04T09:44:43.167Z</time></trkpt><trkpt lat="42.0890844" lon="12.4102404"><ele>277.0</ele><time>2026-04-04T09:44:45.167Z</time></trkpt><trkpt lat="42.0891815" lon="12.4102595"><ele>277.0</ele><time>2026-04-04T09:44:47.166Z</time></trkpt><trkpt lat="42.0892818" lon="12.4103018"><ele>276.8</ele><time>2026-04-04T09:44:49.167Z</time></trkpt><trkpt lat="42.0893904" lon="12.4103609"><ele>276.6</ele><time>2026-04-04T09:44:51.167Z</time></trkpt><trkpt lat="42.0894882" lon="12.4104417"><ele>276.40000000000003</ele><time>2026-04-04T09:44:53.166Z</time></trkpt><trkpt lat="42.089575" lon="12.4105315"><ele>276.2</ele><time>2026-04-04T09:44:55.166Z</time></trkpt><trkpt lat="42.0896681" lon="12.4106049"><ele>276.0</ele><time>2026-04-04T09:44:57.166Z</time></trkpt><trkpt lat="42.0897574" lon="12.4106881"><ele>276.0</ele><time>2026-04-04T09:44:59.167Z</time></trkpt><trkpt lat="42.0898372" lon="12.41081"><ele>276.0</ele><time>2026-04-04T09:45:01.167Z</time></trkpt><trkpt lat="42.0899058" lon="12.4109214"><ele>276.0</ele><time>2026-04-04T09:45:03.167Z</time></trkpt><trkpt lat="42.0899734" lon="12.4110202"><ele>276.0</ele><time>2026-04-04T09:45:05.166Z</time></trkpt><trkpt lat="42.0900383" lon="12.4111072"><ele>276.0</ele><time>2026-04-04T09:45:07.166Z</time></trkpt><trkpt lat="42.0900989" lon="12.4111975"><ele>276.0</ele><time>2026-04-04T09:45:09.166Z</time></trkpt><trkpt lat="42.0901651" lon="12.4112776"><ele>276.0</ele><time>2026-04-04T09:45:11.166Z</time></trkpt><trkpt lat="42.0902267" lon="12.4113564"><ele>276.0</ele><time>2026-04-04T09:45:13.167Z</time></trkpt><trkpt lat="42.0902855" lon="12.4114332"><ele>276.0</ele><time>2026-04-04T09:45:15.166Z</time></trkpt><trkpt lat="42.0903535" lon="12.4115295"><ele>276.0</ele><time>2026-04-04T09:45:17.167Z</time></trkpt><trkpt lat="42.0904093" lon="12.4116179"><ele>276.0</ele><time>2026-04-04T09:45:19.167Z</time></trkpt><trkpt lat="42.0904575" lon="12.4117057"><ele>275.8333333333333</ele><time>2026-04-04T09:45:21.166Z</time></trkpt><trkpt lat="42.0904969" lon="12.4117899"><ele>275.6666666666667</ele><time>2026-04-04T09:45:23.166Z</time></trkpt><trkpt lat="42.0905457" lon="12.4118758"><ele>275.5</ele><time>2026-04-04T09:45:25.166Z</time></trkpt><trkpt lat="42.090594" lon="12.4119701"><ele>275.33333333333337</ele><time>2026-04-04T09:45:27.166Z</time></trkpt><trkpt lat="42.0906472" lon="12.4120649"><ele>275.1666666666667</ele><time>2026-04-04T09:45:29.166Z</time></trkpt><trkpt lat="42.0907006" lon="12.4121524"><ele>275.0</ele><time>2026-04-04T09:45:31.167Z</time></trkpt><trkpt lat="42.0907506" lon="12.4122369"><ele>276.0</ele><time>2026-04-04T09:45:33.167Z</time></trkpt><trkpt lat="42.0908087" lon="12.4123341"><ele>277.0</ele><time>2026-04-04T09:45:36.167Z</time></trkpt><trkpt lat="42.0908512" lon="12.4124339"><ele>278.0</ele><time>2026-04-04T09:45:39.166Z</time></trkpt><trkpt lat="42.0908942" lon="12.4125389"><ele>279.0</ele><time>2026-04-04T09:45:42.166Z</time></trkpt><trkpt lat="42.0909386" lon="12.4126251"><ele>280.0</ele><time>2026-04-04T09:45:44.166Z</time></trkpt><trkpt lat="42.0909748" lon="12.4126972"><ele>281.0</ele><time>2026-04-04T09:45:46.167Z</time></trkpt><trkpt lat="42.0910059" lon="12.4127841"><ele>281.0</ele><time>2026-04-04T09:45:48.167Z</time></trkpt><trkpt lat="42.0910316" lon="12.4128893"><ele>281.0</ele><time>2026-04-04T09:45:50.166Z</time></trkpt><trkpt lat="42.0910533" lon="12.4129911"><ele>281.0</ele><time>2026-04-04T09:45:52.167Z</time></trkpt><trkpt lat="42.0910691" lon="12.4130936"><ele>281.0</ele><time>2026-04-04T09:45:54.166Z</time></trkpt><trkpt lat="42.0910821" lon="12.413214"><ele>281.0</ele><time>2026-04-04T09:45:56.167Z</time></trkpt><trkpt lat="42.0911042" lon="12.4132962"><ele>281.0</ele><time>2026-04-04T09:45:58.166Z</time></trkpt><trkpt lat="42.0911323" lon="12.4133942"><ele>281.1666666666667</ele><time>2026-04-04T09:46:01.166Z</time></trkpt><trkpt lat="42.0911393" lon="12.4134893"><ele>281.33333333333337</ele><time>2026-04-04T09:46:05.167Z</time></trkpt><trkpt lat="42.0911504" lon="12.4136173"><ele>281.5</ele><time>2026-04-04T09:46:08.166Z</time></trkpt><trkpt lat="42.0911499" lon="12.4137136"><ele>281.6666666666667</ele><time>2026-04-04T09:46:10.167Z</time></trkpt><trkpt lat="42.091149" lon="12.4138021"><ele>281.8333333333333</ele><time>2026-04-04T09:46:12.166Z</time></trkpt><trkpt lat="42.0911615" lon="12.4139155"><ele>282.0</ele><time>2026-04-04T09:46:15.166Z</time></trkpt><trkpt lat="42.0911563" lon="12.4140411"><ele>282.3333333333333</ele><time>2026-04-04T09:46:18.167Z</time></trkpt><trkpt lat="42.09116" lon="12.4141388"><ele>282.6666666666667</ele><time>2026-04-04T09:46:20.166Z</time></trkpt><trkpt lat="42.0911638" lon="12.4142455"><ele>283.0</ele><time>2026-04-04T09:46:22.166Z</time></trkpt><trkpt lat="42.0911609" lon="12.4143343"><ele>283.33333333333337</ele><time>2026-04-04T09:46:24.167Z</time></trkpt><trkpt lat="42.0911557" lon="12.4144349"><ele>283.6666666666667</ele><time>2026-04-04T09:46:26.166Z</time></trkpt><trkpt lat="42.0911492" lon="12.4145482"><ele>284.0</ele><time>2026-04-04T09:46:28.166Z</time></trkpt><trkpt lat="42.0911414" lon="12.4146633"><ele>284.5</ele><time>2026-04-04T09:46:30.166Z</time></trkpt><trkpt lat="42.0911304" lon="12.4147908"><ele>285.0</ele><time>2026-04-04T09:46:32.167Z</time></trkpt><trkpt lat="42.0911354" lon="12.4149141"><ele>285.5</ele><time>2026-04-04T09:46:34.166Z</time></trkpt><trkpt lat="42.0911456" lon="12.4150157"><ele>286.0</ele><time>2026-04-04T09:46:36.167Z</time></trkpt><trkpt lat="42.0911571" lon="12.4151198"><ele>286.5</ele><time>2026-04-04T09:46:38.167Z</time></trkpt><trkpt lat="42.0911817" lon="12.415234"><ele>287.0</ele><time>2026-04-04T09:46:40.166Z</time></trkpt><trkpt lat="42.0912098" lon="12.4153399"><ele>287.0</ele><time>2026-04-04T09:46:42.166Z</time></trkpt><trkpt lat="42.0912459" lon="12.4154427"><ele>287.0</ele><time>2026-04-04T09:46:44.166Z</time></trkpt><trkpt lat="42.091281" lon="12.4155557"><ele>287.0</ele><time>2026-04-04T09:46:46.166Z</time></trkpt><trkpt lat="42.0913183" lon="12.415666"><ele>287.0</ele><time>2026-04-04T09:46:48.166Z</time></trkpt><trkpt lat="42.0913666" lon="12.4157741"><ele>287.0</ele><time>2026-04-04T09:46:50.166Z</time></trkpt><trkpt lat="42.0914178" lon="12.4158968"><ele>287.0</ele><time>2026-04-04T09:46:52.167Z</time></trkpt><trkpt lat="42.0914663" lon="12.416002"><ele>287.0</ele><time>2026-04-04T09:46:54.166Z</time></trkpt><trkpt lat="42.0915151" lon="12.4161151"><ele>287.0</ele><time>2026-04-04T09:46:56.166Z</time></trkpt><trkpt lat="42.0915668" lon="12.4162255"><ele>287.0</ele><time>2026-04-04T09:46:58.166Z</time></trkpt><trkpt lat="42.0916214" lon="12.4163216"><ele>287.0</ele><time>2026-04-04T09:47:00.167Z</time></trkpt><trkpt lat="42.0916995" lon="12.4164185"><ele>287.0</ele><time>2026-04-04T09:47:02.166Z</time></trkpt><trkpt lat="42.0917873" lon="12.4165068"><ele>287.0</ele><time>2026-04-04T09:47:04.167Z</time></trkpt><trkpt lat="42.0918737" lon="12.4165937"><ele>287.0</ele><time>2026-04-04T09:47:06.166Z</time></trkpt><trkpt lat="42.0919605" lon="12.4166746"><ele>287.0</ele><time>2026-04-04T09:47:08.167Z</time></trkpt><trkpt lat="42.0920433" lon="12.4167431"><ele>287.0</ele><time>2026-04-04T09:47:10.167Z</time></trkpt><trkpt lat="42.0921094" lon="12.4168128"><ele>287.0</ele><time>2026-04-04T09:47:12.167Z</time></trkpt><trkpt lat="42.0921794" lon="12.4168789"><ele>287.0</ele><time>2026-04-04T09:47:14.166Z</time></trkpt><trkpt lat="42.0922495" lon="12.4169474"><ele>287.0</ele><time>2026-04-04T09:47:16.166Z</time></trkpt><trkpt lat="42.0923152" lon="12.417019"><ele>287.0</ele><time>2026-04-04T09:47:18.166Z</time></trkpt><trkpt lat="42.0923827" lon="12.4170948"><ele>287.0</ele><time>2026-04-04T09:47:20.166Z</time></trkpt><trkpt lat="42.0924566" lon="12.4171691"><ele>287.0</ele><time>2026-04-04T09:47:22.167Z</time></trkpt><trkpt lat="42.0925285" lon="12.4172398"><ele>287.8</ele><time>2026-04-04T09:47:24.166Z</time></trkpt><trkpt lat="42.0925984" lon="12.4173122"><ele>288.6</ele><time>2026-04-04T09:47:26.166Z</time></trkpt><trkpt lat="42.0926681" lon="12.4173812"><ele>289.40000000000003</ele><time>2026-04-04T09:47:28.167Z</time></trkpt><trkpt lat="42.0927364" lon="12.4174432"><ele>290.2</ele><time>2026-04-04T09:47:30.167Z</time></trkpt><trkpt lat="42.0928203" lon="12.4175237"><ele>291.0</ele><time>2026-04-04T09:47:32.166Z</time></trkpt><trkpt lat="42.0929028" lon="12.4176048"><ele>291.0</ele><time>2026-04-04T09:47:34.166Z</time></trkpt><trkpt lat="42.0929803" lon="12.4176829"><ele>291.0</ele><time>2026-04-04T09:47:36.166Z</time></trkpt><trkpt lat="42.0930628" lon="12.4177606"><ele>291.0</ele><time>2026-04-04T09:47:38.166Z</time></trkpt><trkpt lat="42.0931453" lon="12.417835"><ele>291.0</ele><time>2026-04-04T09:47:40.166Z</time></trkpt><trkpt lat="42.093223" lon="12.4179087"><ele>291.0</ele><time>2026-04-04T09:47:42.166Z</time></trkpt><trkpt lat="42.0933049" lon="12.4179901"><ele>291.0</ele><time>2026-04-04T09:47:44.166Z</time></trkpt><trkpt lat="42.093386" lon="12.4180755"><ele>291.0</ele><time>2026-04-04T09:47:46.166Z</time></trkpt><trkpt lat="42.0934695" lon="12.4181483"><ele>291.0</ele><time>2026-04-04T09:47:48.166Z</time></trkpt><trkpt lat="42.0935623" lon="12.418235"><ele>291.0</ele><time>2026-04-04T09:47:50.166Z</time></trkpt><trkpt lat="42.0936578" lon="12.4183307"><ele>291.0</ele><time>2026-04-04T09:47:52.166Z</time></trkpt><trkpt lat="42.0937558" lon="12.4184252"><ele>291.0</ele><time>2026-04-04T09:47:54.167Z</time></trkpt><trkpt lat="42.0938101" lon="12.4184722"><ele>291.0</ele><time>2026-04-04T09:47:55.166Z</time></trkpt><trkpt lat="42.093894" lon="12.4185593"><ele>291.0</ele><time>2026-04-04T09:47:57.167Z</time></trkpt><trkpt lat="42.0939783" lon="12.4186382"><ele>291.0</ele><time>2026-04-04T09:47:59.167Z</time></trkpt><trkpt lat="42.094066" lon="12.4187244"><ele>291.0</ele><time>2026-04-04T09:48:01.166Z</time></trkpt><trkpt lat="42.0941467" lon="12.4188024"><ele>291.40000000000003</ele><time>2026-04-04T09:48:03.167Z</time></trkpt><trkpt lat="42.0942315" lon="12.4188748"><ele>291.8</ele><time>2026-04-04T09:48:05.166Z</time></trkpt><trkpt lat="42.094327" lon="12.4189333"><ele>292.20000000000005</ele><time>2026-04-04T09:48:07.166Z</time></trkpt><trkpt lat="42.0944356" lon="12.4189778"><ele>292.6</ele><time>2026-04-04T09:48:09.167Z</time></trkpt><trkpt lat="42.0945515" lon="12.4190294"><ele>293.0</ele><time>2026-04-04T09:48:11.166Z</time></trkpt><trkpt lat="42.0946305" lon="12.4190628"><ele>292.99999999999994</ele><time>2026-04-04T09:48:13.166Z</time></trkpt><trkpt lat="42.0946985" lon="12.4190896"><ele>293.0</ele><time>2026-04-04T09:48:15.166Z</time></trkpt><trkpt lat="42.0947659" lon="12.4191025"><ele>293.0</ele><time>2026-04-04T09:48:17.167Z</time></trkpt><trkpt lat="42.0948291" lon="12.4191249"><ele>293.0</ele><time>2026-04-04T09:48:19.167Z</time></trkpt><trkpt lat="42.0948952" lon="12.4191736"><ele>293.0</ele><time>2026-04-04T09:48:23.166Z</time></trkpt><trkpt lat="42.0949694" lon="12.4192209"><ele>292.99999999999994</ele><time>2026-04-04T09:48:27.167Z</time></trkpt><trkpt lat="42.0950395" lon="12.4192502"><ele>293.0</ele><time>2026-04-04T09:48:31.166Z</time></trkpt><trkpt lat="42.0951278" lon="12.4193657"><ele>293.0</ele><time>2026-04-04T09:49:25.167Z</time></trkpt><trkpt lat="42.095055" lon="12.4192754"><ele>293.0</ele><time>2026-04-04T09:49:32.166Z</time></trkpt><trkpt lat="42.094993" lon="12.4192007"><ele>293.0</ele><time>2026-04-04T09:49:37.166Z</time></trkpt><trkpt lat="42.0949349" lon="12.4191445"><ele>293.0</ele><time>2026-04-04T09:49:39.166Z</time></trkpt><trkpt lat="42.0948412" lon="12.419117"><ele>293.0</ele><time>2026-04-04T09:49:42.166Z</time></trkpt><trkpt lat="42.0947423" lon="12.419095"><ele>293.0</ele><time>2026-04-04T09:49:44.167Z</time></trkpt><trkpt lat="42.0946475" lon="12.4190665"><ele>293.0</ele><time>2026-04-04T09:49:46.166Z</time></trkpt><trkpt lat="42.0945768" lon="12.4190765"><ele>293.0</ele><time>2026-04-04T09:49:48.167Z</time></trkpt><trkpt lat="42.0944991" lon="12.419081"><ele>293.0</ele><time>2026-04-04T09:49:49.166Z</time></trkpt><trkpt lat="42.094392" lon="12.4190959"><ele>293.0</ele><time>2026-04-04T09:49:51.167Z</time></trkpt><trkpt lat="42.0943225" lon="12.4191072"><ele>293.0</ele><time>2026-04-04T09:49:53.166Z</time></trkpt><trkpt lat="42.0942395" lon="12.4191062"><ele>293.0</ele><time>2026-04-04T09:49:56.166Z</time></trkpt><trkpt lat="42.0941703" lon="12.4190886"><ele>293.0</ele><time>2026-04-04T09:49:59.166Z</time></trkpt><trkpt lat="42.0940796" lon="12.4190322"><ele>293.0</ele><time>2026-04-04T09:50:03.166Z</time></trkpt><trkpt lat="42.0940141" lon="12.4189775"><ele>293.0</ele><time>2026-04-04T09:50:05.167Z</time></trkpt><trkpt lat="42.0939573" lon="12.4189246"><ele>293.0</ele><time>2026-04-04T09:50:07.166Z</time></trkpt><trkpt lat="42.0938534" lon="12.4188996"><ele>293.0</ele><time>2026-04-04T09:50:09.166Z</time></trkpt><trkpt lat="42.0937563" lon="12.4188991"><ele>293.0</ele><time>2026-04-04T09:50:11.166Z</time></trkpt><trkpt lat="42.0936366" lon="12.4189551"><ele>293.0</ele><time>2026-04-04T09:50:13.167Z</time></trkpt><trkpt lat="42.0935487" lon="12.41904"><ele>293.0</ele><time>2026-04-04T09:50:15.166Z</time></trkpt><trkpt lat="42.0934889" lon="12.4191329"><ele>293.0</ele><time>2026-04-04T09:50:17.166Z</time></trkpt><trkpt lat="42.0933861" lon="12.4191892"><ele>293.0</ele><time>2026-04-04T09:50:19.166Z</time></trkpt><trkpt lat="42.0932786" lon="12.4192141"><ele>292.2</ele><time>2026-04-04T09:50:21.166Z</time></trkpt><trkpt lat="42.0931476" lon="12.4192662"><ele>291.4</ele><time>2026-04-04T09:50:23.167Z</time></trkpt><trkpt lat="42.0930627" lon="12.4192807"><ele>290.59999999999997</ele><time>2026-04-04T09:50:24.167Z</time></trkpt><trkpt lat="42.0929767" lon="12.4192899"><ele>289.8</ele><time>2026-04-04T09:50:25.167Z</time></trkpt><trkpt lat="42.0929067" lon="12.4193104"><ele>289.0</ele><time>2026-04-04T09:50:26.167Z</time></trkpt><trkpt lat="42.0928323" lon="12.4193369"><ele>289.0</ele><time>2026-04-04T09:50:27.166Z</time></trkpt><trkpt lat="42.0927581" lon="12.4193589"><ele>289.0</ele><time>2026-04-04T09:50:28.167Z</time></trkpt><trkpt lat="42.0926942" lon="12.4193625"><ele>289.0</ele><time>2026-04-04T09:50:29.166Z</time></trkpt><trkpt lat="42.0925809" lon="12.4193733"><ele>289.0</ele><time>2026-04-04T09:50:31.167Z</time></trkpt><trkpt lat="42.0924925" lon="12.4194018"><ele>289.0</ele><time>2026-04-04T09:50:33.166Z</time></trkpt><trkpt lat="42.0923995" lon="12.4194234"><ele>289.0</ele><time>2026-04-04T09:50:36.166Z</time></trkpt><trkpt lat="42.0923101" lon="12.4194516"><ele>288.16666666666663</ele><time>2026-04-04T09:50:38.167Z</time></trkpt><trkpt lat="42.0922204" lon="12.4194684"><ele>287.3333333333333</ele><time>2026-04-04T09:50:40.166Z</time></trkpt><trkpt lat="42.0921393" lon="12.4194513"><ele>286.5</ele><time>2026-04-04T09:50:42.167Z</time></trkpt><trkpt lat="42.0920686" lon="12.419384"><ele>285.6666666666667</ele><time>2026-04-04T09:50:45.166Z</time></trkpt><trkpt lat="42.0919928" lon="12.4193674"><ele>284.83333333333337</ele><time>2026-04-04T09:50:47.166Z</time></trkpt><trkpt lat="42.0918928" lon="12.4193634"><ele>284.0</ele><time>2026-04-04T09:50:49.166Z</time></trkpt><trkpt lat="42.0917958" lon="12.4193745"><ele>284.0</ele><time>2026-04-04T09:50:51.166Z</time></trkpt><trkpt lat="42.0917085" lon="12.4194172"><ele>284.0</ele><time>2026-04-04T09:50:53.166Z</time></trkpt><trkpt lat="42.0916229" lon="12.4194599"><ele>284.0</ele><time>2026-04-04T09:50:55.167Z</time></trkpt><trkpt lat="42.0915577" lon="12.419472"><ele>284.0</ele><time>2026-04-04T09:50:57.166Z</time></trkpt><trkpt lat="42.0914985" lon="12.4195054"><ele>284.0</ele><time>2026-04-04T09:50:59.166Z</time></trkpt><trkpt lat="42.0914391" lon="12.4195511"><ele>284.0</ele><time>2026-04-04T09:51:01.166Z</time></trkpt><trkpt lat="42.0913626" lon="12.4196017"><ele>282.0</ele><time>2026-04-04T09:51:03.166Z</time></trkpt><trkpt lat="42.0912782" lon="12.4196783"><ele>280.0</ele><time>2026-04-04T09:51:05.166Z</time></trkpt><trkpt lat="42.0911998" lon="12.4197822"><ele>278.0</ele><time>2026-04-04T09:51:07.166Z</time></trkpt><trkpt lat="42.0911365" lon="12.4198749"><ele>276.0</ele><time>2026-04-04T09:51:09.166Z</time></trkpt><trkpt lat="42.0910804" lon="12.419935"><ele>274.0</ele><time>2026-04-04T09:51:11.166Z</time></trkpt><trkpt lat="42.0910102" lon="12.4199407"><ele>272.0</ele><time>2026-04-04T09:51:13.167Z</time></trkpt><trkpt lat="42.0909468" lon="12.4199494"><ele>272.0</ele><time>2026-04-04T09:51:15.167Z</time></trkpt><trkpt lat="42.0908945" lon="12.4200227"><ele>272.0</ele><time>2026-04-04T09:51:18.167Z</time></trkpt><trkpt lat="42.0908395" lon="12.4200653"><ele>272.0</ele><time>2026-04-04T09:51:21.167Z</time></trkpt><trkpt lat="42.0907757" lon="12.4201184"><ele>272.0</ele><time>2026-04-04T09:51:25.167Z</time></trkpt><trkpt lat="42.0907137" lon="12.4201638"><ele>272.0</ele><time>2026-04-04T09:51:27.166Z</time></trkpt><trkpt lat="42.0906354" lon="12.4202222"><ele>272.0</ele><time>2026-04-04T09:51:29.166Z</time></trkpt><trkpt lat="42.0905737" lon="12.4202981"><ele>270.0</ele><time>2026-04-04T09:51:31.167Z</time></trkpt><trkpt lat="42.0904971" lon="12.4203686"><ele>268.0</ele><time>2026-04-04T09:51:33.167Z</time></trkpt><trkpt lat="42.0904041" lon="12.4204462"><ele>266.0</ele><time>2026-04-04T09:51:35.166Z</time></trkpt><trkpt lat="42.0903107" lon="12.4205217"><ele>264.0</ele><time>2026-04-04T09:51:37.166Z</time></trkpt><trkpt lat="42.0902493" lon="12.4205622"><ele>262.0</ele><time>2026-04-04T09:51:39.167Z</time></trkpt><trkpt lat="42.090205" lon="12.4206517"><ele>261.66666666666663</ele><time>2026-04-04T09:51:43.166Z</time></trkpt><trkpt lat="42.0901693" lon="12.4207424"><ele>261.3333333333333</ele><time>2026-04-04T09:51:45.166Z</time></trkpt><trkpt lat="42.0901041" lon="12.420807"><ele>261.0</ele><time>2026-04-04T09:51:47.166Z</time></trkpt><trkpt lat="42.0900394" lon="12.4208609"><ele>260.6666666666667</ele><time>2026-04-04T09:51:49.167Z</time></trkpt><trkpt lat="42.0899452" lon="12.4209402"><ele>260.33333333333337</ele><time>2026-04-04T09:51:51.166Z</time></trkpt><trkpt lat="42.0898843" lon="12.4209816"><ele>260.0</ele><time>2026-04-04T09:51:52.167Z</time></trkpt><trkpt lat="42.0898191" lon="12.4210118"><ele>259.33333333333337</ele><time>2026-04-04T09:51:53.166Z</time></trkpt><trkpt lat="42.0897159" lon="12.4210266"><ele>258.6666666666667</ele><time>2026-04-04T09:51:55.166Z</time></trkpt><trkpt lat="42.0896273" lon="12.4210407"><ele>258.0</ele><time>2026-04-04T09:51:58.166Z</time></trkpt><trkpt lat="42.0895468" lon="12.4210809"><ele>257.3333333333333</ele><time>2026-04-04T09:52:01.166Z</time></trkpt><trkpt lat="42.0894827" lon="12.4210987"><ele>256.66666666666663</ele><time>2026-04-04T09:52:03.166Z</time></trkpt><trkpt lat="42.0893907" lon="12.4211082"><ele>256.0</ele><time>2026-04-04T09:52:06.166Z</time></trkpt><trkpt lat="42.0893195" lon="12.4211376"><ele>255.99999999999997</ele><time>2026-04-04T09:52:08.166Z</time></trkpt><trkpt lat="42.0892503" lon="12.4211568"><ele>256.0</ele><time>2026-04-04T09:52:11.166Z</time></trkpt><trkpt lat="42.0891683" lon="12.421176"><ele>256.0</ele><time>2026-04-04T09:52:14.167Z</time></trkpt><trkpt lat="42.0891057" lon="12.4211896"><ele>256.0</ele><time>2026-04-04T09:52:17.166Z</time></trkpt><trkpt lat="42.089009" lon="12.4212123"><ele>255.99999999999997</ele><time>2026-04-04T09:52:20.166Z</time></trkpt><trkpt lat="42.0889395" lon="12.4212719"><ele>256.0</ele><time>2026-04-04T09:52:22.167Z</time></trkpt><trkpt lat="42.0888493" lon="12.4213419"><ele>255.83333333333331</ele><time>2026-04-04T09:52:24.166Z</time></trkpt><trkpt lat="42.0887689" lon="12.4214025"><ele>255.66666666666666</ele><time>2026-04-04T09:52:26.166Z</time></trkpt><trkpt lat="42.088692" lon="12.4214564"><ele>255.5</ele><time>2026-04-04T09:52:28.167Z</time></trkpt><trkpt lat="42.0886082" lon="12.4215133"><ele>255.33333333333331</ele><time>2026-04-04T09:52:30.166Z</time></trkpt><trkpt lat="42.0885319" lon="12.4215702"><ele>255.16666666666666</ele><time>2026-04-04T09:52:32.166Z</time></trkpt><trkpt lat="42.088459" lon="12.4216389"><ele>255.0</ele><time>2026-04-04T09:52:34.167Z</time></trkpt><trkpt lat="42.0883758" lon="12.4217059"><ele>255.0</ele><time>2026-04-04T09:52:36.167Z</time></trkpt><trkpt lat="42.0882886" lon="12.4217939"><ele>255.0</ele><time>2026-04-04T09:52:38.167Z</time></trkpt><trkpt lat="42.0882045" lon="12.4218927"><ele>255.0</ele><time>2026-04-04T09:52:40.166Z</time></trkpt><trkpt lat="42.0881413" lon="12.4220059"><ele>255.0</ele><time>2026-04-04T09:52:42.166Z</time></trkpt><trkpt lat="42.0880962" lon="12.4220861"><ele>255.0</ele><time>2026-04-04T09:52:44.166Z</time></trkpt><trkpt lat="42.0880309" lon="12.4221634"><ele>254.16666666666666</ele><time>2026-04-04T09:52:47.166Z</time></trkpt><trkpt lat="42.0879873" lon="12.4222301"><ele>253.33333333333331</ele><time>2026-04-04T09:52:49.167Z</time></trkpt><trkpt lat="42.0879367" lon="12.4223178"><ele>252.5</ele><time>2026-04-04T09:52:51.166Z</time></trkpt><trkpt lat="42.0879071" lon="12.4224251"><ele>251.66666666666666</ele><time>2026-04-04T09:52:53.166Z</time></trkpt><trkpt lat="42.0878702" lon="12.4225485"><ele>250.83333333333331</ele><time>2026-04-04T09:52:55.166Z</time></trkpt><trkpt lat="42.087823" lon="12.4226374"><ele>250.0</ele><time>2026-04-04T09:52:57.167Z</time></trkpt><trkpt lat="42.0877759" lon="12.4227078"><ele>250.0</ele><time>2026-04-04T09:53:00.166Z</time></trkpt><trkpt lat="42.0877021" lon="12.4227756"><ele>250.0</ele><time>2026-04-04T09:53:03.166Z</time></trkpt><trkpt lat="42.0876111" lon="12.4228133"><ele>250.0</ele><time>2026-04-04T09:53:05.166Z</time></trkpt><trkpt lat="42.0874971" lon="12.4228579"><ele>250.0</ele><time>2026-04-04T09:53:07.166Z</time></trkpt><trkpt lat="42.0874007" lon="12.4228892"><ele>250.0</ele><time>2026-04-04T09:53:09.166Z</time></trkpt><trkpt lat="42.0873262" lon="12.4229071"><ele>249.16666666666666</ele><time>2026-04-04T09:53:11.166Z</time></trkpt><trkpt lat="42.0872501" lon="12.4229573"><ele>248.33333333333331</ele><time>2026-04-04T09:53:13.167Z</time></trkpt><trkpt lat="42.0871812" lon="12.4230028"><ele>247.5</ele><time>2026-04-04T09:53:15.166Z</time></trkpt><trkpt lat="42.087113" lon="12.4230609"><ele>246.66666666666669</ele><time>2026-04-04T09:53:17.166Z</time></trkpt><trkpt lat="42.0870336" lon="12.4231422"><ele>245.83333333333334</ele><time>2026-04-04T09:53:19.166Z</time></trkpt><trkpt lat="42.0869412" lon="12.4232114"><ele>245.0</ele><time>2026-04-04T09:53:21.166Z</time></trkpt><trkpt lat="42.0868479" lon="12.4232711"><ele>245.00000000000003</ele><time>2026-04-04T09:53:23.167Z</time></trkpt><trkpt lat="42.0867737" lon="12.4233346"><ele>245.0</ele><time>2026-04-04T09:53:25.167Z</time></trkpt><trkpt lat="42.086712" lon="12.423376"><ele>245.0</ele><time>2026-04-04T09:53:27.166Z</time></trkpt><trkpt lat="42.0866517" lon="12.423404"><ele>245.0</ele><time>2026-04-04T09:53:29.166Z</time></trkpt><trkpt lat="42.0865912" lon="12.4234373"><ele>245.00000000000003</ele><time>2026-04-04T09:53:31.167Z</time></trkpt><trkpt lat="42.0865124" lon="12.4234709"><ele>245.0</ele><time>2026-04-04T09:53:33.167Z</time></trkpt><trkpt lat="42.086424" lon="12.4235457"><ele>244.33333333333334</ele><time>2026-04-04T09:53:35.167Z</time></trkpt><trkpt lat="42.0863729" lon="12.4236104"><ele>243.66666666666669</ele><time>2026-04-04T09:53:37.167Z</time></trkpt><trkpt lat="42.08635" lon="12.4237353"><ele>243.0</ele><time>2026-04-04T09:53:40.166Z</time></trkpt><trkpt lat="42.0863439" lon="12.4238283"><ele>242.33333333333331</ele><time>2026-04-04T09:53:42.166Z</time></trkpt><trkpt lat="42.0862959" lon="12.423936"><ele>241.66666666666666</ele><time>2026-04-04T09:53:45.167Z</time></trkpt><trkpt lat="42.0862424" lon="12.4240352"><ele>241.0</ele><time>2026-04-04T09:53:47.167Z</time></trkpt><trkpt lat="42.0861853" lon="12.4241278"><ele>241.0</ele><time>2026-04-04T09:53:49.166Z</time></trkpt><trkpt lat="42.0860943" lon="12.4241788"><ele>241.00000000000003</ele><time>2026-04-04T09:53:51.166Z</time></trkpt><trkpt lat="42.0860114" lon="12.4242384"><ele>241.00000000000003</ele><time>2026-04-04T09:53:53.166Z</time></trkpt><trkpt lat="42.0859189" lon="12.4242489"><ele>241.0</ele><time>2026-04-04T09:53:55.167Z</time></trkpt><trkpt lat="42.0858286" lon="12.4242178"><ele>241.0</ele><time>2026-04-04T09:53:57.167Z</time></trkpt><trkpt lat="42.0857558" lon="12.4241456"><ele>239.83333333333331</ele><time>2026-04-04T09:53:59.167Z</time></trkpt><trkpt lat="42.085686" lon="12.4241295"><ele>238.66666666666666</ele><time>2026-04-04T09:54:01.167Z</time></trkpt><trkpt lat="42.0856161" lon="12.4241815"><ele>237.5</ele><time>2026-04-04T09:54:03.167Z</time></trkpt><trkpt lat="42.0855491" lon="12.4242426"><ele>236.33333333333331</ele><time>2026-04-04T09:54:05.166Z</time></trkpt><trkpt lat="42.0854726" lon="12.4243501"><ele>235.16666666666666</ele><time>2026-04-04T09:54:07.166Z</time></trkpt><trkpt lat="42.0854273" lon="12.4244194"><ele>234.0</ele><time>2026-04-04T09:54:08.166Z</time></trkpt><trkpt lat="42.0853634" lon="12.4245619"><ele>234.0</ele><time>2026-04-04T09:54:10.166Z</time></trkpt><trkpt lat="42.0853263" lon="12.4246328"><ele>234.0</ele><time>2026-04-04T09:54:11.166Z</time></trkpt><trkpt lat="42.0852678" lon="12.4247603"><ele>234.0</ele><time>2026-04-04T09:54:13.166Z</time></trkpt><trkpt lat="42.0852164" lon="12.4248573"><ele>234.0</ele><time>2026-04-04T09:54:15.166Z</time></trkpt><trkpt lat="42.0851638" lon="12.4249524"><ele>234.0</ele><time>2026-04-04T09:54:17.167Z</time></trkpt><trkpt lat="42.0851171" lon="12.4250583"><ele>234.0</ele><time>2026-04-04T09:54:19.167Z</time></trkpt><trkpt lat="42.0850604" lon="12.425147"><ele>234.0</ele><time>2026-04-04T09:54:21.166Z</time></trkpt><trkpt lat="42.0849802" lon="12.4252262"><ele>233.99999999999997</ele><time>2026-04-04T09:54:23.167Z</time></trkpt><trkpt lat="42.0848934" lon="12.425325"><ele>233.99999999999997</ele><time>2026-04-04T09:54:25.166Z</time></trkpt><trkpt lat="42.0848412" lon="12.4253788"><ele>234.0</ele><time>2026-04-04T09:54:26.167Z</time></trkpt><trkpt lat="42.0847347" lon="12.4254557"><ele>234.0</ele><time>2026-04-04T09:54:28.166Z</time></trkpt><trkpt lat="42.0846464" lon="12.4254772"><ele>233.0</ele><time>2026-04-04T09:54:30.166Z</time></trkpt><trkpt lat="42.0845566" lon="12.4254973"><ele>232.0</ele><time>2026-04-04T09:54:33.166Z</time></trkpt><trkpt lat="42.0844854" lon="12.4255283"><ele>231.0</ele><time>2026-04-04T09:54:35.167Z</time></trkpt><trkpt lat="42.0844018" lon="12.4255502"><ele>230.0</ele><time>2026-04-04T09:54:37.166Z</time></trkpt><trkpt lat="42.0843217" lon="12.4255683"><ele>229.0</ele><time>2026-04-04T09:54:39.167Z</time></trkpt><trkpt lat="42.0842528" lon="12.4255793"><ele>228.0</ele><time>2026-04-04T09:54:41.166Z</time></trkpt><trkpt lat="42.0841787" lon="12.4255829"><ele>228.0</ele><time>2026-04-04T09:54:43.167Z</time></trkpt><trkpt lat="42.0841099" lon="12.4256221"><ele>228.0</ele><time>2026-04-04T09:54:45.166Z</time></trkpt><trkpt lat="42.0840435" lon="12.4256568"><ele>228.0</ele><time>2026-04-04T09:54:47.166Z</time></trkpt><trkpt lat="42.0839821" lon="12.4257176"><ele>228.0</ele><time>2026-04-04T09:54:49.166Z</time></trkpt><trkpt lat="42.0838891" lon="12.4257978"><ele>228.0</ele><time>2026-04-04T09:54:51.166Z</time></trkpt><trkpt lat="42.083806" lon="12.4258725"><ele>228.0</ele><time>2026-04-04T09:54:53.167Z</time></trkpt><trkpt lat="42.0837403" lon="12.4259481"><ele>227.83333333333334</ele><time>2026-04-04T09:54:55.166Z</time></trkpt><trkpt lat="42.0836912" lon="12.4260135"><ele>227.66666666666669</ele><time>2026-04-04T09:54:57.166Z</time></trkpt><trkpt lat="42.0836396" lon="12.4261183"><ele>227.5</ele><time>2026-04-04T09:54:59.166Z</time></trkpt><trkpt lat="42.0835968" lon="12.4262387"><ele>227.33333333333334</ele><time>2026-04-04T09:55:01.167Z</time></trkpt><trkpt lat="42.0835657" lon="12.4263235"><ele>227.16666666666669</ele><time>2026-04-04T09:55:03.166Z</time></trkpt><trkpt lat="42.0835053" lon="12.4263672"><ele>227.0</ele><time>2026-04-04T09:55:05.166Z</time></trkpt><trkpt lat="42.0834146" lon="12.426422"><ele>226.0</ele><time>2026-04-04T09:55:07.166Z</time></trkpt><trkpt lat="42.0833288" lon="12.4265084"><ele>225.0</ele><time>2026-04-04T09:55:09.166Z</time></trkpt><trkpt lat="42.0832476" lon="12.4265986"><ele>224.0</ele><time>2026-04-04T09:55:11.166Z</time></trkpt><trkpt lat="42.0832012" lon="12.4266562"><ele>223.0</ele><time>2026-04-04T09:55:12.167Z</time></trkpt><trkpt lat="42.0831266" lon="12.4267539"><ele>222.0</ele><time>2026-04-04T09:55:14.166Z</time></trkpt><trkpt lat="42.0831012" lon="12.4268683"><ele>221.2</ele><time>2026-04-04T09:55:17.166Z</time></trkpt><trkpt lat="42.0830849" lon="12.4269864"><ele>220.39999999999998</ele><time>2026-04-04T09:55:19.167Z</time></trkpt><trkpt lat="42.0830848" lon="12.4271316"><ele>219.60000000000002</ele><time>2026-04-04T09:55:21.167Z</time></trkpt><trkpt lat="42.0831024" lon="12.427259"><ele>218.8</ele><time>2026-04-04T09:55:23.166Z</time></trkpt><trkpt lat="42.0831163" lon="12.4273893"><ele>218.0</ele><time>2026-04-04T09:55:25.167Z</time></trkpt><trkpt lat="42.0831203" lon="12.4274949"><ele>217.85714285714286</ele><time>2026-04-04T09:55:27.167Z</time></trkpt><trkpt lat="42.0831225" lon="12.4275862"><ele>217.71428571428572</ele><time>2026-04-04T09:55:29.166Z</time></trkpt><trkpt lat="42.0831151" lon="12.4276861"><ele>217.57142857142856</ele><time>2026-04-04T09:55:31.167Z</time></trkpt><trkpt lat="42.0830807" lon="12.4277755"><ele>217.42857142857144</ele><time>2026-04-04T09:55:34.167Z</time></trkpt><trkpt lat="42.0830152" lon="12.4278392"><ele>217.28571428571428</ele><time>2026-04-04T09:55:38.166Z</time></trkpt><trkpt lat="42.082965" lon="12.4279065"><ele>217.14285714285714</ele><time>2026-04-04T09:55:40.166Z</time></trkpt><trkpt lat="42.0829233" lon="12.4279742"><ele>217.0</ele><time>2026-04-04T09:55:42.167Z</time></trkpt><trkpt lat="42.0828726" lon="12.4280364"><ele>217.33333333333331</ele><time>2026-04-04T09:55:44.166Z</time></trkpt><trkpt lat="42.0828148" lon="12.4280935"><ele>217.66666666666666</ele><time>2026-04-04T09:55:46.166Z</time></trkpt><trkpt lat="42.0827593" lon="12.4281472"><ele>218.0</ele><time>2026-04-04T09:55:48.166Z</time></trkpt><trkpt lat="42.0827016" lon="12.428234"><ele>218.33333333333331</ele><time>2026-04-04T09:55:51.167Z</time></trkpt><trkpt lat="42.0826382" lon="12.42832"><ele>218.66666666666666</ele><time>2026-04-04T09:55:54.166Z</time></trkpt><trkpt lat="42.0825853" lon="12.4283977"><ele>219.0</ele><time>2026-04-04T09:55:56.166Z</time></trkpt><trkpt lat="42.0825433" lon="12.4284972"><ele>219.0</ele><time>2026-04-04T09:55:58.166Z</time></trkpt><trkpt lat="42.0824936" lon="12.4286137"><ele>218.99999999999997</ele><time>2026-04-04T09:56:00.166Z</time></trkpt><trkpt lat="42.0824338" lon="12.4287285"><ele>218.99999999999997</ele><time>2026-04-04T09:56:02.166Z</time></trkpt><trkpt lat="42.0823803" lon="12.4288645"><ele>219.0</ele><time>2026-04-04T09:56:04.166Z</time></trkpt><trkpt lat="42.0823443" lon="12.4289412"><ele>219.0</ele><time>2026-04-04T09:56:05.167Z</time></trkpt><trkpt lat="42.0823168" lon="12.4290227"><ele>218.16666666666666</ele><time>2026-04-04T09:56:06.166Z</time></trkpt><trkpt lat="42.0823017" lon="12.4291099"><ele>217.33333333333331</ele><time>2026-04-04T09:56:07.166Z</time></trkpt><trkpt lat="42.0822908" lon="12.4292244"><ele>216.5</ele><time>2026-04-04T09:56:09.166Z</time></trkpt><trkpt lat="42.0822425" lon="12.4292858"><ele>215.66666666666666</ele><time>2026-04-04T09:56:11.166Z</time></trkpt><trkpt lat="42.0821559" lon="12.4293895"><ele>214.83333333333331</ele><time>2026-04-04T09:56:13.166Z</time></trkpt><trkpt lat="42.0820849" lon="12.4295051"><ele>214.0</ele><time>2026-04-04T09:56:15.167Z</time></trkpt><trkpt lat="42.0820655" lon="12.4296477"><ele>212.2</ele><time>2026-04-04T09:56:17.166Z</time></trkpt><trkpt lat="42.0820907" lon="12.4297985"><ele>210.39999999999998</ele><time>2026-04-04T09:56:19.166Z</time></trkpt><trkpt lat="42.0821389" lon="12.4299224"><ele>208.6</ele><time>2026-04-04T09:56:21.166Z</time></trkpt><trkpt lat="42.0821615" lon="12.4300678"><ele>206.8</ele><time>2026-04-04T09:56:23.166Z</time></trkpt><trkpt lat="42.0821715" lon="12.4301612"><ele>205.0</ele><time>2026-04-04T09:56:24.166Z</time></trkpt><trkpt lat="42.0821859" lon="12.4302559"><ele>205.0</ele><time>2026-04-04T09:56:25.167Z</time></trkpt><trkpt lat="42.0822137" lon="12.4303836"><ele>205.0</ele><time>2026-04-04T09:56:27.167Z</time></trkpt><trkpt lat="42.0823022" lon="12.4304528"><ele>205.0</ele><time>2026-04-04T09:56:29.167Z</time></trkpt><trkpt lat="42.0823628" lon="12.4305316"><ele>205.0</ele><time>2026-04-04T09:56:31.167Z</time></trkpt><trkpt lat="42.0823228" lon="12.4306683"><ele>205.0</ele><time>2026-04-04T09:56:34.167Z</time></trkpt><trkpt lat="42.0822542" lon="12.4307637"><ele>203.2857142857143</ele><time>2026-04-04T09:56:36.167Z</time></trkpt><trkpt lat="42.0822033" lon="12.4308219"><ele>201.57142857142856</ele><time>2026-04-04T09:56:38.167Z</time></trkpt><trkpt lat="42.0822067" lon="12.4309069"><ele>199.85714285714286</ele><time>2026-04-04T09:56:41.167Z</time></trkpt><trkpt lat="42.082177" lon="12.4310046"><ele>198.14285714285717</ele><time>2026-04-04T09:56:44.166Z</time></trkpt><trkpt lat="42.0821007" lon="12.4310201"><ele>196.42857142857144</ele><time>2026-04-04T09:56:46.167Z</time></trkpt><trkpt lat="42.0820281" lon="12.4309821"><ele>194.71428571428572</ele><time>2026-04-04T09:56:48.166Z</time></trkpt><trkpt lat="42.0819611" lon="12.4309122"><ele>193.0</ele><time>2026-04-04T09:56:51.166Z</time></trkpt><trkpt lat="42.0818638" lon="12.4308792"><ele>192.99999999999997</ele><time>2026-04-04T09:56:53.166Z</time></trkpt><trkpt lat="42.0817984" lon="12.4308735"><ele>193.0</ele><time>2026-04-04T09:56:54.166Z</time></trkpt><trkpt lat="42.0817005" lon="12.430886"><ele>193.0</ele><time>2026-04-04T09:56:56.166Z</time></trkpt><trkpt lat="42.0816035" lon="12.4309099"><ele>193.0</ele><time>2026-04-04T09:56:58.166Z</time></trkpt><trkpt lat="42.0815043" lon="12.4309183"><ele>192.99999999999997</ele><time>2026-04-04T09:57:00.167Z</time></trkpt><trkpt lat="42.0814392" lon="12.4309285"><ele>193.0</ele><time>2026-04-04T09:57:02.167Z</time></trkpt><trkpt lat="42.0813609" lon="12.4308958"><ele>193.33333333333331</ele><time>2026-04-04T09:57:05.166Z</time></trkpt><trkpt lat="42.081287" lon="12.4308727"><ele>193.66666666666666</ele><time>2026-04-04T09:57:09.166Z</time></trkpt><trkpt lat="42.0812324" lon="12.4308134"><ele>194.0</ele><time>2026-04-04T09:57:12.166Z</time></trkpt><trkpt lat="42.0812098" lon="12.4307121"><ele>194.33333333333331</ele><time>2026-04-04T09:57:16.166Z</time></trkpt><trkpt lat="42.0811011" lon="12.4307252"><ele>194.66666666666666</ele><time>2026-04-04T09:57:20.166Z</time></trkpt><trkpt lat="42.0810129" lon="12.4308088"><ele>195.0</ele><time>2026-04-04T09:57:22.166Z</time></trkpt><trkpt lat="42.0809729" lon="12.4309307"><ele>195.0</ele><time>2026-04-04T09:57:24.167Z</time></trkpt><trkpt lat="42.0809551" lon="12.4310344"><ele>195.0</ele><time>2026-04-04T09:57:26.166Z</time></trkpt><trkpt lat="42.0809387" lon="12.4311585"><ele>195.0</ele><time>2026-04-04T09:57:28.167Z</time></trkpt><trkpt lat="42.0809689" lon="12.4313156"><ele>195.0</ele><time>2026-04-04T09:57:30.166Z</time></trkpt><trkpt lat="42.0810253" lon="12.4314337"><ele>195.0</ele><time>2026-04-04T09:57:32.166Z</time></trkpt><trkpt lat="42.0810821" lon="12.4314833"><ele>195.0</ele><time>2026-04-04T09:57:34.166Z</time></trkpt><trkpt lat="42.0811649" lon="12.4315203"><ele>195.0</ele><time>2026-04-04T09:57:37.166Z</time></trkpt><trkpt lat="42.0812456" lon="12.4314975"><ele>195.0</ele><time>2026-04-04T09:57:41.166Z</time></trkpt><trkpt lat="42.0813237" lon="12.4314015"><ele>195.0</ele><time>2026-04-04T09:57:44.167Z</time></trkpt><trkpt lat="42.0813894" lon="12.4313209"><ele>195.0</ele><time>2026-04-04T09:57:46.167Z</time></trkpt><trkpt lat="42.0814564" lon="12.4312469"><ele>195.0</ele><time>2026-04-04T09:57:48.166Z</time></trkpt><trkpt lat="42.0815413" lon="12.4312036"><ele>195.0</ele><time>2026-04-04T09:57:50.167Z</time></trkpt><trkpt lat="42.0816324" lon="12.4312057"><ele>195.0</ele><time>2026-04-04T09:57:52.166Z</time></trkpt><trkpt lat="42.0816995" lon="12.4312591"><ele>195.0</ele><time>2026-04-04T09:57:54.167Z</time></trkpt><trkpt lat="42.0817646" lon="12.4313666"><ele>195.0</ele><time>2026-04-04T09:57:56.166Z</time></trkpt><trkpt lat="42.0817999" lon="12.43151"><ele>193.0</ele><time>2026-04-04T09:57:58.166Z</time></trkpt><trkpt lat="42.0818594" lon="12.431627"><ele>191.0</ele><time>2026-04-04T09:58:00.166Z</time></trkpt><trkpt lat="42.0819114" lon="12.431679"><ele>189.0</ele><time>2026-04-04T09:58:01.167Z</time></trkpt><trkpt lat="42.0819624" lon="12.4317311"><ele>187.0</ele><time>2026-04-04T09:58:02.167Z</time></trkpt><trkpt lat="42.082021" lon="12.4317765"><ele>185.0</ele><time>2026-04-04T09:58:03.167Z</time></trkpt><trkpt lat="42.0821446" lon="12.4318193"><ele>183.0</ele><time>2026-04-04T09:58:05.166Z</time></trkpt><trkpt lat="42.0822107" lon="12.4318327"><ele>183.0</ele><time>2026-04-04T09:58:06.166Z</time></trkpt><trkpt lat="42.0822808" lon="12.4318406"><ele>183.0</ele><time>2026-04-04T09:58:07.167Z</time></trkpt><trkpt lat="42.0823504" lon="12.4318497"><ele>183.0</ele><time>2026-04-04T09:58:08.167Z</time></trkpt><trkpt lat="42.082418" lon="12.4318509"><ele>183.0</ele><time>2026-04-04T09:58:09.166Z</time></trkpt><trkpt lat="42.0825222" lon="12.4317996"><ele>183.0</ele><time>2026-04-04T09:58:11.167Z</time></trkpt><trkpt lat="42.0826116" lon="12.4317317"><ele>183.0</ele><time>2026-04-04T09:58:13.166Z</time></trkpt><trkpt lat="42.0826951" lon="12.4316506"><ele>182.0</ele><time>2026-04-04T09:58:15.166Z</time></trkpt><trkpt lat="42.0827811" lon="12.4315629"><ele>181.0</ele><time>2026-04-04T09:58:17.166Z</time></trkpt><trkpt lat="42.08284" lon="12.4314938"><ele>180.0</ele><time>2026-04-04T09:58:19.166Z</time></trkpt><trkpt lat="42.0828732" lon="12.4314029"><ele>179.0</ele><time>2026-04-04T09:58:22.167Z</time></trkpt><trkpt lat="42.0829161" lon="12.4313177"><ele>178.0</ele><time>2026-04-04T09:58:25.167Z</time></trkpt><trkpt lat="42.0829653" lon="12.4312502"><ele>177.0</ele><time>2026-04-04T09:58:28.166Z</time></trkpt><trkpt lat="42.08301" lon="12.4311773"><ele>177.83333333333334</ele><time>2026-04-04T09:58:31.166Z</time></trkpt><trkpt lat="42.0830723" lon="12.4310925"><ele>178.66666666666666</ele><time>2026-04-04T09:58:34.166Z</time></trkpt><trkpt lat="42.0831208" lon="12.4310298"><ele>179.5</ele><time>2026-04-04T09:58:36.167Z</time></trkpt><trkpt lat="42.0831852" lon="12.4309511"><ele>180.33333333333331</ele><time>2026-04-04T09:58:39.166Z</time></trkpt><trkpt lat="42.0832541" lon="12.4309018"><ele>181.16666666666666</ele><time>2026-04-04T09:58:42.166Z</time></trkpt><trkpt lat="42.0833212" lon="12.4308518"><ele>182.0</ele><time>2026-04-04T09:58:44.166Z</time></trkpt><trkpt lat="42.0833828" lon="12.4307919"><ele>182.0</ele><time>2026-04-04T09:58:46.166Z</time></trkpt><trkpt lat="42.08343" lon="12.43072"><ele>182.0</ele><time>2026-04-04T09:58:48.166Z</time></trkpt><trkpt lat="42.0834916" lon="12.4306757"><ele>182.0</ele><time>2026-04-04T09:58:50.166Z</time></trkpt><trkpt lat="42.0835621" lon="12.4306338"><ele>182.0</ele><time>2026-04-04T09:58:52.167Z</time></trkpt><trkpt lat="42.0836549" lon="12.4305831"><ele>182.0</ele><time>2026-04-04T09:58:54.167Z</time></trkpt><trkpt lat="42.0837144" lon="12.4305491"><ele>182.0</ele><time>2026-04-04T09:58:55.166Z</time></trkpt><trkpt lat="42.083814" lon="12.4304818"><ele>182.5</ele><time>2026-04-04T09:58:57.166Z</time></trkpt><trkpt lat="42.0838947" lon="12.4304321"><ele>183.0</ele><time>2026-04-04T09:58:59.166Z</time></trkpt><trkpt lat="42.0839786" lon="12.4303885"><ele>183.5</ele><time>2026-04-04T09:59:02.166Z</time></trkpt><trkpt lat="42.0840423" lon="12.4303751"><ele>184.0</ele><time>2026-04-04T09:59:04.166Z</time></trkpt><trkpt lat="42.0841242" lon="12.430374"><ele>184.5</ele><time>2026-04-04T09:59:07.167Z</time></trkpt><trkpt lat="42.0842011" lon="12.4303369"><ele>185.0</ele><time>2026-04-04T09:59:11.166Z</time></trkpt><trkpt lat="42.0842564" lon="12.430276"><ele>184.99999999999997</ele><time>2026-04-04T09:59:15.166Z</time></trkpt><trkpt lat="42.084279" lon="12.4301746"><ele>185.0</ele><time>2026-04-04T09:59:19.166Z</time></trkpt><trkpt lat="42.084301" lon="12.4300921"><ele>185.0</ele><time>2026-04-04T09:59:22.166Z</time></trkpt><trkpt lat="42.0843506" lon="12.4300082"><ele>185.0</ele><time>2026-04-04T09:59:27.167Z</time></trkpt><trkpt lat="42.0843922" lon="12.4299385"><ele>185.0</ele><time>2026-04-04T09:59:30.166Z</time></trkpt><trkpt lat="42.0844003" lon="12.4298543"><ele>184.99999999999997</ele><time>2026-04-04T09:59:34.166Z</time></trkpt><trkpt lat="42.084418" lon="12.4297382"><ele>185.0</ele><time>2026-04-04T09:59:40.166Z</time></trkpt><trkpt lat="42.0844326" lon="12.4296143"><ele>186.16666666666666</ele><time>2026-04-04T09:59:42.167Z</time></trkpt><trkpt lat="42.084432" lon="12.4294982"><ele>187.33333333333331</ele><time>2026-04-04T09:59:45.166Z</time></trkpt><trkpt lat="42.0844137" lon="12.4294037"><ele>188.5</ele><time>2026-04-04T09:59:48.167Z</time></trkpt><trkpt lat="42.0843814" lon="12.4293109"><ele>189.66666666666666</ele><time>2026-04-04T09:59:51.167Z</time></trkpt><trkpt lat="42.084353" lon="12.4292036"><ele>190.83333333333334</ele><time>2026-04-04T09:59:53.166Z</time></trkpt><trkpt lat="42.0843316" lon="12.4291184"><ele>192.0</ele><time>2026-04-04T09:59:55.167Z</time></trkpt><trkpt lat="42.0843483" lon="12.4290212"><ele>192.0</ele><time>2026-04-04T10:00:00.166Z</time></trkpt><trkpt lat="42.0843488" lon="12.4289181"><ele>192.0</ele><time>2026-04-04T10:00:03.166Z</time></trkpt><trkpt lat="42.0843335" lon="12.4288109"><ele>192.0</ele><time>2026-04-04T10:00:06.167Z</time></trkpt><trkpt lat="42.0843217" lon="12.4287141"><ele>192.0</ele><time>2026-04-04T10:00:09.166Z</time></trkpt><trkpt lat="42.0843247" lon="12.4286189"><ele>192.0</ele><time>2026-04-04T10:00:12.166Z</time></trkpt><trkpt lat="42.0843419" lon="12.4285212"><ele>192.0</ele><time>2026-04-04T10:00:15.166Z</time></trkpt><trkpt lat="42.0843495" lon="12.4284217"><ele>192.85714285714283</ele><time>2026-04-04T10:00:18.166Z</time></trkpt><trkpt lat="42.0843651" lon="12.4283227"><ele>193.71428571428572</ele><time>2026-04-04T10:00:21.166Z</time></trkpt><trkpt lat="42.0843669" lon="12.4282305"><ele>194.57142857142856</ele><time>2026-04-04T10:00:23.166Z</time></trkpt><trkpt lat="42.0843782" lon="12.4281459"><ele>195.42857142857142</ele><time>2026-04-04T10:00:25.167Z</time></trkpt><trkpt lat="42.0843853" lon="12.4280371"><ele>196.28571428571428</ele><time>2026-04-04T10:00:28.166Z</time></trkpt><trkpt lat="42.0843925" lon="12.4279114"><ele>197.14285714285714</ele><time>2026-04-04T10:00:31.167Z</time></trkpt><trkpt lat="42.0843951" lon="12.4278234"><ele>198.0</ele><time>2026-04-04T10:00:33.166Z</time></trkpt><trkpt lat="42.0844004" lon="12.4277358"><ele>198.66666666666666</ele><time>2026-04-04T10:00:36.166Z</time></trkpt><trkpt lat="42.0844038" lon="12.427637"><ele>199.33333333333331</ele><time>2026-04-04T10:00:39.166Z</time></trkpt><trkpt lat="42.0844158" lon="12.4275302"><ele>200.0</ele><time>2026-04-04T10:00:43.167Z</time></trkpt><trkpt lat="42.084458" lon="12.4274314"><ele>200.66666666666666</ele><time>2026-04-04T10:00:47.167Z</time></trkpt><trkpt lat="42.0845268" lon="12.4273823"><ele>201.33333333333331</ele><time>2026-04-04T10:00:50.167Z</time></trkpt><trkpt lat="42.0845728" lon="12.4273083"><ele>202.0</ele><time>2026-04-04T10:00:54.167Z</time></trkpt><trkpt lat="42.0846233" lon="12.4272382"><ele>201.99999999999997</ele><time>2026-04-04T10:00:58.167Z</time></trkpt><trkpt lat="42.0846958" lon="12.4271818"><ele>202.0</ele><time>2026-04-04T10:01:01.166Z</time></trkpt><trkpt lat="42.0847715" lon="12.4271223"><ele>202.0</ele><time>2026-04-04T10:01:04.167Z</time></trkpt><trkpt lat="42.0848635" lon="12.4270782"><ele>202.0</ele><time>2026-04-04T10:01:07.167Z</time></trkpt><trkpt lat="42.0849187" lon="12.4270157"><ele>201.99999999999997</ele><time>2026-04-04T10:01:09.166Z</time></trkpt><trkpt lat="42.0849659" lon="12.4269525"><ele>202.0</ele><time>2026-04-04T10:01:11.166Z</time></trkpt><trkpt lat="42.0850193" lon="12.426881"><ele>202.8</ele><time>2026-04-04T10:01:14.166Z</time></trkpt><trkpt lat="42.0850682" lon="12.4268215"><ele>203.6</ele><time>2026-04-04T10:01:18.166Z</time></trkpt><trkpt lat="42.0851345" lon="12.4267713"><ele>204.4</ele><time>2026-04-04T10:01:22.167Z</time></trkpt><trkpt lat="42.0852012" lon="12.4267377"><ele>205.20000000000002</ele><time>2026-04-04T10:01:25.166Z</time></trkpt><trkpt lat="42.085335" lon="12.4266317"><ele>206.0</ele><time>2026-04-04T10:01:34.166Z</time></trkpt><trkpt lat="42.08543" lon="12.42658"><ele>205.99999999999997</ele><time>2026-04-04T10:01:37.166Z</time></trkpt><trkpt lat="42.0855017" lon="12.4265517"><ele>206.0</ele><time>2026-04-04T10:01:40.167Z</time></trkpt><trkpt lat="42.085565" lon="12.426525"><ele>206.0</ele><time>2026-04-04T10:01:43.167Z</time></trkpt><trkpt lat="42.0856183" lon="12.4264583"><ele>206.0</ele><time>2026-04-04T10:01:47.166Z</time></trkpt><trkpt lat="42.08568" lon="12.4264167"><ele>206.0</ele><time>2026-04-04T10:01:50.167Z</time></trkpt><trkpt lat="42.0857317" lon="12.42635"><ele>205.99999999999997</ele><time>2026-04-04T10:01:55.166Z</time></trkpt><trkpt lat="42.08581" lon="12.4262883"><ele>206.0</ele><time>2026-04-04T10:02:00.166Z</time></trkpt><trkpt lat="42.085865" lon="12.4262317"><ele>208.00000000000003</ele><time>2026-04-04T10:02:03.167Z</time></trkpt><trkpt lat="42.0859083" lon="12.4261617"><ele>210.0</ele><time>2026-04-04T10:02:06.166Z</time></trkpt><trkpt lat="42.0859633" lon="12.4260983"><ele>212.0</ele><time>2026-04-04T10:02:09.166Z</time></trkpt><trkpt lat="42.086015" lon="12.426015"><ele>214.0</ele><time>2026-04-04T10:02:13.166Z</time></trkpt><trkpt lat="42.0860667" lon="12.425965"><ele>216.00000000000003</ele><time>2026-04-04T10:02:16.167Z</time></trkpt><trkpt lat="42.0861483" lon="12.4258967"><ele>218.0</ele><time>2026-04-04T10:02:20.167Z</time></trkpt><trkpt lat="42.086195" lon="12.4258217"><ele>218.00000000000003</ele><time>2026-04-04T10:02:24.166Z</time></trkpt><trkpt lat="42.0862267" lon="12.4257483"><ele>218.0</ele><time>2026-04-04T10:02:26.167Z</time></trkpt><trkpt lat="42.086315" lon="12.4256983"><ele>218.0</ele><time>2026-04-04T10:02:31.166Z</time></trkpt><trkpt lat="42.0864033" lon="12.425605"><ele>218.0</ele><time>2026-04-04T10:02:35.167Z</time></trkpt><trkpt lat="42.0864467" lon="12.4255183"><ele>218.00000000000003</ele><time>2026-04-04T10:02:37.167Z</time></trkpt><trkpt lat="42.086505" lon="12.4254717"><ele>218.0</ele><time>2026-04-04T10:02:39.166Z</time></trkpt><trkpt lat="42.08656" lon="12.4254083"><ele>218.8</ele><time>2026-04-04T10:02:42.167Z</time></trkpt><trkpt lat="42.0866317" lon="12.42537"><ele>219.60000000000002</ele><time>2026-04-04T10:02:45.166Z</time></trkpt><trkpt lat="42.0866833" lon="12.4253"><ele>220.39999999999998</ele><time>2026-04-04T10:02:50.167Z</time></trkpt><trkpt lat="42.0867667" lon="12.4252733"><ele>221.2</ele><time>2026-04-04T10:02:55.167Z</time></trkpt><trkpt lat="42.0868217" lon="12.42522"><ele>222.0</ele><time>2026-04-04T10:02:57.166Z</time></trkpt><trkpt lat="42.0869633" lon="12.4251017"><ele>222.0</ele><time>2026-04-04T10:03:11.167Z</time></trkpt><trkpt lat="42.08708" lon="12.425"><ele>222.0</ele><time>2026-04-04T10:03:19.167Z</time></trkpt><trkpt lat="42.08714" lon="12.4248617"><ele>222.0</ele><time>2026-04-04T10:03:24.166Z</time></trkpt><trkpt lat="42.0872383" lon="12.424635"><ele>222.66666666666666</ele><time>2026-04-04T10:03:33.166Z</time></trkpt><trkpt lat="42.0872717" lon="12.42456"><ele>223.33333333333331</ele><time>2026-04-04T10:03:36.166Z</time></trkpt><trkpt lat="42.087335" lon="12.4245183"><ele>224.0</ele><time>2026-04-04T10:03:40.167Z</time></trkpt><trkpt lat="42.0873983" lon="12.4244767"><ele>224.66666666666666</ele><time>2026-04-04T10:03:42.166Z</time></trkpt><trkpt lat="42.0874883" lon="12.4243917"><ele>225.33333333333331</ele><time>2026-04-04T10:03:47.166Z</time></trkpt><trkpt lat="42.0875533" lon="12.4242917"><ele>226.0</ele><time>2026-04-04T10:03:50.166Z</time></trkpt><trkpt lat="42.0876083" lon="12.424215"><ele>225.99999999999997</ele><time>2026-04-04T10:03:54.166Z</time></trkpt><trkpt lat="42.0876567" lon="12.42415"><ele>226.0</ele><time>2026-04-04T10:03:57.167Z</time></trkpt><trkpt lat="42.0877217" lon="12.4241033"><ele>226.0</ele><time>2026-04-04T10:04:02.166Z</time></trkpt><trkpt lat="42.0878117" lon="12.4240167"><ele>226.0</ele><time>2026-04-04T10:04:09.167Z</time></trkpt><trkpt lat="42.0878383" lon="12.4239383"><ele>225.99999999999997</ele><time>2026-04-04T10:04:11.166Z</time></trkpt><trkpt lat="42.087885" lon="12.4238733"><ele>226.0</ele><time>2026-04-04T10:04:14.166Z</time></trkpt><trkpt lat="42.0879467" lon="12.4237967"><ele>226.99999999999997</ele><time>2026-04-04T10:04:18.166Z</time></trkpt><trkpt lat="42.08801" lon="12.4237483"><ele>228.0</ele><time>2026-04-04T10:04:21.166Z</time></trkpt><trkpt lat="42.0880783" lon="12.4237267"><ele>229.0</ele><time>2026-04-04T10:04:24.167Z</time></trkpt><trkpt lat="42.0881317" lon="12.4236683"><ele>230.0</ele><time>2026-04-04T10:04:28.167Z</time></trkpt><trkpt lat="42.0882083" lon="12.423615"><ele>230.99999999999997</ele><time>2026-04-04T10:04:31.166Z</time></trkpt><trkpt lat="42.0882817" lon="12.4236067"><ele>232.0</ele><time>2026-04-04T10:04:36.167Z</time></trkpt><trkpt lat="42.0883633" lon="12.4236067"><ele>231.99999999999997</ele><time>2026-04-04T10:04:40.166Z</time></trkpt><trkpt lat="42.0884517" lon="12.4236033"><ele>232.0</ele><time>2026-04-04T10:04:43.166Z</time></trkpt><trkpt lat="42.0885167" lon="12.4235883"><ele>232.0</ele><time>2026-04-04T10:04:45.167Z</time></trkpt><trkpt lat="42.0885767" lon="12.423555"><ele>232.0</ele><time>2026-04-04T10:04:49.167Z</time></trkpt><trkpt lat="42.0887067" lon="12.423545"><ele>231.99999999999997</ele><time>2026-04-04T10:04:58.167Z</time></trkpt><trkpt lat="42.0887833" lon="12.4235433"><ele>232.0</ele><time>2026-04-04T10:05:01.166Z</time></trkpt><trkpt lat="42.08885" lon="12.4235567"><ele>231.99999999999997</ele><time>2026-04-04T10:05:06.166Z</time></trkpt><trkpt lat="42.0889117" lon="12.423535"><ele>232.0</ele><time>2026-04-04T10:05:11.167Z</time></trkpt><trkpt lat="42.0889833" lon="12.4235033"><ele>232.0</ele><time>2026-04-04T10:05:14.166Z</time></trkpt><trkpt lat="42.0890383" lon="12.42346"><ele>232.0</ele><time>2026-04-04T10:05:17.166Z</time></trkpt><trkpt lat="42.089095" lon="12.4233983"><ele>231.99999999999997</ele><time>2026-04-04T10:05:21.166Z</time></trkpt><trkpt lat="42.0892" lon="12.423255"><ele>232.0</ele><time>2026-04-04T10:06:05.167Z</time></trkpt><trkpt lat="42.0892633" lon="12.4231867"><ele>232.99999999999997</ele><time>2026-04-04T10:06:09.167Z</time></trkpt><trkpt lat="42.08931" lon="12.423085"><ele>234.0</ele><time>2026-04-04T10:06:12.166Z</time></trkpt><trkpt lat="42.0893717" lon="12.42302"><ele>235.0</ele><time>2026-04-04T10:06:15.167Z</time></trkpt><trkpt lat="42.08943" lon="12.4229417"><ele>236.0</ele><time>2026-04-04T10:06:17.166Z</time></trkpt><trkpt lat="42.0894867" lon="12.4228483"><ele>236.99999999999997</ele><time>2026-04-04T10:06:19.166Z</time></trkpt><trkpt lat="42.089515" lon="12.4227633"><ele>238.0</ele><time>2026-04-04T10:06:22.167Z</time></trkpt><trkpt lat="42.0895883" lon="12.422665"><ele>237.99999999999997</ele><time>2026-04-04T10:06:28.166Z</time></trkpt><trkpt lat="42.0896333" lon="12.4225867"><ele>238.0</ele><time>2026-04-04T10:06:31.166Z</time></trkpt><trkpt lat="42.089695" lon="12.4225617"><ele>238.0</ele><time>2026-04-04T10:06:35.167Z</time></trkpt><trkpt lat="42.08976" lon="12.42254"><ele>238.0</ele><time>2026-04-04T10:06:41.166Z</time></trkpt><trkpt lat="42.0898517" lon="12.4225133"><ele>237.99999999999997</ele><time>2026-04-04T10:06:46.166Z</time></trkpt><trkpt lat="42.089925" lon="12.4224783"><ele>238.0</ele><time>2026-04-04T10:06:49.167Z</time></trkpt><trkpt lat="42.09001" lon="12.4224483"><ele>240.4</ele><time>2026-04-04T10:06:54.167Z</time></trkpt><trkpt lat="42.09025" lon="12.4224667"><ele>242.8</ele><time>2026-04-04T10:07:09.167Z</time></trkpt><trkpt lat="42.0903117" lon="12.4225033"><ele>245.2</ele><time>2026-04-04T10:07:11.167Z</time></trkpt><trkpt lat="42.0903683" lon="12.4225467"><ele>247.6</ele><time>2026-04-04T10:07:13.167Z</time></trkpt><trkpt lat="42.0904433" lon="12.42256"><ele>250.0</ele><time>2026-04-04T10:07:16.167Z</time></trkpt><trkpt lat="42.0905067" lon="12.422575"><ele>250.0</ele><time>2026-04-04T10:07:19.167Z</time></trkpt><trkpt lat="42.0905817" lon="12.422595"><ele>250.0</ele><time>2026-04-04T10:07:22.166Z</time></trkpt><trkpt lat="42.0907233" lon="12.422645"><ele>250.0</ele><time>2026-04-04T10:07:32.166Z</time></trkpt><trkpt lat="42.0908533" lon="12.4225767"><ele>250.0</ele><time>2026-04-04T10:07:41.167Z</time></trkpt><trkpt lat="42.0909033" lon="12.4225167"><ele>250.0</ele><time>2026-04-04T10:07:43.166Z</time></trkpt><trkpt lat="42.0909567" lon="12.4224283"><ele>250.42857142857142</ele><time>2026-04-04T10:07:45.166Z</time></trkpt><trkpt lat="42.09098" lon="12.4223367"><ele>250.8571428571429</ele><time>2026-04-04T10:07:47.166Z</time></trkpt><trkpt lat="42.0909817" lon="12.4222317"><ele>251.2857142857143</ele><time>2026-04-04T10:07:50.167Z</time></trkpt><trkpt lat="42.0909983" lon="12.4221167"><ele>251.71428571428572</ele><time>2026-04-04T10:07:53.167Z</time></trkpt><trkpt lat="42.09101" lon="12.4220167"><ele>252.14285714285717</ele><time>2026-04-04T10:07:57.166Z</time></trkpt><trkpt lat="42.0910133" lon="12.421925"><ele>252.5714285714286</ele><time>2026-04-04T10:08:01.167Z</time></trkpt><trkpt lat="42.0910117" lon="12.421835"><ele>253.00000000000003</ele><time>2026-04-04T10:08:03.166Z</time></trkpt><trkpt lat="42.091005" lon="12.4217217"><ele>252.99999999999997</ele><time>2026-04-04T10:08:05.166Z</time></trkpt><trkpt lat="42.09102" lon="12.4215967"><ele>253.0</ele><time>2026-04-04T10:08:07.166Z</time></trkpt><trkpt lat="42.0910533" lon="12.4214683"><ele>253.0</ele><time>2026-04-04T10:08:09.167Z</time></trkpt><trkpt lat="42.0910783" lon="12.4213833"><ele>253.0</ele><time>2026-04-04T10:08:10.167Z</time></trkpt><trkpt lat="42.0911183" lon="12.4212817"><ele>252.99999999999997</ele><time>2026-04-04T10:08:12.166Z</time></trkpt><trkpt lat="42.0911717" lon="12.421215"><ele>253.0</ele><time>2026-04-04T10:08:14.166Z</time></trkpt><trkpt lat="42.0912683" lon="12.4211233"><ele>253.66666666666666</ele><time>2026-04-04T10:08:22.166Z</time></trkpt><trkpt lat="42.0913283" lon="12.421095"><ele>254.33333333333331</ele><time>2026-04-04T10:08:25.167Z</time></trkpt><trkpt lat="42.0913983" lon="12.421055"><ele>255.0</ele><time>2026-04-04T10:08:28.167Z</time></trkpt><trkpt lat="42.0914733" lon="12.4210167"><ele>255.66666666666669</ele><time>2026-04-04T10:08:31.166Z</time></trkpt><trkpt lat="42.0915583" lon="12.4209417"><ele>256.33333333333337</ele><time>2026-04-04T10:08:33.166Z</time></trkpt><trkpt lat="42.09163" lon="12.4208667"><ele>257.0</ele><time>2026-04-04T10:08:35.166Z</time></trkpt><trkpt lat="42.0916767" lon="12.4207367"><ele>258.0</ele><time>2026-04-04T10:08:37.166Z</time></trkpt><trkpt lat="42.0916833" lon="12.4206367"><ele>259.0</ele><time>2026-04-04T10:08:39.167Z</time></trkpt><trkpt lat="42.0916517" lon="12.4205183"><ele>260.0</ele><time>2026-04-04T10:08:42.167Z</time></trkpt><trkpt lat="42.0916833" lon="12.4204117"><ele>261.0</ele><time>2026-04-04T10:08:51.166Z</time></trkpt><trkpt lat="42.09174" lon="12.4203533"><ele>262.0</ele><time>2026-04-04T10:08:55.166Z</time></trkpt><trkpt lat="42.0917933" lon="12.4203"><ele>263.0</ele><time>2026-04-04T10:08:59.166Z</time></trkpt><trkpt lat="42.0918633" lon="12.4202367"><ele>264.6666666666667</ele><time>2026-04-04T10:09:02.166Z</time></trkpt><trkpt lat="42.0919333" lon="12.4201867"><ele>266.33333333333337</ele><time>2026-04-04T10:09:06.166Z</time></trkpt><trkpt lat="42.0920033" lon="12.4201817"><ele>268.0</ele><time>2026-04-04T10:09:10.166Z</time></trkpt><trkpt lat="42.09208" lon="12.4201817"><ele>269.6666666666667</ele><time>2026-04-04T10:09:18.166Z</time></trkpt><trkpt lat="42.09217" lon="12.4201967"><ele>271.3333333333333</ele><time>2026-04-04T10:09:21.167Z</time></trkpt><trkpt lat="42.0922483" lon="12.4202033"><ele>273.0</ele><time>2026-04-04T10:09:23.166Z</time></trkpt><trkpt lat="42.0923167" lon="12.4202083"><ele>273.0</ele><time>2026-04-04T10:09:25.166Z</time></trkpt><trkpt lat="42.0923867" lon="12.4201983"><ele>273.0</ele><time>2026-04-04T10:09:28.166Z</time></trkpt><trkpt lat="42.0924517" lon="12.420255"><ele>273.0</ele><time>2026-04-04T10:09:33.166Z</time></trkpt><trkpt lat="42.0925133" lon="12.42028"><ele>273.0</ele><time>2026-04-04T10:09:36.166Z</time></trkpt><trkpt lat="42.0925783" lon="12.420325"><ele>273.0</ele><time>2026-04-04T10:09:40.166Z</time></trkpt><trkpt lat="42.0926267" lon="12.42038"><ele>273.0</ele><time>2026-04-04T10:09:43.166Z</time></trkpt><trkpt lat="42.0926733" lon="12.42045"><ele>273.0</ele><time>2026-04-04T10:09:46.166Z</time></trkpt><trkpt lat="42.092695" lon="12.420545"><ele>272.5</ele><time>2026-04-04T10:09:50.167Z</time></trkpt><trkpt lat="42.0927867" lon="12.4206817"><ele>272.0</ele><time>2026-04-04T10:09:54.166Z</time></trkpt><trkpt lat="42.0928533" lon="12.4207283"><ele>271.5</ele><time>2026-04-04T10:09:56.166Z</time></trkpt><trkpt lat="42.0929233" lon="12.4207367"><ele>271.0</ele><time>2026-04-04T10:10:02.166Z</time></trkpt><trkpt lat="42.0929933" lon="12.4207833"><ele>270.5</ele><time>2026-04-04T10:10:05.167Z</time></trkpt><trkpt lat="42.0930733" lon="12.4207883"><ele>270.0</ele><time>2026-04-04T10:10:08.167Z</time></trkpt><trkpt lat="42.0931567" lon="12.4208283"><ele>270.0</ele><time>2026-04-04T10:10:12.166Z</time></trkpt><trkpt lat="42.09323" lon="12.4208383"><ele>270.0</ele><time>2026-04-04T10:10:15.165Z</time></trkpt><trkpt lat="42.093305" lon="12.4208367"><ele>270.0</ele><time>2026-04-04T10:10:19.165Z</time></trkpt><trkpt lat="42.0933667" lon="12.4208567"><ele>270.0</ele><time>2026-04-04T10:10:21.165Z</time></trkpt><trkpt lat="42.0934283" lon="12.42088"><ele>270.0</ele><time>2026-04-04T10:10:24.165Z</time></trkpt><trkpt lat="42.093485" lon="12.42094"><ele>270.0</ele><time>2026-04-04T10:10:29.166Z</time></trkpt><trkpt lat="42.0935133" lon="12.4210183"><ele>270.0</ele><time>2026-04-04T10:10:34.165Z</time></trkpt><trkpt lat="42.09356" lon="12.4211083"><ele>271.2</ele><time>2026-04-04T10:10:40.165Z</time></trkpt><trkpt lat="42.09363" lon="12.42116"><ele>272.4</ele><time>2026-04-04T10:10:43.166Z</time></trkpt><trkpt lat="42.0937017" lon="12.4211533"><ele>273.6</ele><time>2026-04-04T10:10:47.166Z</time></trkpt><trkpt lat="42.093775" lon="12.421155"><ele>274.8</ele><time>2026-04-04T10:10:52.165Z</time></trkpt><trkpt lat="42.0939233" lon="12.421145"><ele>276.0</ele><time>2026-04-04T10:11:03.166Z</time></trkpt><trkpt lat="42.0940067" lon="12.421115"><ele>277.8333333333333</ele><time>2026-04-04T10:11:07.166Z</time></trkpt><trkpt lat="42.0941133" lon="12.4210867"><ele>279.6666666666667</ele><time>2026-04-04T10:11:19.165Z</time></trkpt><trkpt lat="42.0941717" lon="12.4210517"><ele>281.5</ele><time>2026-04-04T10:11:22.166Z</time></trkpt><trkpt lat="42.094245" lon="12.42104"><ele>283.33333333333337</ele><time>2026-04-04T10:11:25.165Z</time></trkpt><trkpt lat="42.0943317" lon="12.4210083"><ele>285.1666666666667</ele><time>2026-04-04T10:11:31.165Z</time></trkpt><trkpt lat="42.0943733" lon="12.4209167"><ele>287.0</ele><time>2026-04-04T10:11:36.165Z</time></trkpt><trkpt lat="42.0944067" lon="12.420805"><ele>287.0</ele><time>2026-04-04T10:11:41.165Z</time></trkpt><trkpt lat="42.094425" lon="12.4207133"><ele>287.0</ele><time>2026-04-04T10:11:43.165Z</time></trkpt><trkpt lat="42.0944617" lon="12.4206233"><ele>287.0</ele><time>2026-04-04T10:11:46.165Z</time></trkpt><trkpt lat="42.0945167" lon="12.42053"><ele>287.0</ele><time>2026-04-04T10:11:49.165Z</time></trkpt><trkpt lat="42.0945467" lon="12.42043"><ele>287.0</ele><time>2026-04-04T10:11:52.165Z</time></trkpt><trkpt lat="42.0945667" lon="12.4203433"><ele>287.0</ele><time>2026-04-04T10:11:54.165Z</time></trkpt><trkpt lat="42.0945783" lon="12.4202517"><ele>287.2</ele><time>2026-04-04T10:11:56.166Z</time></trkpt><trkpt lat="42.0946083" lon="12.4201717"><ele>287.4</ele><time>2026-04-04T10:12:01.165Z</time></trkpt><trkpt lat="42.0946267" lon="12.4200467"><ele>287.6</ele><time>2026-04-04T10:12:06.166Z</time></trkpt><trkpt lat="42.094655" lon="12.41995"><ele>287.8</ele><time>2026-04-04T10:12:09.166Z</time></trkpt><trkpt lat="42.0946883" lon="12.4197383"><ele>288.0</ele><time>2026-04-04T10:12:22.165Z</time></trkpt><trkpt lat="42.0947133" lon="12.4196183"><ele>288.8333333333333</ele><time>2026-04-04T10:12:28.165Z</time></trkpt><trkpt lat="42.0947683" lon="12.4194533"><ele>289.6666666666667</ele><time>2026-04-04T10:12:39.165Z</time></trkpt><trkpt lat="42.0948317" lon="12.41946"><ele>290.5</ele><time>2026-04-04T10:12:42.165Z</time></trkpt><trkpt lat="42.094905" lon="12.4194583"><ele>291.33333333333337</ele><time>2026-04-04T10:12:46.165Z</time></trkpt><trkpt lat="42.0949833" lon="12.4194533"><ele>292.1666666666667</ele><time>2026-04-04T10:12:50.165Z</time></trkpt><trkpt lat="42.0950417" lon="12.4194867"><ele>293.0</ele><time>2026-04-04T10:12:55.165Z</time></trkpt><trkpt lat="42.0951217" lon="12.4195433"><ele>293.1428571428571</ele><time>2026-04-04T10:14:11.166Z</time></trkpt><trkpt lat="42.0952133" lon="12.4195717"><ele>293.2857142857143</ele><time>2026-04-04T10:15:48.165Z</time></trkpt><trkpt lat="42.09527" lon="12.4196367"><ele>293.42857142857144</ele><time>2026-04-04T10:15:53.165Z</time></trkpt><trkpt lat="42.0953117" lon="12.4197083"><ele>293.57142857142856</ele><time>2026-04-04T10:15:56.165Z</time></trkpt><trkpt lat="42.095355" lon="12.4197833"><ele>293.7142857142857</ele><time>2026-04-04T10:16:00.165Z</time></trkpt><trkpt lat="42.095395" lon="12.4198567"><ele>293.85714285714283</ele><time>2026-04-04T10:16:04.165Z</time></trkpt><trkpt lat="42.0954033" lon="12.419945"><ele>294.0</ele><time>2026-04-04T10:16:08.165Z</time></trkpt><trkpt lat="42.0954233" lon="12.4200317"><ele>294.3333333333333</ele><time>2026-04-04T10:16:12.165Z</time></trkpt><trkpt lat="42.0954633" lon="12.42012"><ele>294.6666666666667</ele><time>2026-04-04T10:16:15.165Z</time></trkpt><trkpt lat="42.0955283" lon="12.42019"><ele>295.0</ele><time>2026-04-04T10:16:18.166Z</time></trkpt><trkpt lat="42.09557" lon="12.4202817"><ele>295.33333333333337</ele><time>2026-04-04T10:16:21.165Z</time></trkpt><trkpt lat="42.0956217" lon="12.4203917"><ele>295.6666666666667</ele><time>2026-04-04T10:16:27.165Z</time></trkpt><trkpt lat="42.0956767" lon="12.4204567"><ele>296.0</ele><time>2026-04-04T10:16:30.166Z</time></trkpt><trkpt lat="42.09573" lon="12.42053"><ele>297.0</ele><time>2026-04-04T10:16:33.166Z</time></trkpt><trkpt lat="42.0957633" lon="12.4206117"><ele>298.0</ele><time>2026-04-04T10:16:36.165Z</time></trkpt><trkpt lat="42.0957983" lon="12.42072"><ele>299.0</ele><time>2026-04-04T10:16:39.165Z</time></trkpt><trkpt lat="42.0958467" lon="12.4208033"><ele>300.0</ele><time>2026-04-04T10:16:42.166Z</time></trkpt><trkpt lat="42.0958767" lon="12.4208867"><ele>301.0</ele><time>2026-04-04T10:16:45.165Z</time></trkpt><trkpt lat="42.0958867" lon="12.4209967"><ele>302.0</ele><time>2026-04-04T10:16:48.165Z</time></trkpt><trkpt lat="42.0959067" lon="12.4210983"><ele>302.0</ele><time>2026-04-04T10:16:51.165Z</time></trkpt><trkpt lat="42.0959317" lon="12.4212033"><ele>302.0</ele><time>2026-04-04T10:16:54.166Z</time></trkpt><trkpt lat="42.0959633" lon="12.4212817"><ele>302.0</ele><time>2026-04-04T10:16:57.165Z</time></trkpt><trkpt lat="42.0959767" lon="12.421365"><ele>302.0</ele><time>2026-04-04T10:17:00.165Z</time></trkpt><trkpt lat="42.0959717" lon="12.4214517"><ele>302.0</ele><time>2026-04-04T10:17:04.165Z</time></trkpt><trkpt lat="42.096005" lon="12.421645"><ele>302.0</ele><time>2026-04-04T10:17:15.165Z</time></trkpt><trkpt lat="42.0960417" lon="12.4218317"><ele>303.33333333333337</ele><time>2026-04-04T10:17:26.165Z</time></trkpt><trkpt lat="42.096065" lon="12.422005"><ele>304.6666666666667</ele><time>2026-04-04T10:17:36.166Z</time></trkpt><trkpt lat="42.0960933" lon="12.4221067"><ele>306.0</ele><time>2026-04-04T10:17:39.165Z</time></trkpt><trkpt lat="42.0961317" lon="12.4221767"><ele>307.3333333333333</ele><time>2026-04-04T10:17:41.166Z</time></trkpt><trkpt lat="42.0961833" lon="12.422255"><ele>308.66666666666663</ele><time>2026-04-04T10:17:44.165Z</time></trkpt><trkpt lat="42.09622" lon="12.4223417"><ele>310.0</ele><time>2026-04-04T10:17:47.166Z</time></trkpt><trkpt lat="42.0962583" lon="12.4224317"><ele>310.3333333333333</ele><time>2026-04-04T10:17:51.165Z</time></trkpt><trkpt lat="42.0963183" lon="12.422515"><ele>310.66666666666663</ele><time>2026-04-04T10:17:54.165Z</time></trkpt><trkpt lat="42.0963767" lon="12.422575"><ele>311.0</ele><time>2026-04-04T10:17:56.165Z</time></trkpt><trkpt lat="42.0964217" lon="12.4226383"><ele>311.3333333333333</ele><time>2026-04-04T10:17:58.165Z</time></trkpt><trkpt lat="42.096475" lon="12.4227317"><ele>311.6666666666667</ele><time>2026-04-04T10:18:01.166Z</time></trkpt><trkpt lat="42.0965183" lon="12.4228017"><ele>312.0</ele><time>2026-04-04T10:18:03.165Z</time></trkpt><trkpt lat="42.0965667" lon="12.4228767"><ele>312.6666666666667</ele><time>2026-04-04T10:18:05.165Z</time></trkpt><trkpt lat="42.0966167" lon="12.4229683"><ele>313.3333333333333</ele><time>2026-04-04T10:18:08.165Z</time></trkpt><trkpt lat="42.096645" lon="12.4230633"><ele>314.0</ele><time>2026-04-04T10:18:12.165Z</time></trkpt><trkpt lat="42.096675" lon="12.4231383"><ele>314.66666666666663</ele><time>2026-04-04T10:18:15.166Z</time></trkpt><trkpt lat="42.09671" lon="12.4232133"><ele>315.3333333333333</ele><time>2026-04-04T10:18:17.165Z</time></trkpt><trkpt lat="42.0967533" lon="12.4233017"><ele>316.0</ele><time>2026-04-04T10:18:19.165Z</time></trkpt><trkpt lat="42.0968017" lon="12.4234383"><ele>316.2</ele><time>2026-04-04T10:18:21.165Z</time></trkpt><trkpt lat="42.0968333" lon="12.4235117"><ele>316.40000000000003</ele><time>2026-04-04T10:18:22.166Z</time></trkpt><trkpt lat="42.0968783" lon="12.4236733"><ele>316.6</ele><time>2026-04-04T10:18:24.165Z</time></trkpt><trkpt lat="42.0969067" lon="12.4237583"><ele>316.8</ele><time>2026-04-04T10:18:25.165Z</time></trkpt><trkpt lat="42.0969767" lon="12.4239083"><ele>317.0</ele><time>2026-04-04T10:18:27.166Z</time></trkpt><trkpt lat="42.0970367" lon="12.42404"><ele>317.0</ele><time>2026-04-04T10:18:29.165Z</time></trkpt><trkpt lat="42.09709" lon="12.4241483"><ele>317.0</ele><time>2026-04-04T10:18:31.165Z</time></trkpt><trkpt lat="42.0971217" lon="12.4242217"><ele>317.0</ele><time>2026-04-04T10:18:33.166Z</time></trkpt><trkpt lat="42.0971717" lon="12.4243633"><ele>317.0</ele><time>2026-04-04T10:19:28.166Z</time></trkpt><trkpt lat="42.09723" lon="12.4244283"><ele>317.0</ele><time>2026-04-04T10:19:32.165Z</time></trkpt><trkpt lat="42.0972733" lon="12.4245183"><ele>317.0</ele><time>2026-04-04T10:19:36.165Z</time></trkpt><trkpt lat="42.09731" lon="12.4245933"><ele>316.0</ele><time>2026-04-04T10:19:39.165Z</time></trkpt><trkpt lat="42.0973533" lon="12.4246683"><ele>315.0</ele><time>2026-04-04T10:19:42.166Z</time></trkpt><trkpt lat="42.0974" lon="12.42474"><ele>314.0</ele><time>2026-04-04T10:19:45.165Z</time></trkpt><trkpt lat="42.0974483" lon="12.424855"><ele>313.0</ele><time>2026-04-04T10:19:48.165Z</time></trkpt><trkpt lat="42.0975083" lon="12.424955"><ele>312.0</ele><time>2026-04-04T10:19:51.166Z</time></trkpt><trkpt lat="42.0975617" lon="12.425035"><ele>311.0</ele><time>2026-04-04T10:19:54.166Z</time></trkpt><trkpt lat="42.0976733" lon="12.4251283"><ele>311.0</ele><time>2026-04-04T10:20:31.165Z</time></trkpt><trkpt lat="42.0977333" lon="12.4251883"><ele>311.0</ele><time>2026-04-04T10:20:35.165Z</time></trkpt><trkpt lat="42.097785" lon="12.4252533"><ele>311.0</ele><time>2026-04-04T10:20:39.166Z</time></trkpt><trkpt lat="42.09783" lon="12.4253383"><ele>311.0</ele><time>2026-04-04T10:20:42.166Z</time></trkpt><trkpt lat="42.0978933" lon="12.4254133"><ele>311.0</ele><time>2026-04-04T10:20:58.165Z</time></trkpt><trkpt lat="42.0979517" lon="12.42545"><ele>311.0</ele><time>2026-04-04T10:26:43.165Z</time></trkpt><trkpt lat="42.0979683" lon="12.425535"><ele>311.0</ele><time>2026-04-04T10:26:46.166Z</time></trkpt><trkpt lat="42.0979783" lon="12.42565"><ele>309.83333333333337</ele><time>2026-04-04T10:26:49.165Z</time></trkpt><trkpt lat="42.0980017" lon="12.4257383"><ele>308.6666666666667</ele><time>2026-04-04T10:26:52.165Z</time></trkpt><trkpt lat="42.0980267" lon="12.42582"><ele>307.5</ele><time>2026-04-04T10:26:55.165Z</time></trkpt><trkpt lat="42.09805" lon="12.425925"><ele>306.3333333333333</ele><time>2026-04-04T10:26:58.166Z</time></trkpt><trkpt lat="42.0980567" lon="12.4260233"><ele>305.16666666666663</ele><time>2026-04-04T10:27:01.165Z</time></trkpt><trkpt lat="42.0980583" lon="12.4261267"><ele>304.0</ele><time>2026-04-04T10:27:05.166Z</time></trkpt><trkpt lat="42.0980683" lon="12.4262417"><ele>304.7142857142857</ele><time>2026-04-04T10:27:10.166Z</time></trkpt><trkpt lat="42.09808" lon="12.4263467"><ele>305.42857142857144</ele><time>2026-04-04T10:27:13.166Z</time></trkpt><trkpt lat="42.098095" lon="12.42645"><ele>306.14285714285717</ele><time>2026-04-04T10:27:17.165Z</time></trkpt><trkpt lat="42.0981133" lon="12.426545"><ele>306.8571428571429</ele><time>2026-04-04T10:27:21.165Z</time></trkpt><trkpt lat="42.0981283" lon="12.4266333"><ele>307.57142857142856</ele><time>2026-04-04T10:27:24.166Z</time></trkpt><trkpt lat="42.09816" lon="12.4267117"><ele>308.28571428571433</ele><time>2026-04-04T10:27:28.165Z</time></trkpt><trkpt lat="42.0981833" lon="12.4267933"><ele>309.0</ele><time>2026-04-04T10:27:31.166Z</time></trkpt><trkpt lat="42.0981583" lon="12.426875"><ele>309.0</ele><time>2026-04-04T10:27:37.166Z</time></trkpt><trkpt lat="42.0981667" lon="12.42697"><ele>309.0</ele><time>2026-04-04T10:27:47.165Z</time></trkpt><trkpt lat="42.0981333" lon="12.4271"><ele>309.0</ele><time>2026-04-04T10:27:55.166Z</time></trkpt><trkpt lat="42.0980567" lon="12.4272167"><ele>309.0</ele><time>2026-04-04T10:28:07.166Z</time></trkpt><trkpt lat="42.0979933" lon="12.4272733"><ele>309.0</ele><time>2026-04-04T10:28:12.166Z</time></trkpt><trkpt lat="42.09797" lon="12.427365"><ele>309.0</ele><time>2026-04-04T10:28:16.165Z</time></trkpt><trkpt lat="42.0979167" lon="12.42743"><ele>312.0</ele><time>2026-04-04T10:28:22.166Z</time></trkpt><trkpt lat="42.0978267" lon="12.4275933"><ele>315.0</ele><time>2026-04-04T10:28:34.166Z</time></trkpt><trkpt lat="42.0977617" lon="12.42766"><ele>318.0</ele><time>2026-04-04T10:28:41.166Z</time></trkpt><trkpt lat="42.09773" lon="12.4277467"><ele>321.0</ele><time>2026-04-04T10:28:47.165Z</time></trkpt><trkpt lat="42.09771" lon="12.4278533"><ele>324.0</ele><time>2026-04-04T10:28:51.165Z</time></trkpt><trkpt lat="42.0977017" lon="12.427955"><ele>327.0</ele><time>2026-04-04T10:28:55.165Z</time></trkpt><trkpt lat="42.0976833" lon="12.428055"><ele>330.0</ele><time>2026-04-04T10:28:58.165Z</time></trkpt><trkpt lat="42.0976683" lon="12.4281633"><ele>333.0</ele><time>2026-04-04T10:29:04.165Z</time></trkpt><trkpt lat="42.0975933" lon="12.4283"><ele>336.0</ele><time>2026-04-04T10:29:15.165Z</time></trkpt><trkpt lat="42.0975667" lon="12.42839"><ele>339.0</ele><time>2026-04-04T10:29:19.165Z</time></trkpt><trkpt lat="42.097525" lon="12.4284733"><ele>342.0</ele><time>2026-04-04T10:29:23.166Z</time></trkpt><trkpt lat="42.0975167" lon="12.4285883"><ele>341.99999999999994</ele><time>2026-04-04T10:29:27.166Z</time></trkpt><trkpt lat="42.0975117" lon="12.4286817"><ele>342.0</ele><time>2026-04-04T10:29:31.165Z</time></trkpt><trkpt lat="42.09748" lon="12.4287833"><ele>342.0</ele><time>2026-04-04T10:29:36.166Z</time></trkpt><trkpt lat="42.097485" lon="12.4288783"><ele>342.0</ele><time>2026-04-04T10:29:40.166Z</time></trkpt><trkpt lat="42.09746" lon="12.4289583"><ele>342.0</ele><time>2026-04-04T10:29:44.165Z</time></trkpt><trkpt lat="42.097435" lon="12.4290517"><ele>341.99999999999994</ele><time>2026-04-04T10:29:48.166Z</time></trkpt><trkpt lat="42.0974317" lon="12.4291483"><ele>342.0</ele><time>2026-04-04T10:29:51.166Z</time></trkpt><trkpt lat="42.0974233" lon="12.4292483"><ele>342.2857142857143</ele><time>2026-04-04T10:29:54.166Z</time></trkpt><trkpt lat="42.097415" lon="12.4293533"><ele>342.57142857142856</ele><time>2026-04-04T10:29:57.165Z</time></trkpt><trkpt lat="42.097445" lon="12.4294283"><ele>342.8571428571429</ele><time>2026-04-04T10:29:59.166Z</time></trkpt><trkpt lat="42.097495" lon="12.42949"><ele>343.1428571428571</ele><time>2026-04-04T10:30:01.166Z</time></trkpt><trkpt lat="42.0975383" lon="12.4295567"><ele>343.42857142857144</ele><time>2026-04-04T10:30:04.165Z</time></trkpt><trkpt lat="42.09758" lon="12.4296333"><ele>343.7142857142857</ele><time>2026-04-04T10:30:08.166Z</time></trkpt><trkpt lat="42.0976433" lon="12.4296867"><ele>344.0</ele><time>2026-04-04T10:30:11.166Z</time></trkpt><trkpt lat="42.0977167" lon="12.4297683"><ele>344.0</ele><time>2026-04-04T10:30:14.165Z</time></trkpt><trkpt lat="42.09778" lon="12.4298533"><ele>344.0</ele><time>2026-04-04T10:30:17.165Z</time></trkpt><trkpt lat="42.0978317" lon="12.4299083"><ele>344.0</ele><time>2026-04-04T10:30:19.166Z</time></trkpt><trkpt lat="42.0978683" lon="12.4300083"><ele>344.0</ele><time>2026-04-04T10:30:22.165Z</time></trkpt><trkpt lat="42.09793" lon="12.4300933"><ele>344.0</ele><time>2026-04-04T10:30:25.165Z</time></trkpt><trkpt lat="42.097985" lon="12.4301733"><ele>344.0</ele><time>2026-04-04T10:30:28.166Z</time></trkpt><trkpt lat="42.0980117" lon="12.4302533"><ele>344.0</ele><time>2026-04-04T10:30:30.165Z</time></trkpt><trkpt lat="42.0980533" lon="12.43036"><ele>344.0</ele><time>2026-04-04T10:30:33.166Z</time></trkpt><trkpt lat="42.0980867" lon="12.4304367"><ele>344.0</ele><time>2026-04-04T10:30:36.165Z</time></trkpt><trkpt lat="42.0981333" lon="12.4305267"><ele>344.0</ele><time>2026-04-04T10:30:39.166Z</time></trkpt><trkpt lat="42.09815" lon="12.4306517"><ele>344.0</ele><time>2026-04-04T10:30:42.166Z</time></trkpt><trkpt lat="42.09818" lon="12.4307467"><ele>344.0</ele><time>2026-04-04T10:30:44.165Z</time></trkpt><trkpt lat="42.09822" lon="12.4308333"><ele>345.00000000000006</ele><time>2026-04-04T10:30:46.166Z</time></trkpt><trkpt lat="42.09827" lon="12.4309067"><ele>346.0</ele><time>2026-04-04T10:30:48.165Z</time></trkpt><trkpt lat="42.0983283" lon="12.430955"><ele>347.0</ele><time>2026-04-04T10:30:50.165Z</time></trkpt><trkpt lat="42.09839" lon="12.4310017"><ele>348.0</ele><time>2026-04-04T10:30:52.165Z</time></trkpt><trkpt lat="42.0984583" lon="12.431045"><ele>349.0</ele><time>2026-04-04T10:30:54.166Z</time></trkpt><trkpt lat="42.0985183" lon="12.4310833"><ele>350.00000000000006</ele><time>2026-04-04T10:30:56.165Z</time></trkpt><trkpt lat="42.0986017" lon="12.43112"><ele>351.0</ele><time>2026-04-04T10:30:58.166Z</time></trkpt><trkpt lat="42.0986917" lon="12.4311633"><ele>351.0</ele><time>2026-04-04T10:31:00.165Z</time></trkpt><trkpt lat="42.098775" lon="12.431195"><ele>351.0</ele><time>2026-04-04T10:31:02.165Z</time></trkpt><trkpt lat="42.0988417" lon="12.4312033"><ele>351.0</ele><time>2026-04-04T10:31:04.166Z</time></trkpt><trkpt lat="42.09892" lon="12.4312067"><ele>351.0</ele><time>2026-04-04T10:31:06.165Z</time></trkpt><trkpt lat="42.0990067" lon="12.4311917"><ele>351.0</ele><time>2026-04-04T10:31:09.165Z</time></trkpt><trkpt lat="42.099075" lon="12.43121"><ele>351.0</ele><time>2026-04-04T10:31:11.165Z</time></trkpt><trkpt lat="42.09914" lon="12.4312317"><ele>350.3333333333333</ele><time>2026-04-04T10:31:13.165Z</time></trkpt><trkpt lat="42.0992133" lon="12.4312633"><ele>349.6666666666667</ele><time>2026-04-04T10:31:16.165Z</time></trkpt><trkpt lat="42.09927" lon="12.431325"><ele>349.0</ele><time>2026-04-04T10:31:19.166Z</time></trkpt><trkpt lat="42.099305" lon="12.431415"><ele>348.33333333333337</ele><time>2026-04-04T10:31:22.165Z</time></trkpt><trkpt lat="42.0993533" lon="12.431515"><ele>347.6666666666667</ele><time>2026-04-04T10:31:25.166Z</time></trkpt><trkpt lat="42.0993983" lon="12.43159"><ele>347.0</ele><time>2026-04-04T10:31:29.165Z</time></trkpt><trkpt lat="42.0994367" lon="12.43166"><ele>349.33333333333337</ele><time>2026-04-04T10:31:32.166Z</time></trkpt><trkpt lat="42.0994833" lon="12.431725"><ele>351.6666666666667</ele><time>2026-04-04T10:31:35.166Z</time></trkpt><trkpt lat="42.0995183" lon="12.4318267"><ele>354.0</ele><time>2026-04-04T10:31:38.165Z</time></trkpt><trkpt lat="42.0995517" lon="12.431915"><ele>356.3333333333333</ele><time>2026-04-04T10:31:41.165Z</time></trkpt><trkpt lat="42.0995817" lon="12.4319967"><ele>358.66666666666663</ele><time>2026-04-04T10:31:44.166Z</time></trkpt><trkpt lat="42.0996167" lon="12.4321117"><ele>361.0</ele><time>2026-04-04T10:31:47.166Z</time></trkpt><trkpt lat="42.0996633" lon="12.4321783"><ele>362.16666666666663</ele><time>2026-04-04T10:31:49.165Z</time></trkpt><trkpt lat="42.0996833" lon="12.4322867"><ele>363.3333333333333</ele><time>2026-04-04T10:31:52.166Z</time></trkpt><trkpt lat="42.0997233" lon="12.4323967"><ele>364.5</ele><time>2026-04-04T10:31:55.165Z</time></trkpt><trkpt lat="42.099755" lon="12.4325083"><ele>365.6666666666667</ele><time>2026-04-04T10:31:57.166Z</time></trkpt><trkpt lat="42.0997933" lon="12.4326317"><ele>366.83333333333337</ele><time>2026-04-04T10:31:59.165Z</time></trkpt><trkpt lat="42.09981" lon="12.4327367"><ele>368.0</ele><time>2026-04-04T10:32:01.166Z</time></trkpt><trkpt lat="42.0998233" lon="12.432875"><ele>366.4</ele><time>2026-04-04T10:32:03.165Z</time></trkpt><trkpt lat="42.0998067" lon="12.432995"><ele>364.79999999999995</ele><time>2026-04-04T10:32:05.165Z</time></trkpt><trkpt lat="42.099795" lon="12.4331117"><ele>363.2</ele><time>2026-04-04T10:32:07.165Z</time></trkpt><trkpt lat="42.099775" lon="12.4332583"><ele>361.6</ele><time>2026-04-04T10:32:09.165Z</time></trkpt><trkpt lat="42.0997517" lon="12.4333833"><ele>360.0</ele><time>2026-04-04T10:32:11.165Z</time></trkpt><trkpt lat="42.0997333" lon="12.4334917"><ele>360.0</ele><time>2026-04-04T10:32:13.165Z</time></trkpt><trkpt lat="42.0997267" lon="12.4335767"><ele>360.0</ele><time>2026-04-04T10:32:15.165Z</time></trkpt><trkpt lat="42.0997033" lon="12.4336633"><ele>360.0</ele><time>2026-04-04T10:32:18.165Z</time></trkpt><trkpt lat="42.0997167" lon="12.4337617"><ele>360.0</ele><time>2026-04-04T10:32:22.166Z</time></trkpt><trkpt lat="42.0997717" lon="12.43386"><ele>360.0</ele><time>2026-04-04T10:32:38.165Z</time></trkpt><trkpt lat="42.0998733" lon="12.4338833"><ele>360.0</ele><time>2026-04-04T10:32:40.165Z</time></trkpt><trkpt lat="42.0999783" lon="12.433915"><ele>359.2857142857143</ele><time>2026-04-04T10:32:42.165Z</time></trkpt><trkpt lat="42.1000533" lon="12.4339267"><ele>358.5714285714286</ele><time>2026-04-04T10:32:44.166Z</time></trkpt><trkpt lat="42.1001067" lon="12.4338817"><ele>357.8571428571429</ele><time>2026-04-04T10:32:46.165Z</time></trkpt><trkpt lat="42.10018" lon="12.4338433"><ele>357.1428571428571</ele><time>2026-04-04T10:32:49.165Z</time></trkpt><trkpt lat="42.1002583" lon="12.433815"><ele>356.42857142857144</ele><time>2026-04-04T10:32:52.165Z</time></trkpt><trkpt lat="42.1003133" lon="12.4337667"><ele>355.7142857142857</ele><time>2026-04-04T10:32:55.166Z</time></trkpt><trkpt lat="42.1003783" lon="12.43375"><ele>355.0</ele><time>2026-04-04T10:33:00.166Z</time></trkpt><trkpt lat="42.1004483" lon="12.4337533"><ele>354.0</ele><time>2026-04-04T10:33:03.165Z</time></trkpt><trkpt lat="42.1005367" lon="12.43373"><ele>353.0</ele><time>2026-04-04T10:33:06.166Z</time></trkpt><trkpt lat="42.1005933" lon="12.4336667"><ele>352.0</ele><time>2026-04-04T10:33:08.166Z</time></trkpt><trkpt lat="42.10068" lon="12.433605"><ele>351.0</ele><time>2026-04-04T10:33:10.165Z</time></trkpt><trkpt lat="42.10075" lon="12.43357"><ele>350.0</ele><time>2026-04-04T10:33:11.165Z</time></trkpt><trkpt lat="42.1008267" lon="12.4335367"><ele>349.0</ele><time>2026-04-04T10:33:12.165Z</time></trkpt><trkpt lat="42.1008933" lon="12.4335083"><ele>348.16666666666663</ele><time>2026-04-04T10:33:13.166Z</time></trkpt><trkpt lat="42.1009667" lon="12.4334783"><ele>347.3333333333333</ele><time>2026-04-04T10:33:14.165Z</time></trkpt><trkpt lat="42.1010267" lon="12.4334467"><ele>346.5</ele><time>2026-04-04T10:33:15.166Z</time></trkpt><trkpt lat="42.1010933" lon="12.43343"><ele>345.6666666666667</ele><time>2026-04-04T10:33:16.166Z</time></trkpt><trkpt lat="42.1012033" lon="12.433395"><ele>344.83333333333337</ele><time>2026-04-04T10:33:18.166Z</time></trkpt><trkpt lat="42.1012983" lon="12.4333833"><ele>344.0</ele><time>2026-04-04T10:33:20.166Z</time></trkpt><trkpt lat="42.1013667" lon="12.4333867"><ele>344.0</ele><time>2026-04-04T10:33:23.166Z</time></trkpt><trkpt lat="42.101295" lon="12.43335"><ele>344.0</ele><time>2026-04-04T10:33:40.166Z</time></trkpt><trkpt lat="42.1012133" lon="12.4333467"><ele>344.0</ele><time>2026-04-04T10:33:44.166Z</time></trkpt><trkpt lat="42.1011483" lon="12.4333583"><ele>344.0</ele><time>2026-04-04T10:33:46.166Z</time></trkpt><trkpt lat="42.1010817" lon="12.4333767"><ele>344.0</ele><time>2026-04-04T10:33:48.166Z</time></trkpt><trkpt lat="42.101005" lon="12.4334033"><ele>344.0</ele><time>2026-04-04T10:33:50.167Z</time></trkpt><trkpt lat="42.1009267" lon="12.4334383"><ele>344.00000000000006</ele><time>2026-04-04T10:33:52.167Z</time></trkpt><trkpt lat="42.1008567" lon="12.4334617"><ele>344.0</ele><time>2026-04-04T10:33:54.167Z</time></trkpt><trkpt lat="42.1007933" lon="12.433475"><ele>344.0</ele><time>2026-04-04T10:33:56.166Z</time></trkpt><trkpt lat="42.100735" lon="12.4335133"><ele>344.0</ele><time>2026-04-04T10:33:58.167Z</time></trkpt><trkpt lat="42.100675" lon="12.4335817"><ele>344.0</ele><time>2026-04-04T10:34:01.167Z</time></trkpt><trkpt lat="42.1006067" lon="12.4336333"><ele>344.00000000000006</ele><time>2026-04-04T10:34:04.166Z</time></trkpt><trkpt lat="42.1005433" lon="12.43367"><ele>344.0</ele><time>2026-04-04T10:34:07.167Z</time></trkpt><trkpt lat="42.10046" lon="12.4336767"><ele>344.7142857142857</ele><time>2026-04-04T10:34:10.166Z</time></trkpt><trkpt lat="42.100385" lon="12.4337067"><ele>345.42857142857144</ele><time>2026-04-04T10:34:13.166Z</time></trkpt><trkpt lat="42.1003367" lon="12.4337633"><ele>346.1428571428571</ele><time>2026-04-04T10:34:17.167Z</time></trkpt><trkpt lat="42.1002533" lon="12.433755"><ele>346.8571428571429</ele><time>2026-04-04T10:34:23.167Z</time></trkpt><trkpt lat="42.100175" lon="12.4337833"><ele>347.57142857142856</ele><time>2026-04-04T10:34:27.167Z</time></trkpt><trkpt lat="42.1001133" lon="12.4338217"><ele>348.2857142857143</ele><time>2026-04-04T10:34:31.167Z</time></trkpt><trkpt lat="42.1000417" lon="12.4338383"><ele>349.0</ele><time>2026-04-04T10:34:37.166Z</time></trkpt><trkpt lat="42.0998667" lon="12.4338867"><ele>348.99999999999994</ele><time>2026-04-04T10:34:48.167Z</time></trkpt><trkpt lat="42.099945" lon="12.433925"><ele>349.0</ele><time>2026-04-04T10:35:17.166Z</time></trkpt><trkpt lat="42.10002" lon="12.43393"><ele>349.0</ele><time>2026-04-04T10:35:21.167Z</time></trkpt><trkpt lat="42.10008" lon="12.4338983"><ele>349.0</ele><time>2026-04-04T10:35:24.167Z</time></trkpt><trkpt lat="42.10015" lon="12.4338767"><ele>349.0</ele><time>2026-04-04T10:35:30.167Z</time></trkpt><trkpt lat="42.1002183" lon="12.43387"><ele>348.99999999999994</ele><time>2026-04-04T10:35:34.166Z</time></trkpt><trkpt lat="42.1002917" lon="12.4338567"><ele>349.0</ele><time>2026-04-04T10:35:37.167Z</time></trkpt><trkpt lat="42.1003833" lon="12.4337317"><ele>349.0</ele><time>2026-04-04T10:35:48.166Z</time></trkpt><trkpt lat="42.1004833" lon="12.4335283"><ele>349.0</ele><time>2026-04-04T10:35:59.167Z</time></trkpt><trkpt lat="42.1005217" lon="12.4334417"><ele>349.0</ele><time>2026-04-04T10:36:02.167Z</time></trkpt><trkpt lat="42.1006017" lon="12.433235"><ele>349.0</ele><time>2026-04-04T10:36:39.166Z</time></trkpt><trkpt lat="42.10067" lon="12.4331183"><ele>349.0</ele><time>2026-04-04T10:36:47.167Z</time></trkpt><trkpt lat="42.1007133" lon="12.433005"><ele>349.0</ele><time>2026-04-04T10:36:50.167Z</time></trkpt><trkpt lat="42.1007717" lon="12.4328983"><ele>349.0</ele><time>2026-04-04T10:36:52.167Z</time></trkpt><trkpt lat="42.100805" lon="12.4328083"><ele>349.0</ele><time>2026-04-04T10:36:54.166Z</time></trkpt><trkpt lat="42.100835" lon="12.432725"><ele>349.0</ele><time>2026-04-04T10:36:57.167Z</time></trkpt><trkpt lat="42.10097" lon="12.432585"><ele>345.5</ele><time>2026-04-04T10:37:17.166Z</time></trkpt><trkpt lat="42.1010283" lon="12.4325183"><ele>342.0</ele><time>2026-04-04T10:37:20.166Z</time></trkpt><trkpt lat="42.101085" lon="12.4324467"><ele>338.5</ele><time>2026-04-04T10:37:23.166Z</time></trkpt><trkpt lat="42.1011567" lon="12.4323883"><ele>335.0</ele><time>2026-04-04T10:37:26.166Z</time></trkpt><trkpt lat="42.1012067" lon="12.4323367"><ele>331.5</ele><time>2026-04-04T10:37:29.166Z</time></trkpt><trkpt lat="42.10126" lon="12.4322467"><ele>328.0</ele><time>2026-04-04T10:37:32.167Z</time></trkpt><trkpt lat="42.1012883" lon="12.43216"><ele>326.8333333333333</ele><time>2026-04-04T10:37:34.166Z</time></trkpt><trkpt lat="42.1013167" lon="12.4320467"><ele>325.66666666666663</ele><time>2026-04-04T10:37:36.166Z</time></trkpt><trkpt lat="42.1013433" lon="12.43195"><ele>324.5</ele><time>2026-04-04T10:37:38.166Z</time></trkpt><trkpt lat="42.1013633" lon="12.4318217"><ele>323.3333333333333</ele><time>2026-04-04T10:37:40.167Z</time></trkpt><trkpt lat="42.1013883" lon="12.4317133"><ele>322.1666666666667</ele><time>2026-04-04T10:37:42.166Z</time></trkpt><trkpt lat="42.101415" lon="12.4316"><ele>321.0</ele><time>2026-04-04T10:37:44.166Z</time></trkpt><trkpt lat="42.101445" lon="12.431505"><ele>321.0</ele><time>2026-04-04T10:37:47.166Z</time></trkpt><trkpt lat="42.1014783" lon="12.431425"><ele>321.0</ele><time>2026-04-04T10:37:50.167Z</time></trkpt><trkpt lat="42.1014817" lon="12.431245"><ele>321.0</ele><time>2026-04-04T10:37:59.166Z</time></trkpt><trkpt lat="42.1014467" lon="12.4311583"><ele>321.0</ele><time>2026-04-04T10:38:01.166Z</time></trkpt><trkpt lat="42.1014133" lon="12.431075"><ele>321.0</ele><time>2026-04-04T10:38:03.166Z</time></trkpt><trkpt lat="42.101375" lon="12.4309883"><ele>321.0</ele><time>2026-04-04T10:38:06.166Z</time></trkpt><trkpt lat="42.10134" lon="12.430845"><ele>321.0</ele><time>2026-04-04T10:38:25.166Z</time></trkpt><trkpt lat="42.101415" lon="12.4308017"><ele>321.0</ele><time>2026-04-04T10:38:30.166Z</time></trkpt><trkpt lat="42.1014767" lon="12.4307767"><ele>321.0</ele><time>2026-04-04T10:38:36.166Z</time></trkpt><trkpt lat="42.101545" lon="12.4306933"><ele>321.0</ele><time>2026-04-04T10:38:40.167Z</time></trkpt><trkpt lat="42.1016067" lon="12.4306017"><ele>321.0</ele><time>2026-04-04T10:38:43.167Z</time></trkpt><trkpt lat="42.1016617" lon="12.4305283"><ele>321.0</ele><time>2026-04-04T10:38:46.167Z</time></trkpt><trkpt lat="42.101685" lon="12.430425"><ele>316.8333333333333</ele><time>2026-04-04T10:38:51.166Z</time></trkpt><trkpt lat="42.1017117" lon="12.4303183"><ele>312.6666666666667</ele><time>2026-04-04T10:38:55.166Z</time></trkpt><trkpt lat="42.1017317" lon="12.4302133"><ele>308.5</ele><time>2026-04-04T10:38:58.166Z</time></trkpt><trkpt lat="42.10174" lon="12.430125"><ele>304.33333333333337</ele><time>2026-04-04T10:39:00.167Z</time></trkpt><trkpt lat="42.1017617" lon="12.430035"><ele>300.1666666666667</ele><time>2026-04-04T10:39:03.166Z</time></trkpt><trkpt lat="42.101805" lon="12.4299517"><ele>296.0</ele><time>2026-04-04T10:39:06.167Z</time></trkpt><trkpt lat="42.101875" lon="12.4297933"><ele>296.0</ele><time>2026-04-04T10:39:09.166Z</time></trkpt><trkpt lat="42.101935" lon="12.4296933"><ele>296.0</ele><time>2026-04-04T10:39:11.166Z</time></trkpt><trkpt lat="42.1019833" lon="12.4295683"><ele>296.0</ele><time>2026-04-04T10:39:13.167Z</time></trkpt><trkpt lat="42.1020117" lon="12.429455"><ele>296.0</ele><time>2026-04-04T10:39:15.166Z</time></trkpt><trkpt lat="42.1020317" lon="12.4293517"><ele>296.0</ele><time>2026-04-04T10:39:17.167Z</time></trkpt><trkpt lat="42.1020467" lon="12.429245"><ele>296.0</ele><time>2026-04-04T10:39:19.166Z</time></trkpt><trkpt lat="42.10208" lon="12.42914"><ele>295.33333333333337</ele><time>2026-04-04T10:39:21.167Z</time></trkpt><trkpt lat="42.1021383" lon="12.4290333"><ele>294.6666666666667</ele><time>2026-04-04T10:39:24.166Z</time></trkpt><trkpt lat="42.1021783" lon="12.4289133"><ele>294.0</ele><time>2026-04-04T10:39:27.166Z</time></trkpt><trkpt lat="42.1021833" lon="12.4288233"><ele>293.3333333333333</ele><time>2026-04-04T10:39:29.167Z</time></trkpt><trkpt lat="42.1022" lon="12.4287183"><ele>292.66666666666663</ele><time>2026-04-04T10:39:32.166Z</time></trkpt><trkpt lat="42.1022217" lon="12.4286267"><ele>292.0</ele><time>2026-04-04T10:39:35.167Z</time></trkpt><trkpt lat="42.102255" lon="12.4285417"><ele>292.0</ele><time>2026-04-04T10:39:38.166Z</time></trkpt><trkpt lat="42.10228" lon="12.428445"><ele>292.0</ele><time>2026-04-04T10:39:41.166Z</time></trkpt><trkpt lat="42.10231" lon="12.4283383"><ele>292.0</ele><time>2026-04-04T10:39:44.166Z</time></trkpt><trkpt lat="42.1023383" lon="12.4282617"><ele>292.0</ele><time>2026-04-04T10:39:47.167Z</time></trkpt><trkpt lat="42.1023817" lon="12.42817"><ele>292.0</ele><time>2026-04-04T10:39:51.167Z</time></trkpt><trkpt lat="42.1024167" lon="12.428065"><ele>292.0</ele><time>2026-04-04T10:39:55.166Z</time></trkpt><trkpt lat="42.10245" lon="12.4279533"><ele>290.1428571428571</ele><time>2026-04-04T10:39:58.167Z</time></trkpt><trkpt lat="42.102475" lon="12.4278567"><ele>288.2857142857143</ele><time>2026-04-04T10:40:00.166Z</time></trkpt><trkpt lat="42.10249" lon="12.4277733"><ele>286.42857142857144</ele><time>2026-04-04T10:40:02.167Z</time></trkpt><trkpt lat="42.102515" lon="12.4276617"><ele>284.57142857142856</ele><time>2026-04-04T10:40:05.166Z</time></trkpt><trkpt lat="42.102525" lon="12.4275667"><ele>282.7142857142857</ele><time>2026-04-04T10:40:08.167Z</time></trkpt><trkpt lat="42.1025367" lon="12.4274683"><ele>280.85714285714283</ele><time>2026-04-04T10:40:12.167Z</time></trkpt><trkpt lat="42.1025367" lon="12.4273817"><ele>279.0</ele><time>2026-04-04T10:40:15.166Z</time></trkpt><trkpt lat="42.1025567" lon="12.427275"><ele>279.0</ele><time>2026-04-04T10:40:19.166Z</time></trkpt><trkpt lat="42.1025567" lon="12.4271667"><ele>279.0</ele><time>2026-04-04T10:40:22.167Z</time></trkpt><trkpt lat="42.1025367" lon="12.4270733"><ele>279.0</ele><time>2026-04-04T10:40:24.166Z</time></trkpt><trkpt lat="42.1025217" lon="12.4269683"><ele>279.0</ele><time>2026-04-04T10:40:26.166Z</time></trkpt><trkpt lat="42.1025033" lon="12.42687"><ele>279.0</ele><time>2026-04-04T10:40:28.167Z</time></trkpt><trkpt lat="42.102495" lon="12.42677"><ele>279.0</ele><time>2026-04-04T10:40:30.166Z</time></trkpt><trkpt lat="42.10252" lon="12.4266817"><ele>278.6666666666667</ele><time>2026-04-04T10:40:32.166Z</time></trkpt><trkpt lat="42.1025517" lon="12.42659"><ele>278.3333333333333</ele><time>2026-04-04T10:40:34.166Z</time></trkpt><trkpt lat="42.102575" lon="12.4265083"><ele>278.0</ele><time>2026-04-04T10:40:36.166Z</time></trkpt><trkpt lat="42.1025967" lon="12.4264217"><ele>277.66666666666663</ele><time>2026-04-04T10:40:38.166Z</time></trkpt><trkpt lat="42.1026317" lon="12.4263383"><ele>277.3333333333333</ele><time>2026-04-04T10:40:41.166Z</time></trkpt><trkpt lat="42.1026983" lon="12.4262533"><ele>277.0</ele><time>2026-04-04T10:40:44.167Z</time></trkpt><trkpt lat="42.10276" lon="12.42618"><ele>276.2857142857143</ele><time>2026-04-04T10:40:47.166Z</time></trkpt><trkpt lat="42.1028183" lon="12.426135"><ele>275.57142857142856</ele><time>2026-04-04T10:40:50.166Z</time></trkpt><trkpt lat="42.102875" lon="12.42608"><ele>274.85714285714283</ele><time>2026-04-04T10:40:53.167Z</time></trkpt><trkpt lat="42.1029217" lon="12.4260083"><ele>274.1428571428571</ele><time>2026-04-04T10:40:56.166Z</time></trkpt><trkpt lat="42.102975" lon="12.425925"><ele>273.42857142857144</ele><time>2026-04-04T10:40:59.166Z</time></trkpt><trkpt lat="42.1030017" lon="12.4258467"><ele>272.71428571428567</ele><time>2026-04-04T10:41:01.167Z</time></trkpt><trkpt lat="42.1030183" lon="12.4257367"><ele>272.0</ele><time>2026-04-04T10:41:03.166Z</time></trkpt><trkpt lat="42.1030167" lon="12.4256233"><ele>272.0</ele><time>2026-04-04T10:41:05.167Z</time></trkpt><trkpt lat="42.1030083" lon="12.42552"><ele>272.0</ele><time>2026-04-04T10:41:07.167Z</time></trkpt><trkpt lat="42.1030233" lon="12.425405"><ele>272.0</ele><time>2026-04-04T10:41:09.167Z</time></trkpt><trkpt lat="42.1030317" lon="12.4252583"><ele>272.0</ele><time>2026-04-04T10:41:11.166Z</time></trkpt><trkpt lat="42.1030383" lon="12.4251133"><ele>272.0</ele><time>2026-04-04T10:41:13.167Z</time></trkpt><trkpt lat="42.10305" lon="12.424995"><ele>271.5</ele><time>2026-04-04T10:41:15.166Z</time></trkpt><trkpt lat="42.1030733" lon="12.4248983"><ele>271.0</ele><time>2026-04-04T10:41:17.166Z</time></trkpt><trkpt lat="42.103095" lon="12.4247733"><ele>270.5</ele><time>2026-04-04T10:41:20.167Z</time></trkpt><trkpt lat="42.1031067" lon="12.4246717"><ele>270.0</ele><time>2026-04-04T10:41:22.166Z</time></trkpt><trkpt lat="42.1031167" lon="12.424565"><ele>269.5</ele><time>2026-04-04T10:41:24.166Z</time></trkpt><trkpt lat="42.1031283" lon="12.4244733"><ele>269.0</ele><time>2026-04-04T10:41:26.166Z</time></trkpt><trkpt lat="42.103155" lon="12.424395"><ele>268.6666666666667</ele><time>2026-04-04T10:41:28.166Z</time></trkpt><trkpt lat="42.1031983" lon="12.4242933"><ele>268.33333333333337</ele><time>2026-04-04T10:41:31.166Z</time></trkpt><trkpt lat="42.10324" lon="12.4242217"><ele>268.0</ele><time>2026-04-04T10:41:33.166Z</time></trkpt><trkpt lat="42.1032883" lon="12.424145"><ele>267.6666666666667</ele><time>2026-04-04T10:41:35.167Z</time></trkpt><trkpt lat="42.10334" lon="12.4240517"><ele>267.3333333333333</ele><time>2026-04-04T10:41:37.166Z</time></trkpt><trkpt lat="42.1033867" lon="12.423965"><ele>267.0</ele><time>2026-04-04T10:41:39.167Z</time></trkpt><trkpt lat="42.1034383" lon="12.4238533"><ele>266.2</ele><time>2026-04-04T10:41:41.167Z</time></trkpt><trkpt lat="42.10347" lon="12.423735"><ele>265.4</ele><time>2026-04-04T10:41:43.167Z</time></trkpt><trkpt lat="42.1035167" lon="12.4236367"><ele>264.6</ele><time>2026-04-04T10:41:45.166Z</time></trkpt><trkpt lat="42.1035717" lon="12.4235233"><ele>263.8</ele><time>2026-04-04T10:41:47.167Z</time></trkpt><trkpt lat="42.1036167" lon="12.4234017"><ele>263.0</ele><time>2026-04-04T10:41:49.166Z</time></trkpt><trkpt lat="42.1036783" lon="12.4232917"><ele>263.0</ele><time>2026-04-04T10:41:51.166Z</time></trkpt><trkpt lat="42.1037467" lon="12.4232017"><ele>263.0</ele><time>2026-04-04T10:41:53.166Z</time></trkpt><trkpt lat="42.1037967" lon="12.4231"><ele>263.0</ele><time>2026-04-04T10:41:55.166Z</time></trkpt><trkpt lat="42.1038433" lon="12.4229783"><ele>263.0</ele><time>2026-04-04T10:41:57.167Z</time></trkpt><trkpt lat="42.10389" lon="12.4228967"><ele>263.0</ele><time>2026-04-04T10:41:59.166Z</time></trkpt><trkpt lat="42.10394" lon="12.4228"><ele>262.5</ele><time>2026-04-04T10:42:01.166Z</time></trkpt><trkpt lat="42.1039833" lon="12.4226967"><ele>262.0</ele><time>2026-04-04T10:42:03.166Z</time></trkpt><trkpt lat="42.1040183" lon="12.42258"><ele>261.5</ele><time>2026-04-04T10:42:05.166Z</time></trkpt><trkpt lat="42.1040617" lon="12.4224867"><ele>261.0</ele><time>2026-04-04T10:42:07.166Z</time></trkpt><trkpt lat="42.104105" lon="12.422375"><ele>260.5</ele><time>2026-04-04T10:42:09.167Z</time></trkpt><trkpt lat="42.1041467" lon="12.422265"><ele>260.0</ele><time>2026-04-04T10:42:11.167Z</time></trkpt><trkpt lat="42.1041867" lon="12.4221483"><ele>259.4</ele><time>2026-04-04T10:42:13.166Z</time></trkpt><trkpt lat="42.1042417" lon="12.4220317"><ele>258.8</ele><time>2026-04-04T10:42:15.167Z</time></trkpt><trkpt lat="42.10432" lon="12.4219417"><ele>258.2</ele><time>2026-04-04T10:42:17.166Z</time></trkpt><trkpt lat="42.1044033" lon="12.4218683"><ele>257.6</ele><time>2026-04-04T10:42:19.166Z</time></trkpt><trkpt lat="42.1044817" lon="12.4218167"><ele>257.0</ele><time>2026-04-04T10:42:21.166Z</time></trkpt><trkpt lat="42.1045683" lon="12.4217667"><ele>257.0</ele><time>2026-04-04T10:42:23.166Z</time></trkpt><trkpt lat="42.10466" lon="12.4217033"><ele>257.0</ele><time>2026-04-04T10:42:25.166Z</time></trkpt><trkpt lat="42.1047467" lon="12.4216633"><ele>257.0</ele><time>2026-04-04T10:42:27.167Z</time></trkpt><trkpt lat="42.1048517" lon="12.4216317"><ele>257.0</ele><time>2026-04-04T10:42:29.166Z</time></trkpt><trkpt lat="42.1049433" lon="12.421615"><ele>257.0</ele><time>2026-04-04T10:42:31.167Z</time></trkpt><trkpt lat="42.1050117" lon="12.4216033"><ele>257.1666666666667</ele><time>2026-04-04T10:42:33.167Z</time></trkpt><trkpt lat="42.1050883" lon="12.42161"><ele>257.33333333333337</ele><time>2026-04-04T10:42:35.166Z</time></trkpt><trkpt lat="42.1051767" lon="12.42162"><ele>257.5</ele><time>2026-04-04T10:42:37.166Z</time></trkpt><trkpt lat="42.1052483" lon="12.4216133"><ele>257.6666666666667</ele><time>2026-04-04T10:42:39.167Z</time></trkpt><trkpt lat="42.1053217" lon="12.42161"><ele>257.8333333333333</ele><time>2026-04-04T10:42:41.166Z</time></trkpt><trkpt lat="42.1053967" lon="12.4215833"><ele>258.0</ele><time>2026-04-04T10:42:43.166Z</time></trkpt><trkpt lat="42.1054617" lon="12.4215583"><ele>258.0</ele><time>2026-04-04T10:42:45.167Z</time></trkpt><trkpt lat="42.1055367" lon="12.421535"><ele>258.0</ele><time>2026-04-04T10:42:47.166Z</time></trkpt><trkpt lat="42.1056183" lon="12.4215133"><ele>258.0</ele><time>2026-04-04T10:42:49.166Z</time></trkpt><trkpt lat="42.1057183" lon="12.4215117"><ele>258.0</ele><time>2026-04-04T10:42:51.167Z</time></trkpt><trkpt lat="42.1058117" lon="12.4215233"><ele>258.0</ele><time>2026-04-04T10:42:53.166Z</time></trkpt><trkpt lat="42.1058983" lon="12.4215333"><ele>258.0</ele><time>2026-04-04T10:42:55.166Z</time></trkpt><trkpt lat="42.1059933" lon="12.4215183"><ele>257.8333333333333</ele><time>2026-04-04T10:42:57.166Z</time></trkpt><trkpt lat="42.106095" lon="12.42152"><ele>257.6666666666667</ele><time>2026-04-04T10:42:59.167Z</time></trkpt><trkpt lat="42.1061633" lon="12.4215333"><ele>257.5</ele><time>2026-04-04T10:43:01.167Z</time></trkpt><trkpt lat="42.1062333" lon="12.4215533"><ele>257.33333333333337</ele><time>2026-04-04T10:43:03.166Z</time></trkpt><trkpt lat="42.106315" lon="12.4215567"><ele>257.1666666666667</ele><time>2026-04-04T10:43:05.166Z</time></trkpt><trkpt lat="42.1063967" lon="12.4215467"><ele>257.0</ele><time>2026-04-04T10:43:07.167Z</time></trkpt><trkpt lat="42.10648" lon="12.4215467"><ele>257.0</ele><time>2026-04-04T10:43:09.166Z</time></trkpt><trkpt lat="42.106575" lon="12.4215267"><ele>257.0</ele><time>2026-04-04T10:43:11.167Z</time></trkpt><trkpt lat="42.10667" lon="12.4215483"><ele>257.0</ele><time>2026-04-04T10:43:13.166Z</time></trkpt><trkpt lat="42.1067333" lon="12.4215583"><ele>257.0</ele><time>2026-04-04T10:43:15.167Z</time></trkpt><trkpt lat="42.1068133" lon="12.4215417"><ele>257.0</ele><time>2026-04-04T10:43:19.166Z</time></trkpt><trkpt lat="42.106925" lon="12.421645"><ele>256.0</ele><time>2026-04-04T10:43:38.167Z</time></trkpt><trkpt lat="42.1069833" lon="12.42172"><ele>255.0</ele><time>2026-04-04T10:43:41.167Z</time></trkpt><trkpt lat="42.107055" lon="12.4217883"><ele>254.0</ele><time>2026-04-04T10:43:43.166Z</time></trkpt><trkpt lat="42.1071333" lon="12.421815"><ele>253.0</ele><time>2026-04-04T10:43:46.166Z</time></trkpt><trkpt lat="42.1071983" lon="12.4218"><ele>252.00000000000003</ele><time>2026-04-04T10:43:49.166Z</time></trkpt><trkpt lat="42.10726" lon="12.4217783"><ele>251.0</ele><time>2026-04-04T10:43:52.167Z</time></trkpt><trkpt lat="42.107335" lon="12.4217417"><ele>250.1428571428571</ele><time>2026-04-04T10:43:55.166Z</time></trkpt><trkpt lat="42.107425" lon="12.42171"><ele>249.28571428571428</ele><time>2026-04-04T10:43:58.166Z</time></trkpt><trkpt lat="42.107485" lon="12.4216767"><ele>248.42857142857142</ele><time>2026-04-04T10:44:00.166Z</time></trkpt><trkpt lat="42.107545" lon="12.42163"><ele>247.57142857142856</ele><time>2026-04-04T10:44:02.167Z</time></trkpt><trkpt lat="42.107595" lon="12.42156"><ele>246.71428571428572</ele><time>2026-04-04T10:44:04.166Z</time></trkpt><trkpt lat="42.107635" lon="12.42148"><ele>245.85714285714286</ele><time>2026-04-04T10:44:07.166Z</time></trkpt><trkpt lat="42.1076683" lon="12.4214067"><ele>245.0</ele><time>2026-04-04T10:44:17.167Z</time></trkpt><trkpt lat="42.1077417" lon="12.42135"><ele>244.83333333333334</ele><time>2026-04-04T10:44:21.167Z</time></trkpt><trkpt lat="42.1078033" lon="12.4212983"><ele>244.66666666666669</ele><time>2026-04-04T10:44:24.167Z</time></trkpt><trkpt lat="42.1078717" lon="12.421205"><ele>244.5</ele><time>2026-04-04T10:44:27.166Z</time></trkpt><trkpt lat="42.1079183" lon="12.4211383"><ele>244.33333333333331</ele><time>2026-04-04T10:44:29.167Z</time></trkpt><trkpt lat="42.107965" lon="12.42106"><ele>244.16666666666666</ele><time>2026-04-04T10:44:31.166Z</time></trkpt><trkpt lat="42.1080133" lon="12.4209833"><ele>244.0</ele><time>2026-04-04T10:44:33.167Z</time></trkpt><trkpt lat="42.1080633" lon="12.4208967"><ele>243.99999999999997</ele><time>2026-04-04T10:44:35.166Z</time></trkpt><trkpt lat="42.1081067" lon="12.4208083"><ele>244.0</ele><time>2026-04-04T10:44:37.166Z</time></trkpt><trkpt lat="42.1081483" lon="12.4207117"><ele>244.0</ele><time>2026-04-04T10:44:39.167Z</time></trkpt><trkpt lat="42.10823" lon="12.4206433"><ele>244.0</ele><time>2026-04-04T10:44:41.166Z</time></trkpt><trkpt lat="42.1083033" lon="12.4206017"><ele>243.99999999999997</ele><time>2026-04-04T10:44:43.166Z</time></trkpt><trkpt lat="42.1083583" lon="12.4205367"><ele>244.0</ele><time>2026-04-04T10:44:45.167Z</time></trkpt><trkpt lat="42.10842" lon="12.420465"><ele>244.16666666666666</ele><time>2026-04-04T10:44:47.166Z</time></trkpt><trkpt lat="42.1084817" lon="12.4204167"><ele>244.33333333333331</ele><time>2026-04-04T10:44:49.166Z</time></trkpt><trkpt lat="42.108555" lon="12.420385"><ele>244.5</ele><time>2026-04-04T10:44:51.166Z</time></trkpt><trkpt lat="42.10863" lon="12.42034"><ele>244.66666666666669</ele><time>2026-04-04T10:44:53.166Z</time></trkpt><trkpt lat="42.108715" lon="12.4202917"><ele>244.83333333333334</ele><time>2026-04-04T10:44:55.166Z</time></trkpt><trkpt lat="42.1087967" lon="12.420245"><ele>245.0</ele><time>2026-04-04T10:44:57.167Z</time></trkpt><trkpt lat="42.1088717" lon="12.420195"><ele>245.00000000000003</ele><time>2026-04-04T10:44:59.166Z</time></trkpt><trkpt lat="42.1089433" lon="12.4201367"><ele>245.0</ele><time>2026-04-04T10:45:01.167Z</time></trkpt><trkpt lat="42.109035" lon="12.4201167"><ele>245.0</ele><time>2026-04-04T10:45:03.166Z</time></trkpt><trkpt lat="42.1091267" lon="12.4200817"><ele>245.0</ele><time>2026-04-04T10:45:05.167Z</time></trkpt><trkpt lat="42.1092133" lon="12.4200467"><ele>245.00000000000003</ele><time>2026-04-04T10:45:07.166Z</time></trkpt><trkpt lat="42.1092883" lon="12.4200283"><ele>245.0</ele><time>2026-04-04T10:45:09.166Z</time></trkpt><trkpt lat="42.1093567" lon="12.4199983"><ele>244.16666666666669</ele><time>2026-04-04T10:45:11.167Z</time></trkpt><trkpt lat="42.1094233" lon="12.4200133"><ele>243.33333333333334</ele><time>2026-04-04T10:45:13.166Z</time></trkpt><trkpt lat="42.1095083" lon="12.4200017"><ele>242.5</ele><time>2026-04-04T10:45:15.166Z</time></trkpt><trkpt lat="42.1095933" lon="12.4199933"><ele>241.66666666666669</ele><time>2026-04-04T10:45:17.167Z</time></trkpt><trkpt lat="42.10968" lon="12.41998"><ele>240.83333333333334</ele><time>2026-04-04T10:45:19.166Z</time></trkpt><trkpt lat="42.109765" lon="12.4199467"><ele>240.0</ele><time>2026-04-04T10:45:21.167Z</time></trkpt><trkpt lat="42.109855" lon="12.4199267"><ele>239.57142857142858</ele><time>2026-04-04T10:45:23.166Z</time></trkpt><trkpt lat="42.1099383" lon="12.4199233"><ele>239.1428571428571</ele><time>2026-04-04T10:45:25.166Z</time></trkpt><trkpt lat="42.110015" lon="12.4199267"><ele>238.7142857142857</ele><time>2026-04-04T10:45:27.167Z</time></trkpt><trkpt lat="42.1100883" lon="12.4199433"><ele>238.28571428571428</ele><time>2026-04-04T10:45:29.166Z</time></trkpt><trkpt lat="42.1101517" lon="12.4199567"><ele>237.85714285714283</ele><time>2026-04-04T10:45:31.167Z</time></trkpt><trkpt lat="42.11009" lon="12.4199117"><ele>237.4285714285714</ele><time>2026-04-04T10:45:51.166Z</time></trkpt><trkpt lat="42.1101317" lon="12.4198383"><ele>236.99999999999997</ele><time>2026-04-04T10:45:56.167Z</time></trkpt><trkpt lat="42.1101967" lon="12.4197933"><ele>237.0</ele><time>2026-04-04T10:45:59.166Z</time></trkpt><trkpt lat="42.110285" lon="12.4197867"><ele>237.0</ele><time>2026-04-04T10:46:02.166Z</time></trkpt><trkpt lat="42.11036" lon="12.4197967"><ele>237.0</ele><time>2026-04-04T10:46:04.167Z</time></trkpt><trkpt lat="42.1104283" lon="12.41978"><ele>237.0</ele><time>2026-04-04T10:46:07.165Z</time></trkpt><trkpt lat="42.1105117" lon="12.41975"><ele>237.0</ele><time>2026-04-04T10:46:18.165Z</time></trkpt><trkpt lat="42.1105767" lon="12.4197217"><ele>237.0</ele><time>2026-04-04T10:46:21.165Z</time></trkpt><trkpt lat="42.1106417" lon="12.4197217"><ele>237.0</ele><time>2026-04-04T10:46:24.166Z</time></trkpt><trkpt lat="42.1107267" lon="12.419715"><ele>237.0</ele><time>2026-04-04T10:46:27.165Z</time></trkpt><trkpt lat="42.1108083" lon="12.41973"><ele>237.0</ele><time>2026-04-04T10:46:29.165Z</time></trkpt><trkpt lat="42.1108867" lon="12.41972"><ele>237.0</ele><time>2026-04-04T10:46:31.166Z</time></trkpt><trkpt lat="42.1109717" lon="12.4197067"><ele>237.0</ele><time>2026-04-04T10:46:33.166Z</time></trkpt><trkpt lat="42.111065" lon="12.41966"><ele>237.0</ele><time>2026-04-04T10:46:35.165Z</time></trkpt><trkpt lat="42.1111633" lon="12.419625"><ele>236.33333333333334</ele><time>2026-04-04T10:46:37.166Z</time></trkpt><trkpt lat="42.111235" lon="12.4196033"><ele>235.66666666666669</ele><time>2026-04-04T10:46:39.165Z</time></trkpt><trkpt lat="42.1113133" lon="12.4195533"><ele>235.0</ele><time>2026-04-04T10:46:41.165Z</time></trkpt><trkpt lat="42.11139" lon="12.419495"><ele>234.33333333333334</ele><time>2026-04-04T10:46:43.165Z</time></trkpt><trkpt lat="42.1114783" lon="12.4194383"><ele>233.66666666666669</ele><time>2026-04-04T10:46:45.166Z</time></trkpt><trkpt lat="42.111555" lon="12.419405"><ele>233.0</ele><time>2026-04-04T10:46:47.166Z</time></trkpt><trkpt lat="42.1116267" lon="12.4193733"><ele>233.00000000000003</ele><time>2026-04-04T10:46:49.165Z</time></trkpt><trkpt lat="42.1117" lon="12.4193233"><ele>233.0</ele><time>2026-04-04T10:46:51.165Z</time></trkpt><trkpt lat="42.1117717" lon="12.4192633"><ele>233.0</ele><time>2026-04-04T10:46:53.166Z</time></trkpt><trkpt lat="42.111825" lon="12.4191617"><ele>233.0</ele><time>2026-04-04T10:46:55.165Z</time></trkpt><trkpt lat="42.111865" lon="12.419085"><ele>233.00000000000003</ele><time>2026-04-04T10:46:57.165Z</time></trkpt><trkpt lat="42.1118817" lon="12.4189667"><ele>233.0</ele><time>2026-04-04T10:47:20.165Z</time></trkpt><trkpt lat="42.1118733" lon="12.4188817"><ele>233.14285714285717</ele><time>2026-04-04T10:47:24.165Z</time></trkpt><trkpt lat="42.1118767" lon="12.41879"><ele>233.28571428571428</ele><time>2026-04-04T10:47:28.165Z</time></trkpt><trkpt lat="42.1118817" lon="12.4186817"><ele>233.42857142857144</ele><time>2026-04-04T10:47:32.166Z</time></trkpt><trkpt lat="42.1118833" lon="12.4185967"><ele>233.57142857142858</ele><time>2026-04-04T10:47:35.166Z</time></trkpt><trkpt lat="42.11186" lon="12.4185133"><ele>233.71428571428572</ele><time>2026-04-04T10:47:38.166Z</time></trkpt><trkpt lat="42.111855" lon="12.4184217"><ele>233.85714285714286</ele><time>2026-04-04T10:47:43.165Z</time></trkpt><trkpt lat="42.11182" lon="12.418335"><ele>234.0</ele><time>2026-04-04T10:47:46.165Z</time></trkpt><trkpt lat="42.1117933" lon="12.4181"><ele>234.0</ele><time>2026-04-04T10:48:06.165Z</time></trkpt><trkpt lat="42.1117367" lon="12.4180433"><ele>234.0</ele><time>2026-04-04T10:48:25.165Z</time></trkpt><trkpt lat="42.1117567" lon="12.41817"><ele>234.0</ele><time>2026-04-04T10:48:29.165Z</time></trkpt><trkpt lat="42.111775" lon="12.4182933"><ele>234.0</ele><time>2026-04-04T10:48:32.166Z</time></trkpt><trkpt lat="42.1118017" lon="12.418405"><ele>234.0</ele><time>2026-04-04T10:48:35.165Z</time></trkpt><trkpt lat="42.1118167" lon="12.4185267"><ele>234.0</ele><time>2026-04-04T10:48:38.165Z</time></trkpt><trkpt lat="42.1118283" lon="12.4186217"><ele>234.0</ele><time>2026-04-04T10:48:40.165Z</time></trkpt><trkpt lat="42.1118433" lon="12.4187367"><ele>233.99999999999997</ele><time>2026-04-04T10:48:42.165Z</time></trkpt><trkpt lat="42.1118633" lon="12.418905"><ele>233.99999999999997</ele><time>2026-04-04T10:48:54.166Z</time></trkpt><trkpt lat="42.1119517" lon="12.4189433"><ele>234.0</ele><time>2026-04-04T10:51:04.166Z</time></trkpt><trkpt lat="42.1119783" lon="12.418845"><ele>234.0</ele><time>2026-04-04T10:51:29.165Z</time></trkpt><trkpt lat="42.1119817" lon="12.41875"><ele>234.0</ele><time>2026-04-04T10:51:31.165Z</time></trkpt><trkpt lat="42.11197" lon="12.4186533"><ele>234.0</ele><time>2026-04-04T10:51:33.165Z</time></trkpt><trkpt lat="42.1119617" lon="12.418525"><ele>234.0</ele><time>2026-04-04T10:51:36.166Z</time></trkpt><trkpt lat="42.1119683" lon="12.418425"><ele>234.0</ele><time>2026-04-04T10:51:38.166Z</time></trkpt><trkpt lat="42.1119767" lon="12.4183183"><ele>234.0</ele><time>2026-04-04T10:51:40.166Z</time></trkpt><trkpt lat="42.1119683" lon="12.4182183"><ele>234.0</ele><time>2026-04-04T10:51:42.165Z</time></trkpt><trkpt lat="42.1119567" lon="12.4181"><ele>234.0</ele><time>2026-04-04T10:51:44.165Z</time></trkpt><trkpt lat="42.111945" lon="12.4179883"><ele>234.0</ele><time>2026-04-04T10:51:46.166Z</time></trkpt><trkpt lat="42.1119267" lon="12.4178733"><ele>234.0</ele><time>2026-04-04T10:51:48.166Z</time></trkpt><trkpt lat="42.111915" lon="12.4177533"><ele>234.0</ele><time>2026-04-04T10:51:50.166Z</time></trkpt><trkpt lat="42.1118917" lon="12.417635"><ele>234.0</ele><time>2026-04-04T10:51:52.166Z</time></trkpt><trkpt lat="42.1118683" lon="12.4175167"><ele>234.0</ele><time>2026-04-04T10:51:54.166Z</time></trkpt><trkpt lat="42.1118283" lon="12.4174117"><ele>233.39999999999998</ele><time>2026-04-04T10:51:56.165Z</time></trkpt><trkpt lat="42.1117783" lon="12.417315"><ele>232.79999999999998</ele><time>2026-04-04T10:51:58.165Z</time></trkpt><trkpt lat="42.1117217" lon="12.417205"><ele>232.20000000000002</ele><time>2026-04-04T10:52:00.165Z</time></trkpt><trkpt lat="42.1116583" lon="12.4171233"><ele>231.60000000000002</ele><time>2026-04-04T10:52:02.165Z</time></trkpt><trkpt lat="42.1115883" lon="12.4170467"><ele>231.0</ele><time>2026-04-04T10:52:04.165Z</time></trkpt><trkpt lat="42.1115133" lon="12.41697"><ele>230.20000000000002</ele><time>2026-04-04T10:52:06.165Z</time></trkpt><trkpt lat="42.1114333" lon="12.4169133"><ele>229.40000000000003</ele><time>2026-04-04T10:52:08.165Z</time></trkpt><trkpt lat="42.1113417" lon="12.4168633"><ele>228.6</ele><time>2026-04-04T10:52:10.166Z</time></trkpt><trkpt lat="42.1112417" lon="12.416835"><ele>227.8</ele><time>2026-04-04T10:52:12.165Z</time></trkpt><trkpt lat="42.11114" lon="12.416825"><ele>227.0</ele><time>2026-04-04T10:52:14.165Z</time></trkpt><trkpt lat="42.1110333" lon="12.4168233"><ele>227.0</ele><time>2026-04-04T10:52:16.165Z</time></trkpt><trkpt lat="42.110925" lon="12.4168417"><ele>227.0</ele><time>2026-04-04T10:52:18.166Z</time></trkpt><trkpt lat="42.1108233" lon="12.4168683"><ele>227.0</ele><time>2026-04-04T10:52:20.165Z</time></trkpt><trkpt lat="42.1107367" lon="12.4168967"><ele>227.0</ele><time>2026-04-04T10:52:22.165Z</time></trkpt><trkpt lat="42.1106483" lon="12.4169233"><ele>227.0</ele><time>2026-04-04T10:52:24.165Z</time></trkpt><trkpt lat="42.1105533" lon="12.4169483"><ele>227.00000000000003</ele><time>2026-04-04T10:52:26.166Z</time></trkpt><trkpt lat="42.1104683" lon="12.4169783"><ele>227.0</ele><time>2026-04-04T10:52:28.166Z</time></trkpt><trkpt lat="42.1103933" lon="12.4169967"><ele>227.0</ele><time>2026-04-04T10:52:30.165Z</time></trkpt><trkpt lat="42.1103117" lon="12.41702"><ele>227.0</ele><time>2026-04-04T10:52:33.166Z</time></trkpt><trkpt lat="42.1102417" lon="12.4170367"><ele>227.00000000000003</ele><time>2026-04-04T10:52:37.165Z</time></trkpt><trkpt lat="42.1101717" lon="12.4170133"><ele>227.0</ele><time>2026-04-04T10:52:41.166Z</time></trkpt><trkpt lat="42.1101717" lon="12.4168917"><ele>227.00000000000003</ele><time>2026-04-04T10:52:43.165Z</time></trkpt><trkpt lat="42.110175" lon="12.416735"><ele>227.0</ele><time>2026-04-04T10:52:45.165Z</time></trkpt><trkpt lat="42.1101717" lon="12.4166467"><ele>227.0</ele><time>2026-04-04T10:52:46.166Z</time></trkpt><trkpt lat="42.1101667" lon="12.416475"><ele>227.0</ele><time>2026-04-04T10:52:48.166Z</time></trkpt><trkpt lat="42.1101633" lon="12.4163833"><ele>227.00000000000003</ele><time>2026-04-04T10:52:49.166Z</time></trkpt><trkpt lat="42.1101633" lon="12.4162917"><ele>227.0</ele><time>2026-04-04T10:52:50.166Z</time></trkpt><trkpt lat="42.1101617" lon="12.4161933"><ele>226.50000000000003</ele><time>2026-04-04T10:52:51.166Z</time></trkpt><trkpt lat="42.1101583" lon="12.4160983"><ele>226.0</ele><time>2026-04-04T10:52:52.165Z</time></trkpt><trkpt lat="42.1101617" lon="12.41601"><ele>225.5</ele><time>2026-04-04T10:52:53.166Z</time></trkpt><trkpt lat="42.1101717" lon="12.41592"><ele>225.0</ele><time>2026-04-04T10:52:54.165Z</time></trkpt><trkpt lat="42.1101833" lon="12.4158317"><ele>224.50000000000003</ele><time>2026-04-04T10:52:55.165Z</time></trkpt><trkpt lat="42.11017" lon="12.4157"><ele>224.0</ele><time>2026-04-04T10:52:57.165Z</time></trkpt><trkpt lat="42.11013" lon="12.415605"><ele>224.0</ele><time>2026-04-04T10:52:59.166Z</time></trkpt><trkpt lat="42.1100783" lon="12.4155383"><ele>223.99999999999997</ele><time>2026-04-04T10:53:01.165Z</time></trkpt><trkpt lat="42.1099317" lon="12.4154617"><ele>223.99999999999997</ele><time>2026-04-04T10:53:37.165Z</time></trkpt><trkpt lat="42.1098267" lon="12.4154517"><ele>224.0</ele><time>2026-04-04T10:53:46.166Z</time></trkpt><trkpt lat="42.10986" lon="12.415545"><ele>224.0</ele><time>2026-04-04T10:53:59.165Z</time></trkpt><trkpt lat="42.1099033" lon="12.415615"><ele>224.00000000000003</ele><time>2026-04-04T10:54:02.165Z</time></trkpt><trkpt lat="42.1099267" lon="12.4157217"><ele>224.0</ele><time>2026-04-04T10:54:06.165Z</time></trkpt><trkpt lat="42.1099183" lon="12.4158283"><ele>224.0</ele><time>2026-04-04T10:54:10.166Z</time></trkpt><trkpt lat="42.1099083" lon="12.4159133"><ele>224.0</ele><time>2026-04-04T10:54:14.166Z</time></trkpt><trkpt lat="42.1098583" lon="12.415985"><ele>224.00000000000003</ele><time>2026-04-04T10:54:18.166Z</time></trkpt><trkpt lat="42.1097933" lon="12.4160917"><ele>224.0</ele><time>2026-04-04T10:54:26.165Z</time></trkpt><trkpt lat="42.10969" lon="12.4161867"><ele>229.0</ele><time>2026-04-04T10:54:55.165Z</time></trkpt><trkpt lat="42.1095733" lon="12.4162233"><ele>234.0</ele><time>2026-04-04T10:55:19.165Z</time></trkpt><trkpt lat="42.1094717" lon="12.4162733"><ele>239.0</ele><time>2026-04-04T10:55:50.165Z</time></trkpt><trkpt lat="42.1093383" lon="12.41629"><ele>244.0</ele><time>2026-04-04T10:56:04.165Z</time></trkpt><trkpt lat="42.1093017" lon="12.4161617"><ele>244.0</ele><time>2026-04-04T10:56:29.165Z</time></trkpt><trkpt lat="42.1092617" lon="12.41601"><ele>243.99999999999997</ele><time>2026-04-04T10:56:42.165Z</time></trkpt><trkpt lat="42.1091683" lon="12.4160133"><ele>243.99999999999997</ele><time>2026-04-04T10:57:11.166Z</time></trkpt><trkpt lat="42.109085" lon="12.4160517"><ele>244.0</ele><time>2026-04-04T10:57:21.166Z</time></trkpt><trkpt lat="42.10901" lon="12.4160833"><ele>244.0</ele><time>2026-04-04T10:57:24.166Z</time></trkpt><trkpt lat="42.10894" lon="12.4160933"><ele>244.57142857142856</ele><time>2026-04-04T10:57:27.165Z</time></trkpt><trkpt lat="42.1088767" lon="12.4161017"><ele>245.14285714285714</ele><time>2026-04-04T10:57:30.165Z</time></trkpt><trkpt lat="42.1087967" lon="12.416105"><ele>245.71428571428572</ele><time>2026-04-04T10:57:34.166Z</time></trkpt><trkpt lat="42.1087267" lon="12.4160767"><ele>246.28571428571428</ele><time>2026-04-04T10:57:37.166Z</time></trkpt><trkpt lat="42.108665" lon="12.4160583"><ele>246.8571428571429</ele><time>2026-04-04T10:57:40.166Z</time></trkpt><trkpt lat="42.1086117" lon="12.4159833"><ele>247.42857142857144</ele><time>2026-04-04T10:57:44.165Z</time></trkpt><trkpt lat="42.1085717" lon="12.41589"><ele>248.0</ele><time>2026-04-04T10:57:48.165Z</time></trkpt><trkpt lat="42.1085433" lon="12.4158083"><ele>248.0</ele><time>2026-04-04T10:57:51.165Z</time></trkpt><trkpt lat="42.1085333" lon="12.415715"><ele>248.00000000000003</ele><time>2026-04-04T10:57:55.166Z</time></trkpt><trkpt lat="42.1085233" lon="12.4156283"><ele>248.0</ele><time>2026-04-04T10:57:59.165Z</time></trkpt><trkpt lat="42.1085167" lon="12.4155317"><ele>248.0</ele><time>2026-04-04T10:58:03.165Z</time></trkpt><trkpt lat="42.10851" lon="12.4154383"><ele>248.00000000000003</ele><time>2026-04-04T10:58:09.165Z</time></trkpt><trkpt lat="42.108515" lon="12.415345"><ele>248.0</ele><time>2026-04-04T10:58:14.165Z</time></trkpt><trkpt lat="42.1085367" lon="12.4152617"><ele>248.0</ele><time>2026-04-04T10:58:17.165Z</time></trkpt><trkpt lat="42.1085367" lon="12.415135"><ele>247.50000000000003</ele><time>2026-04-04T10:58:20.165Z</time></trkpt><trkpt lat="42.10852" lon="12.4150433"><ele>247.0</ele><time>2026-04-04T10:58:23.166Z</time></trkpt><trkpt lat="42.10852" lon="12.4149583"><ele>246.5</ele><time>2026-04-04T10:58:25.166Z</time></trkpt><trkpt lat="42.10853" lon="12.4148533"><ele>246.0</ele><time>2026-04-04T10:58:29.165Z</time></trkpt><trkpt lat="42.1085317" lon="12.4147667"><ele>245.50000000000003</ele><time>2026-04-04T10:58:32.165Z</time></trkpt><trkpt lat="42.1085333" lon="12.414635"><ele>245.0</ele><time>2026-04-04T10:59:53.165Z</time></trkpt><trkpt lat="42.10852" lon="12.4145067"><ele>245.00000000000003</ele><time>2026-04-04T10:59:56.166Z</time></trkpt><trkpt lat="42.1084983" lon="12.4144067"><ele>245.0</ele><time>2026-04-04T10:59:59.166Z</time></trkpt><trkpt lat="42.1084933" lon="12.4142333"><ele>245.0</ele><time>2026-04-04T11:00:11.165Z</time></trkpt><trkpt lat="42.10843" lon="12.414195"><ele>245.0</ele><time>2026-04-04T11:00:13.165Z</time></trkpt><trkpt lat="42.108365" lon="12.4141617"><ele>245.00000000000003</ele><time>2026-04-04T11:00:15.166Z</time></trkpt><trkpt lat="42.1083367" lon="12.41407"><ele>245.0</ele><time>2026-04-04T11:00:19.166Z</time></trkpt><trkpt lat="42.1083617" lon="12.413955"><ele>245.00000000000003</ele><time>2026-04-04T11:00:22.166Z</time></trkpt><trkpt lat="42.1083867" lon="12.4138517"><ele>245.0</ele><time>2026-04-04T11:00:25.165Z</time></trkpt><trkpt lat="42.10838" lon="12.4137583"><ele>245.0</ele><time>2026-04-04T11:00:27.165Z</time></trkpt><trkpt lat="42.1083883" lon="12.413665"><ele>245.0</ele><time>2026-04-04T11:00:31.165Z</time></trkpt><trkpt lat="42.1084083" lon="12.4135567"><ele>245.00000000000003</ele><time>2026-04-04T11:00:39.165Z</time></trkpt><trkpt lat="42.1084567" lon="12.41349"><ele>245.0</ele><time>2026-04-04T11:00:42.165Z</time></trkpt><trkpt lat="42.108505" lon="12.4134"><ele>245.14285714285714</ele><time>2026-04-04T11:00:46.165Z</time></trkpt><trkpt lat="42.1085183" lon="12.41329"><ele>245.28571428571428</ele><time>2026-04-04T11:00:52.166Z</time></trkpt><trkpt lat="42.1084883" lon="12.4131817"><ele>245.42857142857144</ele><time>2026-04-04T11:01:00.165Z</time></trkpt><trkpt lat="42.1084533" lon="12.413105"><ele>245.57142857142858</ele><time>2026-04-04T11:01:06.165Z</time></trkpt><trkpt lat="42.108405" lon="12.4130467"><ele>245.71428571428572</ele><time>2026-04-04T11:01:12.165Z</time></trkpt><trkpt lat="42.1083633" lon="12.4129733"><ele>245.8571428571429</ele><time>2026-04-04T11:01:18.166Z</time></trkpt><trkpt lat="42.10833" lon="12.412895"><ele>246.00000000000003</ele><time>2026-04-04T11:01:24.165Z</time></trkpt><trkpt lat="42.1083167" lon="12.412805"><ele>246.5</ele><time>2026-04-04T11:01:31.166Z</time></trkpt><trkpt lat="42.1082717" lon="12.4127317"><ele>247.0</ele><time>2026-04-04T11:01:38.165Z</time></trkpt><trkpt lat="42.10823" lon="12.4126667"><ele>247.5</ele><time>2026-04-04T11:01:44.166Z</time></trkpt><trkpt lat="42.1081783" lon="12.4126033"><ele>248.0</ele><time>2026-04-04T11:01:50.166Z</time></trkpt><trkpt lat="42.1081083" lon="12.41255"><ele>248.5</ele><time>2026-04-04T11:01:55.166Z</time></trkpt><trkpt lat="42.1080233" lon="12.4125367"><ele>249.0</ele><time>2026-04-04T11:01:58.165Z</time></trkpt><trkpt lat="42.1079417" lon="12.4125267"><ele>249.85714285714283</ele><time>2026-04-04T11:02:01.166Z</time></trkpt><trkpt lat="42.1078733" lon="12.4125333"><ele>250.7142857142857</ele><time>2026-04-04T11:02:05.166Z</time></trkpt><trkpt lat="42.1078033" lon="12.4125033"><ele>251.57142857142856</ele><time>2026-04-04T11:02:08.166Z</time></trkpt><trkpt lat="42.10774" lon="12.4124983"><ele>252.42857142857144</ele><time>2026-04-04T11:02:11.165Z</time></trkpt><trkpt lat="42.1076733" lon="12.4124933"><ele>253.2857142857143</ele><time>2026-04-04T11:02:14.165Z</time></trkpt><trkpt lat="42.1076033" lon="12.4124417"><ele>254.14285714285717</ele><time>2026-04-04T11:02:17.165Z</time></trkpt><trkpt lat="42.1075267" lon="12.41238"><ele>255.0</ele><time>2026-04-04T11:02:20.165Z</time></trkpt><trkpt lat="42.1074633" lon="12.412335"><ele>255.2857142857143</ele><time>2026-04-04T11:02:22.166Z</time></trkpt><trkpt lat="42.1074017" lon="12.4122883"><ele>255.5714285714286</ele><time>2026-04-04T11:02:24.166Z</time></trkpt><trkpt lat="42.1073617" lon="12.4122167"><ele>255.85714285714286</ele><time>2026-04-04T11:02:27.166Z</time></trkpt><trkpt lat="42.1073417" lon="12.4121"><ele>256.14285714285717</ele><time>2026-04-04T11:02:30.166Z</time></trkpt><trkpt lat="42.1073483" lon="12.4119767"><ele>256.42857142857144</ele><time>2026-04-04T11:02:33.166Z</time></trkpt><trkpt lat="42.10735" lon="12.4118917"><ele>256.7142857142857</ele><time>2026-04-04T11:02:35.165Z</time></trkpt><trkpt lat="42.1073617" lon="12.4118067"><ele>257.0</ele><time>2026-04-04T11:02:38.166Z</time></trkpt><trkpt lat="42.10738" lon="12.4117183"><ele>257.0</ele><time>2026-04-04T11:02:42.166Z</time></trkpt><trkpt lat="42.1074033" lon="12.4116167"><ele>257.0</ele><time>2026-04-04T11:02:45.166Z</time></trkpt><trkpt lat="42.1074117" lon="12.4115167"><ele>257.0</ele><time>2026-04-04T11:02:49.165Z</time></trkpt><trkpt lat="42.1073983" lon="12.41142"><ele>257.0</ele><time>2026-04-04T11:02:53.165Z</time></trkpt><trkpt lat="42.1073917" lon="12.4113217"><ele>257.0</ele><time>2026-04-04T11:02:56.166Z</time></trkpt><trkpt lat="42.1073867" lon="12.4112167"><ele>257.0</ele><time>2026-04-04T11:02:58.165Z</time></trkpt><trkpt lat="42.1073867" lon="12.4110767"><ele>255.83333333333334</ele><time>2026-04-04T11:03:00.165Z</time></trkpt><trkpt lat="42.1073767" lon="12.4109167"><ele>254.66666666666669</ele><time>2026-04-04T11:03:02.165Z</time></trkpt><trkpt lat="42.107365" lon="12.4108267"><ele>253.5</ele><time>2026-04-04T11:03:03.165Z</time></trkpt><trkpt lat="42.1073633" lon="12.4107267"><ele>252.33333333333331</ele><time>2026-04-04T11:03:04.165Z</time></trkpt><trkpt lat="42.1073667" lon="12.410635"><ele>251.16666666666666</ele><time>2026-04-04T11:03:05.166Z</time></trkpt><trkpt lat="42.1073467" lon="12.4104767"><ele>250.0</ele><time>2026-04-04T11:03:07.166Z</time></trkpt><trkpt lat="42.1073067" lon="12.4103183"><ele>248.33333333333331</ele><time>2026-04-04T11:03:09.166Z</time></trkpt><trkpt lat="42.1072617" lon="12.4102417"><ele>246.66666666666666</ele><time>2026-04-04T11:03:10.165Z</time></trkpt><trkpt lat="42.1071983" lon="12.4101783"><ele>245.0</ele><time>2026-04-04T11:03:11.165Z</time></trkpt><trkpt lat="42.1071217" lon="12.41012"><ele>243.33333333333331</ele><time>2026-04-04T11:03:12.166Z</time></trkpt><trkpt lat="42.1070617" lon="12.4100467"><ele>241.66666666666666</ele><time>2026-04-04T11:03:13.165Z</time></trkpt><trkpt lat="42.1070117" lon="12.4099583"><ele>240.0</ele><time>2026-04-04T11:03:14.165Z</time></trkpt><trkpt lat="42.1069383" lon="12.409815"><ele>240.0</ele><time>2026-04-04T11:03:16.165Z</time></trkpt><trkpt lat="42.1068533" lon="12.4097083"><ele>240.0</ele><time>2026-04-04T11:03:18.165Z</time></trkpt><trkpt lat="42.1067883" lon="12.4096067"><ele>240.0</ele><time>2026-04-04T11:03:20.166Z</time></trkpt><trkpt lat="42.1067217" lon="12.4095083"><ele>240.0</ele><time>2026-04-04T11:03:22.166Z</time></trkpt><trkpt lat="42.106655" lon="12.4094117"><ele>240.0</ele><time>2026-04-04T11:03:24.166Z</time></trkpt><trkpt lat="42.1065833" lon="12.40933"><ele>238.5</ele><time>2026-04-04T11:03:27.166Z</time></trkpt><trkpt lat="42.1065167" lon="12.4093517"><ele>237.0</ele><time>2026-04-04T11:03:29.166Z</time></trkpt><trkpt lat="42.1064133" lon="12.4093883"><ele>235.5</ele><time>2026-04-04T11:03:31.165Z</time></trkpt><trkpt lat="42.1063517" lon="12.40942"><ele>234.0</ele><time>2026-04-04T11:03:33.165Z</time></trkpt><trkpt lat="42.1062917" lon="12.4094533"><ele>232.5</ele><time>2026-04-04T11:03:36.166Z</time></trkpt><trkpt lat="42.1062133" lon="12.40946"><ele>231.0</ele><time>2026-04-04T11:03:39.165Z</time></trkpt><trkpt lat="42.1061467" lon="12.40951"><ele>231.0</ele><time>2026-04-04T11:03:42.166Z</time></trkpt><trkpt lat="42.1060767" lon="12.409535"><ele>231.0</ele><time>2026-04-04T11:03:57.165Z</time></trkpt><trkpt lat="42.106015" lon="12.40957"><ele>231.0</ele><time>2026-04-04T11:03:59.165Z</time></trkpt><trkpt lat="42.1059283" lon="12.409635"><ele>231.0</ele><time>2026-04-04T11:04:01.165Z</time></trkpt><trkpt lat="42.1058233" lon="12.4097067"><ele>231.0</ele><time>2026-04-04T11:04:03.165Z</time></trkpt><trkpt lat="42.1057617" lon="12.4097367"><ele>231.0</ele><time>2026-04-04T11:04:04.165Z</time></trkpt><trkpt lat="42.1057033" lon="12.409775"><ele>231.16666666666666</ele><time>2026-04-04T11:04:05.165Z</time></trkpt><trkpt lat="42.1056417" lon="12.40981"><ele>231.33333333333331</ele><time>2026-04-04T11:04:06.165Z</time></trkpt><trkpt lat="42.1055733" lon="12.4098317"><ele>231.5</ele><time>2026-04-04T11:04:07.166Z</time></trkpt><trkpt lat="42.1054933" lon="12.4098583"><ele>231.66666666666666</ele><time>2026-04-04T11:04:09.166Z</time></trkpt><trkpt lat="42.10543" lon="12.409865"><ele>231.83333333333331</ele><time>2026-04-04T11:04:15.165Z</time></trkpt><trkpt lat="42.1053333" lon="12.4098967"><ele>232.0</ele><time>2026-04-04T11:04:23.165Z</time></trkpt><trkpt lat="42.105265" lon="12.40994"><ele>232.0</ele><time>2026-04-04T11:04:26.165Z</time></trkpt><trkpt lat="42.105215" lon="12.410005"><ele>232.0</ele><time>2026-04-04T11:04:29.166Z</time></trkpt><trkpt lat="42.105155" lon="12.41008"><ele>232.0</ele><time>2026-04-04T11:04:33.165Z</time></trkpt><trkpt lat="42.1051033" lon="12.4101483"><ele>232.0</ele><time>2026-04-04T11:04:38.165Z</time></trkpt><trkpt lat="42.10504" lon="12.410195"><ele>232.0</ele><time>2026-04-04T11:04:42.166Z</time></trkpt><trkpt lat="42.1048867" lon="12.4102983"><ele>233.16666666666666</ele><time>2026-04-04T11:04:52.166Z</time></trkpt><trkpt lat="42.1048233" lon="12.410305"><ele>234.33333333333331</ele><time>2026-04-04T11:04:54.166Z</time></trkpt><trkpt lat="42.1047133" lon="12.4102983"><ele>235.5</ele><time>2026-04-04T11:05:25.165Z</time></trkpt><trkpt lat="42.1046233" lon="12.410305"><ele>236.66666666666669</ele><time>2026-04-04T11:05:28.166Z</time></trkpt><trkpt lat="42.104555" lon="12.410305"><ele>237.83333333333334</ele><time>2026-04-04T11:05:30.165Z</time></trkpt><trkpt lat="42.104475" lon="12.4102983"><ele>239.0</ele><time>2026-04-04T11:05:32.165Z</time></trkpt><trkpt lat="42.10441" lon="12.4103217"><ele>239.00000000000003</ele><time>2026-04-04T11:05:34.165Z</time></trkpt><trkpt lat="42.104335" lon="12.4103333"><ele>239.0</ele><time>2026-04-04T11:05:36.166Z</time></trkpt><trkpt lat="42.104265" lon="12.41033"><ele>239.00000000000003</ele><time>2026-04-04T11:05:38.165Z</time></trkpt><trkpt lat="42.1041867" lon="12.4103167"><ele>239.00000000000003</ele><time>2026-04-04T11:05:41.166Z</time></trkpt><trkpt lat="42.1041217" lon="12.4102933"><ele>239.0</ele><time>2026-04-04T11:05:44.165Z</time></trkpt><trkpt lat="42.1040767" lon="12.4102233"><ele>239.00000000000003</ele><time>2026-04-04T11:05:48.165Z</time></trkpt><trkpt lat="42.10401" lon="12.4101933"><ele>239.00000000000003</ele><time>2026-04-04T11:05:53.166Z</time></trkpt><trkpt lat="42.1039183" lon="12.410145"><ele>239.66666666666669</ele><time>2026-04-04T11:06:00.165Z</time></trkpt><trkpt lat="42.10385" lon="12.4100967"><ele>240.33333333333334</ele><time>2026-04-04T11:06:04.166Z</time></trkpt><trkpt lat="42.1037917" lon="12.4100467"><ele>241.0</ele><time>2026-04-04T11:06:09.165Z</time></trkpt><trkpt lat="42.1037217" lon="12.4100167"><ele>241.66666666666669</ele><time>2026-04-04T11:06:15.166Z</time></trkpt><trkpt lat="42.103655" lon="12.4099717"><ele>242.33333333333334</ele><time>2026-04-04T11:06:21.165Z</time></trkpt><trkpt lat="42.1035717" lon="12.4098267"><ele>243.0</ele><time>2026-04-04T11:06:40.165Z</time></trkpt><trkpt lat="42.1035217" lon="12.4097383"><ele>244.33333333333334</ele><time>2026-04-04T11:06:45.166Z</time></trkpt><trkpt lat="42.1034767" lon="12.4096117"><ele>245.66666666666669</ele><time>2026-04-04T11:06:51.165Z</time></trkpt><trkpt lat="42.103455" lon="12.409495"><ele>247.0</ele><time>2026-04-04T11:06:58.165Z</time></trkpt><trkpt lat="42.1034283" lon="12.4093733"><ele>248.33333333333334</ele><time>2026-04-04T11:07:05.166Z</time></trkpt><trkpt lat="42.1033833" lon="12.4092967"><ele>249.66666666666669</ele><time>2026-04-04T11:07:10.165Z</time></trkpt><trkpt lat="42.1033283" lon="12.4092467"><ele>251.0</ele><time>2026-04-04T11:07:14.166Z</time></trkpt><trkpt lat="42.10327" lon="12.4091783"><ele>251.85714285714283</ele><time>2026-04-04T11:07:18.166Z</time></trkpt><trkpt lat="42.10323" lon="12.4091017"><ele>252.71428571428572</ele><time>2026-04-04T11:07:21.166Z</time></trkpt><trkpt lat="42.1031983" lon="12.409"><ele>253.57142857142856</ele><time>2026-04-04T11:07:25.165Z</time></trkpt><trkpt lat="42.1031317" lon="12.4089317"><ele>254.42857142857142</ele><time>2026-04-04T11:07:29.166Z</time></trkpt><trkpt lat="42.103075" lon="12.4088883"><ele>255.28571428571428</ele><time>2026-04-04T11:07:32.165Z</time></trkpt><trkpt lat="42.1030167" lon="12.4088283"><ele>256.1428571428571</ele><time>2026-04-04T11:07:36.166Z</time></trkpt><trkpt lat="42.10297" lon="12.40877"><ele>257.0</ele><time>2026-04-04T11:07:40.166Z</time></trkpt><trkpt lat="42.102905" lon="12.4087283"><ele>257.2857142857143</ele><time>2026-04-04T11:07:44.165Z</time></trkpt><trkpt lat="42.102835" lon="12.4086883"><ele>257.57142857142856</ele><time>2026-04-04T11:07:48.166Z</time></trkpt><trkpt lat="42.1027767" lon="12.4086533"><ele>257.8571428571429</ele><time>2026-04-04T11:07:51.166Z</time></trkpt><trkpt lat="42.1027017" lon="12.4086117"><ele>258.1428571428571</ele><time>2026-04-04T11:07:55.165Z</time></trkpt><trkpt lat="42.1026467" lon="12.4085517"><ele>258.42857142857144</ele><time>2026-04-04T11:07:59.166Z</time></trkpt><trkpt lat="42.1025783" lon="12.4085117"><ele>258.7142857142857</ele><time>2026-04-04T11:08:04.166Z</time></trkpt><trkpt lat="42.1025233" lon="12.40847"><ele>259.0</ele><time>2026-04-04T11:08:08.165Z</time></trkpt><trkpt lat="42.102475" lon="12.40839"><ele>259.0</ele><time>2026-04-04T11:08:13.165Z</time></trkpt><trkpt lat="42.102435" lon="12.40831"><ele>259.0</ele><time>2026-04-04T11:08:18.165Z</time></trkpt><trkpt lat="42.1023917" lon="12.4082383"><ele>259.0</ele><time>2026-04-04T11:08:23.165Z</time></trkpt><trkpt lat="42.102345" lon="12.4081767"><ele>259.0</ele><time>2026-04-04T11:08:27.166Z</time></trkpt><trkpt lat="42.1023083" lon="12.408095"><ele>259.0</ele><time>2026-04-04T11:08:31.165Z</time></trkpt><trkpt lat="42.102255" lon="12.408025"><ele>259.0</ele><time>2026-04-04T11:08:38.165Z</time></trkpt><trkpt lat="42.10221" lon="12.4079617"><ele>259.0</ele><time>2026-04-04T11:08:43.165Z</time></trkpt><trkpt lat="42.1021733" lon="12.4078883"><ele>259.7142857142857</ele><time>2026-04-04T11:08:47.165Z</time></trkpt><trkpt lat="42.1021267" lon="12.40781"><ele>260.42857142857144</ele><time>2026-04-04T11:08:52.166Z</time></trkpt><trkpt lat="42.1020933" lon="12.4077317"><ele>261.1428571428571</ele><time>2026-04-04T11:08:56.165Z</time></trkpt><trkpt lat="42.1020533" lon="12.4076417"><ele>261.8571428571429</ele><time>2026-04-04T11:09:01.165Z</time></trkpt><trkpt lat="42.10203" lon="12.40755"><ele>262.57142857142856</ele><time>2026-04-04T11:09:06.165Z</time></trkpt><trkpt lat="42.1020033" lon="12.407465"><ele>263.2857142857143</ele><time>2026-04-04T11:09:11.165Z</time></trkpt><trkpt lat="42.1019767" lon="12.4073733"><ele>264.0</ele><time>2026-04-04T11:09:16.166Z</time></trkpt><trkpt lat="42.1019367" lon="12.407305"><ele>264.0</ele><time>2026-04-04T11:09:20.165Z</time></trkpt><trkpt lat="42.101905" lon="12.4072233"><ele>264.0</ele><time>2026-04-04T11:09:25.166Z</time></trkpt><trkpt lat="42.101875" lon="12.4071333"><ele>264.0</ele><time>2026-04-04T11:09:30.165Z</time></trkpt><trkpt lat="42.1018467" lon="12.40704"><ele>264.0</ele><time>2026-04-04T11:09:35.165Z</time></trkpt><trkpt lat="42.101825" lon="12.40696"><ele>264.0</ele><time>2026-04-04T11:09:40.165Z</time></trkpt><trkpt lat="42.1018083" lon="12.4068717"><ele>264.0</ele><time>2026-04-04T11:09:45.165Z</time></trkpt><trkpt lat="42.1017967" lon="12.406785"><ele>264.0</ele><time>2026-04-04T11:09:49.166Z</time></trkpt><trkpt lat="42.1017717" lon="12.4066967"><ele>264.42857142857144</ele><time>2026-04-04T11:09:54.165Z</time></trkpt><trkpt lat="42.1017517" lon="12.4066133"><ele>264.8571428571429</ele><time>2026-04-04T11:09:58.166Z</time></trkpt><trkpt lat="42.1017233" lon="12.406525"><ele>265.28571428571433</ele><time>2026-04-04T11:10:02.165Z</time></trkpt><trkpt lat="42.1017083" lon="12.4064333"><ele>265.7142857142857</ele><time>2026-04-04T11:10:07.166Z</time></trkpt><trkpt lat="42.1016883" lon="12.4063483"><ele>266.14285714285717</ele><time>2026-04-04T11:10:12.165Z</time></trkpt><trkpt lat="42.10167" lon="12.40626"><ele>266.5714285714286</ele><time>2026-04-04T11:10:17.166Z</time></trkpt><trkpt lat="42.1016383" lon="12.406125"><ele>267.0</ele><time>2026-04-04T11:10:27.166Z</time></trkpt><trkpt lat="42.1016133" lon="12.4060383"><ele>267.7142857142857</ele><time>2026-04-04T11:10:34.166Z</time></trkpt><trkpt lat="42.101585" lon="12.405955"><ele>268.42857142857144</ele><time>2026-04-04T11:10:39.164Z</time></trkpt><trkpt lat="42.1015417" lon="12.4058917"><ele>269.1428571428571</ele><time>2026-04-04T11:10:45.164Z</time></trkpt><trkpt lat="42.101495" lon="12.4058267"><ele>269.8571428571429</ele><time>2026-04-04T11:10:51.164Z</time></trkpt><trkpt lat="42.101445" lon="12.4057733"><ele>270.57142857142856</ele><time>2026-04-04T11:10:56.165Z</time></trkpt><trkpt lat="42.1013967" lon="12.4057183"><ele>271.2857142857143</ele><time>2026-04-04T11:11:01.164Z</time></trkpt><trkpt lat="42.10135" lon="12.4056417"><ele>272.0</ele><time>2026-04-04T11:11:06.165Z</time></trkpt><trkpt lat="42.1012883" lon="12.40558"><ele>271.99999999999994</ele><time>2026-04-04T11:11:10.164Z</time></trkpt><trkpt lat="42.1012267" lon="12.40553"><ele>272.0</ele><time>2026-04-04T11:11:14.164Z</time></trkpt><trkpt lat="42.1011717" lon="12.405485"><ele>272.0</ele><time>2026-04-04T11:11:18.165Z</time></trkpt><trkpt lat="42.10112" lon="12.405425"><ele>272.0</ele><time>2026-04-04T11:11:22.164Z</time></trkpt><trkpt lat="42.1010683" lon="12.40536"><ele>272.0</ele><time>2026-04-04T11:11:26.165Z</time></trkpt><trkpt lat="42.1010017" lon="12.4052983"><ele>271.99999999999994</ele><time>2026-04-04T11:11:30.164Z</time></trkpt><trkpt lat="42.100945" lon="12.4052267"><ele>272.0</ele><time>2026-04-04T11:11:34.164Z</time></trkpt><trkpt lat="42.1009033" lon="12.40516"><ele>273.33333333333337</ele><time>2026-04-04T11:11:37.165Z</time></trkpt><trkpt lat="42.1008467" lon="12.4050833"><ele>274.6666666666667</ele><time>2026-04-04T11:11:40.164Z</time></trkpt><trkpt lat="42.10079" lon="12.40501"><ele>276.0</ele><time>2026-04-04T11:11:43.165Z</time></trkpt><trkpt lat="42.1007317" lon="12.4049417"><ele>277.3333333333333</ele><time>2026-04-04T11:11:46.164Z</time></trkpt><trkpt lat="42.100675" lon="12.4048817"><ele>278.66666666666663</ele><time>2026-04-04T11:11:49.165Z</time></trkpt><trkpt lat="42.1005967" lon="12.4048283"><ele>280.0</ele><time>2026-04-04T11:11:52.164Z</time></trkpt><trkpt lat="42.1005117" lon="12.40478"><ele>280.0</ele><time>2026-04-04T11:11:55.164Z</time></trkpt><trkpt lat="42.10043" lon="12.404735"><ele>280.0</ele><time>2026-04-04T11:11:58.165Z</time></trkpt><trkpt lat="42.1003517" lon="12.4047067"><ele>280.0</ele><time>2026-04-04T11:12:01.165Z</time></trkpt><trkpt lat="42.100275" lon="12.4046883"><ele>280.0</ele><time>2026-04-04T11:12:04.164Z</time></trkpt><trkpt lat="42.1001933" lon="12.4046917"><ele>280.0</ele><time>2026-04-04T11:12:07.164Z</time></trkpt><trkpt lat="42.10011" lon="12.4046733"><ele>280.0</ele><time>2026-04-04T11:12:11.165Z</time></trkpt><trkpt lat="42.100025" lon="12.40465"><ele>280.66666666666663</ele><time>2026-04-04T11:12:15.165Z</time></trkpt><trkpt lat="42.0999583" lon="12.4046183"><ele>281.3333333333333</ele><time>2026-04-04T11:12:18.164Z</time></trkpt><trkpt lat="42.0998783" lon="12.40458"><ele>282.0</ele><time>2026-04-04T11:12:21.165Z</time></trkpt><trkpt lat="42.09979" lon="12.404535"><ele>282.6666666666667</ele><time>2026-04-04T11:12:24.164Z</time></trkpt><trkpt lat="42.099705" lon="12.4045033"><ele>283.33333333333337</ele><time>2026-04-04T11:12:27.165Z</time></trkpt><trkpt lat="42.0996267" lon="12.4044883"><ele>284.0</ele><time>2026-04-04T11:12:30.164Z</time></trkpt><trkpt lat="42.0995517" lon="12.404455"><ele>284.33333333333337</ele><time>2026-04-04T11:12:33.164Z</time></trkpt><trkpt lat="42.0994717" lon="12.404425"><ele>284.6666666666667</ele><time>2026-04-04T11:12:36.165Z</time></trkpt><trkpt lat="42.0994017" lon="12.404395"><ele>285.0</ele><time>2026-04-04T11:12:39.165Z</time></trkpt><trkpt lat="42.0993333" lon="12.40437"><ele>285.3333333333333</ele><time>2026-04-04T11:12:42.164Z</time></trkpt><trkpt lat="42.0992633" lon="12.4043483"><ele>285.66666666666663</ele><time>2026-04-04T11:12:45.164Z</time></trkpt><trkpt lat="42.09919" lon="12.4043333"><ele>286.0</ele><time>2026-04-04T11:12:48.165Z</time></trkpt><trkpt lat="42.099105" lon="12.4043133"><ele>285.16666666666663</ele><time>2026-04-04T11:12:51.165Z</time></trkpt><trkpt lat="42.0990117" lon="12.404305"><ele>284.3333333333333</ele><time>2026-04-04T11:12:54.164Z</time></trkpt><trkpt lat="42.0989217" lon="12.40429"><ele>283.5</ele><time>2026-04-04T11:12:57.164Z</time></trkpt><trkpt lat="42.0988333" lon="12.4043017"><ele>282.6666666666667</ele><time>2026-04-04T11:13:00.164Z</time></trkpt><trkpt lat="42.0987433" lon="12.404295"><ele>281.83333333333337</ele><time>2026-04-04T11:13:03.164Z</time></trkpt><trkpt lat="42.0986583" lon="12.404295"><ele>281.0</ele><time>2026-04-04T11:13:06.164Z</time></trkpt><trkpt lat="42.0985933" lon="12.4042967"><ele>281.0</ele><time>2026-04-04T11:13:09.164Z</time></trkpt><trkpt lat="42.09853" lon="12.4043167"><ele>281.0</ele><time>2026-04-04T11:13:12.164Z</time></trkpt><trkpt lat="42.0984633" lon="12.40435"><ele>281.0</ele><time>2026-04-04T11:13:15.165Z</time></trkpt><trkpt lat="42.098405" lon="12.4043867"><ele>281.0</ele><time>2026-04-04T11:13:17.165Z</time></trkpt><trkpt lat="42.098345" lon="12.4044467"><ele>281.0</ele><time>2026-04-04T11:13:19.165Z</time></trkpt><trkpt lat="42.09827" lon="12.4045283"><ele>281.0</ele><time>2026-04-04T11:13:21.164Z</time></trkpt><trkpt lat="42.0981867" lon="12.40462"><ele>281.5</ele><time>2026-04-04T11:13:23.164Z</time></trkpt><trkpt lat="42.0981117" lon="12.4047117"><ele>282.0</ele><time>2026-04-04T11:13:25.164Z</time></trkpt><trkpt lat="42.0980383" lon="12.4047817"><ele>282.5</ele><time>2026-04-04T11:13:27.165Z</time></trkpt><trkpt lat="42.0979817" lon="12.4048483"><ele>283.0</ele><time>2026-04-04T11:13:29.164Z</time></trkpt><trkpt lat="42.0979033" lon="12.4049"><ele>283.5</ele><time>2026-04-04T11:13:32.164Z</time></trkpt><trkpt lat="42.0978483" lon="12.4049533"><ele>284.0</ele><time>2026-04-04T11:13:35.164Z</time></trkpt><trkpt lat="42.09777" lon="12.4049867"><ele>284.0</ele><time>2026-04-04T11:14:27.164Z</time></trkpt><trkpt lat="42.09772" lon="12.404885"><ele>284.0</ele><time>2026-04-04T11:14:32.164Z</time></trkpt><trkpt lat="42.0977183" lon="12.40479"><ele>284.0</ele><time>2026-04-04T11:14:34.164Z</time></trkpt><trkpt lat="42.09772" lon="12.4046567"><ele>284.0</ele><time>2026-04-04T11:14:36.164Z</time></trkpt><trkpt lat="42.09772" lon="12.4045033"><ele>284.0</ele><time>2026-04-04T11:14:38.164Z</time></trkpt><trkpt lat="42.09771" lon="12.4043717"><ele>283.4</ele><time>2026-04-04T11:14:40.164Z</time></trkpt><trkpt lat="42.0976917" lon="12.40424"><ele>282.79999999999995</ele><time>2026-04-04T11:14:42.165Z</time></trkpt><trkpt lat="42.0977083" lon="12.4041017"><ele>282.20000000000005</ele><time>2026-04-04T11:14:44.165Z</time></trkpt><trkpt lat="42.0977" lon="12.4039767"><ele>281.6</ele><time>2026-04-04T11:14:46.164Z</time></trkpt><trkpt lat="42.0976967" lon="12.40386"><ele>281.0</ele><time>2026-04-04T11:14:48.165Z</time></trkpt><trkpt lat="42.0976867" lon="12.4037517"><ele>279.33333333333337</ele><time>2026-04-04T11:14:50.164Z</time></trkpt><trkpt lat="42.0976667" lon="12.4036567"><ele>277.6666666666667</ele><time>2026-04-04T11:14:52.164Z</time></trkpt><trkpt lat="42.0976367" lon="12.4035283"><ele>276.0</ele><time>2026-04-04T11:14:55.165Z</time></trkpt><trkpt lat="42.0976133" lon="12.403415"><ele>274.3333333333333</ele><time>2026-04-04T11:14:57.165Z</time></trkpt><trkpt lat="42.0975667" lon="12.4033367"><ele>272.66666666666663</ele><time>2026-04-04T11:14:59.164Z</time></trkpt><trkpt lat="42.09754" lon="12.4032517"><ele>271.0</ele><time>2026-04-04T11:15:01.164Z</time></trkpt><trkpt lat="42.0975483" lon="12.403155"><ele>271.0</ele><time>2026-04-04T11:15:06.165Z</time></trkpt><trkpt lat="42.09758" lon="12.403055"><ele>271.0</ele><time>2026-04-04T11:15:09.164Z</time></trkpt><trkpt lat="42.0976017" lon="12.4029483"><ele>271.0</ele><time>2026-04-04T11:15:11.164Z</time></trkpt><trkpt lat="42.097625" lon="12.402845"><ele>271.0</ele><time>2026-04-04T11:15:13.165Z</time></trkpt><trkpt lat="42.0976717" lon="12.402755"><ele>271.0</ele><time>2026-04-04T11:15:15.164Z</time></trkpt><trkpt lat="42.0977367" lon="12.4026933"><ele>271.0</ele><time>2026-04-04T11:15:18.165Z</time></trkpt><trkpt lat="42.0978067" lon="12.4027267"><ele>269.16666666666663</ele><time>2026-04-04T11:15:21.165Z</time></trkpt><trkpt lat="42.0978717" lon="12.402715"><ele>267.3333333333333</ele><time>2026-04-04T11:15:26.164Z</time></trkpt><trkpt lat="42.0979483" lon="12.402705"><ele>265.5</ele><time>2026-04-04T11:15:30.164Z</time></trkpt><trkpt lat="42.0980117" lon="12.4026483"><ele>263.6666666666667</ele><time>2026-04-04T11:15:34.164Z</time></trkpt><trkpt lat="42.0980833" lon="12.4025667"><ele>261.83333333333337</ele><time>2026-04-04T11:15:37.165Z</time></trkpt><trkpt lat="42.0981533" lon="12.40252"><ele>260.0</ele><time>2026-04-04T11:15:39.164Z</time></trkpt><trkpt lat="42.098275" lon="12.4024917"><ele>259.6666666666667</ele><time>2026-04-04T11:15:41.164Z</time></trkpt><trkpt lat="42.098355" lon="12.402495"><ele>259.33333333333337</ele><time>2026-04-04T11:15:42.164Z</time></trkpt><trkpt lat="42.09842" lon="12.40248"><ele>259.0</ele><time>2026-04-04T11:15:43.165Z</time></trkpt><trkpt lat="42.09851" lon="12.4024217"><ele>258.6666666666667</ele><time>2026-04-04T11:15:45.165Z</time></trkpt><trkpt lat="42.0985717" lon="12.40238"><ele>258.3333333333333</ele><time>2026-04-04T11:15:47.165Z</time></trkpt><trkpt lat="42.0986367" lon="12.4023317"><ele>258.0</ele><time>2026-04-04T11:15:50.164Z</time></trkpt><trkpt lat="42.0987083" lon="12.402295"><ele>258.0</ele><time>2026-04-04T11:15:54.165Z</time></trkpt><trkpt lat="42.0987667" lon="12.402255"><ele>258.0</ele><time>2026-04-04T11:15:57.164Z</time></trkpt><trkpt lat="42.098835" lon="12.4022017"><ele>258.0</ele><time>2026-04-04T11:16:00.164Z</time></trkpt><trkpt lat="42.0989167" lon="12.4021733"><ele>258.0</ele><time>2026-04-04T11:16:03.165Z</time></trkpt><trkpt lat="42.0989967" lon="12.402165"><ele>258.0</ele><time>2026-04-04T11:16:06.164Z</time></trkpt><trkpt lat="42.09906" lon="12.4022033"><ele>258.0</ele><time>2026-04-04T11:16:10.164Z</time></trkpt><trkpt lat="42.0991267" lon="12.4022717"><ele>258.1666666666667</ele><time>2026-04-04T11:16:14.165Z</time></trkpt><trkpt lat="42.0992567" lon="12.402245"><ele>258.3333333333333</ele><time>2026-04-04T11:16:25.164Z</time></trkpt><trkpt lat="42.0993383" lon="12.402245"><ele>258.5</ele><time>2026-04-04T11:16:31.164Z</time></trkpt><trkpt lat="42.09941" lon="12.4022433"><ele>258.66666666666663</ele><time>2026-04-04T11:16:36.164Z</time></trkpt><trkpt lat="42.099485" lon="12.4022167"><ele>258.8333333333333</ele><time>2026-04-04T11:16:41.164Z</time></trkpt><trkpt lat="42.09956" lon="12.4022017"><ele>259.0</ele><time>2026-04-04T11:16:48.165Z</time></trkpt><trkpt lat="42.0996217" lon="12.40223"><ele>259.0</ele><time>2026-04-04T11:16:53.164Z</time></trkpt><trkpt lat="42.099695" lon="12.4022683"><ele>259.0</ele><time>2026-04-04T11:16:58.165Z</time></trkpt><trkpt lat="42.0997617" lon="12.402285"><ele>259.0</ele><time>2026-04-04T11:17:02.165Z</time></trkpt><trkpt lat="42.0998233" lon="12.40224"><ele>259.0</ele><time>2026-04-04T11:17:08.164Z</time></trkpt><trkpt lat="42.09988" lon="12.4021817"><ele>259.0</ele><time>2026-04-04T11:17:13.165Z</time></trkpt><trkpt lat="42.099935" lon="12.4020983"><ele>259.0</ele><time>2026-04-04T11:17:16.165Z</time></trkpt><trkpt lat="42.0999817" lon="12.4020117"><ele>258.7142857142857</ele><time>2026-04-04T11:17:20.164Z</time></trkpt><trkpt lat="42.100015" lon="12.4019383"><ele>258.42857142857144</ele><time>2026-04-04T11:17:22.164Z</time></trkpt><trkpt lat="42.1000367" lon="12.4018483"><ele>258.1428571428571</ele><time>2026-04-04T11:17:24.164Z</time></trkpt><trkpt lat="42.1000367" lon="12.4017583"><ele>257.8571428571429</ele><time>2026-04-04T11:17:26.165Z</time></trkpt><trkpt lat="42.1000683" lon="12.4016783"><ele>257.57142857142856</ele><time>2026-04-04T11:17:29.165Z</time></trkpt><trkpt lat="42.1001183" lon="12.4016167"><ele>257.2857142857143</ele><time>2026-04-04T11:17:32.165Z</time></trkpt><trkpt lat="42.1001533" lon="12.4015233"><ele>257.0</ele><time>2026-04-04T11:17:35.165Z</time></trkpt><trkpt lat="42.1001917" lon="12.401425"><ele>255.66666666666669</ele><time>2026-04-04T11:17:39.164Z</time></trkpt><trkpt lat="42.1002267" lon="12.4013017"><ele>254.33333333333334</ele><time>2026-04-04T11:17:42.164Z</time></trkpt><trkpt lat="42.1002417" lon="12.4011833"><ele>253.0</ele><time>2026-04-04T11:17:44.165Z</time></trkpt><trkpt lat="42.1002383" lon="12.4010283"><ele>251.66666666666669</ele><time>2026-04-04T11:17:46.165Z</time></trkpt><trkpt lat="42.1002283" lon="12.4009383"><ele>250.33333333333334</ele><time>2026-04-04T11:17:47.164Z</time></trkpt><trkpt lat="42.1002233" lon="12.4008467"><ele>249.0</ele><time>2026-04-04T11:17:48.165Z</time></trkpt><trkpt lat="42.1002167" lon="12.4007533"><ele>249.0</ele><time>2026-04-04T11:17:49.164Z</time></trkpt><trkpt lat="42.1002067" lon="12.4006667"><ele>248.99999999999997</ele><time>2026-04-04T11:17:50.164Z</time></trkpt><trkpt lat="42.1001917" lon="12.4005817"><ele>248.99999999999997</ele><time>2026-04-04T11:17:51.164Z</time></trkpt><trkpt lat="42.1001683" lon="12.40042"><ele>249.0</ele><time>2026-04-04T11:17:53.165Z</time></trkpt><trkpt lat="42.10015" lon="12.400265"><ele>249.0</ele><time>2026-04-04T11:17:55.165Z</time></trkpt><trkpt lat="42.1001233" lon="12.4001267"><ele>248.42857142857142</ele><time>2026-04-04T11:17:57.165Z</time></trkpt><trkpt lat="42.1000883" lon="12.4000133"><ele>247.85714285714283</ele><time>2026-04-04T11:18:00.165Z</time></trkpt><trkpt lat="42.1000217" lon="12.39996"><ele>247.28571428571428</ele><time>2026-04-04T11:18:03.164Z</time></trkpt><trkpt lat="42.0999533" lon="12.39993"><ele>246.71428571428572</ele><time>2026-04-04T11:18:06.165Z</time></trkpt><trkpt lat="42.0999" lon="12.3998767"><ele>246.14285714285714</ele><time>2026-04-04T11:18:09.164Z</time></trkpt><trkpt lat="42.09984" lon="12.39984"><ele>245.57142857142856</ele><time>2026-04-04T11:18:12.165Z</time></trkpt><trkpt lat="42.0997967" lon="12.3997683"><ele>245.0</ele><time>2026-04-04T11:18:18.165Z</time></trkpt><trkpt lat="42.0997033" lon="12.39962"><ele>242.4</ele><time>2026-04-04T11:18:31.164Z</time></trkpt><trkpt lat="42.0996767" lon="12.39948"><ele>239.8</ele><time>2026-04-04T11:19:00.165Z</time></trkpt><trkpt lat="42.0996633" lon="12.3993517"><ele>237.2</ele><time>2026-04-04T11:19:03.164Z</time></trkpt><trkpt lat="42.0996467" lon="12.3992567"><ele>234.6</ele><time>2026-04-04T11:19:05.164Z</time></trkpt><trkpt lat="42.0996467" lon="12.3991317"><ele>232.0</ele><time>2026-04-04T11:19:07.164Z</time></trkpt><trkpt lat="42.0996133" lon="12.3990283"><ele>231.99999999999997</ele><time>2026-04-04T11:19:10.165Z</time></trkpt><trkpt lat="42.0995567" lon="12.3989733"><ele>232.0</ele><time>2026-04-04T11:19:12.165Z</time></trkpt><trkpt lat="42.0994917" lon="12.3989083"><ele>232.0</ele><time>2026-04-04T11:19:14.164Z</time></trkpt><trkpt lat="42.0994383" lon="12.3988617"><ele>232.0</ele><time>2026-04-04T11:19:15.165Z</time></trkpt><trkpt lat="42.09935" lon="12.3987967"><ele>231.99999999999997</ele><time>2026-04-04T11:19:18.165Z</time></trkpt><trkpt lat="42.099295" lon="12.3987417"><ele>232.0</ele><time>2026-04-04T11:19:20.164Z</time></trkpt><trkpt lat="42.09922" lon="12.3987033"><ele>229.39999999999998</ele><time>2026-04-04T11:19:22.164Z</time></trkpt><trkpt lat="42.09911" lon="12.39863"><ele>226.79999999999998</ele><time>2026-04-04T11:19:24.165Z</time></trkpt><trkpt lat="42.0990117" lon="12.39858"><ele>224.2</ele><time>2026-04-04T11:19:26.165Z</time></trkpt><trkpt lat="42.0989267" lon="12.3985133"><ele>221.6</ele><time>2026-04-04T11:19:28.164Z</time></trkpt><trkpt lat="42.0988667" lon="12.398475"><ele>219.0</ele><time>2026-04-04T11:19:30.164Z</time></trkpt><trkpt lat="42.0988017" lon="12.3984417"><ele>216.6</ele><time>2026-04-04T11:19:32.165Z</time></trkpt><trkpt lat="42.098675" lon="12.39842"><ele>214.2</ele><time>2026-04-04T11:19:34.164Z</time></trkpt><trkpt lat="42.0986083" lon="12.3984133"><ele>211.79999999999998</ele><time>2026-04-04T11:19:35.165Z</time></trkpt><trkpt lat="42.0984967" lon="12.398425"><ele>209.39999999999998</ele><time>2026-04-04T11:19:37.164Z</time></trkpt><trkpt lat="42.0983983" lon="12.3983883"><ele>207.0</ele><time>2026-04-04T11:19:39.164Z</time></trkpt><trkpt lat="42.0983467" lon="12.398295"><ele>207.0</ele><time>2026-04-04T11:19:41.165Z</time></trkpt><trkpt lat="42.09828" lon="12.3982017"><ele>207.0</ele><time>2026-04-04T11:19:43.164Z</time></trkpt><trkpt lat="42.0982383" lon="12.3980883"><ele>207.0</ele><time>2026-04-04T11:19:45.164Z</time></trkpt><trkpt lat="42.098205" lon="12.3979883"><ele>207.0</ele><time>2026-04-04T11:19:47.165Z</time></trkpt><trkpt lat="42.0981617" lon="12.3979033"><ele>207.0</ele><time>2026-04-04T11:19:49.165Z</time></trkpt><trkpt lat="42.098105" lon="12.39782"><ele>207.0</ele><time>2026-04-04T11:19:51.165Z</time></trkpt><trkpt lat="42.09805" lon="12.3976833"><ele>205.2</ele><time>2026-04-04T11:19:53.164Z</time></trkpt><trkpt lat="42.0980033" lon="12.3975283"><ele>203.39999999999998</ele><time>2026-04-04T11:19:55.165Z</time></trkpt><trkpt lat="42.0979583" lon="12.39738"><ele>201.60000000000002</ele><time>2026-04-04T11:19:57.164Z</time></trkpt><trkpt lat="42.0979367" lon="12.3972967"><ele>199.8</ele><time>2026-04-04T11:19:58.164Z</time></trkpt><trkpt lat="42.09791" lon="12.3971367"><ele>198.0</ele><time>2026-04-04T11:20:00.165Z</time></trkpt><trkpt lat="42.0978517" lon="12.3969767"><ele>196.5</ele><time>2026-04-04T11:20:02.165Z</time></trkpt><trkpt lat="42.0978167" lon="12.3968917"><ele>195.0</ele><time>2026-04-04T11:20:03.165Z</time></trkpt><trkpt lat="42.0977767" lon="12.3968033"><ele>193.5</ele><time>2026-04-04T11:20:04.164Z</time></trkpt><trkpt lat="42.0977417" lon="12.3967267"><ele>192.0</ele><time>2026-04-04T11:20:05.165Z</time></trkpt><trkpt lat="42.097705" lon="12.39665"><ele>190.5</ele><time>2026-04-04T11:20:06.164Z</time></trkpt><trkpt lat="42.097635" lon="12.3965417"><ele>189.0</ele><time>2026-04-04T11:20:08.164Z</time></trkpt><trkpt lat="42.0975683" lon="12.3964267"><ele>189.0</ele><time>2026-04-04T11:20:10.164Z</time></trkpt><trkpt lat="42.0975367" lon="12.396325"><ele>189.0</ele><time>2026-04-04T11:20:12.164Z</time></trkpt><trkpt lat="42.0975517" lon="12.3962367"><ele>189.0</ele><time>2026-04-04T11:20:15.164Z</time></trkpt><trkpt lat="42.0975833" lon="12.3960983"><ele>189.0</ele><time>2026-04-04T11:21:32.164Z</time></trkpt><trkpt lat="42.0975117" lon="12.3960217"><ele>189.0</ele><time>2026-04-04T11:21:36.164Z</time></trkpt><trkpt lat="42.0974583" lon="12.3959767"><ele>189.0</ele><time>2026-04-04T11:21:38.164Z</time></trkpt><trkpt lat="42.0973733" lon="12.3959533"><ele>189.0</ele><time>2026-04-04T11:21:41.165Z</time></trkpt><trkpt lat="42.0972783" lon="12.3959483"><ele>189.0</ele><time>2026-04-04T11:21:44.164Z</time></trkpt><trkpt lat="42.09721" lon="12.3959617"><ele>189.0</ele><time>2026-04-04T11:21:46.165Z</time></trkpt><trkpt lat="42.09714" lon="12.395985"><ele>189.0</ele><time>2026-04-04T11:21:48.165Z</time></trkpt><trkpt lat="42.0970467" lon="12.3960133"><ele>189.0</ele><time>2026-04-04T11:21:51.165Z</time></trkpt><trkpt lat="42.0969833" lon="12.396035"><ele>189.0</ele><time>2026-04-04T11:21:53.164Z</time></trkpt><trkpt lat="42.0969133" lon="12.39604"><ele>189.0</ele><time>2026-04-04T11:21:56.164Z</time></trkpt><trkpt lat="42.0968483" lon="12.396045"><ele>189.0</ele><time>2026-04-04T11:21:59.164Z</time></trkpt><trkpt lat="42.0967583" lon="12.3960917"><ele>189.0</ele><time>2026-04-04T11:22:02.164Z</time></trkpt><trkpt lat="42.096685" lon="12.39611"><ele>189.0</ele><time>2026-04-04T11:22:06.164Z</time></trkpt><trkpt lat="42.0966083" lon="12.396115"><ele>189.0</ele><time>2026-04-04T11:22:10.165Z</time></trkpt><trkpt lat="42.0965317" lon="12.3961317"><ele>189.0</ele><time>2026-04-04T11:22:14.165Z</time></trkpt><trkpt lat="42.0964583" lon="12.3961467"><ele>193.39999999999998</ele><time>2026-04-04T11:22:18.165Z</time></trkpt><trkpt lat="42.0963933" lon="12.39616"><ele>197.8</ele><time>2026-04-04T11:22:23.164Z</time></trkpt><trkpt lat="42.0963267" lon="12.39616"><ele>202.2</ele><time>2026-04-04T11:22:27.164Z</time></trkpt><trkpt lat="42.09614" lon="12.39617"><ele>206.60000000000002</ele><time>2026-04-04T11:22:45.164Z</time></trkpt><trkpt lat="42.09607" lon="12.3961717"><ele>211.0</ele><time>2026-04-04T11:22:48.165Z</time></trkpt><trkpt lat="42.0959633" lon="12.3961417"><ele>211.0</ele><time>2026-04-04T11:22:58.164Z</time></trkpt><trkpt lat="42.09584" lon="12.3961017"><ele>211.0</ele><time>2026-04-04T11:23:09.165Z</time></trkpt><trkpt lat="42.0957033" lon="12.3960767"><ele>211.0</ele><time>2026-04-04T11:23:18.164Z</time></trkpt><trkpt lat="42.0955567" lon="12.3960617"><ele>211.0</ele><time>2026-04-04T11:23:28.164Z</time></trkpt><trkpt lat="42.0954233" lon="12.3960317"><ele>213.33333333333331</ele><time>2026-04-04T11:23:39.164Z</time></trkpt><trkpt lat="42.0953383" lon="12.396055"><ele>215.66666666666666</ele><time>2026-04-04T11:23:44.164Z</time></trkpt><trkpt lat="42.0952633" lon="12.3960567"><ele>218.0</ele><time>2026-04-04T11:23:48.164Z</time></trkpt><trkpt lat="42.0951783" lon="12.39604"><ele>220.33333333333331</ele><time>2026-04-04T11:23:51.164Z</time></trkpt><trkpt lat="42.0951067" lon="12.3960467"><ele>222.66666666666666</ele><time>2026-04-04T11:23:55.164Z</time></trkpt><trkpt lat="42.0950017" lon="12.3960617"><ele>225.0</ele><time>2026-04-04T11:24:06.164Z</time></trkpt><trkpt lat="42.0948567" lon="12.3960767"><ele>227.8</ele><time>2026-04-04T11:24:16.164Z</time></trkpt><trkpt lat="42.094775" lon="12.3960883"><ele>230.6</ele><time>2026-04-04T11:24:19.164Z</time></trkpt><trkpt lat="42.09463" lon="12.39609"><ele>233.39999999999998</ele><time>2026-04-04T11:24:33.165Z</time></trkpt><trkpt lat="42.09455" lon="12.396115"><ele>236.2</ele><time>2026-04-04T11:24:37.164Z</time></trkpt><trkpt lat="42.0944833" lon="12.3961233"><ele>239.0</ele><time>2026-04-04T11:24:39.165Z</time></trkpt><trkpt lat="42.0943633" lon="12.3960933"><ele>239.0</ele><time>2026-04-04T11:24:49.164Z</time></trkpt><trkpt lat="42.09422" lon="12.396125"><ele>239.0</ele><time>2026-04-04T11:24:58.165Z</time></trkpt><trkpt lat="42.0940933" lon="12.3961433"><ele>239.0</ele><time>2026-04-04T11:25:07.164Z</time></trkpt><trkpt lat="42.093955" lon="12.3960983"><ele>239.0</ele><time>2026-04-04T11:25:17.164Z</time></trkpt><trkpt lat="42.093845" lon="12.3960633"><ele>238.5</ele><time>2026-04-04T11:25:23.164Z</time></trkpt><trkpt lat="42.0936467" lon="12.3960917"><ele>238.0</ele><time>2026-04-04T11:25:35.164Z</time></trkpt><trkpt lat="42.09348" lon="12.39609"><ele>237.5</ele><time>2026-04-04T11:25:44.164Z</time></trkpt><trkpt lat="42.0934067" lon="12.3961067"><ele>237.0</ele><time>2026-04-04T11:25:48.165Z</time></trkpt><trkpt lat="42.0933267" lon="12.396085"><ele>236.0</ele><time>2026-04-04T11:25:53.164Z</time></trkpt><trkpt lat="42.0932483" lon="12.39605"><ele>235.0</ele><time>2026-04-04T11:25:57.165Z</time></trkpt><trkpt lat="42.093175" lon="12.3960433"><ele>234.0</ele><time>2026-04-04T11:26:00.165Z</time></trkpt><trkpt lat="42.093105" lon="12.396035"><ele>233.0</ele><time>2026-04-04T11:26:03.165Z</time></trkpt><trkpt lat="42.09297" lon="12.3960517"><ele>232.0</ele><time>2026-04-04T11:26:11.164Z</time></trkpt><trkpt lat="42.0928917" lon="12.396085"><ele>231.0</ele><time>2026-04-04T11:26:14.164Z</time></trkpt><trkpt lat="42.0928283" lon="12.3961167"><ele>231.0</ele><time>2026-04-04T11:26:16.164Z</time></trkpt><trkpt lat="42.0927667" lon="12.3961467"><ele>231.0</ele><time>2026-04-04T11:26:19.165Z</time></trkpt><trkpt lat="42.0927017" lon="12.3961533"><ele>231.0</ele><time>2026-04-04T11:26:22.164Z</time></trkpt><trkpt lat="42.092635" lon="12.3962"><ele>231.0</ele><time>2026-04-04T11:26:26.164Z</time></trkpt><trkpt lat="42.0925767" lon="12.39629"><ele>231.0</ele><time>2026-04-04T11:26:31.165Z</time></trkpt><trkpt lat="42.0924817" lon="12.3963283"><ele>231.0</ele><time>2026-04-04T11:26:37.165Z</time></trkpt><trkpt lat="42.092415" lon="12.396355"><ele>231.33333333333334</ele><time>2026-04-04T11:26:42.164Z</time></trkpt><trkpt lat="42.092345" lon="12.3963917"><ele>231.66666666666669</ele><time>2026-04-04T11:26:46.164Z</time></trkpt><trkpt lat="42.09228" lon="12.396435"><ele>232.0</ele><time>2026-04-04T11:26:50.164Z</time></trkpt><trkpt lat="42.0922167" lon="12.3965417"><ele>232.33333333333334</ele><time>2026-04-04T11:26:58.164Z</time></trkpt><trkpt lat="42.0921367" lon="12.3966233"><ele>232.66666666666669</ele><time>2026-04-04T11:27:04.164Z</time></trkpt><trkpt lat="42.09209" lon="12.39669"><ele>233.0</ele><time>2026-04-04T11:27:07.165Z</time></trkpt><trkpt lat="42.0920483" lon="12.3967567"><ele>233.00000000000003</ele><time>2026-04-04T11:27:11.164Z</time></trkpt><trkpt lat="42.0919983" lon="12.3968317"><ele>233.0</ele><time>2026-04-04T11:27:16.164Z</time></trkpt><trkpt lat="42.0919717" lon="12.3969317"><ele>233.0</ele><time>2026-04-04T11:27:20.165Z</time></trkpt><trkpt lat="42.0919367" lon="12.3970133"><ele>233.0</ele><time>2026-04-04T11:27:23.164Z</time></trkpt><trkpt lat="42.09192" lon="12.3971083"><ele>233.00000000000003</ele><time>2026-04-04T11:27:26.165Z</time></trkpt><trkpt lat="42.0919" lon="12.3971917"><ele>233.0</ele><time>2026-04-04T11:27:29.165Z</time></trkpt><trkpt lat="42.0918817" lon="12.3973183"><ele>233.33333333333334</ele><time>2026-04-04T11:27:32.164Z</time></trkpt><trkpt lat="42.0918733" lon="12.3974283"><ele>233.66666666666669</ele><time>2026-04-04T11:27:34.165Z</time></trkpt><trkpt lat="42.0918383" lon="12.39753"><ele>234.0</ele><time>2026-04-04T11:27:36.165Z</time></trkpt><trkpt lat="42.0918" lon="12.3976267"><ele>234.33333333333331</ele><time>2026-04-04T11:27:38.165Z</time></trkpt><trkpt lat="42.0917467" lon="12.3977217"><ele>234.66666666666666</ele><time>2026-04-04T11:27:40.164Z</time></trkpt><trkpt lat="42.091675" lon="12.3977667"><ele>235.0</ele><time>2026-04-04T11:27:42.164Z</time></trkpt><trkpt lat="42.0916233" lon="12.3978383"><ele>234.4</ele><time>2026-04-04T11:27:44.164Z</time></trkpt><trkpt lat="42.0915617" lon="12.3979367"><ele>233.8</ele><time>2026-04-04T11:27:46.165Z</time></trkpt><trkpt lat="42.0914883" lon="12.3979983"><ele>233.2</ele><time>2026-04-04T11:27:48.164Z</time></trkpt><trkpt lat="42.0914" lon="12.3980483"><ele>232.6</ele><time>2026-04-04T11:27:50.165Z</time></trkpt><trkpt lat="42.091315" lon="12.398115"><ele>232.0</ele><time>2026-04-04T11:27:52.164Z</time></trkpt><trkpt lat="42.0912183" lon="12.3981733"><ele>234.49999999999997</ele><time>2026-04-04T11:27:54.164Z</time></trkpt><trkpt lat="42.091125" lon="12.398225"><ele>237.0</ele><time>2026-04-04T11:27:56.164Z</time></trkpt><trkpt lat="42.0910367" lon="12.3982867"><ele>239.5</ele><time>2026-04-04T11:27:58.165Z</time></trkpt><trkpt lat="42.09095" lon="12.398315"><ele>242.0</ele><time>2026-04-04T11:28:00.164Z</time></trkpt><trkpt lat="42.0908817" lon="12.39831"><ele>244.49999999999997</ele><time>2026-04-04T11:28:02.164Z</time></trkpt><trkpt lat="42.0908067" lon="12.398275"><ele>247.0</ele><time>2026-04-04T11:28:04.164Z</time></trkpt><trkpt lat="42.09074" lon="12.398225"><ele>247.99999999999997</ele><time>2026-04-04T11:28:06.165Z</time></trkpt><trkpt lat="42.0906767" lon="12.3981733"><ele>249.0</ele><time>2026-04-04T11:28:09.165Z</time></trkpt><trkpt lat="42.0906233" lon="12.398095"><ele>250.0</ele><time>2026-04-04T11:28:13.165Z</time></trkpt><trkpt lat="42.09058" lon="12.3980133"><ele>251.0</ele><time>2026-04-04T11:28:17.165Z</time></trkpt><trkpt lat="42.0905267" lon="12.39795"><ele>251.99999999999997</ele><time>2026-04-04T11:28:20.165Z</time></trkpt><trkpt lat="42.0904783" lon="12.3978667"><ele>253.0</ele><time>2026-04-04T11:28:24.164Z</time></trkpt><trkpt lat="42.0904067" lon="12.3978217"><ele>252.99999999999997</ele><time>2026-04-04T11:28:27.165Z</time></trkpt><trkpt lat="42.0903417" lon="12.3978017"><ele>253.0</ele><time>2026-04-04T11:28:29.165Z</time></trkpt><trkpt lat="42.09027" lon="12.3977833"><ele>253.0</ele><time>2026-04-04T11:28:31.164Z</time></trkpt><trkpt lat="42.090205" lon="12.39775"><ele>253.0</ele><time>2026-04-04T11:28:33.165Z</time></trkpt><trkpt lat="42.0901667" lon="12.39767"><ele>252.99999999999997</ele><time>2026-04-04T11:28:36.164Z</time></trkpt><trkpt lat="42.0901033" lon="12.3975967"><ele>253.0</ele><time>2026-04-04T11:28:39.164Z</time></trkpt><trkpt lat="42.0900383" lon="12.3975083"><ele>252.99999999999997</ele><time>2026-04-04T11:28:42.164Z</time></trkpt><trkpt lat="42.08997" lon="12.3974283"><ele>253.0</ele><time>2026-04-04T11:28:45.165Z</time></trkpt><trkpt lat="42.0899183" lon="12.3973733"><ele>253.0</ele><time>2026-04-04T11:28:47.164Z</time></trkpt><trkpt lat="42.089855" lon="12.3972867"><ele>253.0</ele><time>2026-04-04T11:28:50.164Z</time></trkpt><trkpt lat="42.089795" lon="12.3972117"><ele>252.99999999999997</ele><time>2026-04-04T11:28:53.164Z</time></trkpt><trkpt lat="42.08974" lon="12.3971333"><ele>253.0</ele><time>2026-04-04T11:28:56.165Z</time></trkpt><trkpt lat="42.0896883" lon="12.3970583"><ele>250.4</ele><time>2026-04-04T11:28:59.164Z</time></trkpt><trkpt lat="42.089535" lon="12.3970383"><ele>247.8</ele><time>2026-04-04T11:29:06.164Z</time></trkpt><trkpt lat="42.0894633" lon="12.3970483"><ele>245.2</ele><time>2026-04-04T11:29:08.165Z</time></trkpt><trkpt lat="42.0893733" lon="12.3970583"><ele>242.6</ele><time>2026-04-04T11:29:11.164Z</time></trkpt><trkpt lat="42.08931" lon="12.3970883"><ele>240.0</ele><time>2026-04-04T11:29:13.164Z</time></trkpt><trkpt lat="42.08923" lon="12.39715"><ele>243.33333333333334</ele><time>2026-04-04T11:29:16.165Z</time></trkpt><trkpt lat="42.0891667" lon="12.39721"><ele>246.66666666666669</ele><time>2026-04-04T11:29:19.164Z</time></trkpt><trkpt lat="42.0890833" lon="12.397245"><ele>250.0</ele><time>2026-04-04T11:29:23.165Z</time></trkpt><trkpt lat="42.089015" lon="12.3973133"><ele>253.33333333333334</ele><time>2026-04-04T11:29:26.164Z</time></trkpt><trkpt lat="42.088945" lon="12.3973283"><ele>256.6666666666667</ele><time>2026-04-04T11:29:29.165Z</time></trkpt><trkpt lat="42.0888933" lon="12.3972617"><ele>260.0</ele><time>2026-04-04T11:29:33.164Z</time></trkpt><trkpt lat="42.0888417" lon="12.3972033"><ele>258.1666666666667</ele><time>2026-04-04T11:29:36.165Z</time></trkpt><trkpt lat="42.0887667" lon="12.39715"><ele>256.33333333333337</ele><time>2026-04-04T11:29:39.165Z</time></trkpt><trkpt lat="42.0886817" lon="12.3970883"><ele>254.5</ele><time>2026-04-04T11:29:42.164Z</time></trkpt><trkpt lat="42.0886167" lon="12.39706"><ele>252.66666666666669</ele><time>2026-04-04T11:29:44.164Z</time></trkpt><trkpt lat="42.0885467" lon="12.397045"><ele>250.83333333333334</ele><time>2026-04-04T11:29:46.164Z</time></trkpt><trkpt lat="42.08847" lon="12.39703"><ele>249.0</ele><time>2026-04-04T11:29:48.164Z</time></trkpt><trkpt lat="42.0884067" lon="12.3970283"><ele>249.0</ele><time>2026-04-04T11:29:50.164Z</time></trkpt><trkpt lat="42.0883217" lon="12.397025"><ele>249.0</ele><time>2026-04-04T11:29:53.165Z</time></trkpt><trkpt lat="42.0882417" lon="12.3969983"><ele>249.0</ele><time>2026-04-04T11:29:56.165Z</time></trkpt><trkpt lat="42.0881683" lon="12.3969483"><ele>249.0</ele><time>2026-04-04T11:29:59.164Z</time></trkpt><trkpt lat="42.088105" lon="12.39694"><ele>249.0</ele><time>2026-04-04T11:30:01.164Z</time></trkpt><trkpt lat="42.088025" lon="12.3969067"><ele>249.0</ele><time>2026-04-04T11:30:04.164Z</time></trkpt><trkpt lat="42.08796" lon="12.3968767"><ele>251.66666666666666</ele><time>2026-04-04T11:30:07.165Z</time></trkpt><trkpt lat="42.0878917" lon="12.3968383"><ele>254.33333333333331</ele><time>2026-04-04T11:30:12.165Z</time></trkpt><trkpt lat="42.0878117" lon="12.3968117"><ele>257.0</ele><time>2026-04-04T11:30:16.164Z</time></trkpt><trkpt lat="42.087735" lon="12.3967983"><ele>259.66666666666663</ele><time>2026-04-04T11:30:20.164Z</time></trkpt><trkpt lat="42.0876567" lon="12.396805"><ele>262.3333333333333</ele><time>2026-04-04T11:30:25.165Z</time></trkpt><trkpt lat="42.0875667" lon="12.3968033"><ele>265.0</ele><time>2026-04-04T11:30:29.165Z</time></trkpt><trkpt lat="42.0874933" lon="12.396785"><ele>267.16666666666663</ele><time>2026-04-04T11:30:32.164Z</time></trkpt><trkpt lat="42.0874183" lon="12.3968083"><ele>269.3333333333333</ele><time>2026-04-04T11:30:35.165Z</time></trkpt><trkpt lat="42.08734" lon="12.396845"><ele>271.5</ele><time>2026-04-04T11:30:38.165Z</time></trkpt><trkpt lat="42.0872667" lon="12.3968717"><ele>273.6666666666667</ele><time>2026-04-04T11:30:41.164Z</time></trkpt><trkpt lat="42.087195" lon="12.39687"><ele>275.83333333333337</ele><time>2026-04-04T11:30:45.165Z</time></trkpt><trkpt lat="42.0871267" lon="12.396865"><ele>278.0</ele><time>2026-04-04T11:30:48.164Z</time></trkpt><trkpt lat="42.087055" lon="12.3969117"><ele>278.0</ele><time>2026-04-04T11:30:54.165Z</time></trkpt><trkpt lat="42.0870033" lon="12.3969717"><ele>278.0</ele><time>2026-04-04T11:30:58.164Z</time></trkpt><trkpt lat="42.0869417" lon="12.3969983"><ele>278.0</ele><time>2026-04-04T11:31:02.165Z</time></trkpt><trkpt lat="42.0868383" lon="12.3970433"><ele>278.0</ele><time>2026-04-04T11:31:12.164Z</time></trkpt><trkpt lat="42.0867733" lon="12.3970367"><ele>278.0</ele><time>2026-04-04T11:31:16.164Z</time></trkpt><trkpt lat="42.0867067" lon="12.397005"><ele>278.0</ele><time>2026-04-04T11:31:21.164Z</time></trkpt><trkpt lat="42.08664" lon="12.3970033"><ele>278.0</ele><time>2026-04-04T11:31:25.164Z</time></trkpt><trkpt lat="42.0865767" lon="12.3969983"><ele>277.83333333333337</ele><time>2026-04-04T11:31:29.164Z</time></trkpt><trkpt lat="42.086495" lon="12.3969833"><ele>277.6666666666667</ele><time>2026-04-04T11:31:33.164Z</time></trkpt><trkpt lat="42.0864167" lon="12.39698"><ele>277.5</ele><time>2026-04-04T11:31:37.164Z</time></trkpt><trkpt lat="42.08634" lon="12.3969683"><ele>277.3333333333333</ele><time>2026-04-04T11:31:41.164Z</time></trkpt><trkpt lat="42.0862633" lon="12.39696"><ele>277.16666666666663</ele><time>2026-04-04T11:31:44.164Z</time></trkpt><trkpt lat="42.086205" lon="12.3968767"><ele>277.0</ele><time>2026-04-04T11:31:47.165Z</time></trkpt><trkpt lat="42.0861517" lon="12.3968233"><ele>277.0</ele><time>2026-04-04T11:31:49.164Z</time></trkpt><trkpt lat="42.0860717" lon="12.3967667"><ele>277.0</ele><time>2026-04-04T11:31:51.164Z</time></trkpt><trkpt lat="42.0860117" lon="12.3967067"><ele>277.0</ele><time>2026-04-04T11:31:53.164Z</time></trkpt><trkpt lat="42.0859483" lon="12.3966367"><ele>277.0</ele><time>2026-04-04T11:31:54.165Z</time></trkpt><trkpt lat="42.0858833" lon="12.396575"><ele>277.0</ele><time>2026-04-04T11:31:55.164Z</time></trkpt><trkpt lat="42.0858083" lon="12.3965233"><ele>277.0</ele><time>2026-04-04T11:31:57.164Z</time></trkpt><trkpt lat="42.0857483" lon="12.39646"><ele>276.16666666666663</ele><time>2026-04-04T11:32:41.165Z</time></trkpt><trkpt lat="42.0856717" lon="12.3964033"><ele>275.3333333333333</ele><time>2026-04-04T11:32:44.164Z</time></trkpt><trkpt lat="42.0856033" lon="12.3963817"><ele>274.5</ele><time>2026-04-04T11:32:46.164Z</time></trkpt><trkpt lat="42.0855217" lon="12.3963633"><ele>273.6666666666667</ele><time>2026-04-04T11:32:48.164Z</time></trkpt><trkpt lat="42.085445" lon="12.3963233"><ele>272.83333333333337</ele><time>2026-04-04T11:32:50.165Z</time></trkpt><trkpt lat="42.0853517" lon="12.396255"><ele>272.0</ele><time>2026-04-04T11:32:53.165Z</time></trkpt><trkpt lat="42.0852583" lon="12.3962217"><ele>272.0</ele><time>2026-04-04T11:32:55.165Z</time></trkpt><trkpt lat="42.0851833" lon="12.3962117"><ele>272.0</ele><time>2026-04-04T11:32:57.164Z</time></trkpt><trkpt lat="42.0851133" lon="12.396205"><ele>272.0</ele><time>2026-04-04T11:32:59.164Z</time></trkpt><trkpt lat="42.0850283" lon="12.3962067"><ele>272.0</ele><time>2026-04-04T11:33:01.165Z</time></trkpt><trkpt lat="42.08493" lon="12.396215"><ele>272.0</ele><time>2026-04-04T11:33:03.165Z</time></trkpt><trkpt lat="42.0848133" lon="12.39622"><ele>272.0</ele><time>2026-04-04T11:33:05.164Z</time></trkpt><trkpt lat="42.0847467" lon="12.3962267"><ele>270.83333333333337</ele><time>2026-04-04T11:33:06.165Z</time></trkpt><trkpt lat="42.08462" lon="12.3962233"><ele>269.6666666666667</ele><time>2026-04-04T11:33:08.165Z</time></trkpt><trkpt lat="42.084555" lon="12.3962133"><ele>268.5</ele><time>2026-04-04T11:33:09.164Z</time></trkpt><trkpt lat="42.0844717" lon="12.396205"><ele>267.3333333333333</ele><time>2026-04-04T11:33:10.164Z</time></trkpt><trkpt lat="42.084395" lon="12.3961983"><ele>266.16666666666663</ele><time>2026-04-04T11:33:11.165Z</time></trkpt><trkpt lat="42.0843117" lon="12.3961967"><ele>265.0</ele><time>2026-04-04T11:33:12.164Z</time></trkpt><trkpt lat="42.084235" lon="12.3961917"><ele>265.0</ele><time>2026-04-04T11:33:13.164Z</time></trkpt><trkpt lat="42.0841533" lon="12.3961717"><ele>265.0</ele><time>2026-04-04T11:33:14.165Z</time></trkpt><trkpt lat="42.0840667" lon="12.3961583"><ele>265.0</ele><time>2026-04-04T11:33:15.164Z</time></trkpt><trkpt lat="42.083975" lon="12.3961467"><ele>265.0</ele><time>2026-04-04T11:33:16.165Z</time></trkpt><trkpt lat="42.08387" lon="12.3961383"><ele>265.0</ele><time>2026-04-04T11:33:17.164Z</time></trkpt><trkpt lat="42.0837617" lon="12.3961367"><ele>263.6</ele><time>2026-04-04T11:33:18.165Z</time></trkpt><trkpt lat="42.08365" lon="12.39613"><ele>262.2</ele><time>2026-04-04T11:33:19.164Z</time></trkpt><trkpt lat="42.0835383" lon="12.39615"><ele>260.8</ele><time>2026-04-04T11:33:20.165Z</time></trkpt><trkpt lat="42.0834267" lon="12.39619"><ele>259.4</ele><time>2026-04-04T11:33:21.164Z</time></trkpt><trkpt lat="42.0833267" lon="12.3962333"><ele>258.0</ele><time>2026-04-04T11:33:22.164Z</time></trkpt><trkpt lat="42.08324" lon="12.3962633"><ele>257.71428571428567</ele><time>2026-04-04T11:33:23.165Z</time></trkpt><trkpt lat="42.083155" lon="12.396275"><ele>257.42857142857144</ele><time>2026-04-04T11:33:24.165Z</time></trkpt><trkpt lat="42.0830783" lon="12.39628"><ele>257.1428571428571</ele><time>2026-04-04T11:33:25.164Z</time></trkpt><trkpt lat="42.0830033" lon="12.3962783"><ele>256.85714285714283</ele><time>2026-04-04T11:33:26.164Z</time></trkpt><trkpt lat="42.0829317" lon="12.3962583"><ele>256.57142857142856</ele><time>2026-04-04T11:33:27.165Z</time></trkpt><trkpt lat="42.082865" lon="12.3962317"><ele>256.2857142857143</ele><time>2026-04-04T11:33:28.164Z</time></trkpt><trkpt lat="42.082805" lon="12.3962033"><ele>256.0</ele><time>2026-04-04T11:33:29.164Z</time></trkpt><trkpt lat="42.0827417" lon="12.396185"><ele>256.0</ele><time>2026-04-04T11:33:30.164Z</time></trkpt><trkpt lat="42.082675" lon="12.3961617"><ele>255.99999999999997</ele><time>2026-04-04T11:33:31.165Z</time></trkpt><trkpt lat="42.0826067" lon="12.3961417"><ele>256.0</ele><time>2026-04-04T11:33:32.164Z</time></trkpt><trkpt lat="42.0825417" lon="12.396115"><ele>256.0</ele><time>2026-04-04T11:33:33.165Z</time></trkpt><trkpt lat="42.0824683" lon="12.3960917"><ele>255.99999999999997</ele><time>2026-04-04T11:33:34.164Z</time></trkpt><trkpt lat="42.0823983" lon="12.39607"><ele>256.0</ele><time>2026-04-04T11:33:35.165Z</time></trkpt><trkpt lat="42.08234" lon="12.3960317"><ele>256.0</ele><time>2026-04-04T11:33:36.165Z</time></trkpt><trkpt lat="42.0822783" lon="12.39601"><ele>255.99999999999997</ele><time>2026-04-04T11:33:37.165Z</time></trkpt><trkpt lat="42.0822017" lon="12.3960233"><ele>256.0</ele><time>2026-04-04T11:33:38.165Z</time></trkpt><trkpt lat="42.0821233" lon="12.3960567"><ele>256.0</ele><time>2026-04-04T11:33:39.165Z</time></trkpt><trkpt lat="42.08205" lon="12.3961133"><ele>256.0</ele><time>2026-04-04T11:33:40.164Z</time></trkpt><trkpt lat="42.0819833" lon="12.396195"><ele>255.99999999999997</ele><time>2026-04-04T11:33:41.164Z</time></trkpt><trkpt lat="42.0819583" lon="12.3963233"><ele>256.0</ele><time>2026-04-04T11:33:42.164Z</time></trkpt><trkpt lat="42.0819467" lon="12.3964483"><ele>254.75</ele><time>2026-04-04T11:33:43.164Z</time></trkpt><trkpt lat="42.0819267" lon="12.3965883"><ele>253.5</ele><time>2026-04-04T11:33:44.165Z</time></trkpt><trkpt lat="42.0819" lon="12.396735"><ele>252.25</ele><time>2026-04-04T11:33:45.165Z</time></trkpt><trkpt lat="42.0818717" lon="12.3968933"><ele>251.0</ele><time>2026-04-04T11:33:46.164Z</time></trkpt><trkpt lat="42.0818333" lon="12.397055"><ele>249.25</ele><time>2026-04-04T11:33:47.165Z</time></trkpt><trkpt lat="42.081785" lon="12.39722"><ele>247.5</ele><time>2026-04-04T11:33:48.164Z</time></trkpt><trkpt lat="42.081745" lon="12.3973883"><ele>245.75</ele><time>2026-04-04T11:33:49.164Z</time></trkpt><trkpt lat="42.0817117" lon="12.39755"><ele>244.0</ele><time>2026-04-04T11:33:50.164Z</time></trkpt><trkpt lat="42.081665" lon="12.3977017"><ele>244.0</ele><time>2026-04-04T11:33:51.164Z</time></trkpt><trkpt lat="42.0816117" lon="12.3978317"><ele>243.99999999999997</ele><time>2026-04-04T11:33:52.164Z</time></trkpt><trkpt lat="42.081565" lon="12.3979633"><ele>243.99999999999997</ele><time>2026-04-04T11:33:53.165Z</time></trkpt><trkpt lat="42.08152" lon="12.39808"><ele>244.0</ele><time>2026-04-04T11:33:54.164Z</time></trkpt><trkpt lat="42.0814783" lon="12.3981883"><ele>244.0</ele><time>2026-04-04T11:33:55.164Z</time></trkpt><trkpt lat="42.0814367" lon="12.398285"><ele>241.66666666666666</ele><time>2026-04-04T11:33:56.164Z</time></trkpt><trkpt lat="42.08139" lon="12.3983633"><ele>239.33333333333331</ele><time>2026-04-04T11:33:57.165Z</time></trkpt><trkpt lat="42.081335" lon="12.3984317"><ele>237.0</ele><time>2026-04-04T11:33:58.165Z</time></trkpt><trkpt lat="42.0812733" lon="12.3984633"><ele>234.66666666666669</ele><time>2026-04-04T11:33:59.164Z</time></trkpt><trkpt lat="42.0812" lon="12.39855"><ele>232.33333333333334</ele><time>2026-04-04T11:34:01.164Z</time></trkpt><trkpt lat="42.0812867" lon="12.3986617"><ele>230.0</ele><time>2026-04-04T11:34:03.165Z</time></trkpt><trkpt lat="42.0813667" lon="12.3987017"><ele>230.0</ele><time>2026-04-04T11:34:04.165Z</time></trkpt><trkpt lat="42.081455" lon="12.3987467"><ele>230.0</ele><time>2026-04-04T11:34:05.164Z</time></trkpt><trkpt lat="42.0815533" lon="12.39879"><ele>230.0</ele><time>2026-04-04T11:34:06.164Z</time></trkpt><trkpt lat="42.081655" lon="12.398835"><ele>230.0</ele><time>2026-04-04T11:34:07.164Z</time></trkpt><trkpt lat="42.0817683" lon="12.398875"><ele>230.0</ele><time>2026-04-04T11:34:08.165Z</time></trkpt><trkpt lat="42.0818767" lon="12.3989117"><ele>228.25</ele><time>2026-04-04T11:34:09.164Z</time></trkpt><trkpt lat="42.0819917" lon="12.3989217"><ele>226.5</ele><time>2026-04-04T11:34:10.164Z</time></trkpt><trkpt lat="42.0821067" lon="12.3989167"><ele>224.75</ele><time>2026-04-04T11:34:11.165Z</time></trkpt><trkpt lat="42.0822183" lon="12.398905"><ele>223.0</ele><time>2026-04-04T11:34:12.164Z</time></trkpt><trkpt lat="42.0823283" lon="12.3988733"><ele>223.33333333333331</ele><time>2026-04-04T11:34:13.164Z</time></trkpt><trkpt lat="42.0824317" lon="12.398845"><ele>223.66666666666666</ele><time>2026-04-04T11:34:14.165Z</time></trkpt><trkpt lat="42.0825033" lon="12.398855"><ele>224.0</ele><time>2026-04-04T11:34:15.165Z</time></trkpt><trkpt lat="42.082575" lon="12.3988333"><ele>224.33333333333331</ele><time>2026-04-04T11:34:16.164Z</time></trkpt><trkpt lat="42.0826783" lon="12.3988233"><ele>224.66666666666666</ele><time>2026-04-04T11:34:18.165Z</time></trkpt><trkpt lat="42.082745" lon="12.39889"><ele>225.0</ele><time>2026-04-04T11:34:20.164Z</time></trkpt><trkpt lat="42.08272" lon="12.3990183"><ele>225.0</ele><time>2026-04-04T11:34:22.165Z</time></trkpt><trkpt lat="42.0826867" lon="12.3990983"><ele>225.0</ele><time>2026-04-04T11:34:23.165Z</time></trkpt><trkpt lat="42.08264" lon="12.3991983"><ele>225.0</ele><time>2026-04-04T11:34:24.165Z</time></trkpt><trkpt lat="42.0825767" lon="12.3992783"><ele>225.0</ele><time>2026-04-04T11:34:25.164Z</time></trkpt><trkpt lat="42.0825017" lon="12.399335"><ele>225.0</ele><time>2026-04-04T11:34:26.164Z</time></trkpt><trkpt lat="42.08243" lon="12.3993633"><ele>225.0</ele><time>2026-04-04T11:34:27.165Z</time></trkpt><trkpt lat="42.08236" lon="12.3993767"><ele>224.66666666666666</ele><time>2026-04-04T11:34:28.165Z</time></trkpt><trkpt lat="42.0822883" lon="12.3994083"><ele>224.33333333333331</ele><time>2026-04-04T11:34:29.164Z</time></trkpt><trkpt lat="42.0822167" lon="12.3994367"><ele>224.0</ele><time>2026-04-04T11:34:30.164Z</time></trkpt><trkpt lat="42.0821517" lon="12.399465"><ele>223.66666666666666</ele><time>2026-04-04T11:34:31.164Z</time></trkpt><trkpt lat="42.082085" lon="12.3994917"><ele>223.33333333333331</ele><time>2026-04-04T11:34:32.164Z</time></trkpt><trkpt lat="42.0820233" lon="12.3995167"><ele>223.0</ele><time>2026-04-04T11:34:33.164Z</time></trkpt><trkpt lat="42.0819167" lon="12.399555"><ele>222.99999999999997</ele><time>2026-04-04T11:34:35.164Z</time></trkpt><trkpt lat="42.08184" lon="12.3995933"><ele>223.0</ele><time>2026-04-04T11:34:37.164Z</time></trkpt><trkpt lat="42.0817683" lon="12.399645"><ele>223.0</ele><time>2026-04-04T11:34:40.164Z</time></trkpt><trkpt lat="42.0817033" lon="12.39968"><ele>223.0</ele><time>2026-04-04T11:34:45.164Z</time></trkpt><trkpt lat="42.0816383" lon="12.3996917"><ele>222.99999999999997</ele><time>2026-04-04T11:34:47.164Z</time></trkpt><trkpt lat="42.0815533" lon="12.39972"><ele>223.0</ele><time>2026-04-04T11:34:49.164Z</time></trkpt><trkpt lat="42.081465" lon="12.399765"><ele>222.4</ele><time>2026-04-04T11:34:51.164Z</time></trkpt><trkpt lat="42.08138" lon="12.3998167"><ele>221.8</ele><time>2026-04-04T11:34:53.164Z</time></trkpt><trkpt lat="42.081275" lon="12.39986"><ele>221.2</ele><time>2026-04-04T11:34:55.165Z</time></trkpt><trkpt lat="42.0811767" lon="12.3999033"><ele>220.6</ele><time>2026-04-04T11:34:57.164Z</time></trkpt><trkpt lat="42.081075" lon="12.3999517"><ele>220.0</ele><time>2026-04-04T11:34:59.165Z</time></trkpt><trkpt lat="42.0809717" lon="12.4000017"><ele>220.0</ele><time>2026-04-04T11:35:01.164Z</time></trkpt><trkpt lat="42.0808683" lon="12.4000583"><ele>220.0</ele><time>2026-04-04T11:35:03.165Z</time></trkpt><trkpt lat="42.0807717" lon="12.4001067"><ele>220.0</ele><time>2026-04-04T11:35:05.164Z</time></trkpt><trkpt lat="42.0806833" lon="12.4001383"><ele>220.0</ele><time>2026-04-04T11:35:07.165Z</time></trkpt><trkpt lat="42.0806133" lon="12.4001233"><ele>220.0</ele><time>2026-04-04T11:35:09.165Z</time></trkpt><trkpt lat="42.0805417" lon="12.40009"><ele>218.99999999999997</ele><time>2026-04-04T11:35:11.165Z</time></trkpt><trkpt lat="42.08043" lon="12.4000917"><ele>218.0</ele><time>2026-04-04T11:35:13.165Z</time></trkpt><trkpt lat="42.0803583" lon="12.4000933"><ele>217.0</ele><time>2026-04-04T11:35:14.164Z</time></trkpt><trkpt lat="42.0802933" lon="12.4001033"><ele>216.0</ele><time>2026-04-04T11:35:15.164Z</time></trkpt><trkpt lat="42.0802217" lon="12.40012"><ele>214.99999999999997</ele><time>2026-04-04T11:35:16.164Z</time></trkpt><trkpt lat="42.0801467" lon="12.4001383"><ele>214.0</ele><time>2026-04-04T11:35:17.164Z</time></trkpt><trkpt lat="42.08008" lon="12.40016"><ele>213.99999999999997</ele><time>2026-04-04T11:35:18.165Z</time></trkpt><trkpt lat="42.0800133" lon="12.4001817"><ele>214.0</ele><time>2026-04-04T11:35:19.165Z</time></trkpt><trkpt lat="42.0799383" lon="12.400185"><ele>214.0</ele><time>2026-04-04T11:35:20.165Z</time></trkpt><trkpt lat="42.07986" lon="12.40018"><ele>214.0</ele><time>2026-04-04T11:35:21.164Z</time></trkpt><trkpt lat="42.0797683" lon="12.400165"><ele>213.99999999999997</ele><time>2026-04-04T11:35:22.165Z</time></trkpt><trkpt lat="42.0796667" lon="12.4001517"><ele>214.0</ele><time>2026-04-04T11:35:23.164Z</time></trkpt><trkpt lat="42.0795717" lon="12.4001267"><ele>212.79999999999998</ele><time>2026-04-04T11:35:24.164Z</time></trkpt><trkpt lat="42.079475" lon="12.4000983"><ele>211.59999999999997</ele><time>2026-04-04T11:35:25.165Z</time></trkpt><trkpt lat="42.079375" lon="12.4000733"><ele>210.4</ele><time>2026-04-04T11:35:26.165Z</time></trkpt><trkpt lat="42.0792733" lon="12.4000517"><ele>209.2</ele><time>2026-04-04T11:35:27.164Z</time></trkpt><trkpt lat="42.0791817" lon="12.400025"><ele>208.0</ele><time>2026-04-04T11:35:28.164Z</time></trkpt><trkpt lat="42.0790783" lon="12.3999917"><ele>206.4</ele><time>2026-04-04T11:35:29.165Z</time></trkpt><trkpt lat="42.07898" lon="12.399955"><ele>204.8</ele><time>2026-04-04T11:35:30.165Z</time></trkpt><trkpt lat="42.0788783" lon="12.3999167"><ele>203.2</ele><time>2026-04-04T11:35:31.165Z</time></trkpt><trkpt lat="42.078775" lon="12.39989"><ele>201.6</ele><time>2026-04-04T11:35:32.165Z</time></trkpt><trkpt lat="42.0786817" lon="12.39987"><ele>200.0</ele><time>2026-04-04T11:35:33.164Z</time></trkpt><trkpt lat="42.078595" lon="12.3998517"><ele>200.00000000000003</ele><time>2026-04-04T11:35:34.164Z</time></trkpt><trkpt lat="42.0785183" lon="12.399825"><ele>200.0</ele><time>2026-04-04T11:35:35.165Z</time></trkpt><trkpt lat="42.07844" lon="12.3998033"><ele>200.0</ele><time>2026-04-04T11:35:36.165Z</time></trkpt><trkpt lat="42.0783733" lon="12.3997917"><ele>200.0</ele><time>2026-04-04T11:35:37.165Z</time></trkpt><trkpt lat="42.0783067" lon="12.399795"><ele>200.00000000000003</ele><time>2026-04-04T11:35:38.165Z</time></trkpt><trkpt lat="42.0782433" lon="12.3998183"><ele>200.0</ele><time>2026-04-04T11:35:39.164Z</time></trkpt><trkpt lat="42.07815" lon="12.3999133"><ele>199.33333333333334</ele><time>2026-04-04T11:35:41.164Z</time></trkpt><trkpt lat="42.0780883" lon="12.400055"><ele>198.66666666666669</ele><time>2026-04-04T11:35:43.164Z</time></trkpt><trkpt lat="42.0780283" lon="12.4001017"><ele>198.0</ele><time>2026-04-04T11:35:44.164Z</time></trkpt><trkpt lat="42.077955" lon="12.40013"><ele>197.33333333333331</ele><time>2026-04-04T11:35:45.164Z</time></trkpt><trkpt lat="42.07789" lon="12.4001817"><ele>196.66666666666666</ele><time>2026-04-04T11:35:46.165Z</time></trkpt><trkpt lat="42.0778317" lon="12.40023"><ele>196.0</ele><time>2026-04-04T11:35:47.165Z</time></trkpt><trkpt lat="42.07777" lon="12.4002767"><ele>196.0</ele><time>2026-04-04T11:35:48.164Z</time></trkpt><trkpt lat="42.0777" lon="12.4004083"><ele>196.0</ele><time>2026-04-04T11:35:50.164Z</time></trkpt><trkpt lat="42.077705" lon="12.4005033"><ele>196.0</ele><time>2026-04-04T11:35:51.165Z</time></trkpt><trkpt lat="42.0777767" lon="12.4006217"><ele>196.0</ele><time>2026-04-04T11:35:53.165Z</time></trkpt><trkpt lat="42.0778583" lon="12.400655"><ele>196.0</ele><time>2026-04-04T11:35:55.165Z</time></trkpt><trkpt lat="42.0778817" lon="12.4005683"><ele>195.66666666666666</ele><time>2026-04-04T11:35:58.164Z</time></trkpt><trkpt lat="42.077815" lon="12.4005183"><ele>195.33333333333331</ele><time>2026-04-04T11:36:04.164Z</time></trkpt><trkpt lat="42.0778367" lon="12.4006483"><ele>195.0</ele><time>2026-04-04T11:39:09.164Z</time></trkpt><trkpt lat="42.0778783" lon="12.4007133"><ele>194.66666666666669</ele><time>2026-04-04T11:39:14.165Z</time></trkpt><trkpt lat="42.0778183" lon="12.4007433"><ele>194.33333333333334</ele><time>2026-04-04T11:39:22.164Z</time></trkpt><trkpt lat="42.0777567" lon="12.4006917"><ele>194.0</ele><time>2026-04-04T11:39:25.164Z</time></trkpt><trkpt lat="42.0776833" lon="12.4006383"><ele>194.00000000000003</ele><time>2026-04-04T11:39:27.164Z</time></trkpt><trkpt lat="42.0775967" lon="12.4005717"><ele>194.0</ele><time>2026-04-04T11:39:29.164Z</time></trkpt><trkpt lat="42.0774717" lon="12.4005167"><ele>194.0</ele><time>2026-04-04T11:39:31.164Z</time></trkpt><trkpt lat="42.0774" lon="12.4005083"><ele>194.0</ele><time>2026-04-04T11:39:32.165Z</time></trkpt><trkpt lat="42.077325" lon="12.4005067"><ele>194.00000000000003</ele><time>2026-04-04T11:39:33.164Z</time></trkpt><trkpt lat="42.077255" lon="12.4005033"><ele>194.0</ele><time>2026-04-04T11:39:34.165Z</time></trkpt><trkpt lat="42.0771783" lon="12.400505"><ele>194.00000000000003</ele><time>2026-04-04T11:39:35.164Z</time></trkpt><trkpt lat="42.0771117" lon="12.4005067"><ele>194.0</ele><time>2026-04-04T11:39:36.164Z</time></trkpt><trkpt lat="42.0770467" lon="12.4005117"><ele>194.0</ele><time>2026-04-04T11:39:37.165Z</time></trkpt><trkpt lat="42.0769833" lon="12.40051"><ele>194.0</ele><time>2026-04-04T11:39:38.165Z</time></trkpt><trkpt lat="42.0768633" lon="12.4005"><ele>194.00000000000003</ele><time>2026-04-04T11:39:40.165Z</time></trkpt><trkpt lat="42.0767417" lon="12.4004883"><ele>194.0</ele><time>2026-04-04T11:39:42.164Z</time></trkpt><trkpt lat="42.07663" lon="12.400485"><ele>193.79999999999998</ele><time>2026-04-04T11:39:44.165Z</time></trkpt><trkpt lat="42.0765183" lon="12.4004767"><ele>193.6</ele><time>2026-04-04T11:39:46.164Z</time></trkpt><trkpt lat="42.0764" lon="12.4004667"><ele>193.4</ele><time>2026-04-04T11:39:48.165Z</time></trkpt><trkpt lat="42.0763367" lon="12.4004617"><ele>193.2</ele><time>2026-04-04T11:39:49.164Z</time></trkpt><trkpt lat="42.0762167" lon="12.40044"><ele>193.0</ele><time>2026-04-04T11:39:51.165Z</time></trkpt><trkpt lat="42.0761533" lon="12.4004317"><ele>193.0</ele><time>2026-04-04T11:39:52.165Z</time></trkpt><trkpt lat="42.076045" lon="12.4004183"><ele>193.0</ele><time>2026-04-04T11:39:54.164Z</time></trkpt><trkpt lat="42.07593" lon="12.4003917"><ele>193.0</ele><time>2026-04-04T11:39:56.164Z</time></trkpt><trkpt lat="42.0758117" lon="12.4003733"><ele>193.0</ele><time>2026-04-04T11:39:58.164Z</time></trkpt><trkpt lat="42.0756983" lon="12.4003683"><ele>192.2</ele><time>2026-04-04T11:40:00.164Z</time></trkpt><trkpt lat="42.0755917" lon="12.4003633"><ele>191.4</ele><time>2026-04-04T11:40:02.164Z</time></trkpt><trkpt lat="42.0754833" lon="12.4003533"><ele>190.6</ele><time>2026-04-04T11:40:04.164Z</time></trkpt><trkpt lat="42.0753783" lon="12.40035"><ele>189.79999999999998</ele><time>2026-04-04T11:40:06.164Z</time></trkpt><trkpt lat="42.0752867" lon="12.40034"><ele>189.0</ele><time>2026-04-04T11:40:08.165Z</time></trkpt><trkpt lat="42.0752017" lon="12.400335"><ele>189.0</ele><time>2026-04-04T11:40:10.165Z</time></trkpt><trkpt lat="42.07509" lon="12.4003417"><ele>189.0</ele><time>2026-04-04T11:40:12.164Z</time></trkpt><trkpt lat="42.0750267" lon="12.4003483"><ele>189.0</ele><time>2026-04-04T11:40:13.165Z</time></trkpt><trkpt lat="42.0749283" lon="12.40034"><ele>189.0</ele><time>2026-04-04T11:40:15.164Z</time></trkpt><trkpt lat="42.074845" lon="12.4003367"><ele>189.0</ele><time>2026-04-04T11:40:17.165Z</time></trkpt><trkpt lat="42.0747583" lon="12.4003717"><ele>189.0</ele><time>2026-04-04T11:40:19.164Z</time></trkpt><trkpt lat="42.0746633" lon="12.4003933"><ele>188.33333333333334</ele><time>2026-04-04T11:40:21.164Z</time></trkpt><trkpt lat="42.07457" lon="12.4004167"><ele>187.66666666666666</ele><time>2026-04-04T11:40:23.164Z</time></trkpt><trkpt lat="42.0744733" lon="12.4004417"><ele>187.0</ele><time>2026-04-04T11:40:25.164Z</time></trkpt><trkpt lat="42.0743867" lon="12.400455"><ele>186.33333333333331</ele><time>2026-04-04T11:40:27.165Z</time></trkpt><trkpt lat="42.0743167" lon="12.4004717"><ele>185.66666666666666</ele><time>2026-04-04T11:40:29.164Z</time></trkpt><trkpt lat="42.0742467" lon="12.40047"><ele>185.0</ele><time>2026-04-04T11:40:31.165Z</time></trkpt><trkpt lat="42.0741783" lon="12.4004767"><ele>184.4</ele><time>2026-04-04T11:40:33.164Z</time></trkpt><trkpt lat="42.07409" lon="12.400465"><ele>183.8</ele><time>2026-04-04T11:40:35.164Z</time></trkpt><trkpt lat="42.0739933" lon="12.4004483"><ele>183.2</ele><time>2026-04-04T11:40:37.165Z</time></trkpt><trkpt lat="42.07389" lon="12.4004267"><ele>182.6</ele><time>2026-04-04T11:40:39.165Z</time></trkpt><trkpt lat="42.0737817" lon="12.4003967"><ele>182.0</ele><time>2026-04-04T11:40:41.164Z</time></trkpt><trkpt lat="42.0736667" lon="12.4003433"><ele>182.0</ele><time>2026-04-04T11:40:43.165Z</time></trkpt><trkpt lat="42.0735483" lon="12.400335"><ele>182.0</ele><time>2026-04-04T11:40:45.164Z</time></trkpt><trkpt lat="42.0734333" lon="12.400355"><ele>182.0</ele><time>2026-04-04T11:40:47.165Z</time></trkpt><trkpt lat="42.0733083" lon="12.4003667"><ele>182.0</ele><time>2026-04-04T11:40:49.164Z</time></trkpt><trkpt lat="42.073245" lon="12.4003717"><ele>182.0</ele><time>2026-04-04T11:40:50.164Z</time></trkpt><trkpt lat="42.0731317" lon="12.400355"><ele>181.83333333333331</ele><time>2026-04-04T11:40:52.164Z</time></trkpt><trkpt lat="42.0730167" lon="12.400345"><ele>181.66666666666666</ele><time>2026-04-04T11:40:54.165Z</time></trkpt><trkpt lat="42.0728933" lon="12.4003117"><ele>181.5</ele><time>2026-04-04T11:40:56.164Z</time></trkpt><trkpt lat="42.07283" lon="12.40029"><ele>181.33333333333334</ele><time>2026-04-04T11:40:57.164Z</time></trkpt><trkpt lat="42.072765" lon="12.400275"><ele>181.16666666666669</ele><time>2026-04-04T11:40:58.165Z</time></trkpt><trkpt lat="42.0727033" lon="12.4002567"><ele>181.0</ele><time>2026-04-04T11:40:59.164Z</time></trkpt><trkpt lat="42.072585" lon="12.4002333"><ele>181.0</ele><time>2026-04-04T11:41:01.165Z</time></trkpt><trkpt lat="42.0725217" lon="12.4002217"><ele>181.0</ele><time>2026-04-04T11:41:02.164Z</time></trkpt><trkpt lat="42.072455" lon="12.40022"><ele>181.0</ele><time>2026-04-04T11:41:03.164Z</time></trkpt><trkpt lat="42.072335" lon="12.4002233"><ele>181.0</ele><time>2026-04-04T11:41:05.164Z</time></trkpt><trkpt lat="42.0722167" lon="12.40024"><ele>181.0</ele><time>2026-04-04T11:41:07.165Z</time></trkpt><trkpt lat="42.0720983" lon="12.4002433"><ele>179.0</ele><time>2026-04-04T11:41:09.164Z</time></trkpt><trkpt lat="42.0719783" lon="12.40025"><ele>177.0</ele><time>2026-04-04T11:41:11.165Z</time></trkpt><trkpt lat="42.0718683" lon="12.4002417"><ele>175.0</ele><time>2026-04-04T11:41:13.164Z</time></trkpt><trkpt lat="42.0717517" lon="12.4002433"><ele>173.0</ele><time>2026-04-04T11:41:15.164Z</time></trkpt><trkpt lat="42.071625" lon="12.4002483"><ele>172.42857142857142</ele><time>2026-04-04T11:41:17.164Z</time></trkpt><trkpt lat="42.0715583" lon="12.4002567"><ele>171.85714285714286</ele><time>2026-04-04T11:41:18.164Z</time></trkpt><trkpt lat="42.071495" lon="12.400265"><ele>171.28571428571428</ele><time>2026-04-04T11:41:19.164Z</time></trkpt><trkpt lat="42.0714233" lon="12.4002683"><ele>170.71428571428572</ele><time>2026-04-04T11:41:20.164Z</time></trkpt><trkpt lat="42.0713583" lon="12.40027"><ele>170.14285714285714</ele><time>2026-04-04T11:41:21.165Z</time></trkpt><trkpt lat="42.0712917" lon="12.4002783"><ele>169.57142857142858</ele><time>2026-04-04T11:41:22.165Z</time></trkpt><trkpt lat="42.0712267" lon="12.4002833"><ele>169.0</ele><time>2026-04-04T11:41:23.164Z</time></trkpt><trkpt lat="42.07116" lon="12.40029"><ele>169.0</ele><time>2026-04-04T11:41:24.165Z</time></trkpt><trkpt lat="42.071095" lon="12.4003067"><ele>169.0</ele><time>2026-04-04T11:41:25.164Z</time></trkpt><trkpt lat="42.07098" lon="12.40033"><ele>169.0</ele><time>2026-04-04T11:41:27.165Z</time></trkpt><trkpt lat="42.0709167" lon="12.400335"><ele>169.0</ele><time>2026-04-04T11:41:28.164Z</time></trkpt><trkpt lat="42.0707967" lon="12.40036"><ele>169.0</ele><time>2026-04-04T11:41:30.165Z</time></trkpt><trkpt lat="42.070675" lon="12.4003733"><ele>169.2</ele><time>2026-04-04T11:41:32.165Z</time></trkpt><trkpt lat="42.070565" lon="12.400415"><ele>169.39999999999998</ele><time>2026-04-04T11:41:34.165Z</time></trkpt><trkpt lat="42.070465" lon="12.4004833"><ele>169.6</ele><time>2026-04-04T11:41:36.164Z</time></trkpt><trkpt lat="42.0703617" lon="12.4005767"><ele>169.8</ele><time>2026-04-04T11:41:38.165Z</time></trkpt><trkpt lat="42.0703067" lon="12.400625"><ele>170.0</ele><time>2026-04-04T11:41:39.164Z</time></trkpt><trkpt lat="42.0702067" lon="12.400695"><ele>170.0</ele><time>2026-04-04T11:41:41.164Z</time></trkpt><trkpt lat="42.0701467" lon="12.400725"><ele>170.0</ele><time>2026-04-04T11:41:42.164Z</time></trkpt><trkpt lat="42.0700817" lon="12.4007567"><ele>170.0</ele><time>2026-04-04T11:41:43.164Z</time></trkpt><trkpt lat="42.0700133" lon="12.40078"><ele>170.0</ele><time>2026-04-04T11:41:44.164Z</time></trkpt><trkpt lat="42.0699317" lon="12.400805"><ele>170.0</ele><time>2026-04-04T11:41:45.165Z</time></trkpt><trkpt lat="42.06985" lon="12.4008167"><ele>170.0</ele><time>2026-04-04T11:41:46.165Z</time></trkpt><trkpt lat="42.0697683" lon="12.4008367"><ele>168.0</ele><time>2026-04-04T11:41:47.164Z</time></trkpt><trkpt lat="42.069685" lon="12.4008633"><ele>166.0</ele><time>2026-04-04T11:41:48.164Z</time></trkpt><trkpt lat="42.0696017" lon="12.4008783"><ele>164.0</ele><time>2026-04-04T11:41:49.164Z</time></trkpt><trkpt lat="42.06952" lon="12.4008967"><ele>162.0</ele><time>2026-04-04T11:41:50.165Z</time></trkpt><trkpt lat="42.0694283" lon="12.4009167"><ele>160.0</ele><time>2026-04-04T11:41:51.164Z</time></trkpt><trkpt lat="42.069325" lon="12.40095"><ele>160.0</ele><time>2026-04-04T11:41:52.164Z</time></trkpt><trkpt lat="42.0692183" lon="12.4009683"><ele>160.0</ele><time>2026-04-04T11:41:53.165Z</time></trkpt><trkpt lat="42.0691233" lon="12.4009883"><ele>160.0</ele><time>2026-04-04T11:41:54.164Z</time></trkpt><trkpt lat="42.069045" lon="12.4010133"><ele>160.0</ele><time>2026-04-04T11:41:55.164Z</time></trkpt><trkpt lat="42.06895" lon="12.4010683"><ele>160.0</ele><time>2026-04-04T11:41:57.164Z</time></trkpt><trkpt lat="42.0689017" lon="12.4011267"><ele>159.33333333333334</ele><time>2026-04-04T11:41:59.165Z</time></trkpt><trkpt lat="42.068885" lon="12.4012367"><ele>158.66666666666669</ele><time>2026-04-04T11:42:03.165Z</time></trkpt><trkpt lat="42.0689067" lon="12.4013367"><ele>158.0</ele><time>2026-04-04T11:42:08.164Z</time></trkpt><trkpt lat="42.069" lon="12.4014533"><ele>157.33333333333334</ele><time>2026-04-04T11:42:15.164Z</time></trkpt><trkpt lat="42.0690467" lon="12.4015117"><ele>156.66666666666666</ele><time>2026-04-04T11:42:19.164Z</time></trkpt><trkpt lat="42.06906" lon="12.4015983"><ele>156.0</ele><time>2026-04-04T11:42:23.165Z</time></trkpt><trkpt lat="42.0690583" lon="12.4017083"><ele>156.16666666666666</ele><time>2026-04-04T11:42:25.165Z</time></trkpt><trkpt lat="42.0690467" lon="12.4018117"><ele>156.33333333333334</ele><time>2026-04-04T11:42:27.164Z</time></trkpt><trkpt lat="42.069015" lon="12.4019333"><ele>156.5</ele><time>2026-04-04T11:42:30.164Z</time></trkpt><trkpt lat="42.0689817" lon="12.4020417"><ele>156.66666666666669</ele><time>2026-04-04T11:42:33.164Z</time></trkpt><trkpt lat="42.06894" lon="12.402145"><ele>156.83333333333334</ele><time>2026-04-04T11:42:36.164Z</time></trkpt><trkpt lat="42.068885" lon="12.4022467"><ele>157.0</ele><time>2026-04-04T11:42:39.164Z</time></trkpt><trkpt lat="42.0688333" lon="12.4023"><ele>157.0</ele><time>2026-04-04T11:42:41.165Z</time></trkpt><trkpt lat="42.06879" lon="12.4023817"><ele>157.0</ele><time>2026-04-04T11:42:43.165Z</time></trkpt><trkpt lat="42.06875" lon="12.4024517"><ele>157.0</ele><time>2026-04-04T11:42:45.164Z</time></trkpt><trkpt lat="42.06869" lon="12.402555"><ele>157.0</ele><time>2026-04-04T11:42:48.165Z</time></trkpt><trkpt lat="42.06865" lon="12.402645"><ele>157.0</ele><time>2026-04-04T11:42:51.164Z</time></trkpt><trkpt lat="42.0686167" lon="12.402725"><ele>157.0</ele><time>2026-04-04T11:42:54.165Z</time></trkpt><trkpt lat="42.0685867" lon="12.4028283"><ele>157.0</ele><time>2026-04-04T11:42:58.164Z</time></trkpt><trkpt lat="42.0685633" lon="12.40293"><ele>157.0</ele><time>2026-04-04T11:43:01.164Z</time></trkpt><trkpt lat="42.0685133" lon="12.4029867"><ele>157.0</ele><time>2026-04-04T11:43:04.165Z</time></trkpt><trkpt lat="42.0684467" lon="12.403"><ele>157.0</ele><time>2026-04-04T11:43:08.165Z</time></trkpt><trkpt lat="42.0683517" lon="12.4030717"><ele>157.0</ele><time>2026-04-04T11:43:49.164Z</time></trkpt><trkpt lat="42.0682333" lon="12.4031167"><ele>157.0</ele><time>2026-04-04T11:44:15.164Z</time></trkpt><trkpt lat="42.0681467" lon="12.4031467"><ele>158.66666666666669</ele><time>2026-04-04T11:44:18.164Z</time></trkpt><trkpt lat="42.0680567" lon="12.4031667"><ele>160.33333333333334</ele><time>2026-04-04T11:44:21.164Z</time></trkpt><trkpt lat="42.0679833" lon="12.4032233"><ele>162.0</ele><time>2026-04-04T11:44:24.165Z</time></trkpt><trkpt lat="42.0679217" lon="12.4032683"><ele>163.66666666666666</ele><time>2026-04-04T11:44:26.164Z</time></trkpt><trkpt lat="42.0678383" lon="12.40331"><ele>165.33333333333331</ele><time>2026-04-04T11:44:28.164Z</time></trkpt><trkpt lat="42.06774" lon="12.403335"><ele>167.0</ele><time>2026-04-04T11:44:30.164Z</time></trkpt><trkpt lat="42.0676667" lon="12.40337"><ele>167.0</ele><time>2026-04-04T11:44:32.165Z</time></trkpt><trkpt lat="42.0676" lon="12.40338"><ele>167.0</ele><time>2026-04-04T11:44:34.165Z</time></trkpt><trkpt lat="42.0675267" lon="12.4033717"><ele>167.0</ele><time>2026-04-04T11:44:36.165Z</time></trkpt><trkpt lat="42.067435" lon="12.4033583"><ele>167.0</ele><time>2026-04-04T11:44:38.165Z</time></trkpt><trkpt lat="42.0673533" lon="12.4033267"><ele>167.0</ele><time>2026-04-04T11:44:40.165Z</time></trkpt><trkpt lat="42.0672717" lon="12.40331"><ele>167.0</ele><time>2026-04-04T11:44:42.164Z</time></trkpt><trkpt lat="42.0671917" lon="12.4032867"><ele>166.2</ele><time>2026-04-04T11:44:44.165Z</time></trkpt><trkpt lat="42.0671067" lon="12.4032733"><ele>165.39999999999998</ele><time>2026-04-04T11:44:46.164Z</time></trkpt><trkpt lat="42.0670117" lon="12.4032917"><ele>164.60000000000002</ele><time>2026-04-04T11:44:48.165Z</time></trkpt><trkpt lat="42.0669217" lon="12.403295"><ele>163.8</ele><time>2026-04-04T11:44:50.165Z</time></trkpt><trkpt lat="42.066815" lon="12.4033133"><ele>163.0</ele><time>2026-04-04T11:44:52.165Z</time></trkpt><trkpt lat="42.0667267" lon="12.4033267"><ele>163.0</ele><time>2026-04-04T11:44:54.165Z</time></trkpt><trkpt lat="42.0666683" lon="12.40336"><ele>163.0</ele><time>2026-04-04T11:44:56.164Z</time></trkpt><trkpt lat="42.0666083" lon="12.403425"><ele>163.0</ele><time>2026-04-04T11:44:59.164Z</time></trkpt><trkpt lat="42.06655" lon="12.4034833"><ele>163.0</ele><time>2026-04-04T11:45:03.164Z</time></trkpt><trkpt lat="42.066485" lon="12.403515"><ele>163.0</ele><time>2026-04-04T11:45:07.164Z</time></trkpt><trkpt lat="42.066415" lon="12.4035433"><ele>163.0</ele><time>2026-04-04T11:45:12.164Z</time></trkpt><trkpt lat="42.0664117" lon="12.4034333"><ele>163.0</ele><time>2026-04-04T11:45:19.164Z</time></trkpt><trkpt lat="42.06642" lon="12.40334"><ele>163.0</ele><time>2026-04-04T11:45:21.165Z</time></trkpt><trkpt lat="42.0664267" lon="12.4032367"><ele>163.0</ele><time>2026-04-04T11:45:24.165Z</time></trkpt><trkpt lat="42.066455" lon="12.4031433"><ele>163.0</ele><time>2026-04-04T11:45:40.164Z</time></trkpt><trkpt lat="42.0665" lon="12.4030717"><ele>163.0</ele><time>2026-04-04T11:45:50.164Z</time></trkpt><trkpt lat="42.06663" lon="12.4031283"><ele>163.0</ele><time>2026-04-04T11:46:10.164Z</time></trkpt><trkpt lat="42.0667283" lon="12.4031917"><ele>163.0</ele><time>2026-04-04T11:46:29.165Z</time></trkpt><trkpt lat="42.0668333" lon="12.40326"><ele>163.0</ele><time>2026-04-04T11:46:47.164Z</time></trkpt><trkpt lat="42.0669233" lon="12.4032733"><ele>163.0</ele><time>2026-04-04T11:46:56.164Z</time></trkpt><trkpt lat="42.0670083" lon="12.40332"><ele>163.0</ele><time>2026-04-04T11:47:05.164Z</time></trkpt><trkpt lat="42.0670817" lon="12.4033367"><ele>163.0</ele><time>2026-04-04T11:47:08.165Z</time></trkpt><trkpt lat="42.0671533" lon="12.4033633"><ele>163.0</ele><time>2026-04-04T11:47:13.164Z</time></trkpt><trkpt lat="42.0671717" lon="12.4032733"><ele>163.0</ele><time>2026-04-04T11:47:50.164Z</time></trkpt><trkpt lat="42.0671183" lon="12.403205"><ele>163.0</ele><time>2026-04-04T11:47:52.165Z</time></trkpt><trkpt lat="42.067035" lon="12.4031483"><ele>163.0</ele><time>2026-04-04T11:47:54.164Z</time></trkpt><trkpt lat="42.06693" lon="12.4031167"><ele>163.0</ele><time>2026-04-04T11:47:56.164Z</time></trkpt><trkpt lat="42.06685" lon="12.4031033"><ele>163.0</ele><time>2026-04-04T11:47:58.164Z</time></trkpt><trkpt lat="42.066765" lon="12.403075"><ele>163.0</ele><time>2026-04-04T11:48:01.165Z</time></trkpt><trkpt lat="42.0666933" lon="12.4030433"><ele>161.16666666666669</ele><time>2026-04-04T11:48:03.165Z</time></trkpt><trkpt lat="42.0666067" lon="12.4030117"><ele>159.33333333333334</ele><time>2026-04-04T11:48:05.164Z</time></trkpt><trkpt lat="42.0665083" lon="12.4030017"><ele>157.5</ele><time>2026-04-04T11:48:07.165Z</time></trkpt><trkpt lat="42.0664433" lon="12.4029867"><ele>155.66666666666666</ele><time>2026-04-04T11:48:09.164Z</time></trkpt><trkpt lat="42.0663783" lon="12.4029567"><ele>153.83333333333331</ele><time>2026-04-04T11:48:11.164Z</time></trkpt><trkpt lat="42.0663133" lon="12.4029167"><ele>152.0</ele><time>2026-04-04T11:48:13.164Z</time></trkpt><trkpt lat="42.06618" lon="12.402925"><ele>151.5</ele><time>2026-04-04T11:48:31.164Z</time></trkpt><trkpt lat="42.0661117" lon="12.4028783"><ele>151.0</ele><time>2026-04-04T11:48:37.164Z</time></trkpt><trkpt lat="42.066045" lon="12.4028567"><ele>150.5</ele><time>2026-04-04T11:48:42.165Z</time></trkpt><trkpt lat="42.06597" lon="12.4028283"><ele>150.0</ele><time>2026-04-04T11:48:45.164Z</time></trkpt><trkpt lat="42.0658683" lon="12.4028317"><ele>149.5</ele><time>2026-04-04T11:48:48.164Z</time></trkpt><trkpt lat="42.0657983" lon="12.4028483"><ele>149.0</ele><time>2026-04-04T11:48:50.164Z</time></trkpt><trkpt lat="42.0657167" lon="12.4028833"><ele>149.0</ele><time>2026-04-04T11:48:52.165Z</time></trkpt><trkpt lat="42.0656333" lon="12.4029233"><ele>149.0</ele><time>2026-04-04T11:48:54.164Z</time></trkpt><trkpt lat="42.0655467" lon="12.40295"><ele>149.0</ele><time>2026-04-04T11:48:56.164Z</time></trkpt><trkpt lat="42.0654433" lon="12.40296"><ele>149.0</ele><time>2026-04-04T11:48:58.164Z</time></trkpt><trkpt lat="42.0653433" lon="12.4029733"><ele>149.0</ele><time>2026-04-04T11:49:00.164Z</time></trkpt><trkpt lat="42.06525" lon="12.4029417"><ele>149.0</ele><time>2026-04-04T11:49:02.164Z</time></trkpt><trkpt lat="42.0652" lon="12.4028267"><ele>149.0</ele><time>2026-04-04T11:49:04.164Z</time></trkpt><trkpt lat="42.06518" lon="12.4027083"><ele>149.0</ele><time>2026-04-04T11:49:06.164Z</time></trkpt><trkpt lat="42.0651117" lon="12.402635"><ele>149.0</ele><time>2026-04-04T11:49:08.165Z</time></trkpt><trkpt lat="42.0650067" lon="12.4026467"><ele>149.0</ele><time>2026-04-04T11:49:10.165Z</time></trkpt><trkpt lat="42.0648883" lon="12.4026517"><ele>148.0</ele><time>2026-04-04T11:49:12.164Z</time></trkpt><trkpt lat="42.0647683" lon="12.4026617"><ele>147.0</ele><time>2026-04-04T11:49:14.165Z</time></trkpt><trkpt lat="42.0646617" lon="12.40265"><ele>146.0</ele><time>2026-04-04T11:49:16.165Z</time></trkpt><trkpt lat="42.064585" lon="12.402635"><ele>145.0</ele><time>2026-04-04T11:49:18.164Z</time></trkpt><trkpt lat="42.0644617" lon="12.402635"><ele>144.0</ele><time>2026-04-04T11:49:20.164Z</time></trkpt><trkpt lat="42.06434" lon="12.40267"><ele>144.0</ele><time>2026-04-04T11:49:22.165Z</time></trkpt><trkpt lat="42.06427" lon="12.4026917"><ele>144.0</ele><time>2026-04-04T11:49:23.165Z</time></trkpt><trkpt lat="42.064205" lon="12.4027067"><ele>144.0</ele><time>2026-04-04T11:49:24.164Z</time></trkpt><trkpt lat="42.0641367" lon="12.4027217"><ele>144.0</ele><time>2026-04-04T11:49:25.165Z</time></trkpt><trkpt lat="42.0640167" lon="12.4027517"><ele>144.0</ele><time>2026-04-04T11:49:27.165Z</time></trkpt><trkpt lat="42.06395" lon="12.4027667"><ele>144.0</ele><time>2026-04-04T11:49:28.165Z</time></trkpt><trkpt lat="42.0638817" lon="12.4027767"><ele>143.57142857142858</ele><time>2026-04-04T11:49:29.165Z</time></trkpt><trkpt lat="42.0638117" lon="12.402785"><ele>143.14285714285714</ele><time>2026-04-04T11:49:30.164Z</time></trkpt><trkpt lat="42.0637417" lon="12.4027917"><ele>142.71428571428572</ele><time>2026-04-04T11:49:31.164Z</time></trkpt><trkpt lat="42.06367" lon="12.4028017"><ele>142.28571428571428</ele><time>2026-04-04T11:49:32.164Z</time></trkpt><trkpt lat="42.0635933" lon="12.4028067"><ele>141.85714285714286</ele><time>2026-04-04T11:49:33.165Z</time></trkpt><trkpt lat="42.0635233" lon="12.402825"><ele>141.42857142857144</ele><time>2026-04-04T11:49:34.164Z</time></trkpt><trkpt lat="42.0634567" lon="12.402845"><ele>141.0</ele><time>2026-04-04T11:49:35.164Z</time></trkpt><trkpt lat="42.0633867" lon="12.4028633"><ele>141.0</ele><time>2026-04-04T11:49:36.164Z</time></trkpt><trkpt lat="42.063325" lon="12.4028867"><ele>141.0</ele><time>2026-04-04T11:49:37.164Z</time></trkpt><trkpt lat="42.0632067" lon="12.402905"><ele>141.0</ele><time>2026-04-04T11:49:39.164Z</time></trkpt><trkpt lat="42.063105" lon="12.4029283"><ele>141.0</ele><time>2026-04-04T11:49:41.164Z</time></trkpt><trkpt lat="42.063005" lon="12.402955"><ele>141.0</ele><time>2026-04-04T11:49:43.165Z</time></trkpt><trkpt lat="42.062905" lon="12.4029583"><ele>140.8</ele><time>2026-04-04T11:49:45.164Z</time></trkpt><trkpt lat="42.06281" lon="12.4029433"><ele>140.6</ele><time>2026-04-04T11:49:47.164Z</time></trkpt><trkpt lat="42.0626967" lon="12.4029417"><ele>140.4</ele><time>2026-04-04T11:49:49.165Z</time></trkpt><trkpt lat="42.062575" lon="12.4029483"><ele>140.2</ele><time>2026-04-04T11:49:51.165Z</time></trkpt><trkpt lat="42.0625117" lon="12.4029517"><ele>140.0</ele><time>2026-04-04T11:49:52.164Z</time></trkpt><trkpt lat="42.06239" lon="12.4029583"><ele>140.75</ele><time>2026-04-04T11:49:54.165Z</time></trkpt><trkpt lat="42.0622733" lon="12.4029517"><ele>141.5</ele><time>2026-04-04T11:49:56.164Z</time></trkpt><trkpt lat="42.0621483" lon="12.40294"><ele>142.25</ele><time>2026-04-04T11:49:58.164Z</time></trkpt><trkpt lat="42.0620317" lon="12.4029067"><ele>143.0</ele><time>2026-04-04T11:50:00.165Z</time></trkpt><trkpt lat="42.061925" lon="12.4028817"><ele>143.0</ele><time>2026-04-04T11:50:02.164Z</time></trkpt><trkpt lat="42.0618217" lon="12.402875"><ele>143.0</ele><time>2026-04-04T11:50:04.165Z</time></trkpt><trkpt lat="42.06175" lon="12.4028633"><ele>143.0</ele><time>2026-04-04T11:50:06.165Z</time></trkpt><trkpt lat="42.0616167" lon="12.40289"><ele>143.0</ele><time>2026-04-04T11:50:27.164Z</time></trkpt><trkpt lat="42.0615417" lon="12.4028933"><ele>143.0</ele><time>2026-04-04T11:50:29.165Z</time></trkpt><trkpt lat="42.0614533" lon="12.4028967"><ele>142.33333333333331</ele><time>2026-04-04T11:50:31.165Z</time></trkpt><trkpt lat="42.0613867" lon="12.4029067"><ele>141.66666666666666</ele><time>2026-04-04T11:50:33.165Z</time></trkpt><trkpt lat="42.0613067" lon="12.4029167"><ele>141.0</ele><time>2026-04-04T11:50:35.164Z</time></trkpt><trkpt lat="42.06124" lon="12.4029517"><ele>140.33333333333334</ele><time>2026-04-04T11:50:37.164Z</time></trkpt><trkpt lat="42.0611617" lon="12.4029717"><ele>139.66666666666669</ele><time>2026-04-04T11:50:39.164Z</time></trkpt><trkpt lat="42.0610733" lon="12.40299"><ele>139.0</ele><time>2026-04-04T11:50:41.164Z</time></trkpt><trkpt lat="42.0610067" lon="12.40301"><ele>139.0</ele><time>2026-04-04T11:50:43.165Z</time></trkpt><trkpt lat="42.0609417" lon="12.4030283"><ele>139.0</ele><time>2026-04-04T11:50:45.164Z</time></trkpt><trkpt lat="42.0608633" lon="12.4030617"><ele>139.0</ele><time>2026-04-04T11:50:47.164Z</time></trkpt><trkpt lat="42.0607767" lon="12.4030767"><ele>139.0</ele><time>2026-04-04T11:50:49.164Z</time></trkpt><trkpt lat="42.060675" lon="12.4031167"><ele>139.0</ele><time>2026-04-04T11:50:51.165Z</time></trkpt><trkpt lat="42.0605767" lon="12.4031867"><ele>138.57142857142856</ele><time>2026-04-04T11:50:53.164Z</time></trkpt><trkpt lat="42.0605283" lon="12.4032467"><ele>138.14285714285714</ele><time>2026-04-04T11:50:54.165Z</time></trkpt><trkpt lat="42.0604783" lon="12.4033017"><ele>137.71428571428572</ele><time>2026-04-04T11:50:55.165Z</time></trkpt><trkpt lat="42.0604283" lon="12.4033583"><ele>137.28571428571428</ele><time>2026-04-04T11:50:56.165Z</time></trkpt><trkpt lat="42.0603533" lon="12.4034133"><ele>136.85714285714286</ele><time>2026-04-04T11:50:58.165Z</time></trkpt><trkpt lat="42.0602767" lon="12.4034133"><ele>136.42857142857142</ele><time>2026-04-04T11:51:01.164Z</time></trkpt><trkpt lat="42.0601933" lon="12.4034417"><ele>136.0</ele><time>2026-04-04T11:51:04.164Z</time></trkpt><trkpt lat="42.0600933" lon="12.4034483"><ele>136.0</ele><time>2026-04-04T11:51:07.165Z</time></trkpt><trkpt lat="42.0600033" lon="12.4034783"><ele>136.0</ele><time>2026-04-04T11:51:09.164Z</time></trkpt><trkpt lat="42.0599133" lon="12.4035133"><ele>136.0</ele><time>2026-04-04T11:51:11.164Z</time></trkpt><trkpt lat="42.05983" lon="12.4035433"><ele>136.0</ele><time>2026-04-04T11:51:13.164Z</time></trkpt><trkpt lat="42.0597533" lon="12.4035917"><ele>136.0</ele><time>2026-04-04T11:51:15.164Z</time></trkpt><trkpt lat="42.05969" lon="12.403615"><ele>136.0</ele><time>2026-04-04T11:51:17.164Z</time></trkpt><trkpt lat="42.0596317" lon="12.4036567"><ele>136.16666666666669</ele><time>2026-04-04T11:51:20.164Z</time></trkpt><trkpt lat="42.0595367" lon="12.40367"><ele>136.33333333333334</ele><time>2026-04-04T11:51:23.164Z</time></trkpt><trkpt lat="42.0594567" lon="12.4036983"><ele>136.5</ele><time>2026-04-04T11:51:25.165Z</time></trkpt><trkpt lat="42.059375" lon="12.4036917"><ele>136.66666666666666</ele><time>2026-04-04T11:51:27.164Z</time></trkpt><trkpt lat="42.0593033" lon="12.403685"><ele>136.83333333333331</ele><time>2026-04-04T11:51:29.165Z</time></trkpt><trkpt lat="42.0592217" lon="12.403675"><ele>137.0</ele><time>2026-04-04T11:51:32.164Z</time></trkpt><trkpt lat="42.0591583" lon="12.4036783"><ele>138.57142857142858</ele><time>2026-04-04T11:51:35.165Z</time></trkpt><trkpt lat="42.0590883" lon="12.4036717"><ele>140.14285714285714</ele><time>2026-04-04T11:51:39.164Z</time></trkpt><trkpt lat="42.059005" lon="12.403655"><ele>141.71428571428572</ele><time>2026-04-04T11:51:43.164Z</time></trkpt><trkpt lat="42.0589267" lon="12.40364"><ele>143.28571428571428</ele><time>2026-04-04T11:51:47.164Z</time></trkpt><trkpt lat="42.0588517" lon="12.403625"><ele>144.85714285714286</ele><time>2026-04-04T11:51:51.164Z</time></trkpt><trkpt lat="42.0587883" lon="12.4036067"><ele>146.42857142857144</ele><time>2026-04-04T11:51:55.164Z</time></trkpt><trkpt lat="42.058725" lon="12.4035967"><ele>148.0</ele><time>2026-04-04T11:52:00.164Z</time></trkpt><trkpt lat="42.0586583" lon="12.403555"><ele>148.0</ele><time>2026-04-04T11:52:04.164Z</time></trkpt><trkpt lat="42.0585917" lon="12.4035217"><ele>148.0</ele><time>2026-04-04T11:52:07.164Z</time></trkpt><trkpt lat="42.0585167" lon="12.4035033"><ele>148.0</ele><time>2026-04-04T11:52:10.165Z</time></trkpt><trkpt lat="42.05844" lon="12.4034633"><ele>148.0</ele><time>2026-04-04T11:52:14.165Z</time></trkpt><trkpt lat="42.058365" lon="12.4034333"><ele>148.0</ele><time>2026-04-04T11:52:18.164Z</time></trkpt><trkpt lat="42.0583033" lon="12.4033867"><ele>148.0</ele><time>2026-04-04T11:52:22.165Z</time></trkpt><trkpt lat="42.058225" lon="12.40336"><ele>149.33333333333334</ele><time>2026-04-04T11:52:27.164Z</time></trkpt><trkpt lat="42.05816" lon="12.40333"><ele>150.66666666666669</ele><time>2026-04-04T11:52:31.164Z</time></trkpt><trkpt lat="42.058095" lon="12.4032917"><ele>152.0</ele><time>2026-04-04T11:52:35.165Z</time></trkpt><trkpt lat="42.058025" lon="12.4032483"><ele>153.33333333333334</ele><time>2026-04-04T11:52:39.164Z</time></trkpt><trkpt lat="42.0579517" lon="12.40323"><ele>154.66666666666666</ele><time>2026-04-04T11:52:44.165Z</time></trkpt><trkpt lat="42.057885" lon="12.40321"><ele>156.0</ele><time>2026-04-04T11:52:49.164Z</time></trkpt><trkpt lat="42.0577917" lon="12.4032217"><ele>156.0</ele><time>2026-04-04T11:52:57.164Z</time></trkpt><trkpt lat="42.057715" lon="12.4031967"><ele>156.0</ele><time>2026-04-04T11:53:02.164Z</time></trkpt><trkpt lat="42.0576533" lon="12.4031783"><ele>156.0</ele><time>2026-04-04T11:53:05.164Z</time></trkpt><trkpt lat="42.0575883" lon="12.4031333"><ele>156.0</ele><time>2026-04-04T11:53:09.165Z</time></trkpt><trkpt lat="42.05751" lon="12.403065"><ele>156.0</ele><time>2026-04-04T11:53:13.164Z</time></trkpt><trkpt lat="42.0574467" lon="12.4030117"><ele>156.0</ele><time>2026-04-04T11:53:16.164Z</time></trkpt><trkpt lat="42.0573833" lon="12.4029333"><ele>154.5</ele><time>2026-04-04T11:53:19.164Z</time></trkpt><trkpt lat="42.0573417" lon="12.402865"><ele>153.0</ele><time>2026-04-04T11:53:21.165Z</time></trkpt><trkpt lat="42.0573" lon="12.4027767"><ele>151.5</ele><time>2026-04-04T11:53:23.164Z</time></trkpt><trkpt lat="42.0572683" lon="12.402675"><ele>150.0</ele><time>2026-04-04T11:53:25.164Z</time></trkpt><trkpt lat="42.0572367" lon="12.402585"><ele>148.5</ele><time>2026-04-04T11:53:27.165Z</time></trkpt><trkpt lat="42.0571967" lon="12.402435"><ele>147.0</ele><time>2026-04-04T11:53:35.164Z</time></trkpt><trkpt lat="42.0571783" lon="12.4023433"><ele>147.0</ele><time>2026-04-04T11:53:37.164Z</time></trkpt><trkpt lat="42.05716" lon="12.4022317"><ele>147.0</ele><time>2026-04-04T11:53:39.164Z</time></trkpt><trkpt lat="42.0571367" lon="12.4021217"><ele>147.0</ele><time>2026-04-04T11:53:41.164Z</time></trkpt><trkpt lat="42.0571067" lon="12.4020133"><ele>147.0</ele><time>2026-04-04T11:53:43.165Z</time></trkpt><trkpt lat="42.0570467" lon="12.4019783"><ele>147.0</ele><time>2026-04-04T11:53:45.164Z</time></trkpt><trkpt lat="42.0569733" lon="12.4020017"><ele>147.0</ele><time>2026-04-04T11:53:47.165Z</time></trkpt><trkpt lat="42.0568967" lon="12.4020517"><ele>147.2</ele><time>2026-04-04T11:53:49.165Z</time></trkpt><trkpt lat="42.056815" lon="12.402095"><ele>147.39999999999998</ele><time>2026-04-04T11:53:51.165Z</time></trkpt><trkpt lat="42.05672" lon="12.4021417"><ele>147.60000000000002</ele><time>2026-04-04T11:53:53.164Z</time></trkpt><trkpt lat="42.0566183" lon="12.4021817"><ele>147.8</ele><time>2026-04-04T11:53:55.164Z</time></trkpt><trkpt lat="42.0565217" lon="12.4022317"><ele>148.0</ele><time>2026-04-04T11:53:57.164Z</time></trkpt><trkpt lat="42.0564267" lon="12.4023"><ele>146.6</ele><time>2026-04-04T11:53:59.164Z</time></trkpt><trkpt lat="42.0563433" lon="12.4023833"><ele>145.20000000000002</ele><time>2026-04-04T11:54:01.164Z</time></trkpt><trkpt lat="42.0562617" lon="12.402455"><ele>143.8</ele><time>2026-04-04T11:54:03.164Z</time></trkpt><trkpt lat="42.05619" lon="12.4025233"><ele>142.4</ele><time>2026-04-04T11:54:05.165Z</time></trkpt><trkpt lat="42.0561117" lon="12.4025983"><ele>141.0</ele><time>2026-04-04T11:54:07.164Z</time></trkpt><trkpt lat="42.05603" lon="12.4026683"><ele>141.0</ele><time>2026-04-04T11:54:09.164Z</time></trkpt><trkpt lat="42.0559417" lon="12.40272"><ele>141.0</ele><time>2026-04-04T11:54:11.164Z</time></trkpt><trkpt lat="42.0558467" lon="12.4027467"><ele>141.0</ele><time>2026-04-04T11:54:13.164Z</time></trkpt><trkpt lat="42.055745" lon="12.4027783"><ele>141.0</ele><time>2026-04-04T11:54:15.165Z</time></trkpt><trkpt lat="42.0556367" lon="12.4028317"><ele>141.0</ele><time>2026-04-04T11:54:17.164Z</time></trkpt><trkpt lat="42.0555617" lon="12.40287"><ele>140.57142857142858</ele><time>2026-04-04T11:54:18.164Z</time></trkpt><trkpt lat="42.05549" lon="12.4029167"><ele>140.14285714285714</ele><time>2026-04-04T11:54:19.165Z</time></trkpt><trkpt lat="42.0554283" lon="12.4029583"><ele>139.71428571428572</ele><time>2026-04-04T11:54:20.164Z</time></trkpt><trkpt lat="42.055365" lon="12.4029983"><ele>139.28571428571428</ele><time>2026-04-04T11:54:21.164Z</time></trkpt><trkpt lat="42.0553017" lon="12.4030483"><ele>138.85714285714286</ele><time>2026-04-04T11:54:22.165Z</time></trkpt><trkpt lat="42.0552383" lon="12.403095"><ele>138.42857142857144</ele><time>2026-04-04T11:54:23.164Z</time></trkpt><trkpt lat="42.055175" lon="12.4031417"><ele>138.0</ele><time>2026-04-04T11:54:24.164Z</time></trkpt><trkpt lat="42.0551133" lon="12.4031767"><ele>138.0</ele><time>2026-04-04T11:54:25.164Z</time></trkpt><trkpt lat="42.0550483" lon="12.4032167"><ele>138.0</ele><time>2026-04-04T11:54:26.164Z</time></trkpt><trkpt lat="42.0549883" lon="12.4032617"><ele>138.0</ele><time>2026-04-04T11:54:27.164Z</time></trkpt><trkpt lat="42.0548733" lon="12.40334"><ele>138.0</ele><time>2026-04-04T11:54:29.165Z</time></trkpt><trkpt lat="42.05481" lon="12.40337"><ele>138.0</ele><time>2026-04-04T11:54:30.164Z</time></trkpt><trkpt lat="42.0547467" lon="12.4033883"><ele>138.0</ele><time>2026-04-04T11:54:31.164Z</time></trkpt><trkpt lat="42.0546217" lon="12.4034217"><ele>137.4</ele><time>2026-04-04T11:54:33.164Z</time></trkpt><trkpt lat="42.0545017" lon="12.4034317"><ele>136.8</ele><time>2026-04-04T11:54:35.164Z</time></trkpt><trkpt lat="42.0543917" lon="12.403465"><ele>136.2</ele><time>2026-04-04T11:54:37.165Z</time></trkpt><trkpt lat="42.0543083" lon="12.403495"><ele>135.6</ele><time>2026-04-04T11:54:39.165Z</time></trkpt><trkpt lat="42.0542183" lon="12.4035267"><ele>135.0</ele><time>2026-04-04T11:54:41.164Z</time></trkpt><trkpt lat="42.0541317" lon="12.40356"><ele>135.0</ele><time>2026-04-04T11:54:43.164Z</time></trkpt><trkpt lat="42.0540433" lon="12.40361"><ele>135.0</ele><time>2026-04-04T11:54:45.165Z</time></trkpt><trkpt lat="42.05396" lon="12.403675"><ele>135.0</ele><time>2026-04-04T11:54:47.164Z</time></trkpt><trkpt lat="42.05388" lon="12.4037383"><ele>135.0</ele><time>2026-04-04T11:54:49.164Z</time></trkpt><trkpt lat="42.0538133" lon="12.4037917"><ele>135.0</ele><time>2026-04-04T11:54:51.165Z</time></trkpt><trkpt lat="42.0537317" lon="12.403865"><ele>135.6</ele><time>2026-04-04T11:54:53.164Z</time></trkpt><trkpt lat="42.05364" lon="12.4039333"><ele>136.2</ele><time>2026-04-04T11:54:55.164Z</time></trkpt><trkpt lat="42.0535367" lon="12.4040083"><ele>136.8</ele><time>2026-04-04T11:54:57.165Z</time></trkpt><trkpt lat="42.0534517" lon="12.40408"><ele>137.4</ele><time>2026-04-04T11:54:59.165Z</time></trkpt><trkpt lat="42.0533733" lon="12.404155"><ele>138.0</ele><time>2026-04-04T11:55:01.164Z</time></trkpt><trkpt lat="42.0533067" lon="12.4042083"><ele>138.33333333333334</ele><time>2026-04-04T11:55:03.164Z</time></trkpt><trkpt lat="42.0532367" lon="12.404235"><ele>138.66666666666666</ele><time>2026-04-04T11:55:05.164Z</time></trkpt><trkpt lat="42.0531517" lon="12.4042667"><ele>139.0</ele><time>2026-04-04T11:55:07.164Z</time></trkpt><trkpt lat="42.0530533" lon="12.4042983"><ele>139.33333333333331</ele><time>2026-04-04T11:55:09.164Z</time></trkpt><trkpt lat="42.0529633" lon="12.4043317"><ele>139.66666666666666</ele><time>2026-04-04T11:55:11.164Z</time></trkpt><trkpt lat="42.05288" lon="12.4043767"><ele>140.0</ele><time>2026-04-04T11:55:13.164Z</time></trkpt><trkpt lat="42.052805" lon="12.40442"><ele>140.0</ele><time>2026-04-04T11:55:15.165Z</time></trkpt><trkpt lat="42.0527167" lon="12.4044467"><ele>140.0</ele><time>2026-04-04T11:55:17.164Z</time></trkpt><trkpt lat="42.0526183" lon="12.4044917"><ele>140.0</ele><time>2026-04-04T11:55:19.164Z</time></trkpt><trkpt lat="42.0525167" lon="12.4045417"><ele>140.0</ele><time>2026-04-04T11:55:21.164Z</time></trkpt><trkpt lat="42.0524283" lon="12.4045983"><ele>140.0</ele><time>2026-04-04T11:55:23.165Z</time></trkpt><trkpt lat="42.0523267" lon="12.40464"><ele>139.5</ele><time>2026-04-04T11:55:25.164Z</time></trkpt><trkpt lat="42.0522133" lon="12.4046767"><ele>139.0</ele><time>2026-04-04T11:55:27.164Z</time></trkpt><trkpt lat="42.052095" lon="12.4047017"><ele>138.5</ele><time>2026-04-04T11:55:29.164Z</time></trkpt><trkpt lat="42.0520283" lon="12.4047167"><ele>138.0</ele><time>2026-04-04T11:55:30.165Z</time></trkpt><trkpt lat="42.0519633" lon="12.4047183"><ele>137.5</ele><time>2026-04-04T11:55:31.165Z</time></trkpt><trkpt lat="42.0518933" lon="12.4047333"><ele>137.0</ele><time>2026-04-04T11:55:32.164Z</time></trkpt><trkpt lat="42.0518217" lon="12.4047483"><ele>137.00000000000003</ele><time>2026-04-04T11:55:33.164Z</time></trkpt><trkpt lat="42.0517517" lon="12.404765"><ele>137.0</ele><time>2026-04-04T11:55:34.164Z</time></trkpt><trkpt lat="42.0516833" lon="12.4047833"><ele>137.0</ele><time>2026-04-04T11:55:35.165Z</time></trkpt><trkpt lat="42.05161" lon="12.4048"><ele>137.0</ele><time>2026-04-04T11:55:36.165Z</time></trkpt><trkpt lat="42.0515433" lon="12.404815"><ele>137.0</ele><time>2026-04-04T11:55:37.165Z</time></trkpt><trkpt lat="42.0514717" lon="12.4048267"><ele>137.00000000000003</ele><time>2026-04-04T11:55:38.164Z</time></trkpt><trkpt lat="42.0514017" lon="12.4048483"><ele>137.0</ele><time>2026-04-04T11:55:39.165Z</time></trkpt><trkpt lat="42.05134" lon="12.4048683"><ele>136.5</ele><time>2026-04-04T11:55:40.164Z</time></trkpt><trkpt lat="42.051275" lon="12.40488"><ele>136.0</ele><time>2026-04-04T11:55:41.164Z</time></trkpt><trkpt lat="42.0512033" lon="12.40489"><ele>135.5</ele><time>2026-04-04T11:55:42.164Z</time></trkpt><trkpt lat="42.0511283" lon="12.4049017"><ele>135.0</ele><time>2026-04-04T11:55:43.164Z</time></trkpt><trkpt lat="42.0510483" lon="12.4049017"><ele>134.5</ele><time>2026-04-04T11:55:44.164Z</time></trkpt><trkpt lat="42.050965" lon="12.4049067"><ele>134.0</ele><time>2026-04-04T11:55:45.164Z</time></trkpt><trkpt lat="42.0508917" lon="12.4049167"><ele>134.0</ele><time>2026-04-04T11:55:46.165Z</time></trkpt><trkpt lat="42.05082" lon="12.4049267"><ele>134.0</ele><time>2026-04-04T11:55:47.164Z</time></trkpt><trkpt lat="42.0507317" lon="12.404945"><ele>134.0</ele><time>2026-04-04T11:55:48.165Z</time></trkpt><trkpt lat="42.0506433" lon="12.4049617"><ele>134.0</ele><time>2026-04-04T11:55:49.164Z</time></trkpt><trkpt lat="42.0505567" lon="12.4049767"><ele>134.0</ele><time>2026-04-04T11:55:50.165Z</time></trkpt><trkpt lat="42.050475" lon="12.4049883"><ele>134.0</ele><time>2026-04-04T11:55:51.164Z</time></trkpt><trkpt lat="42.050395" lon="12.404995"><ele>133.33333333333331</ele><time>2026-04-04T11:55:52.165Z</time></trkpt><trkpt lat="42.050315" lon="12.4050067"><ele>132.66666666666666</ele><time>2026-04-04T11:55:53.164Z</time></trkpt><trkpt lat="42.0502367" lon="12.4050267"><ele>132.0</ele><time>2026-04-04T11:55:54.164Z</time></trkpt><trkpt lat="42.0501633" lon="12.4050467"><ele>131.33333333333334</ele><time>2026-04-04T11:55:55.165Z</time></trkpt><trkpt lat="42.0500817" lon="12.405065"><ele>130.66666666666669</ele><time>2026-04-04T11:55:56.164Z</time></trkpt><trkpt lat="42.0500083" lon="12.405085"><ele>130.0</ele><time>2026-04-04T11:55:57.164Z</time></trkpt><trkpt lat="42.0499333" lon="12.4051033"><ele>129.5</ele><time>2026-04-04T11:55:58.165Z</time></trkpt><trkpt lat="42.0498633" lon="12.405125"><ele>129.0</ele><time>2026-04-04T11:55:59.164Z</time></trkpt><trkpt lat="42.0497983" lon="12.4051417"><ele>128.5</ele><time>2026-04-04T11:56:00.164Z</time></trkpt><trkpt lat="42.04973" lon="12.4051633"><ele>128.0</ele><time>2026-04-04T11:56:01.164Z</time></trkpt><trkpt lat="42.0496283" lon="12.405185"><ele>127.50000000000001</ele><time>2026-04-04T11:56:03.164Z</time></trkpt><trkpt lat="42.04955" lon="12.405205"><ele>127.0</ele><time>2026-04-04T11:56:05.165Z</time></trkpt><trkpt lat="42.0494767" lon="12.4052967"><ele>127.0</ele><time>2026-04-04T11:56:08.165Z</time></trkpt><trkpt lat="42.0494117" lon="12.4053867"><ele>126.99999999999999</ele><time>2026-04-04T11:56:10.164Z</time></trkpt><trkpt lat="42.0493283" lon="12.4054183"><ele>126.99999999999999</ele><time>2026-04-04T11:56:12.164Z</time></trkpt><trkpt lat="42.049235" lon="12.4054233"><ele>127.0</ele><time>2026-04-04T11:56:14.164Z</time></trkpt><trkpt lat="42.0491383" lon="12.40542"><ele>127.0</ele><time>2026-04-04T11:56:16.164Z</time></trkpt><trkpt lat="42.0490383" lon="12.405445"><ele>127.0</ele><time>2026-04-04T11:56:18.164Z</time></trkpt><trkpt lat="42.04895" lon="12.4054633"><ele>126.99999999999999</ele><time>2026-04-04T11:56:20.164Z</time></trkpt><trkpt lat="42.0488533" lon="12.4054717"><ele>126.99999999999999</ele><time>2026-04-04T11:56:22.165Z</time></trkpt><trkpt lat="42.0487533" lon="12.4054867"><ele>127.0</ele><time>2026-04-04T11:56:24.164Z</time></trkpt><trkpt lat="42.04865" lon="12.405505"><ele>127.0</ele><time>2026-04-04T11:56:26.164Z</time></trkpt><trkpt lat="42.048555" lon="12.4055083"><ele>127.0</ele><time>2026-04-04T11:56:28.164Z</time></trkpt><trkpt lat="42.0484617" lon="12.405505"><ele>126.99999999999999</ele><time>2026-04-04T11:56:30.164Z</time></trkpt><trkpt lat="42.048375" lon="12.4055017"><ele>126.99999999999999</ele><time>2026-04-04T11:56:32.165Z</time></trkpt><trkpt lat="42.0482717" lon="12.4055117"><ele>127.0</ele><time>2026-04-04T11:56:34.164Z</time></trkpt><trkpt lat="42.0481683" lon="12.4055317"><ele>127.0</ele><time>2026-04-04T11:56:36.165Z</time></trkpt><trkpt lat="42.0480633" lon="12.4055483"><ele>126.8</ele><time>2026-04-04T11:56:38.165Z</time></trkpt><trkpt lat="42.0479683" lon="12.4055733"><ele>126.6</ele><time>2026-04-04T11:56:40.165Z</time></trkpt><trkpt lat="42.04787" lon="12.4056"><ele>126.39999999999999</ele><time>2026-04-04T11:56:42.164Z</time></trkpt><trkpt lat="42.04777" lon="12.4056433"><ele>126.19999999999999</ele><time>2026-04-04T11:56:44.165Z</time></trkpt><trkpt lat="42.0476783" lon="12.4056783"><ele>126.0</ele><time>2026-04-04T11:56:46.164Z</time></trkpt><trkpt lat="42.0475833" lon="12.40573"><ele>126.0</ele><time>2026-04-04T11:56:48.164Z</time></trkpt><trkpt lat="42.0474733" lon="12.4057783"><ele>126.0</ele><time>2026-04-04T11:56:50.165Z</time></trkpt><trkpt lat="42.0474" lon="12.4058817"><ele>126.0</ele><time>2026-04-04T11:56:52.165Z</time></trkpt><trkpt lat="42.0473567" lon="12.4060267"><ele>126.0</ele><time>2026-04-04T11:56:54.165Z</time></trkpt><trkpt lat="42.0473317" lon="12.406105"><ele>126.0</ele><time>2026-04-04T11:56:55.165Z</time></trkpt><trkpt lat="42.0473" lon="12.4061783"><ele>125.57142857142857</ele><time>2026-04-04T11:56:56.165Z</time></trkpt><trkpt lat="42.047275" lon="12.40627"><ele>125.14285714285714</ele><time>2026-04-04T11:56:57.164Z</time></trkpt><trkpt lat="42.0472467" lon="12.40636"><ele>124.71428571428572</ele><time>2026-04-04T11:56:58.165Z</time></trkpt><trkpt lat="42.047215" lon="12.4064567"><ele>124.28571428571429</ele><time>2026-04-04T11:56:59.164Z</time></trkpt><trkpt lat="42.047185" lon="12.4065483"><ele>123.85714285714286</ele><time>2026-04-04T11:57:00.165Z</time></trkpt><trkpt lat="42.0471583" lon="12.40664"><ele>123.42857142857144</ele><time>2026-04-04T11:57:01.164Z</time></trkpt><trkpt lat="42.0471317" lon="12.4067383"><ele>123.00000000000001</ele><time>2026-04-04T11:57:02.164Z</time></trkpt><trkpt lat="42.0471033" lon="12.4068233"><ele>122.85714285714288</ele><time>2026-04-04T11:57:03.165Z</time></trkpt><trkpt lat="42.0470683" lon="12.4069"><ele>122.71428571428572</ele><time>2026-04-04T11:57:04.164Z</time></trkpt><trkpt lat="42.0470217" lon="12.40696"><ele>122.57142857142857</ele><time>2026-04-04T11:57:05.165Z</time></trkpt><trkpt lat="42.046955" lon="12.40699"><ele>122.42857142857143</ele><time>2026-04-04T11:57:06.164Z</time></trkpt><trkpt lat="42.04688" lon="12.40702"><ele>122.28571428571428</ele><time>2026-04-04T11:57:07.165Z</time></trkpt><trkpt lat="42.0468067" lon="12.40702"><ele>122.14285714285712</ele><time>2026-04-04T11:57:08.165Z</time></trkpt><trkpt lat="42.046735" lon="12.40702"><ele>121.99999999999999</ele><time>2026-04-04T11:57:09.164Z</time></trkpt><trkpt lat="42.0466667" lon="12.40702"><ele>121.42857142857142</ele><time>2026-04-04T11:57:10.165Z</time></trkpt><trkpt lat="42.0465967" lon="12.4070267"><ele>120.85714285714286</ele><time>2026-04-04T11:57:11.164Z</time></trkpt><trkpt lat="42.04653" lon="12.407025"><ele>120.28571428571428</ele><time>2026-04-04T11:57:12.165Z</time></trkpt><trkpt lat="42.04646" lon="12.407015"><ele>119.71428571428571</ele><time>2026-04-04T11:57:13.164Z</time></trkpt><trkpt lat="42.046385" lon="12.407005"><ele>119.14285714285714</ele><time>2026-04-04T11:57:14.165Z</time></trkpt><trkpt lat="42.04631" lon="12.4070033"><ele>118.57142857142857</ele><time>2026-04-04T11:57:15.164Z</time></trkpt><trkpt lat="42.04624" lon="12.4070033"><ele>118.0</ele><time>2026-04-04T11:57:16.165Z</time></trkpt><trkpt lat="42.0461767" lon="12.407"><ele>118.00000000000001</ele><time>2026-04-04T11:57:17.164Z</time></trkpt><trkpt lat="42.0461067" lon="12.407005"><ele>118.0</ele><time>2026-04-04T11:57:18.165Z</time></trkpt><trkpt lat="42.0460283" lon="12.4070117"><ele>118.0</ele><time>2026-04-04T11:57:19.165Z</time></trkpt><trkpt lat="42.0459433" lon="12.407035"><ele>118.0</ele><time>2026-04-04T11:57:20.165Z</time></trkpt><trkpt lat="42.0458567" lon="12.4070667"><ele>118.00000000000001</ele><time>2026-04-04T11:57:21.164Z</time></trkpt><trkpt lat="42.0457667" lon="12.4070967"><ele>118.0</ele><time>2026-04-04T11:57:22.164Z</time></trkpt><trkpt lat="42.0456783" lon="12.4071233"><ele>116.60000000000001</ele><time>2026-04-04T11:57:23.165Z</time></trkpt><trkpt lat="42.0455883" lon="12.4071533"><ele>115.20000000000002</ele><time>2026-04-04T11:57:24.165Z</time></trkpt><trkpt lat="42.0454933" lon="12.40718"><ele>113.8</ele><time>2026-04-04T11:57:25.165Z</time></trkpt><trkpt lat="42.045385" lon="12.407215"><ele>112.4</ele><time>2026-04-04T11:57:26.165Z</time></trkpt><trkpt lat="42.0452717" lon="12.4072533"><ele>111.0</ele><time>2026-04-04T11:57:27.164Z</time></trkpt><trkpt lat="42.0451633" lon="12.4072883"><ele>110.0</ele><time>2026-04-04T11:57:28.164Z</time></trkpt><trkpt lat="42.0450567" lon="12.407335"><ele>109.0</ele><time>2026-04-04T11:57:29.165Z</time></trkpt><trkpt lat="42.0449617" lon="12.4073917"><ele>108.0</ele><time>2026-04-04T11:57:30.164Z</time></trkpt><trkpt lat="42.0448667" lon="12.4074567"><ele>107.0</ele><time>2026-04-04T11:57:31.165Z</time></trkpt><trkpt lat="42.0447833" lon="12.4075283"><ele>106.0</ele><time>2026-04-04T11:57:32.165Z</time></trkpt><trkpt lat="42.0447133" lon="12.407585"><ele>105.50000000000001</ele><time>2026-04-04T11:57:33.165Z</time></trkpt><trkpt lat="42.0446483" lon="12.4076367"><ele>105.0</ele><time>2026-04-04T11:57:34.165Z</time></trkpt><trkpt lat="42.0445883" lon="12.4076717"><ele>104.5</ele><time>2026-04-04T11:57:35.165Z</time></trkpt><trkpt lat="42.0444833" lon="12.4076817"><ele>104.0</ele><time>2026-04-04T11:57:37.165Z</time></trkpt><trkpt lat="42.0443917" lon="12.4076533"><ele>103.50000000000001</ele><time>2026-04-04T11:57:39.164Z</time></trkpt><trkpt lat="42.04441" lon="12.4075683"><ele>103.0</ele><time>2026-04-04T11:57:41.164Z</time></trkpt><trkpt lat="42.0443533" lon="12.4075067"><ele>103.0</ele><time>2026-04-04T11:57:43.164Z</time></trkpt><trkpt lat="42.0441917" lon="12.407555"><ele>103.0</ele><time>2026-04-04T11:57:44.164Z</time></trkpt><trkpt lat="42.0440833" lon="12.40755"><ele>103.0</ele><time>2026-04-04T11:57:45.164Z</time></trkpt><trkpt lat="42.0439933" lon="12.40758"><ele>103.0</ele><time>2026-04-04T11:57:46.165Z</time></trkpt><trkpt lat="42.04392" lon="12.4076217"><ele>103.0</ele><time>2026-04-04T11:57:47.164Z</time></trkpt><trkpt lat="42.0438633" lon="12.4076717"><ele>102.33333333333334</ele><time>2026-04-04T11:57:48.165Z</time></trkpt><trkpt lat="42.0438217" lon="12.4077417"><ele>101.66666666666667</ele><time>2026-04-04T11:57:49.164Z</time></trkpt><trkpt lat="42.0437833" lon="12.4078167"><ele>101.0</ele><time>2026-04-04T11:57:50.165Z</time></trkpt><trkpt lat="42.04374" lon="12.40788"><ele>100.33333333333334</ele><time>2026-04-04T11:57:51.164Z</time></trkpt><trkpt lat="42.043685" lon="12.4079233"><ele>99.66666666666667</ele><time>2026-04-04T11:57:52.164Z</time></trkpt><trkpt lat="42.0435817" lon="12.4079833"><ele>99.0</ele><time>2026-04-04T11:57:54.164Z</time></trkpt><trkpt lat="42.04346" lon="12.4080267"><ele>99.0</ele><time>2026-04-04T11:57:56.165Z</time></trkpt><trkpt lat="42.0434" lon="12.408055"><ele>99.0</ele><time>2026-04-04T11:57:57.164Z</time></trkpt><trkpt lat="42.0433383" lon="12.4080817"><ele>99.0</ele><time>2026-04-04T11:57:58.164Z</time></trkpt><trkpt lat="42.04322" lon="12.4081383"><ele>99.0</ele><time>2026-04-04T11:58:00.164Z</time></trkpt><trkpt lat="42.043115" lon="12.4082083"><ele>99.0</ele><time>2026-04-04T11:58:02.164Z</time></trkpt><trkpt lat="42.043005" lon="12.40825"><ele>98.6</ele><time>2026-04-04T11:58:04.164Z</time></trkpt><trkpt lat="42.042905" lon="12.408295"><ele>98.2</ele><time>2026-04-04T11:58:06.164Z</time></trkpt><trkpt lat="42.0428067" lon="12.4083283"><ele>97.8</ele><time>2026-04-04T11:58:08.165Z</time></trkpt><trkpt lat="42.042685" lon="12.4083767"><ele>97.39999999999999</ele><time>2026-04-04T11:58:10.165Z</time></trkpt><trkpt lat="42.0425767" lon="12.408415"><ele>97.0</ele><time>2026-04-04T11:58:12.164Z</time></trkpt><trkpt lat="42.0424667" lon="12.4084367"><ele>98.0</ele><time>2026-04-04T11:58:14.164Z</time></trkpt><trkpt lat="42.0423567" lon="12.4084217"><ele>99.0</ele><time>2026-04-04T11:58:16.164Z</time></trkpt><trkpt lat="42.04225" lon="12.4083583"><ele>100.0</ele><time>2026-04-04T11:58:18.164Z</time></trkpt><trkpt lat="42.0421383" lon="12.4083167"><ele>101.0</ele><time>2026-04-04T11:58:20.165Z</time></trkpt><trkpt lat="42.0420317" lon="12.4082933"><ele>100.99999999999999</ele><time>2026-04-04T11:58:22.165Z</time></trkpt><trkpt lat="42.04195" lon="12.4082783"><ele>101.0</ele><time>2026-04-04T11:58:24.164Z</time></trkpt><trkpt lat="42.0418767" lon="12.408255"><ele>101.0</ele><time>2026-04-04T11:58:26.164Z</time></trkpt><trkpt lat="42.0418" lon="12.40824"><ele>101.0</ele><time>2026-04-04T11:58:28.164Z</time></trkpt><trkpt lat="42.0417217" lon="12.4082217"><ele>100.99999999999999</ele><time>2026-04-04T11:58:30.165Z</time></trkpt><trkpt lat="42.0416417" lon="12.408195"><ele>101.0</ele><time>2026-04-04T11:58:32.165Z</time></trkpt><trkpt lat="42.0415633" lon="12.408165"><ele>102.16666666666666</ele><time>2026-04-04T11:58:34.165Z</time></trkpt><trkpt lat="42.0414833" lon="12.40814"><ele>103.33333333333333</ele><time>2026-04-04T11:58:36.164Z</time></trkpt><trkpt lat="42.0413933" lon="12.4081067"><ele>104.5</ele><time>2026-04-04T11:58:38.165Z</time></trkpt><trkpt lat="42.04131" lon="12.4080817"><ele>105.66666666666666</ele><time>2026-04-04T11:58:40.165Z</time></trkpt><trkpt lat="42.0412283" lon="12.4080467"><ele>106.83333333333333</ele><time>2026-04-04T11:58:42.165Z</time></trkpt><trkpt lat="42.041155" lon="12.4080067"><ele>108.0</ele><time>2026-04-04T11:58:44.164Z</time></trkpt><trkpt lat="42.04108" lon="12.4079783"><ele>108.0</ele><time>2026-04-04T11:58:46.165Z</time></trkpt><trkpt lat="42.0410067" lon="12.4079733"><ele>108.0</ele><time>2026-04-04T11:58:48.164Z</time></trkpt><trkpt lat="42.0409317" lon="12.4079767"><ele>108.0</ele><time>2026-04-04T11:58:50.164Z</time></trkpt><trkpt lat="42.0408483" lon="12.40799"><ele>108.0</ele><time>2026-04-04T11:58:53.164Z</time></trkpt><trkpt lat="42.0407533" lon="12.4080233"><ele>108.0</ele><time>2026-04-04T11:58:56.164Z</time></trkpt><trkpt lat="42.0406867" lon="12.4080433"><ele>108.0</ele><time>2026-04-04T11:58:58.164Z</time></trkpt><trkpt lat="42.0406183" lon="12.4080533"><ele>108.28571428571428</ele><time>2026-04-04T11:59:00.164Z</time></trkpt><trkpt lat="42.0405583" lon="12.40808"><ele>108.57142857142857</ele><time>2026-04-04T11:59:02.164Z</time></trkpt><trkpt lat="42.0404833" lon="12.40811"><ele>108.85714285714286</ele><time>2026-04-04T11:59:04.164Z</time></trkpt><trkpt lat="42.040415" lon="12.4081233"><ele>109.14285714285714</ele><time>2026-04-04T11:59:06.164Z</time></trkpt><trkpt lat="42.0403383" lon="12.4081317"><ele>109.42857142857143</ele><time>2026-04-04T11:59:08.164Z</time></trkpt><trkpt lat="42.04026" lon="12.408145"><ele>109.71428571428571</ele><time>2026-04-04T11:59:10.165Z</time></trkpt><trkpt lat="42.0401833" lon="12.4081467"><ele>110.0</ele><time>2026-04-04T11:59:12.165Z</time></trkpt><trkpt lat="42.04012" lon="12.4081433"><ele>109.99999999999999</ele><time>2026-04-04T11:59:14.165Z</time></trkpt><trkpt lat="42.0400483" lon="12.4081533"><ele>110.0</ele><time>2026-04-04T11:59:16.164Z</time></trkpt><trkpt lat="42.0399783" lon="12.4081683"><ele>110.0</ele><time>2026-04-04T11:59:18.164Z</time></trkpt><trkpt lat="42.0399133" lon="12.4081733"><ele>110.0</ele><time>2026-04-04T11:59:20.165Z</time></trkpt><trkpt lat="42.0398467" lon="12.4081817"><ele>110.0</ele><time>2026-04-04T11:59:22.164Z</time></trkpt><trkpt lat="42.03978" lon="12.4081933"><ele>109.99999999999999</ele><time>2026-04-04T11:59:24.164Z</time></trkpt><trkpt lat="42.039715" lon="12.408205"><ele>110.0</ele><time>2026-04-04T11:59:26.164Z</time></trkpt><trkpt lat="42.0396483" lon="12.4082117"><ele>110.33333333333333</ele><time>2026-04-04T11:59:28.164Z</time></trkpt><trkpt lat="42.039565" lon="12.4081917"><ele>110.66666666666666</ele><time>2026-04-04T11:59:31.164Z</time></trkpt><trkpt lat="42.0394917" lon="12.408175"><ele>111.0</ele><time>2026-04-04T11:59:34.164Z</time></trkpt><trkpt lat="42.0394117" lon="12.4081767"><ele>111.33333333333334</ele><time>2026-04-04T11:59:38.164Z</time></trkpt><trkpt lat="42.0393433" lon="12.4081917"><ele>111.66666666666667</ele><time>2026-04-04T11:59:41.165Z</time></trkpt><trkpt lat="42.0392717" lon="12.40817"><ele>112.0</ele><time>2026-04-04T11:59:44.164Z</time></trkpt><trkpt lat="42.039185" lon="12.4081583"><ele>111.66666666666667</ele><time>2026-04-04T11:59:47.164Z</time></trkpt><trkpt lat="42.0390917" lon="12.40816"><ele>111.33333333333334</ele><time>2026-04-04T11:59:50.164Z</time></trkpt><trkpt lat="42.0390217" lon="12.4081433"><ele>111.0</ele><time>2026-04-04T11:59:52.164Z</time></trkpt><trkpt lat="42.0389567" lon="12.408135"><ele>110.66666666666666</ele><time>2026-04-04T11:59:54.164Z</time></trkpt><trkpt lat="42.03886" lon="12.408115"><ele>110.33333333333333</ele><time>2026-04-04T11:59:57.165Z</time></trkpt><trkpt lat="42.0387867" lon="12.4081"><ele>110.0</ele><time>2026-04-04T11:59:59.164Z</time></trkpt><trkpt lat="42.0387117" lon="12.4080983"><ele>109.99999999999999</ele><time>2026-04-04T12:00:01.164Z</time></trkpt><trkpt lat="42.03864" lon="12.408085"><ele>110.0</ele><time>2026-04-04T12:00:03.164Z</time></trkpt><trkpt lat="42.0385617" lon="12.4080767"><ele>110.0</ele><time>2026-04-04T12:00:05.164Z</time></trkpt><trkpt lat="42.0384917" lon="12.4080617"><ele>110.0</ele><time>2026-04-04T12:00:07.164Z</time></trkpt><trkpt lat="42.038425" lon="12.40805"><ele>110.0</ele><time>2026-04-04T12:00:09.165Z</time></trkpt><trkpt lat="42.0383517" lon="12.4080367"><ele>109.99999999999999</ele><time>2026-04-04T12:00:12.164Z</time></trkpt><trkpt lat="42.0382733" lon="12.40804"><ele>110.0</ele><time>2026-04-04T12:00:15.164Z</time></trkpt><trkpt lat="42.0382067" lon="12.40806"><ele>109.8</ele><time>2026-04-04T12:00:17.165Z</time></trkpt><trkpt lat="42.0381167" lon="12.4080767"><ele>109.6</ele><time>2026-04-04T12:00:19.165Z</time></trkpt><trkpt lat="42.03803" lon="12.408095"><ele>109.4</ele><time>2026-04-04T12:00:21.165Z</time></trkpt><trkpt lat="42.037925" lon="12.4081067"><ele>109.2</ele><time>2026-04-04T12:00:23.164Z</time></trkpt><trkpt lat="42.03782" lon="12.4081067"><ele>109.0</ele><time>2026-04-04T12:00:25.164Z</time></trkpt><trkpt lat="42.0377017" lon="12.4080983"><ele>109.00000000000001</ele><time>2026-04-04T12:00:27.165Z</time></trkpt><trkpt lat="42.03763" lon="12.4080867"><ele>109.0</ele><time>2026-04-04T12:00:28.164Z</time></trkpt><trkpt lat="42.03755" lon="12.40807"><ele>109.0</ele><time>2026-04-04T12:00:29.164Z</time></trkpt><trkpt lat="42.037475" lon="12.408055"><ele>109.0</ele><time>2026-04-04T12:00:30.164Z</time></trkpt><trkpt lat="42.037395" lon="12.408035"><ele>109.00000000000001</ele><time>2026-04-04T12:00:31.165Z</time></trkpt><trkpt lat="42.0373067" lon="12.408015"><ele>109.0</ele><time>2026-04-04T12:00:32.164Z</time></trkpt><trkpt lat="42.037225" lon="12.408"><ele>107.6</ele><time>2026-04-04T12:00:33.165Z</time></trkpt><trkpt lat="42.037135" lon="12.4079867"><ele>106.2</ele><time>2026-04-04T12:00:34.165Z</time></trkpt><trkpt lat="42.0370433" lon="12.40798"><ele>104.8</ele><time>2026-04-04T12:00:35.165Z</time></trkpt><trkpt lat="42.0369433" lon="12.4079817"><ele>103.39999999999999</ele><time>2026-04-04T12:00:36.164Z</time></trkpt><trkpt lat="42.0368467" lon="12.4079883"><ele>102.0</ele><time>2026-04-04T12:00:37.165Z</time></trkpt><trkpt lat="42.0367433" lon="12.4079917"><ele>102.0</ele><time>2026-04-04T12:00:38.164Z</time></trkpt><trkpt lat="42.0366417" lon="12.408"><ele>102.0</ele><time>2026-04-04T12:00:39.165Z</time></trkpt><trkpt lat="42.036535" lon="12.4080117"><ele>102.0</ele><time>2026-04-04T12:00:40.164Z</time></trkpt><trkpt lat="42.0364383" lon="12.4080233"><ele>102.0</ele><time>2026-04-04T12:00:41.164Z</time></trkpt><trkpt lat="42.0363467" lon="12.4080367"><ele>102.0</ele><time>2026-04-04T12:00:42.165Z</time></trkpt><trkpt lat="42.0362567" lon="12.40805"><ele>102.5</ele><time>2026-04-04T12:00:43.165Z</time></trkpt><trkpt lat="42.03617" lon="12.4080533"><ele>103.0</ele><time>2026-04-04T12:00:44.164Z</time></trkpt><trkpt lat="42.036085" lon="12.4080467"><ele>103.5</ele><time>2026-04-04T12:00:45.165Z</time></trkpt><trkpt lat="42.0360033" lon="12.4080383"><ele>104.0</ele><time>2026-04-04T12:00:46.164Z</time></trkpt><trkpt lat="42.0359333" lon="12.4080267"><ele>104.5</ele><time>2026-04-04T12:00:47.165Z</time></trkpt><trkpt lat="42.03586" lon="12.4080267"><ele>105.0</ele><time>2026-04-04T12:00:48.164Z</time></trkpt><trkpt lat="42.0357817" lon="12.4080467"><ele>105.0</ele><time>2026-04-04T12:00:49.164Z</time></trkpt><trkpt lat="42.03571" lon="12.4080633"><ele>105.0</ele><time>2026-04-04T12:00:50.164Z</time></trkpt><trkpt lat="42.035635" lon="12.4080867"><ele>105.0</ele><time>2026-04-04T12:00:51.164Z</time></trkpt><trkpt lat="42.03557" lon="12.4081267"><ele>105.0</ele><time>2026-04-04T12:00:52.164Z</time></trkpt><trkpt lat="42.03546" lon="12.4081933"><ele>105.0</ele><time>2026-04-04T12:00:54.165Z</time></trkpt><trkpt lat="42.0353633" lon="12.4082367"><ele>105.0</ele><time>2026-04-04T12:00:56.164Z</time></trkpt><trkpt lat="42.0352817" lon="12.4082667"><ele>105.0</ele><time>2026-04-04T12:00:58.165Z</time></trkpt><trkpt lat="42.03519" lon="12.4083"><ele>105.0</ele><time>2026-04-04T12:01:00.164Z</time></trkpt><trkpt lat="42.0351133" lon="12.4083383"><ele>105.0</ele><time>2026-04-04T12:01:02.165Z</time></trkpt><trkpt lat="42.03504" lon="12.4083783"><ele>105.0</ele><time>2026-04-04T12:01:04.165Z</time></trkpt><trkpt lat="42.0349767" lon="12.4084333"><ele>105.0</ele><time>2026-04-04T12:01:06.164Z</time></trkpt><trkpt lat="42.0349183" lon="12.40851"><ele>105.0</ele><time>2026-04-04T12:01:08.165Z</time></trkpt><trkpt lat="42.0348567" lon="12.4085717"><ele>105.0</ele><time>2026-04-04T12:01:10.165Z</time></trkpt><trkpt lat="42.0348017" lon="12.40865"><ele>105.0</ele><time>2026-04-04T12:01:12.164Z</time></trkpt><trkpt lat="42.0347517" lon="12.4087267"><ele>105.0</ele><time>2026-04-04T12:01:14.164Z</time></trkpt><trkpt lat="42.0346967" lon="12.408805"><ele>105.0</ele><time>2026-04-04T12:01:16.165Z</time></trkpt><trkpt lat="42.034645" lon="12.4088783"><ele>105.0</ele><time>2026-04-04T12:01:18.164Z</time></trkpt><trkpt lat="42.0345983" lon="12.4089567"><ele>105.0</ele><time>2026-04-04T12:01:20.164Z</time></trkpt><trkpt lat="42.03454" lon="12.4090367"><ele>104.83333333333333</ele><time>2026-04-04T12:01:22.164Z</time></trkpt><trkpt lat="42.0344833" lon="12.4091017"><ele>104.66666666666666</ele><time>2026-04-04T12:01:24.164Z</time></trkpt><trkpt lat="42.0344267" lon="12.4091883"><ele>104.5</ele><time>2026-04-04T12:01:26.165Z</time></trkpt><trkpt lat="42.03438" lon="12.4092833"><ele>104.33333333333333</ele><time>2026-04-04T12:01:28.164Z</time></trkpt><trkpt lat="42.03434" lon="12.4093917"><ele>104.16666666666666</ele><time>2026-04-04T12:01:30.164Z</time></trkpt><trkpt lat="42.0342967" lon="12.4094767"><ele>104.0</ele><time>2026-04-04T12:01:32.164Z</time></trkpt><trkpt lat="42.0342583" lon="12.4095617"><ele>104.0</ele><time>2026-04-04T12:01:34.164Z</time></trkpt><trkpt lat="42.03423" lon="12.4096533"><ele>104.0</ele><time>2026-04-04T12:01:36.164Z</time></trkpt><trkpt lat="42.0342017" lon="12.4097433"><ele>104.0</ele><time>2026-04-04T12:01:38.164Z</time></trkpt><trkpt lat="42.034155" lon="12.409825"><ele>104.0</ele><time>2026-04-04T12:01:40.165Z</time></trkpt><trkpt lat="42.0341067" lon="12.4098983"><ele>104.0</ele><time>2026-04-04T12:01:42.164Z</time></trkpt><trkpt lat="42.0340683" lon="12.4099733"><ele>104.0</ele><time>2026-04-04T12:01:44.165Z</time></trkpt><trkpt lat="42.0340133" lon="12.4100317"><ele>104.0</ele><time>2026-04-04T12:01:46.164Z</time></trkpt><trkpt lat="42.0339417" lon="12.41012"><ele>105.49999999999999</ele><time>2026-04-04T12:01:49.164Z</time></trkpt><trkpt lat="42.033875" lon="12.4102067"><ele>107.0</ele><time>2026-04-04T12:01:52.165Z</time></trkpt><trkpt lat="42.0338217" lon="12.4102667"><ele>108.5</ele><time>2026-04-04T12:01:54.165Z</time></trkpt><trkpt lat="42.0337617" lon="12.4103367"><ele>110.0</ele><time>2026-04-04T12:01:57.164Z</time></trkpt><trkpt lat="42.0336967" lon="12.4104083"><ele>111.49999999999999</ele><time>2026-04-04T12:02:00.164Z</time></trkpt><trkpt lat="42.0336283" lon="12.4104583"><ele>113.0</ele><time>2026-04-04T12:02:03.164Z</time></trkpt><trkpt lat="42.03356" lon="12.410505"><ele>113.42857142857143</ele><time>2026-04-04T12:02:06.165Z</time></trkpt><trkpt lat="42.0334967" lon="12.41055"><ele>113.85714285714286</ele><time>2026-04-04T12:02:09.164Z</time></trkpt><trkpt lat="42.03344" lon="12.4105933"><ele>114.28571428571429</ele><time>2026-04-04T12:02:12.165Z</time></trkpt><trkpt lat="42.0333967" lon="12.41066"><ele>114.71428571428572</ele><time>2026-04-04T12:02:15.164Z</time></trkpt><trkpt lat="42.0333417" lon="12.4107367"><ele>115.14285714285714</ele><time>2026-04-04T12:02:18.165Z</time></trkpt><trkpt lat="42.0333017" lon="12.4108217"><ele>115.57142857142858</ele><time>2026-04-04T12:02:22.164Z</time></trkpt><trkpt lat="42.033295" lon="12.4109217"><ele>116.00000000000001</ele><time>2026-04-04T12:02:26.165Z</time></trkpt><trkpt lat="42.0333267" lon="12.4110183"><ele>116.00000000000001</ele><time>2026-04-04T12:02:29.165Z</time></trkpt><trkpt lat="42.0333633" lon="12.4111117"><ele>116.0</ele><time>2026-04-04T12:02:33.164Z</time></trkpt><trkpt lat="42.0334033" lon="12.4111967"><ele>116.00000000000001</ele><time>2026-04-04T12:02:36.164Z</time></trkpt><trkpt lat="42.033445" lon="12.4112733"><ele>116.00000000000001</ele><time>2026-04-04T12:02:38.164Z</time></trkpt><trkpt lat="42.0334833" lon="12.4113467"><ele>116.0</ele><time>2026-04-04T12:02:41.164Z</time></trkpt><trkpt lat="42.0335067" lon="12.411435"><ele>116.00000000000001</ele><time>2026-04-04T12:02:44.164Z</time></trkpt><trkpt lat="42.03352" lon="12.4115333"><ele>116.00000000000001</ele><time>2026-04-04T12:02:47.165Z</time></trkpt><trkpt lat="42.0335283" lon="12.41165"><ele>116.66666666666666</ele><time>2026-04-04T12:02:50.165Z</time></trkpt><trkpt lat="42.0335367" lon="12.4117717"><ele>117.33333333333333</ele><time>2026-04-04T12:02:53.165Z</time></trkpt><trkpt lat="42.033545" lon="12.4118883"><ele>118.0</ele><time>2026-04-04T12:02:56.164Z</time></trkpt><trkpt lat="42.03353" lon="12.4120017"><ele>118.66666666666666</ele><time>2026-04-04T12:02:59.164Z</time></trkpt><trkpt lat="42.033505" lon="12.4121233"><ele>119.33333333333333</ele><time>2026-04-04T12:03:02.164Z</time></trkpt><trkpt lat="42.0334783" lon="12.4122367"><ele>120.0</ele><time>2026-04-04T12:03:05.164Z</time></trkpt><trkpt lat="42.0334483" lon="12.412345"><ele>120.5</ele><time>2026-04-04T12:03:08.164Z</time></trkpt><trkpt lat="42.03341" lon="12.4124417"><ele>121.0</ele><time>2026-04-04T12:03:11.164Z</time></trkpt><trkpt lat="42.0333517" lon="12.4125233"><ele>121.5</ele><time>2026-04-04T12:03:14.164Z</time></trkpt><trkpt lat="42.0332817" lon="12.4125567"><ele>122.0</ele><time>2026-04-04T12:03:17.164Z</time></trkpt><trkpt lat="42.0332183" lon="12.41255"><ele>122.5</ele><time>2026-04-04T12:03:20.164Z</time></trkpt><trkpt lat="42.0331467" lon="12.4125217"><ele>123.0</ele><time>2026-04-04T12:03:24.165Z</time></trkpt><trkpt lat="42.0330683" lon="12.412515"><ele>124.0</ele><time>2026-04-04T12:03:28.164Z</time></trkpt><trkpt lat="42.0329983" lon="12.4124767"><ele>125.0</ele><time>2026-04-04T12:03:32.164Z</time></trkpt><trkpt lat="42.032925" lon="12.412445"><ele>126.0</ele><time>2026-04-04T12:03:36.165Z</time></trkpt><trkpt lat="42.0328533" lon="12.4124333"><ele>127.0</ele><time>2026-04-04T12:03:40.164Z</time></trkpt><trkpt lat="42.0327733" lon="12.4124267"><ele>128.0</ele><time>2026-04-04T12:03:45.164Z</time></trkpt><trkpt lat="42.0326983" lon="12.412435"><ele>129.0</ele><time>2026-04-04T12:03:49.164Z</time></trkpt><trkpt lat="42.032625" lon="12.4124433"><ele>129.0</ele><time>2026-04-04T12:03:54.164Z</time></trkpt><trkpt lat="42.0325483" lon="12.41246"><ele>129.0</ele><time>2026-04-04T12:03:58.165Z</time></trkpt><trkpt lat="42.0324733" lon="12.4125117"><ele>129.0</ele><time>2026-04-04T12:04:01.164Z</time></trkpt><trkpt lat="42.0324083" lon="12.4125717"><ele>129.0</ele><time>2026-04-04T12:04:04.164Z</time></trkpt><trkpt lat="42.032345" lon="12.4126483"><ele>129.0</ele><time>2026-04-04T12:04:07.164Z</time></trkpt><trkpt lat="42.03229" lon="12.4127383"><ele>129.0</ele><time>2026-04-04T12:04:10.164Z</time></trkpt><trkpt lat="42.0322633" lon="12.41282"><ele>129.2</ele><time>2026-04-04T12:04:12.164Z</time></trkpt><trkpt lat="42.0322633" lon="12.412905"><ele>129.4</ele><time>2026-04-04T12:04:14.164Z</time></trkpt><trkpt lat="42.0322633" lon="12.4129933"><ele>129.6</ele><time>2026-04-04T12:04:17.165Z</time></trkpt><trkpt lat="42.0322833" lon="12.413135"><ele>129.8</ele><time>2026-04-04T12:04:20.164Z</time></trkpt><trkpt lat="42.0323133" lon="12.41327"><ele>130.0</ele><time>2026-04-04T12:04:22.164Z</time></trkpt><trkpt lat="42.03235" lon="12.4134317"><ele>130.0</ele><time>2026-04-04T12:04:24.164Z</time></trkpt><trkpt lat="42.0323717" lon="12.4135117"><ele>130.0</ele><time>2026-04-04T12:04:25.165Z</time></trkpt><trkpt lat="42.0324167" lon="12.41367"><ele>130.0</ele><time>2026-04-04T12:04:27.164Z</time></trkpt><trkpt lat="42.0324483" lon="12.413825"><ele>130.0</ele><time>2026-04-04T12:04:29.164Z</time></trkpt><trkpt lat="42.0324717" lon="12.4139717"><ele>130.0</ele><time>2026-04-04T12:04:31.164Z</time></trkpt><trkpt lat="42.03251" lon="12.4141033"><ele>129.5</ele><time>2026-04-04T12:04:33.164Z</time></trkpt><trkpt lat="42.0325433" lon="12.4142033"><ele>129.0</ele><time>2026-04-04T12:04:35.164Z</time></trkpt><trkpt lat="42.0325583" lon="12.41429"><ele>128.5</ele><time>2026-04-04T12:04:37.165Z</time></trkpt><trkpt lat="42.0325417" lon="12.4143833"><ele>128.0</ele><time>2026-04-04T12:04:40.165Z</time></trkpt><trkpt lat="42.03249" lon="12.4144817"><ele>127.50000000000001</ele><time>2026-04-04T12:04:43.164Z</time></trkpt><trkpt lat="42.032435" lon="12.4145267"><ele>127.0</ele><time>2026-04-04T12:04:45.165Z</time></trkpt><trkpt lat="42.0323417" lon="12.4145683"><ele>127.00000000000001</ele><time>2026-04-04T12:04:48.165Z</time></trkpt><trkpt lat="42.0322633" lon="12.414575"><ele>127.0</ele><time>2026-04-04T12:04:51.164Z</time></trkpt><trkpt lat="42.032185" lon="12.4145833"><ele>127.0</ele><time>2026-04-04T12:04:54.165Z</time></trkpt><trkpt lat="42.03209" lon="12.414595"><ele>127.0</ele><time>2026-04-04T12:04:57.165Z</time></trkpt><trkpt lat="42.0320267" lon="12.414605"><ele>127.00000000000001</ele><time>2026-04-04T12:04:59.165Z</time></trkpt><trkpt lat="42.03196" lon="12.4146267"><ele>127.0</ele><time>2026-04-04T12:05:01.165Z</time></trkpt><trkpt lat="42.0318967" lon="12.4146533"><ele>127.00000000000001</ele><time>2026-04-04T12:05:03.165Z</time></trkpt><trkpt lat="42.0318167" lon="12.4146633"><ele>127.0</ele><time>2026-04-04T12:05:05.164Z</time></trkpt><trkpt lat="42.0317417" lon="12.4146483"><ele>127.0</ele><time>2026-04-04T12:05:07.165Z</time></trkpt><trkpt lat="42.03169" lon="12.4145783"><ele>127.0</ele><time>2026-04-04T12:05:09.165Z</time></trkpt><trkpt lat="42.0316683" lon="12.4144917"><ele>127.00000000000001</ele><time>2026-04-04T12:05:11.164Z</time></trkpt><trkpt lat="42.0316867" lon="12.4143683"><ele>127.0</ele><time>2026-04-04T12:05:14.164Z</time></trkpt><trkpt lat="42.0316667" lon="12.41426"><ele>127.00000000000001</ele><time>2026-04-04T12:05:17.165Z</time></trkpt><trkpt lat="42.0316417" lon="12.4141417"><ele>127.0</ele><time>2026-04-04T12:05:20.164Z</time></trkpt><trkpt lat="42.031625" lon="12.414045"><ele>127.0</ele><time>2026-04-04T12:05:22.164Z</time></trkpt><trkpt lat="42.0316033" lon="12.413945"><ele>127.0</ele><time>2026-04-04T12:05:24.164Z</time></trkpt><trkpt lat="42.0315883" lon="12.41384"><ele>127.00000000000001</ele><time>2026-04-04T12:05:26.165Z</time></trkpt><trkpt lat="42.0315717" lon="12.4137483"><ele>127.0</ele><time>2026-04-04T12:05:28.165Z</time></trkpt><trkpt lat="42.0315583" lon="12.4136567"><ele>127.16666666666667</ele><time>2026-04-04T12:05:30.165Z</time></trkpt><trkpt lat="42.03154" lon="12.413575"><ele>127.33333333333334</ele><time>2026-04-04T12:05:32.164Z</time></trkpt><trkpt lat="42.0315283" lon="12.41349"><ele>127.5</ele><time>2026-04-04T12:05:34.164Z</time></trkpt><trkpt lat="42.03152" lon="12.413405"><ele>127.66666666666666</ele><time>2026-04-04T12:05:36.164Z</time></trkpt><trkpt lat="42.0315183" lon="12.4132717"><ele>127.83333333333333</ele><time>2026-04-04T12:05:39.165Z</time></trkpt><trkpt lat="42.031515" lon="12.4131483"><ele>128.0</ele><time>2026-04-04T12:05:42.164Z</time></trkpt><trkpt lat="42.0315183" lon="12.41304"><ele>128.16666666666666</ele><time>2026-04-04T12:05:45.164Z</time></trkpt><trkpt lat="42.0315083" lon="12.4129217"><ele>128.33333333333331</ele><time>2026-04-04T12:05:48.165Z</time></trkpt><trkpt lat="42.0315183" lon="12.412835"><ele>128.5</ele><time>2026-04-04T12:05:50.164Z</time></trkpt><trkpt lat="42.031525" lon="12.4127367"><ele>128.66666666666666</ele><time>2026-04-04T12:05:52.165Z</time></trkpt><trkpt lat="42.0315367" lon="12.41264"><ele>128.83333333333334</ele><time>2026-04-04T12:05:54.165Z</time></trkpt><trkpt lat="42.031545" lon="12.4125167"><ele>129.0</ele><time>2026-04-04T12:05:56.164Z</time></trkpt><trkpt lat="42.031545" lon="12.4123633"><ele>129.0</ele><time>2026-04-04T12:05:58.165Z</time></trkpt><trkpt lat="42.031535" lon="12.4122767"><ele>129.0</ele><time>2026-04-04T12:05:59.164Z</time></trkpt><trkpt lat="42.0315217" lon="12.4121933"><ele>129.0</ele><time>2026-04-04T12:06:00.164Z</time></trkpt><trkpt lat="42.0314817" lon="12.4120433"><ele>129.0</ele><time>2026-04-04T12:06:02.164Z</time></trkpt><trkpt lat="42.0313983" lon="12.4119533"><ele>129.0</ele><time>2026-04-04T12:06:04.164Z</time></trkpt><trkpt lat="42.031335" lon="12.411925"><ele>129.0</ele><time>2026-04-04T12:06:05.164Z</time></trkpt><trkpt lat="42.0312283" lon="12.41191"><ele>128.0</ele><time>2026-04-04T12:06:07.164Z</time></trkpt><trkpt lat="42.031105" lon="12.4119167"><ele>127.0</ele><time>2026-04-04T12:06:09.164Z</time></trkpt><trkpt lat="42.0309867" lon="12.411915"><ele>126.0</ele><time>2026-04-04T12:06:11.165Z</time></trkpt><trkpt lat="42.0308783" lon="12.4119133"><ele>125.0</ele><time>2026-04-04T12:06:13.164Z</time></trkpt><trkpt lat="42.0307733" lon="12.4119167"><ele>123.8</ele><time>2026-04-04T12:06:15.165Z</time></trkpt><trkpt lat="42.0306717" lon="12.4119033"><ele>122.6</ele><time>2026-04-04T12:06:17.165Z</time></trkpt><trkpt lat="42.0305683" lon="12.4119"><ele>121.4</ele><time>2026-04-04T12:06:19.164Z</time></trkpt><trkpt lat="42.03045" lon="12.4119133"><ele>120.2</ele><time>2026-04-04T12:06:21.164Z</time></trkpt><trkpt lat="42.030355" lon="12.41192"><ele>119.0</ele><time>2026-04-04T12:06:23.165Z</time></trkpt><trkpt lat="42.03027" lon="12.41195"><ele>118.99999999999999</ele><time>2026-04-04T12:06:25.165Z</time></trkpt><trkpt lat="42.0301983" lon="12.41201"><ele>119.0</ele><time>2026-04-04T12:06:27.164Z</time></trkpt><trkpt lat="42.03016" lon="12.4120933"><ele>119.0</ele><time>2026-04-04T12:06:29.164Z</time></trkpt><trkpt lat="42.03012" lon="12.4121817"><ele>119.0</ele><time>2026-04-04T12:06:31.164Z</time></trkpt><trkpt lat="42.0300783" lon="12.4122717"><ele>118.99999999999999</ele><time>2026-04-04T12:06:33.164Z</time></trkpt><trkpt lat="42.030045" lon="12.4123583"><ele>119.0</ele><time>2026-04-04T12:06:35.165Z</time></trkpt><trkpt lat="42.0299883" lon="12.4124533"><ele>119.33333333333333</ele><time>2026-04-04T12:06:38.165Z</time></trkpt><trkpt lat="42.0299433" lon="12.4125267"><ele>119.66666666666666</ele><time>2026-04-04T12:06:40.165Z</time></trkpt><trkpt lat="42.0298783" lon="12.4125867"><ele>120.0</ele><time>2026-04-04T12:06:42.164Z</time></trkpt><trkpt lat="42.0297867" lon="12.4125867"><ele>120.33333333333334</ele><time>2026-04-04T12:06:44.164Z</time></trkpt><trkpt lat="42.0296633" lon="12.4125733"><ele>120.66666666666667</ele><time>2026-04-04T12:06:46.164Z</time></trkpt><trkpt lat="42.0295933" lon="12.412575"><ele>121.0</ele><time>2026-04-04T12:06:47.164Z</time></trkpt><trkpt lat="42.0295283" lon="12.4125717"><ele>121.0</ele><time>2026-04-04T12:06:48.164Z</time></trkpt><trkpt lat="42.0294033" lon="12.4125583"><ele>121.0</ele><time>2026-04-04T12:06:50.164Z</time></trkpt><trkpt lat="42.0292867" lon="12.4125717"><ele>121.0</ele><time>2026-04-04T12:06:52.164Z</time></trkpt><trkpt lat="42.029165" lon="12.4125783"><ele>121.0</ele><time>2026-04-04T12:06:54.164Z</time></trkpt><trkpt lat="42.0290533" lon="12.41257"><ele>121.33333333333334</ele><time>2026-04-04T12:06:56.164Z</time></trkpt><trkpt lat="42.0289517" lon="12.4125633"><ele>121.66666666666667</ele><time>2026-04-04T12:06:58.165Z</time></trkpt><trkpt lat="42.02886" lon="12.412565"><ele>122.0</ele><time>2026-04-04T12:07:00.165Z</time></trkpt><trkpt lat="42.0287867" lon="12.412615"><ele>122.33333333333334</ele><time>2026-04-04T12:07:02.165Z</time></trkpt><trkpt lat="42.0287567" lon="12.4127067"><ele>122.66666666666667</ele><time>2026-04-04T12:07:04.164Z</time></trkpt><trkpt lat="42.0287583" lon="12.4128183"><ele>123.0</ele><time>2026-04-04T12:07:06.164Z</time></trkpt><trkpt lat="42.02876" lon="12.4129283"><ele>123.00000000000001</ele><time>2026-04-04T12:07:08.165Z</time></trkpt><trkpt lat="42.0287567" lon="12.4130283"><ele>123.0</ele><time>2026-04-04T12:07:10.164Z</time></trkpt><trkpt lat="42.0287567" lon="12.4131217"><ele>123.00000000000001</ele><time>2026-04-04T12:07:12.164Z</time></trkpt><trkpt lat="42.0287683" lon="12.41322"><ele>123.00000000000001</ele><time>2026-04-04T12:07:14.164Z</time></trkpt><trkpt lat="42.02877" lon="12.41331"><ele>123.0</ele><time>2026-04-04T12:07:16.164Z</time></trkpt><trkpt lat="42.0287683" lon="12.4134117"><ele>123.00000000000001</ele><time>2026-04-04T12:07:18.165Z</time></trkpt><trkpt lat="42.02877" lon="12.41352"><ele>123.00000000000001</ele><time>2026-04-04T12:07:20.165Z</time></trkpt><trkpt lat="42.0287617" lon="12.4136383"><ele>123.0</ele><time>2026-04-04T12:07:22.165Z</time></trkpt><trkpt lat="42.0287267" lon="12.41378"><ele>123.00000000000001</ele><time>2026-04-04T12:07:24.165Z</time></trkpt><trkpt lat="42.028695" lon="12.413855"><ele>123.00000000000001</ele><time>2026-04-04T12:07:25.164Z</time></trkpt><trkpt lat="42.0286517" lon="12.4139167"><ele>123.0</ele><time>2026-04-04T12:07:26.165Z</time></trkpt><trkpt lat="42.0285467" lon="12.4139767"><ele>123.0</ele><time>2026-04-04T12:07:28.164Z</time></trkpt><trkpt lat="42.0284383" lon="12.4139383"><ele>122.83333333333333</ele><time>2026-04-04T12:07:30.164Z</time></trkpt><trkpt lat="42.0283617" lon="12.4138567"><ele>122.66666666666666</ele><time>2026-04-04T12:07:32.164Z</time></trkpt><trkpt lat="42.0282983" lon="12.4137767"><ele>122.5</ele><time>2026-04-04T12:07:34.164Z</time></trkpt><trkpt lat="42.0282333" lon="12.4137017"><ele>122.33333333333333</ele><time>2026-04-04T12:07:36.164Z</time></trkpt><trkpt lat="42.0281617" lon="12.4136283"><ele>122.16666666666666</ele><time>2026-04-04T12:07:38.164Z</time></trkpt><trkpt lat="42.0280983" lon="12.413555"><ele>122.0</ele><time>2026-04-04T12:07:40.164Z</time></trkpt><trkpt lat="42.0280333" lon="12.4134833"><ele>121.99999999999999</ele><time>2026-04-04T12:07:42.164Z</time></trkpt><trkpt lat="42.0279717" lon="12.413415"><ele>122.0</ele><time>2026-04-04T12:07:44.165Z</time></trkpt><trkpt lat="42.0279083" lon="12.4133533"><ele>121.99999999999999</ele><time>2026-04-04T12:07:46.165Z</time></trkpt><trkpt lat="42.02785" lon="12.4132883"><ele>121.99999999999999</ele><time>2026-04-04T12:07:48.165Z</time></trkpt><trkpt lat="42.0278017" lon="12.413225"><ele>122.0</ele><time>2026-04-04T12:07:50.164Z</time></trkpt><trkpt lat="42.0277483" lon="12.4131617"><ele>121.99999999999999</ele><time>2026-04-04T12:07:52.164Z</time></trkpt><trkpt lat="42.0277033" lon="12.4130967"><ele>121.99999999999999</ele><time>2026-04-04T12:07:54.165Z</time></trkpt><trkpt lat="42.027645" lon="12.4130383"><ele>122.16666666666666</ele><time>2026-04-04T12:07:56.164Z</time></trkpt><trkpt lat="42.0275917" lon="12.4129717"><ele>122.33333333333333</ele><time>2026-04-04T12:07:58.164Z</time></trkpt><trkpt lat="42.0275333" lon="12.412925"><ele>122.5</ele><time>2026-04-04T12:08:00.164Z</time></trkpt><trkpt lat="42.0274617" lon="12.4128867"><ele>122.66666666666666</ele><time>2026-04-04T12:08:02.164Z</time></trkpt><trkpt lat="42.0273867" lon="12.4128633"><ele>122.83333333333333</ele><time>2026-04-04T12:08:04.164Z</time></trkpt><trkpt lat="42.027255" lon="12.4128333"><ele>123.0</ele><time>2026-04-04T12:08:06.164Z</time></trkpt><trkpt lat="42.02718" lon="12.4128083"><ele>122.66666666666667</ele><time>2026-04-04T12:08:07.164Z</time></trkpt><trkpt lat="42.0271067" lon="12.412785"><ele>122.33333333333334</ele><time>2026-04-04T12:08:08.164Z</time></trkpt><trkpt lat="42.02703" lon="12.4127767"><ele>122.0</ele><time>2026-04-04T12:08:09.164Z</time></trkpt><trkpt lat="42.026955" lon="12.412775"><ele>121.66666666666667</ele><time>2026-04-04T12:08:10.164Z</time></trkpt><trkpt lat="42.0268817" lon="12.4127783"><ele>121.33333333333334</ele><time>2026-04-04T12:08:11.164Z</time></trkpt><trkpt lat="42.0268033" lon="12.41278"><ele>121.0</ele><time>2026-04-04T12:08:12.164Z</time></trkpt><trkpt lat="42.0267317" lon="12.4127767"><ele>121.00000000000001</ele><time>2026-04-04T12:08:13.164Z</time></trkpt><trkpt lat="42.0266683" lon="12.41278"><ele>121.0</ele><time>2026-04-04T12:08:14.164Z</time></trkpt><trkpt lat="42.0265417" lon="12.4127867"><ele>121.0</ele><time>2026-04-04T12:08:16.164Z</time></trkpt><trkpt lat="42.0264667" lon="12.4127967"><ele>121.0</ele><time>2026-04-04T12:08:17.164Z</time></trkpt><trkpt lat="42.0264" lon="12.4127917"><ele>121.00000000000001</ele><time>2026-04-04T12:08:18.165Z</time></trkpt><trkpt lat="42.0263333" lon="12.412785"><ele>121.0</ele><time>2026-04-04T12:08:19.164Z</time></trkpt><trkpt lat="42.0262167" lon="12.4127967"><ele>120.19999999999999</ele><time>2026-04-04T12:08:21.165Z</time></trkpt><trkpt lat="42.0261067" lon="12.4128533"><ele>119.39999999999999</ele><time>2026-04-04T12:08:23.164Z</time></trkpt><trkpt lat="42.026005" lon="12.4129167"><ele>118.6</ele><time>2026-04-04T12:08:25.164Z</time></trkpt><trkpt lat="42.0259017" lon="12.41298"><ele>117.8</ele><time>2026-04-04T12:08:27.165Z</time></trkpt><trkpt lat="42.0258117" lon="12.4130467"><ele>117.0</ele><time>2026-04-04T12:08:29.165Z</time></trkpt><trkpt lat="42.0257233" lon="12.4131033"><ele>117.0</ele><time>2026-04-04T12:08:31.164Z</time></trkpt><trkpt lat="42.0256467" lon="12.4131683"><ele>116.99999999999999</ele><time>2026-04-04T12:08:33.165Z</time></trkpt><trkpt lat="42.0255683" lon="12.4132283"><ele>116.99999999999999</ele><time>2026-04-04T12:08:35.164Z</time></trkpt><trkpt lat="42.02548" lon="12.41328"><ele>117.0</ele><time>2026-04-04T12:08:37.164Z</time></trkpt><trkpt lat="42.0253817" lon="12.413335"><ele>117.0</ele><time>2026-04-04T12:08:39.165Z</time></trkpt><trkpt lat="42.02528" lon="12.4133717"><ele>117.0</ele><time>2026-04-04T12:08:41.166Z</time></trkpt><trkpt lat="42.025175" lon="12.41343"><ele>116.99999999999999</ele><time>2026-04-04T12:08:43.165Z</time></trkpt><trkpt lat="42.025065" lon="12.4134767"><ele>116.99999999999999</ele><time>2026-04-04T12:08:45.166Z</time></trkpt><trkpt lat="42.0249517" lon="12.4135233"><ele>117.0</ele><time>2026-04-04T12:08:47.166Z</time></trkpt><trkpt lat="42.02489" lon="12.4135467"><ele>117.0</ele><time>2026-04-04T12:08:48.165Z</time></trkpt><trkpt lat="42.0247733" lon="12.413595"><ele>116.42857142857143</ele><time>2026-04-04T12:08:50.165Z</time></trkpt><trkpt lat="42.0247083" lon="12.41361"><ele>115.85714285714286</ele><time>2026-04-04T12:08:51.166Z</time></trkpt><trkpt lat="42.02464" lon="12.413625"><ele>115.28571428571429</ele><time>2026-04-04T12:08:52.165Z</time></trkpt><trkpt lat="42.024575" lon="12.4136467"><ele>114.71428571428572</ele><time>2026-04-04T12:08:53.166Z</time></trkpt><trkpt lat="42.02451" lon="12.4136767"><ele>114.14285714285714</ele><time>2026-04-04T12:08:54.165Z</time></trkpt><trkpt lat="42.0244433" lon="12.4137"><ele>113.57142857142858</ele><time>2026-04-04T12:08:55.166Z</time></trkpt><trkpt lat="42.0243783" lon="12.413725"><ele>113.0</ele><time>2026-04-04T12:08:56.165Z</time></trkpt><trkpt lat="42.024315" lon="12.413745"><ele>112.99999999999999</ele><time>2026-04-04T12:08:57.166Z</time></trkpt><trkpt lat="42.0242517" lon="12.4137717"><ele>113.0</ele><time>2026-04-04T12:08:58.165Z</time></trkpt><trkpt lat="42.0241883" lon="12.4137967"><ele>113.0</ele><time>2026-04-04T12:08:59.166Z</time></trkpt><trkpt lat="42.0240667" lon="12.4138567"><ele>113.0</ele><time>2026-04-04T12:09:01.166Z</time></trkpt><trkpt lat="42.0240017" lon="12.4138883"><ele>112.99999999999999</ele><time>2026-04-04T12:09:02.166Z</time></trkpt><trkpt lat="42.0239367" lon="12.4139167"><ele>113.0</ele><time>2026-04-04T12:09:03.165Z</time></trkpt><trkpt lat="42.0238183" lon="12.41394"><ele>114.25</ele><time>2026-04-04T12:09:05.166Z</time></trkpt><trkpt lat="42.023705" lon="12.41397"><ele>115.5</ele><time>2026-04-04T12:09:07.165Z</time></trkpt><trkpt lat="42.0235967" lon="12.4139933"><ele>116.75</ele><time>2026-04-04T12:09:09.166Z</time></trkpt><trkpt lat="42.0234883" lon="12.4140133"><ele>118.0</ele><time>2026-04-04T12:09:11.166Z</time></trkpt><trkpt lat="42.023375" lon="12.4140433"><ele>117.80000000000001</ele><time>2026-04-04T12:09:13.166Z</time></trkpt><trkpt lat="42.023265" lon="12.4140667"><ele>117.60000000000001</ele><time>2026-04-04T12:09:15.166Z</time></trkpt><trkpt lat="42.023155" lon="12.4140617"><ele>117.39999999999999</ele><time>2026-04-04T12:09:17.166Z</time></trkpt><trkpt lat="42.0230333" lon="12.4140583"><ele>117.19999999999999</ele><time>2026-04-04T12:09:19.165Z</time></trkpt><trkpt lat="42.02297" lon="12.4140617"><ele>117.0</ele><time>2026-04-04T12:09:20.165Z</time></trkpt><trkpt lat="42.0229033" lon="12.4140683"><ele>117.0</ele><time>2026-04-04T12:09:21.166Z</time></trkpt><trkpt lat="42.0228367" lon="12.414075"><ele>117.00000000000001</ele><time>2026-04-04T12:09:22.165Z</time></trkpt><trkpt lat="42.02277" lon="12.41408"><ele>117.0</ele><time>2026-04-04T12:09:23.165Z</time></trkpt><trkpt lat="42.022705" lon="12.4140883"><ele>117.0</ele><time>2026-04-04T12:09:24.166Z</time></trkpt><trkpt lat="42.0226383" lon="12.4140917"><ele>117.00000000000001</ele><time>2026-04-04T12:09:25.166Z</time></trkpt><trkpt lat="42.022575" lon="12.4140983"><ele>117.0</ele><time>2026-04-04T12:09:26.165Z</time></trkpt><trkpt lat="42.0224567" lon="12.414115"><ele>117.0</ele><time>2026-04-04T12:09:28.165Z</time></trkpt><trkpt lat="42.022345" lon="12.4141267"><ele>117.0</ele><time>2026-04-04T12:09:30.165Z</time></trkpt><trkpt lat="42.0222317" lon="12.414145"><ele>116.99999999999999</ele><time>2026-04-04T12:09:32.166Z</time></trkpt><trkpt lat="42.0221233" lon="12.4141667"><ele>116.99999999999999</ele><time>2026-04-04T12:09:34.166Z</time></trkpt><trkpt lat="42.022035" lon="12.414175"><ele>117.0</ele><time>2026-04-04T12:09:36.166Z</time></trkpt><trkpt lat="42.0219983" lon="12.414265"><ele>117.0</ele><time>2026-04-04T12:09:38.165Z</time></trkpt><trkpt lat="42.02201" lon="12.4144083"><ele>117.0</ele><time>2026-04-04T12:09:40.165Z</time></trkpt><trkpt lat="42.0220233" lon="12.4144983"><ele>117.0</ele><time>2026-04-04T12:09:41.165Z</time></trkpt><trkpt lat="42.02205" lon="12.4146017"><ele>117.0</ele><time>2026-04-04T12:09:42.166Z</time></trkpt><trkpt lat="42.0220667" lon="12.414705"><ele>117.0</ele><time>2026-04-04T12:09:43.165Z</time></trkpt><trkpt lat="42.0220817" lon="12.414805"><ele>117.0</ele><time>2026-04-04T12:09:44.165Z</time></trkpt><trkpt lat="42.0221083" lon="12.4149183"><ele>117.0</ele><time>2026-04-04T12:09:45.166Z</time></trkpt><trkpt lat="42.022135" lon="12.41504"><ele>116.0</ele><time>2026-04-04T12:09:46.166Z</time></trkpt><trkpt lat="42.022165" lon="12.4151667"><ele>114.99999999999999</ele><time>2026-04-04T12:09:47.166Z</time></trkpt><trkpt lat="42.0221917" lon="12.4152933"><ele>113.99999999999999</ele><time>2026-04-04T12:09:48.165Z</time></trkpt><trkpt lat="42.0222133" lon="12.4154267"><ele>113.0</ele><time>2026-04-04T12:09:49.165Z</time></trkpt><trkpt lat="42.022245" lon="12.4155683"><ele>112.0</ele><time>2026-04-04T12:09:50.166Z</time></trkpt><trkpt lat="42.0222733" lon="12.4156967"><ele>110.6</ele><time>2026-04-04T12:09:51.166Z</time></trkpt><trkpt lat="42.0223017" lon="12.4158217"><ele>109.19999999999999</ele><time>2026-04-04T12:09:52.165Z</time></trkpt><trkpt lat="42.0223217" lon="12.4159417"><ele>107.8</ele><time>2026-04-04T12:09:53.165Z</time></trkpt><trkpt lat="42.0223467" lon="12.4160717"><ele>106.4</ele><time>2026-04-04T12:09:54.166Z</time></trkpt><trkpt lat="42.022375" lon="12.4162067"><ele>105.0</ele><time>2026-04-04T12:09:55.165Z</time></trkpt><trkpt lat="42.0224117" lon="12.4163433"><ele>104.8</ele><time>2026-04-04T12:09:56.166Z</time></trkpt><trkpt lat="42.0224433" lon="12.416485"><ele>104.6</ele><time>2026-04-04T12:09:57.165Z</time></trkpt><trkpt lat="42.0224733" lon="12.416625"><ele>104.4</ele><time>2026-04-04T12:09:58.165Z</time></trkpt><trkpt lat="42.0224967" lon="12.416755"><ele>104.2</ele><time>2026-04-04T12:09:59.166Z</time></trkpt><trkpt lat="42.0225267" lon="12.416885"><ele>104.0</ele><time>2026-04-04T12:10:00.165Z</time></trkpt><trkpt lat="42.0225533" lon="12.416995"><ele>103.99999999999999</ele><time>2026-04-04T12:10:01.166Z</time></trkpt><trkpt lat="42.0225717" lon="12.4171"><ele>104.0</ele><time>2026-04-04T12:10:02.166Z</time></trkpt><trkpt lat="42.022575" lon="12.4172"><ele>104.0</ele><time>2026-04-04T12:10:03.165Z</time></trkpt><trkpt lat="42.02257" lon="12.4173183"><ele>104.0</ele><time>2026-04-04T12:10:04.165Z</time></trkpt><trkpt lat="42.0225467" lon="12.41741"><ele>103.99999999999999</ele><time>2026-04-04T12:10:05.165Z</time></trkpt><trkpt lat="42.0225117" lon="12.4174883"><ele>104.0</ele><time>2026-04-04T12:10:06.165Z</time></trkpt><trkpt lat="42.0224633" lon="12.4175583"><ele>103.99999999999999</ele><time>2026-04-04T12:10:07.165Z</time></trkpt><trkpt lat="42.0224167" lon="12.4176183"><ele>104.0</ele><time>2026-04-04T12:10:08.166Z</time></trkpt><trkpt lat="42.022335" lon="12.4177483"><ele>104.0</ele><time>2026-04-04T12:10:10.166Z</time></trkpt><trkpt lat="42.0222633" lon="12.417885"><ele>104.0</ele><time>2026-04-04T12:10:12.165Z</time></trkpt><trkpt lat="42.0222233" lon="12.4179583"><ele>103.99999999999999</ele><time>2026-04-04T12:10:13.165Z</time></trkpt><trkpt lat="42.0221917" lon="12.4180367"><ele>104.0</ele><time>2026-04-04T12:10:14.165Z</time></trkpt><trkpt lat="42.0221633" lon="12.41812"><ele>105.16666666666666</ele><time>2026-04-04T12:10:15.165Z</time></trkpt><trkpt lat="42.0221367" lon="12.4181983"><ele>106.33333333333333</ele><time>2026-04-04T12:10:16.166Z</time></trkpt><trkpt lat="42.0221133" lon="12.4182817"><ele>107.5</ele><time>2026-04-04T12:10:17.166Z</time></trkpt><trkpt lat="42.0220933" lon="12.4183667"><ele>108.66666666666666</ele><time>2026-04-04T12:10:18.165Z</time></trkpt><trkpt lat="42.02206" lon="12.4185167"><ele>109.83333333333333</ele><time>2026-04-04T12:10:20.166Z</time></trkpt><trkpt lat="42.0220267" lon="12.4186467"><ele>111.0</ele><time>2026-04-04T12:10:22.166Z</time></trkpt><trkpt lat="42.0219833" lon="12.4187617"><ele>111.6</ele><time>2026-04-04T12:10:24.165Z</time></trkpt><trkpt lat="42.0219383" lon="12.41887"><ele>112.19999999999999</ele><time>2026-04-04T12:10:26.166Z</time></trkpt><trkpt lat="42.0219083" lon="12.4189767"><ele>112.80000000000001</ele><time>2026-04-04T12:10:28.165Z</time></trkpt><trkpt lat="42.0218783" lon="12.41908"><ele>113.4</ele><time>2026-04-04T12:10:30.166Z</time></trkpt><trkpt lat="42.0218483" lon="12.4192083"><ele>114.0</ele><time>2026-04-04T12:10:32.165Z</time></trkpt><trkpt lat="42.0218317" lon="12.4193483"><ele>114.0</ele><time>2026-04-04T12:10:34.165Z</time></trkpt><trkpt lat="42.0218233" lon="12.4194667"><ele>114.0</ele><time>2026-04-04T12:10:36.166Z</time></trkpt><trkpt lat="42.0218133" lon="12.4195817"><ele>114.0</ele><time>2026-04-04T12:10:38.165Z</time></trkpt><trkpt lat="42.0217983" lon="12.4196683"><ele>114.0</ele><time>2026-04-04T12:10:40.165Z</time></trkpt><trkpt lat="42.0217917" lon="12.4197617"><ele>114.0</ele><time>2026-04-04T12:10:42.166Z</time></trkpt><trkpt lat="42.0217917" lon="12.4198533"><ele>114.0</ele><time>2026-04-04T12:10:44.165Z</time></trkpt><trkpt lat="42.021795" lon="12.4199533"><ele>113.0</ele><time>2026-04-04T12:10:46.165Z</time></trkpt><trkpt lat="42.0218033" lon="12.4200567"><ele>112.0</ele><time>2026-04-04T12:10:48.165Z</time></trkpt><trkpt lat="42.0218117" lon="12.4201883"><ele>111.0</ele><time>2026-04-04T12:10:50.166Z</time></trkpt><trkpt lat="42.0218417" lon="12.420325"><ele>110.0</ele><time>2026-04-04T12:10:52.166Z</time></trkpt><trkpt lat="42.0218667" lon="12.4204417"><ele>109.0</ele><time>2026-04-04T12:10:54.166Z</time></trkpt><trkpt lat="42.0218783" lon="12.420555"><ele>108.80000000000001</ele><time>2026-04-04T12:10:56.166Z</time></trkpt><trkpt lat="42.02188" lon="12.4206783"><ele>108.60000000000001</ele><time>2026-04-04T12:10:58.166Z</time></trkpt><trkpt lat="42.0218733" lon="12.420805"><ele>108.4</ele><time>2026-04-04T12:11:00.166Z</time></trkpt><trkpt lat="42.0218133" lon="12.4209217"><ele>108.2</ele><time>2026-04-04T12:11:02.165Z</time></trkpt><trkpt lat="42.021745" lon="12.42106"><ele>108.0</ele><time>2026-04-04T12:11:04.166Z</time></trkpt><trkpt lat="42.021675" lon="12.4212017"><ele>107.57142857142857</ele><time>2026-04-04T12:11:06.165Z</time></trkpt><trkpt lat="42.0216383" lon="12.4212733"><ele>107.14285714285714</ele><time>2026-04-04T12:11:07.165Z</time></trkpt><trkpt lat="42.0216017" lon="12.4213433"><ele>106.71428571428572</ele><time>2026-04-04T12:11:08.165Z</time></trkpt><trkpt lat="42.021565" lon="12.4214133"><ele>106.28571428571428</ele><time>2026-04-04T12:11:09.165Z</time></trkpt><trkpt lat="42.021525" lon="12.42148"><ele>105.85714285714286</ele><time>2026-04-04T12:11:10.166Z</time></trkpt><trkpt lat="42.0214817" lon="12.4215533"><ele>105.42857142857143</ele><time>2026-04-04T12:11:11.165Z</time></trkpt><trkpt lat="42.0214417" lon="12.421635"><ele>105.0</ele><time>2026-04-04T12:11:12.166Z</time></trkpt><trkpt lat="42.0213933" lon="12.42171"><ele>105.0</ele><time>2026-04-04T12:11:13.165Z</time></trkpt><trkpt lat="42.0213467" lon="12.4217867"><ele>105.0</ele><time>2026-04-04T12:11:14.165Z</time></trkpt><trkpt lat="42.0213017" lon="12.4218467"><ele>105.0</ele><time>2026-04-04T12:11:15.165Z</time></trkpt><trkpt lat="42.0212533" lon="12.4219117"><ele>105.0</ele><time>2026-04-04T12:11:16.165Z</time></trkpt><trkpt lat="42.0212067" lon="12.4219833"><ele>105.0</ele><time>2026-04-04T12:11:17.165Z</time></trkpt><trkpt lat="42.021165" lon="12.4220533"><ele>105.0</ele><time>2026-04-04T12:11:18.166Z</time></trkpt><trkpt lat="42.021125" lon="12.4221267"><ele>105.0</ele><time>2026-04-04T12:11:19.165Z</time></trkpt><trkpt lat="42.021085" lon="12.4222"><ele>105.4</ele><time>2026-04-04T12:11:20.166Z</time></trkpt><trkpt lat="42.021045" lon="12.4222683"><ele>105.8</ele><time>2026-04-04T12:11:21.165Z</time></trkpt><trkpt lat="42.0209683" lon="12.4223967"><ele>106.19999999999999</ele><time>2026-04-04T12:11:23.166Z</time></trkpt><trkpt lat="42.020895" lon="12.4225067"><ele>106.6</ele><time>2026-04-04T12:11:25.165Z</time></trkpt><trkpt lat="42.0208267" lon="12.4226433"><ele>107.0</ele><time>2026-04-04T12:11:27.165Z</time></trkpt><trkpt lat="42.0207533" lon="12.4227467"><ele>106.99999999999999</ele><time>2026-04-04T12:11:29.165Z</time></trkpt><trkpt lat="42.0206667" lon="12.4228667"><ele>107.0</ele><time>2026-04-04T12:11:31.166Z</time></trkpt><trkpt lat="42.0206267" lon="12.42294"><ele>107.0</ele><time>2026-04-04T12:11:32.166Z</time></trkpt><trkpt lat="42.0205933" lon="12.423015"><ele>107.0</ele><time>2026-04-04T12:11:33.165Z</time></trkpt><trkpt lat="42.0205567" lon="12.4230883"><ele>106.99999999999999</ele><time>2026-04-04T12:11:34.165Z</time></trkpt><trkpt lat="42.02052" lon="12.42316"><ele>107.0</ele><time>2026-04-04T12:11:35.165Z</time></trkpt><trkpt lat="42.02048" lon="12.4232267"><ele>106.66666666666666</ele><time>2026-04-04T12:11:36.165Z</time></trkpt><trkpt lat="42.0204017" lon="12.4233733"><ele>106.33333333333333</ele><time>2026-04-04T12:11:38.165Z</time></trkpt><trkpt lat="42.0203667" lon="12.42345"><ele>106.0</ele><time>2026-04-04T12:11:39.166Z</time></trkpt><trkpt lat="42.020325" lon="12.4235183"><ele>105.66666666666666</ele><time>2026-04-04T12:11:40.166Z</time></trkpt><trkpt lat="42.0202783" lon="12.423585"><ele>105.33333333333333</ele><time>2026-04-04T12:11:41.165Z</time></trkpt><trkpt lat="42.020245" lon="12.4236617"><ele>105.0</ele><time>2026-04-04T12:11:42.165Z</time></trkpt><trkpt lat="42.0202283" lon="12.4237667"><ele>105.0</ele><time>2026-04-04T12:11:44.165Z</time></trkpt><trkpt lat="42.0202533" lon="12.4238483"><ele>103.0</ele><time>2026-04-04T12:11:46.166Z</time></trkpt></trkseg></trk></gpx>